<?xml version="1.0" encoding="UTF-8" standalone="no" ?>
<gpx xmlns="http://www.topografix.com/GPX/1/1" xmlns:xsi="http://www.w3.org/2001/XMLSchema-instance" xsi:schemaLocation="http://www.topografix.com/GPX/1/1 http://www.topografix.com/GPX/1/1/gpx.xsd" version="1.1" creator="VisuGPX - https://www.visugpx.com">
  <metadata>
    <name>2017 CAUSSWATTS</name>
  </metadata>
  <trk>
    <name><![CDATA[causwatts 04-butinerie-...]]></name>
    <trkseg>
      <trkpt lat="44.49803" lon="3.9299">
        <ele>878</ele>
        <time>2017-02-27T14:47:32Z</time>
      </trkpt>
      <trkpt lat="44.49824" lon="3.93004">
        <ele>876</ele>
        <time>2017-02-27T14:49:32Z</time>
      </trkpt>
      <trkpt lat="44.49827" lon="3.93006">
        <ele>876</ele>
        <time>2017-02-27T14:51:32Z</time>
      </trkpt>
      <trkpt lat="44.49829" lon="3.93009">
        <ele>876</ele>
        <time>2017-02-27T14:53:32Z</time>
      </trkpt>
      <trkpt lat="44.49833" lon="3.93018">
        <ele>874</ele>
        <time>2017-02-27T14:55:32Z</time>
      </trkpt>
      <trkpt lat="44.49842" lon="3.93032">
        <ele>873</ele>
        <time>2017-02-27T14:57:32Z</time>
      </trkpt>
      <trkpt lat="44.49851" lon="3.93048">
        <ele>871</ele>
        <time>2017-02-27T14:59:32Z</time>
      </trkpt>
      <trkpt lat="44.49858" lon="3.93058">
        <ele>869</ele>
        <time>2017-02-27T15:01:32Z</time>
      </trkpt>
      <trkpt lat="44.49866" lon="3.93064">
        <ele>868</ele>
        <time>2017-02-27T15:03:32Z</time>
      </trkpt>
      <trkpt lat="44.49871" lon="3.93068">
        <ele>868</ele>
        <time>2017-02-27T15:05:32Z</time>
      </trkpt>
      <trkpt lat="44.49875" lon="3.93074">
        <ele>867</ele>
        <time>2017-02-27T15:07:32Z</time>
      </trkpt>
      <trkpt lat="44.49884" lon="3.93082">
        <ele>866</ele>
        <time>2017-02-27T15:09:32Z</time>
      </trkpt>
      <trkpt lat="44.49895" lon="3.93086">
        <ele>865</ele>
        <time>2017-02-27T15:11:32Z</time>
      </trkpt>
      <trkpt lat="44.4991" lon="3.93087">
        <ele>865</ele>
        <time>2017-02-27T15:13:32Z</time>
      </trkpt>
      <trkpt lat="44.49944" lon="3.93084">
        <ele>863</ele>
        <time>2017-02-27T15:15:32Z</time>
      </trkpt>
      <trkpt lat="44.49966" lon="3.93082">
        <ele>861</ele>
        <time>2017-02-27T15:17:32Z</time>
      </trkpt>
      <trkpt lat="44.49986" lon="3.93079">
        <ele>860</ele>
        <time>2017-02-27T15:19:32Z</time>
      </trkpt>
      <trkpt lat="44.49996" lon="3.93076">
        <ele>860</ele>
        <time>2017-02-27T15:21:32Z</time>
      </trkpt>
      <trkpt lat="44.50009" lon="3.93069">
        <ele>859</ele>
        <time>2017-02-27T15:23:32Z</time>
      </trkpt>
      <trkpt lat="44.5003" lon="3.93056">
        <ele>857</ele>
        <time>2017-02-27T15:25:32Z</time>
      </trkpt>
      <trkpt lat="44.50043" lon="3.93049">
        <ele>856</ele>
        <time>2017-02-27T15:27:32Z</time>
      </trkpt>
      <trkpt lat="44.50048" lon="3.93047">
        <ele>856</ele>
        <time>2017-02-27T15:29:32Z</time>
      </trkpt>
      <trkpt lat="44.50053" lon="3.93048">
        <ele>855</ele>
        <time>2017-02-27T15:31:32Z</time>
      </trkpt>
      <trkpt lat="44.50053" lon="3.93048">
        <ele>855</ele>
        <time>2017-02-27T15:33:32Z</time>
      </trkpt>
      <trkpt lat="44.50046" lon="3.93056">
        <ele>854</ele>
        <time>2017-02-27T15:35:32Z</time>
      </trkpt>
      <trkpt lat="44.50027" lon="3.93076">
        <ele>854</ele>
        <time>2017-02-27T15:37:32Z</time>
      </trkpt>
      <trkpt lat="44.50007" lon="3.93093">
        <ele>854</ele>
        <time>2017-02-27T15:39:32Z</time>
      </trkpt>
      <trkpt lat="44.49982" lon="3.93112">
        <ele>854</ele>
        <time>2017-02-27T15:41:32Z</time>
      </trkpt>
      <trkpt lat="44.49952" lon="3.93134">
        <ele>854</ele>
        <time>2017-02-27T15:43:32Z</time>
      </trkpt>
      <trkpt lat="44.49933" lon="3.93147">
        <ele>854</ele>
        <time>2017-02-27T15:45:32Z</time>
      </trkpt>
      <trkpt lat="44.49921" lon="3.93152">
        <ele>855</ele>
        <time>2017-02-27T15:47:32Z</time>
      </trkpt>
      <trkpt lat="44.4991" lon="3.93155">
        <ele>856</ele>
        <time>2017-02-27T15:49:32Z</time>
      </trkpt>
      <trkpt lat="44.499" lon="3.93156">
        <ele>856</ele>
        <time>2017-02-27T15:51:32Z</time>
      </trkpt>
      <trkpt lat="44.4989" lon="3.93154">
        <ele>856</ele>
        <time>2017-02-27T15:53:32Z</time>
      </trkpt>
      <trkpt lat="44.49881" lon="3.9315">
        <ele>856</ele>
        <time>2017-02-27T15:55:32Z</time>
      </trkpt>
      <trkpt lat="44.49872" lon="3.93143">
        <ele>857</ele>
        <time>2017-02-27T15:57:32Z</time>
      </trkpt>
      <trkpt lat="44.49863" lon="3.93134">
        <ele>858</ele>
        <time>2017-02-27T15:59:32Z</time>
      </trkpt>
      <trkpt lat="44.49853" lon="3.93118">
        <ele>861</ele>
        <time>2017-02-27T16:01:32Z</time>
      </trkpt>
      <trkpt lat="44.49842" lon="3.93105">
        <ele>862</ele>
        <time>2017-02-27T16:03:32Z</time>
      </trkpt>
      <trkpt lat="44.49832" lon="3.93098">
        <ele>863</ele>
        <time>2017-02-27T16:05:32Z</time>
      </trkpt>
      <trkpt lat="44.49819" lon="3.93095">
        <ele>863</ele>
        <time>2017-02-27T16:07:32Z</time>
      </trkpt>
      <trkpt lat="44.498" lon="3.93095">
        <ele>862</ele>
        <time>2017-02-27T16:09:32Z</time>
      </trkpt>
      <trkpt lat="44.49789" lon="3.93098">
        <ele>862</ele>
        <time>2017-02-27T16:11:32Z</time>
      </trkpt>
      <trkpt lat="44.49782" lon="3.93101">
        <ele>861</ele>
        <time>2017-02-27T16:13:32Z</time>
      </trkpt>
      <trkpt lat="44.49775" lon="3.93109">
        <ele>861</ele>
        <time>2017-02-27T16:15:32Z</time>
      </trkpt>
      <trkpt lat="44.49773" lon="3.93116">
        <ele>860</ele>
        <time>2017-02-27T16:17:32Z</time>
      </trkpt>
      <trkpt lat="44.49771" lon="3.93121">
        <ele>860</ele>
        <time>2017-02-27T16:19:32Z</time>
      </trkpt>
      <trkpt lat="44.4977" lon="3.93126">
        <ele>859</ele>
        <time>2017-02-27T16:21:32Z</time>
      </trkpt>
      <trkpt lat="44.4977" lon="3.9313">
        <ele>859</ele>
        <time>2017-02-27T16:23:32Z</time>
      </trkpt>
      <trkpt lat="44.49771" lon="3.93134">
        <ele>859</ele>
        <time>2017-02-27T16:25:32Z</time>
      </trkpt>
      <trkpt lat="44.49772" lon="3.9314">
        <ele>859</ele>
        <time>2017-02-27T16:27:32Z</time>
      </trkpt>
      <trkpt lat="44.49777" lon="3.93152">
        <ele>858</ele>
        <time>2017-02-27T16:29:32Z</time>
      </trkpt>
      <trkpt lat="44.49778" lon="3.93157">
        <ele>857</ele>
        <time>2017-02-27T16:31:32Z</time>
      </trkpt>
      <trkpt lat="44.49779" lon="3.93166">
        <ele>857</ele>
        <time>2017-02-27T16:33:32Z</time>
      </trkpt>
      <trkpt lat="44.49779" lon="3.93179">
        <ele>855</ele>
        <time>2017-02-27T16:35:32Z</time>
      </trkpt>
      <trkpt lat="44.49778" lon="3.93187">
        <ele>854</ele>
        <time>2017-02-27T16:37:32Z</time>
      </trkpt>
      <trkpt lat="44.49774" lon="3.93195">
        <ele>854</ele>
        <time>2017-02-27T16:39:32Z</time>
      </trkpt>
      <trkpt lat="44.49772" lon="3.93201">
        <ele>853</ele>
        <time>2017-02-27T16:41:32Z</time>
      </trkpt>
      <trkpt lat="44.49766" lon="3.93209">
        <ele>852</ele>
        <time>2017-02-27T16:43:32Z</time>
      </trkpt>
      <trkpt lat="44.49766" lon="3.93209">
        <ele>852</ele>
        <time>2017-02-27T16:45:32Z</time>
      </trkpt>
      <trkpt lat="44.49771" lon="3.93223">
        <ele>851</ele>
        <time>2017-02-27T16:47:32Z</time>
      </trkpt>
      <trkpt lat="44.49777" lon="3.93229">
        <ele>850</ele>
        <time>2017-02-27T16:49:32Z</time>
      </trkpt>
      <trkpt lat="44.49789" lon="3.93238">
        <ele>848</ele>
        <time>2017-02-27T16:51:32Z</time>
      </trkpt>
      <trkpt lat="44.49794" lon="3.93242">
        <ele>848</ele>
        <time>2017-02-27T16:53:32Z</time>
      </trkpt>
      <trkpt lat="44.49798" lon="3.93247">
        <ele>847</ele>
        <time>2017-02-27T16:55:32Z</time>
      </trkpt>
      <trkpt lat="44.49802" lon="3.9325">
        <ele>847</ele>
        <time>2017-02-27T16:57:32Z</time>
      </trkpt>
      <trkpt lat="44.49804" lon="3.93256">
        <ele>846</ele>
        <time>2017-02-27T16:59:32Z</time>
      </trkpt>
      <trkpt lat="44.49805" lon="3.93261">
        <ele>844</ele>
        <time>2017-02-27T17:01:32Z</time>
      </trkpt>
      <trkpt lat="44.49805" lon="3.93266">
        <ele>843</ele>
        <time>2017-02-27T17:03:32Z</time>
      </trkpt>
      <trkpt lat="44.49806" lon="3.93272">
        <ele>842</ele>
        <time>2017-02-27T17:05:32Z</time>
      </trkpt>
      <trkpt lat="44.49807" lon="3.93276">
        <ele>841</ele>
        <time>2017-02-27T17:07:32Z</time>
      </trkpt>
      <trkpt lat="44.4981" lon="3.93282">
        <ele>840</ele>
        <time>2017-02-27T17:09:32Z</time>
      </trkpt>
      <trkpt lat="44.49812" lon="3.93284">
        <ele>840</ele>
        <time>2017-02-27T17:11:32Z</time>
      </trkpt>
      <trkpt lat="44.49815" lon="3.93285">
        <ele>839</ele>
        <time>2017-02-27T17:13:32Z</time>
      </trkpt>
      <trkpt lat="44.49818" lon="3.93285">
        <ele>839</ele>
        <time>2017-02-27T17:15:32Z</time>
      </trkpt>
      <trkpt lat="44.4982" lon="3.93284">
        <ele>839</ele>
        <time>2017-02-27T17:17:32Z</time>
      </trkpt>
      <trkpt lat="44.49825" lon="3.9328">
        <ele>840</ele>
        <time>2017-02-27T17:19:32Z</time>
      </trkpt>
      <trkpt lat="44.49827" lon="3.93277">
        <ele>840</ele>
        <time>2017-02-27T17:21:32Z</time>
      </trkpt>
      <trkpt lat="44.49829" lon="3.93272">
        <ele>841</ele>
        <time>2017-02-27T17:23:32Z</time>
      </trkpt>
      <trkpt lat="44.4983" lon="3.93263">
        <ele>843</ele>
        <time>2017-02-27T17:25:32Z</time>
      </trkpt>
      <trkpt lat="44.4983" lon="3.9325">
        <ele>846</ele>
        <time>2017-02-27T17:27:32Z</time>
      </trkpt>
      <trkpt lat="44.49831" lon="3.93241">
        <ele>847</ele>
        <time>2017-02-27T17:29:32Z</time>
      </trkpt>
      <trkpt lat="44.49835" lon="3.93232">
        <ele>848</ele>
        <time>2017-02-27T17:31:32Z</time>
      </trkpt>
      <trkpt lat="44.49841" lon="3.93228">
        <ele>847</ele>
        <time>2017-02-27T17:33:32Z</time>
      </trkpt>
      <trkpt lat="44.49846" lon="3.93228">
        <ele>847</ele>
        <time>2017-02-27T17:35:32Z</time>
      </trkpt>
      <trkpt lat="44.49856" lon="3.93232">
        <ele>846</ele>
        <time>2017-02-27T17:37:32Z</time>
      </trkpt>
      <trkpt lat="44.4987" lon="3.93245">
        <ele>842</ele>
        <time>2017-02-27T17:39:32Z</time>
      </trkpt>
      <trkpt lat="44.49881" lon="3.93259">
        <ele>838</ele>
        <time>2017-02-27T17:41:32Z</time>
      </trkpt>
      <trkpt lat="44.49886" lon="3.93268">
        <ele>835</ele>
        <time>2017-02-27T17:43:32Z</time>
      </trkpt>
      <trkpt lat="44.49891" lon="3.93273">
        <ele>833</ele>
        <time>2017-02-27T17:45:32Z</time>
      </trkpt>
      <trkpt lat="44.49895" lon="3.93274">
        <ele>832</ele>
        <time>2017-02-27T17:47:32Z</time>
      </trkpt>
      <trkpt lat="44.49898" lon="3.93274">
        <ele>831</ele>
        <time>2017-02-27T17:49:32Z</time>
      </trkpt>
      <trkpt lat="44.49901" lon="3.93273">
        <ele>831</ele>
        <time>2017-02-27T17:51:32Z</time>
      </trkpt>
      <trkpt lat="44.49913" lon="3.9327">
        <ele>831</ele>
        <time>2017-02-27T17:53:32Z</time>
      </trkpt>
      <trkpt lat="44.49925" lon="3.93267">
        <ele>830</ele>
        <time>2017-02-27T17:55:32Z</time>
      </trkpt>
      <trkpt lat="44.49934" lon="3.93267">
        <ele>828</ele>
        <time>2017-02-27T17:57:32Z</time>
      </trkpt>
      <trkpt lat="44.49945" lon="3.93267">
        <ele>826</ele>
        <time>2017-02-27T17:59:32Z</time>
      </trkpt>
      <trkpt lat="44.49962" lon="3.93262">
        <ele>825</ele>
        <time>2017-02-27T18:01:32Z</time>
      </trkpt>
      <trkpt lat="44.49976" lon="3.93259">
        <ele>823</ele>
        <time>2017-02-27T18:03:32Z</time>
      </trkpt>
      <trkpt lat="44.49989" lon="3.93258">
        <ele>821</ele>
        <time>2017-02-27T18:05:32Z</time>
      </trkpt>
      <trkpt lat="44.49998" lon="3.9326">
        <ele>819</ele>
        <time>2017-02-27T18:07:32Z</time>
      </trkpt>
      <trkpt lat="44.50005" lon="3.93262">
        <ele>817</ele>
        <time>2017-02-27T18:09:32Z</time>
      </trkpt>
      <trkpt lat="44.50013" lon="3.93259">
        <ele>817</ele>
        <time>2017-02-27T18:11:32Z</time>
      </trkpt>
      <trkpt lat="44.50025" lon="3.93253">
        <ele>815</ele>
        <time>2017-02-27T18:13:32Z</time>
      </trkpt>
      <trkpt lat="44.50042" lon="3.93243">
        <ele>814</ele>
        <time>2017-02-27T18:15:32Z</time>
      </trkpt>
      <trkpt lat="44.50045" lon="3.9324">
        <ele>814</ele>
        <time>2017-02-27T18:17:32Z</time>
      </trkpt>
      <trkpt lat="44.50049" lon="3.93236">
        <ele>814</ele>
        <time>2017-02-27T18:19:32Z</time>
      </trkpt>
      <trkpt lat="44.50051" lon="3.93233">
        <ele>814</ele>
        <time>2017-02-27T18:21:32Z</time>
      </trkpt>
      <trkpt lat="44.50052" lon="3.93227">
        <ele>815</ele>
        <time>2017-02-27T18:23:32Z</time>
      </trkpt>
      <trkpt lat="44.50052" lon="3.93218">
        <ele>817</ele>
        <time>2017-02-27T18:25:32Z</time>
      </trkpt>
      <trkpt lat="44.50053" lon="3.9321">
        <ele>818</ele>
        <time>2017-02-27T18:27:32Z</time>
      </trkpt>
      <trkpt lat="44.50056" lon="3.93205">
        <ele>819</ele>
        <time>2017-02-27T18:29:32Z</time>
      </trkpt>
      <trkpt lat="44.50059" lon="3.93203">
        <ele>818</ele>
        <time>2017-02-27T18:31:32Z</time>
      </trkpt>
      <trkpt lat="44.50068" lon="3.93199">
        <ele>817</ele>
        <time>2017-02-27T18:33:32Z</time>
      </trkpt>
      <trkpt lat="44.50075" lon="3.93197">
        <ele>816</ele>
        <time>2017-02-27T18:35:32Z</time>
      </trkpt>
      <trkpt lat="44.50082" lon="3.93191">
        <ele>816</ele>
        <time>2017-02-27T18:37:32Z</time>
      </trkpt>
      <trkpt lat="44.5009" lon="3.93184">
        <ele>816</ele>
        <time>2017-02-27T18:39:32Z</time>
      </trkpt>
      <trkpt lat="44.50094" lon="3.9318">
        <ele>816</ele>
        <time>2017-02-27T18:41:32Z</time>
      </trkpt>
      <trkpt lat="44.50099" lon="3.93177">
        <ele>815</ele>
        <time>2017-02-27T18:43:32Z</time>
      </trkpt>
      <trkpt lat="44.50103" lon="3.93176">
        <ele>815</ele>
        <time>2017-02-27T18:45:32Z</time>
      </trkpt>
      <trkpt lat="44.50115" lon="3.93168">
        <ele>813</ele>
        <time>2017-02-27T18:47:32Z</time>
      </trkpt>
      <trkpt lat="44.50123" lon="3.9316">
        <ele>813</ele>
        <time>2017-02-27T18:49:32Z</time>
      </trkpt>
      <trkpt lat="44.50126" lon="3.9316">
        <ele>813</ele>
        <time>2017-02-27T18:51:32Z</time>
      </trkpt>
      <trkpt lat="44.50129" lon="3.93161">
        <ele>812</ele>
        <time>2017-02-27T18:53:32Z</time>
      </trkpt>
      <trkpt lat="44.50129" lon="3.93164">
        <ele>811</ele>
        <time>2017-02-27T18:55:32Z</time>
      </trkpt>
      <trkpt lat="44.50121" lon="3.93178">
        <ele>812</ele>
        <time>2017-02-27T18:57:32Z</time>
      </trkpt>
      <trkpt lat="44.50115" lon="3.93187">
        <ele>812</ele>
        <time>2017-02-27T18:59:32Z</time>
      </trkpt>
      <trkpt lat="44.50114" lon="3.93189">
        <ele>812</ele>
        <time>2017-02-27T19:01:32Z</time>
      </trkpt>
      <trkpt lat="44.50113" lon="3.93192">
        <ele>812</ele>
        <time>2017-02-27T19:03:32Z</time>
      </trkpt>
      <trkpt lat="44.50114" lon="3.93194">
        <ele>811</ele>
        <time>2017-02-27T19:05:32Z</time>
      </trkpt>
      <trkpt lat="44.50116" lon="3.93196">
        <ele>811</ele>
        <time>2017-02-27T19:07:32Z</time>
      </trkpt>
      <trkpt lat="44.50119" lon="3.93198">
        <ele>811</ele>
        <time>2017-02-27T19:09:32Z</time>
      </trkpt>
      <trkpt lat="44.50124" lon="3.93201">
        <ele>810</ele>
        <time>2017-02-27T19:11:32Z</time>
      </trkpt>
      <trkpt lat="44.5013" lon="3.93203">
        <ele>809</ele>
        <time>2017-02-27T19:13:32Z</time>
      </trkpt>
      <trkpt lat="44.50132" lon="3.932">
        <ele>809</ele>
        <time>2017-02-27T19:15:32Z</time>
      </trkpt>
      <trkpt lat="44.50136" lon="3.93193">
        <ele>809</ele>
        <time>2017-02-27T19:17:32Z</time>
      </trkpt>
      <trkpt lat="44.50147" lon="3.93171">
        <ele>807</ele>
        <time>2017-02-27T19:19:32Z</time>
      </trkpt>
      <trkpt lat="44.50156" lon="3.93157">
        <ele>807</ele>
        <time>2017-02-27T19:21:32Z</time>
      </trkpt>
      <trkpt lat="44.50159" lon="3.93156">
        <ele>806</ele>
        <time>2017-02-27T19:23:32Z</time>
      </trkpt>
      <trkpt lat="44.50161" lon="3.93157">
        <ele>806</ele>
        <time>2017-02-27T19:25:32Z</time>
      </trkpt>
      <trkpt lat="44.50168" lon="3.93164">
        <ele>804</ele>
        <time>2017-02-27T19:27:32Z</time>
      </trkpt>
      <trkpt lat="44.50175" lon="3.93171">
        <ele>805</ele>
        <time>2017-02-27T19:29:32Z</time>
      </trkpt>
      <trkpt lat="44.50184" lon="3.93181">
        <ele>807</ele>
        <time>2017-02-27T19:31:32Z</time>
      </trkpt>
      <trkpt lat="44.50188" lon="3.93187">
        <ele>808</ele>
        <time>2017-02-27T19:33:32Z</time>
      </trkpt>
      <trkpt lat="44.50188" lon="3.93193">
        <ele>809</ele>
        <time>2017-02-27T19:35:32Z</time>
      </trkpt>
      <trkpt lat="44.50188" lon="3.93202">
        <ele>810</ele>
        <time>2017-02-27T19:37:32Z</time>
      </trkpt>
      <trkpt lat="44.50188" lon="3.9321">
        <ele>811</ele>
        <time>2017-02-27T19:39:32Z</time>
      </trkpt>
      <trkpt lat="44.50188" lon="3.93212">
        <ele>811</ele>
        <time>2017-02-27T19:41:32Z</time>
      </trkpt>
      <trkpt lat="44.50188" lon="3.93212">
        <ele>811</ele>
        <time>2017-02-27T19:43:32Z</time>
      </trkpt>
      <trkpt lat="44.5019" lon="3.93212">
        <ele>811</ele>
        <time>2017-02-27T19:45:32Z</time>
      </trkpt>
      <trkpt lat="44.50193" lon="3.9321">
        <ele>811</ele>
        <time>2017-02-27T19:47:32Z</time>
      </trkpt>
      <trkpt lat="44.50196" lon="3.93207">
        <ele>812</ele>
        <time>2017-02-27T19:49:32Z</time>
      </trkpt>
      <trkpt lat="44.50198" lon="3.93205">
        <ele>812</ele>
        <time>2017-02-27T19:51:32Z</time>
      </trkpt>
      <trkpt lat="44.502" lon="3.93208">
        <ele>812</ele>
        <time>2017-02-27T19:53:32Z</time>
      </trkpt>
      <trkpt lat="44.50201" lon="3.93213">
        <ele>813</ele>
        <time>2017-02-27T19:55:32Z</time>
      </trkpt>
      <trkpt lat="44.50204" lon="3.93216">
        <ele>814</ele>
        <time>2017-02-27T19:57:32Z</time>
      </trkpt>
      <trkpt lat="44.50208" lon="3.93219">
        <ele>815</ele>
        <time>2017-02-27T19:59:32Z</time>
      </trkpt>
      <trkpt lat="44.50211" lon="3.93223">
        <ele>816</ele>
        <time>2017-02-27T20:01:32Z</time>
      </trkpt>
      <trkpt lat="44.50214" lon="3.93224">
        <ele>817</ele>
        <time>2017-02-27T20:03:32Z</time>
      </trkpt>
      <trkpt lat="44.50217" lon="3.93224">
        <ele>817</ele>
        <time>2017-02-27T20:05:32Z</time>
      </trkpt>
      <trkpt lat="44.5022" lon="3.93224">
        <ele>818</ele>
        <time>2017-02-27T20:07:32Z</time>
      </trkpt>
      <trkpt lat="44.50223" lon="3.93224">
        <ele>818</ele>
        <time>2017-02-27T20:09:32Z</time>
      </trkpt>
      <trkpt lat="44.50224" lon="3.93226">
        <ele>819</ele>
        <time>2017-02-27T20:11:32Z</time>
      </trkpt>
      <trkpt lat="44.50226" lon="3.93229">
        <ele>819</ele>
        <time>2017-02-27T20:13:32Z</time>
      </trkpt>
      <trkpt lat="44.50228" lon="3.93232">
        <ele>820</ele>
        <time>2017-02-27T20:15:32Z</time>
      </trkpt>
      <trkpt lat="44.50229" lon="3.93238">
        <ele>821</ele>
        <time>2017-02-27T20:17:32Z</time>
      </trkpt>
      <trkpt lat="44.50231" lon="3.93239">
        <ele>822</ele>
        <time>2017-02-27T20:19:32Z</time>
      </trkpt>
      <trkpt lat="44.50233" lon="3.9324">
        <ele>822</ele>
        <time>2017-02-27T20:21:32Z</time>
      </trkpt>
      <trkpt lat="44.50233" lon="3.93238">
        <ele>822</ele>
        <time>2017-02-27T20:23:32Z</time>
      </trkpt>
      <trkpt lat="44.50234" lon="3.93236">
        <ele>822</ele>
        <time>2017-02-27T20:25:32Z</time>
      </trkpt>
      <trkpt lat="44.50236" lon="3.93236">
        <ele>822</ele>
        <time>2017-02-27T20:27:32Z</time>
      </trkpt>
      <trkpt lat="44.50239" lon="3.93237">
        <ele>823</ele>
        <time>2017-02-27T20:29:32Z</time>
      </trkpt>
      <trkpt lat="44.50241" lon="3.93239">
        <ele>824</ele>
        <time>2017-02-27T20:31:32Z</time>
      </trkpt>
      <trkpt lat="44.50245" lon="3.93239">
        <ele>824</ele>
        <time>2017-02-27T20:33:32Z</time>
      </trkpt>
      <trkpt lat="44.5025" lon="3.93239">
        <ele>825</ele>
        <time>2017-02-27T20:35:32Z</time>
      </trkpt>
      <trkpt lat="44.50256" lon="3.93242">
        <ele>826</ele>
        <time>2017-02-27T20:37:32Z</time>
      </trkpt>
      <trkpt lat="44.50263" lon="3.9324">
        <ele>827</ele>
        <time>2017-02-27T20:39:32Z</time>
      </trkpt>
      <trkpt lat="44.50298" lon="3.9323">
        <ele>829</ele>
        <time>2017-02-27T20:41:32Z</time>
      </trkpt>
      <trkpt lat="44.50358" lon="3.9323">
        <ele>832</ele>
        <time>2017-02-27T20:43:32Z</time>
      </trkpt>
      <trkpt lat="44.50398" lon="3.93247">
        <ele>834</ele>
        <time>2017-02-27T20:45:32Z</time>
      </trkpt>
      <trkpt lat="44.50441" lon="3.93268">
        <ele>841</ele>
        <time>2017-02-27T20:47:32Z</time>
      </trkpt>
      <trkpt lat="44.5047" lon="3.93268">
        <ele>844</ele>
        <time>2017-02-27T20:49:32Z</time>
      </trkpt>
      <trkpt lat="44.50476" lon="3.93269">
        <ele>844</ele>
        <time>2017-02-27T20:51:32Z</time>
      </trkpt>
      <trkpt lat="44.50487" lon="3.93258">
        <ele>844</ele>
        <time>2017-02-27T20:53:32Z</time>
      </trkpt>
      <trkpt lat="44.5049" lon="3.93236">
        <ele>842</ele>
        <time>2017-02-27T20:55:32Z</time>
      </trkpt>
      <trkpt lat="44.50492" lon="3.93219">
        <ele>840</ele>
        <time>2017-02-27T20:57:32Z</time>
      </trkpt>
      <trkpt lat="44.50491" lon="3.9321">
        <ele>839</ele>
        <time>2017-02-27T20:59:32Z</time>
      </trkpt>
      <trkpt lat="44.50492" lon="3.93197">
        <ele>838</ele>
        <time>2017-02-27T21:01:32Z</time>
      </trkpt>
      <trkpt lat="44.50495" lon="3.93186">
        <ele>837</ele>
        <time>2017-02-27T21:03:32Z</time>
      </trkpt>
      <trkpt lat="44.50498" lon="3.93181">
        <ele>837</ele>
        <time>2017-02-27T21:05:32Z</time>
      </trkpt>
      <trkpt lat="44.50503" lon="3.93176">
        <ele>837</ele>
        <time>2017-02-27T21:07:32Z</time>
      </trkpt>
      <trkpt lat="44.50515" lon="3.93168">
        <ele>841</ele>
        <time>2017-02-27T21:09:32Z</time>
      </trkpt>
      <trkpt lat="44.50538" lon="3.93151">
        <ele>848</ele>
        <time>2017-02-27T21:11:32Z</time>
      </trkpt>
      <trkpt lat="44.5056" lon="3.93133">
        <ele>853</ele>
        <time>2017-02-27T21:13:32Z</time>
      </trkpt>
      <trkpt lat="44.50584" lon="3.93114">
        <ele>855</ele>
        <time>2017-02-27T21:15:32Z</time>
      </trkpt>
      <trkpt lat="44.50607" lon="3.93101">
        <ele>858</ele>
        <time>2017-02-27T21:17:32Z</time>
      </trkpt>
      <trkpt lat="44.50617" lon="3.93097">
        <ele>859</ele>
        <time>2017-02-27T21:19:32Z</time>
      </trkpt>
      <trkpt lat="44.50626" lon="3.93094">
        <ele>860</ele>
        <time>2017-02-27T21:21:32Z</time>
      </trkpt>
      <trkpt lat="44.50645" lon="3.93084">
        <ele>862</ele>
        <time>2017-02-27T21:23:32Z</time>
      </trkpt>
      <trkpt lat="44.50673" lon="3.93065">
        <ele>865</ele>
        <time>2017-02-27T21:25:32Z</time>
      </trkpt>
      <trkpt lat="44.50689" lon="3.93052">
        <ele>865</ele>
        <time>2017-02-27T21:27:32Z</time>
      </trkpt>
      <trkpt lat="44.50706" lon="3.93043">
        <ele>866</ele>
        <time>2017-02-27T21:29:32Z</time>
      </trkpt>
      <trkpt lat="44.50723" lon="3.9304">
        <ele>867</ele>
        <time>2017-02-27T21:31:32Z</time>
      </trkpt>
      <trkpt lat="44.50742" lon="3.93041">
        <ele>870</ele>
        <time>2017-02-27T21:33:32Z</time>
      </trkpt>
      <trkpt lat="44.50758" lon="3.9304">
        <ele>870</ele>
        <time>2017-02-27T21:35:32Z</time>
      </trkpt>
      <trkpt lat="44.50773" lon="3.93035">
        <ele>870</ele>
        <time>2017-02-27T21:37:32Z</time>
      </trkpt>
      <trkpt lat="44.50799" lon="3.93021">
        <ele>869</ele>
        <time>2017-02-27T21:39:32Z</time>
      </trkpt>
      <trkpt lat="44.50837" lon="3.93">
        <ele>868</ele>
        <time>2017-02-27T21:41:32Z</time>
      </trkpt>
      <trkpt lat="44.50879" lon="3.9298">
        <ele>864</ele>
        <time>2017-02-27T21:43:32Z</time>
      </trkpt>
      <trkpt lat="44.50903" lon="3.92973">
        <ele>862</ele>
        <time>2017-02-27T21:45:32Z</time>
      </trkpt>
      <trkpt lat="44.50922" lon="3.92969">
        <ele>862</ele>
        <time>2017-02-27T21:47:32Z</time>
      </trkpt>
      <trkpt lat="44.50922" lon="3.92969">
        <ele>862</ele>
        <time>2017-02-27T21:49:32Z</time>
      </trkpt>
      <trkpt lat="44.50923" lon="3.92964">
        <ele>861</ele>
        <time>2017-02-27T21:51:32Z</time>
      </trkpt>
      <trkpt lat="44.50925" lon="3.92955">
        <ele>860</ele>
        <time>2017-02-27T21:53:32Z</time>
      </trkpt>
      <trkpt lat="44.50929" lon="3.92943">
        <ele>860</ele>
        <time>2017-02-27T21:55:32Z</time>
      </trkpt>
      <trkpt lat="44.50931" lon="3.92938">
        <ele>859</ele>
        <time>2017-02-27T21:57:32Z</time>
      </trkpt>
      <trkpt lat="44.50932" lon="3.92937">
        <ele>859</ele>
        <time>2017-02-27T21:59:32Z</time>
      </trkpt>
      <trkpt lat="44.50934" lon="3.92933">
        <ele>859</ele>
        <time>2017-02-27T22:01:32Z</time>
      </trkpt>
      <trkpt lat="44.50935" lon="3.9293">
        <ele>859</ele>
        <time>2017-02-27T22:03:32Z</time>
      </trkpt>
      <trkpt lat="44.50936" lon="3.92926">
        <ele>859</ele>
        <time>2017-02-27T22:05:32Z</time>
      </trkpt>
      <trkpt lat="44.50936" lon="3.92919">
        <ele>858</ele>
        <time>2017-02-27T22:07:32Z</time>
      </trkpt>
      <trkpt lat="44.50935" lon="3.92911">
        <ele>858</ele>
        <time>2017-02-27T22:09:32Z</time>
      </trkpt>
      <trkpt lat="44.50934" lon="3.92899">
        <ele>858</ele>
        <time>2017-02-27T22:11:32Z</time>
      </trkpt>
      <trkpt lat="44.50936" lon="3.92887">
        <ele>858</ele>
        <time>2017-02-27T22:13:32Z</time>
      </trkpt>
      <trkpt lat="44.50941" lon="3.92873">
        <ele>859</ele>
        <time>2017-02-27T22:15:32Z</time>
      </trkpt>
      <trkpt lat="44.50946" lon="3.9286">
        <ele>859</ele>
        <time>2017-02-27T22:17:32Z</time>
      </trkpt>
      <trkpt lat="44.50954" lon="3.92843">
        <ele>860</ele>
        <time>2017-02-27T22:19:32Z</time>
      </trkpt>
      <trkpt lat="44.50958" lon="3.92834">
        <ele>860</ele>
        <time>2017-02-27T22:21:32Z</time>
      </trkpt>
      <trkpt lat="44.5096" lon="3.92826">
        <ele>861</ele>
        <time>2017-02-27T22:23:32Z</time>
      </trkpt>
      <trkpt lat="44.5096" lon="3.92821">
        <ele>861</ele>
        <time>2017-02-27T22:25:32Z</time>
      </trkpt>
      <trkpt lat="44.5096" lon="3.92814">
        <ele>861</ele>
        <time>2017-02-27T22:27:32Z</time>
      </trkpt>
      <trkpt lat="44.5096" lon="3.92807">
        <ele>862</ele>
        <time>2017-02-27T22:29:32Z</time>
      </trkpt>
      <trkpt lat="44.50963" lon="3.92802">
        <ele>862</ele>
        <time>2017-02-27T22:31:32Z</time>
      </trkpt>
      <trkpt lat="44.5097" lon="3.92792">
        <ele>863</ele>
        <time>2017-02-27T22:33:32Z</time>
      </trkpt>
      <trkpt lat="44.50981" lon="3.92779">
        <ele>863</ele>
        <time>2017-02-27T22:35:32Z</time>
      </trkpt>
      <trkpt lat="44.50987" lon="3.9277">
        <ele>863</ele>
        <time>2017-02-27T22:37:32Z</time>
      </trkpt>
      <trkpt lat="44.50995" lon="3.92749">
        <ele>863</ele>
        <time>2017-02-27T22:39:32Z</time>
      </trkpt>
      <trkpt lat="44.51006" lon="3.92723">
        <ele>865</ele>
        <time>2017-02-27T22:41:32Z</time>
      </trkpt>
      <trkpt lat="44.51014" lon="3.92708">
        <ele>867</ele>
        <time>2017-02-27T22:43:32Z</time>
      </trkpt>
      <trkpt lat="44.51022" lon="3.92696">
        <ele>868</ele>
        <time>2017-02-27T22:45:32Z</time>
      </trkpt>
      <trkpt lat="44.51028" lon="3.92686">
        <ele>868</ele>
        <time>2017-02-27T22:47:32Z</time>
      </trkpt>
      <trkpt lat="44.51035" lon="3.92672">
        <ele>869</ele>
        <time>2017-02-27T22:49:32Z</time>
      </trkpt>
      <trkpt lat="44.5104" lon="3.92662">
        <ele>870</ele>
        <time>2017-02-27T22:51:32Z</time>
      </trkpt>
      <trkpt lat="44.51042" lon="3.92653">
        <ele>870</ele>
        <time>2017-02-27T22:53:32Z</time>
      </trkpt>
      <trkpt lat="44.51044" lon="3.92644">
        <ele>871</ele>
        <time>2017-02-27T22:55:32Z</time>
      </trkpt>
      <trkpt lat="44.5105" lon="3.92627">
        <ele>873</ele>
        <time>2017-02-27T22:57:32Z</time>
      </trkpt>
      <trkpt lat="44.51056" lon="3.92599">
        <ele>876</ele>
        <time>2017-02-27T22:59:32Z</time>
      </trkpt>
      <trkpt lat="44.51063" lon="3.92572">
        <ele>878</ele>
        <time>2017-02-27T23:01:32Z</time>
      </trkpt>
      <trkpt lat="44.51067" lon="3.92553">
        <ele>880</ele>
        <time>2017-02-27T23:03:32Z</time>
      </trkpt>
      <trkpt lat="44.51071" lon="3.92539">
        <ele>881</ele>
        <time>2017-02-27T23:05:32Z</time>
      </trkpt>
      <trkpt lat="44.51074" lon="3.92526">
        <ele>882</ele>
        <time>2017-02-27T23:07:32Z</time>
      </trkpt>
      <trkpt lat="44.51077" lon="3.92514">
        <ele>883</ele>
        <time>2017-02-27T23:09:32Z</time>
      </trkpt>
      <trkpt lat="44.51081" lon="3.92505">
        <ele>884</ele>
        <time>2017-02-27T23:11:32Z</time>
      </trkpt>
      <trkpt lat="44.51085" lon="3.92492">
        <ele>886</ele>
        <time>2017-02-27T23:13:32Z</time>
      </trkpt>
      <trkpt lat="44.51089" lon="3.92473">
        <ele>887</ele>
        <time>2017-02-27T23:15:32Z</time>
      </trkpt>
      <trkpt lat="44.51093" lon="3.92453">
        <ele>888</ele>
        <time>2017-02-27T23:17:32Z</time>
      </trkpt>
      <trkpt lat="44.51094" lon="3.92439">
        <ele>889</ele>
        <time>2017-02-27T23:19:32Z</time>
      </trkpt>
      <trkpt lat="44.51096" lon="3.92416">
        <ele>891</ele>
        <time>2017-02-27T23:21:32Z</time>
      </trkpt>
      <trkpt lat="44.51095" lon="3.92393">
        <ele>892</ele>
        <time>2017-02-27T23:23:32Z</time>
      </trkpt>
      <trkpt lat="44.51096" lon="3.92366">
        <ele>893</ele>
        <time>2017-02-27T23:25:32Z</time>
      </trkpt>
      <trkpt lat="44.51099" lon="3.92337">
        <ele>894</ele>
        <time>2017-02-27T23:27:32Z</time>
      </trkpt>
      <trkpt lat="44.51101" lon="3.92311">
        <ele>892</ele>
        <time>2017-02-27T23:29:32Z</time>
      </trkpt>
      <trkpt lat="44.51104" lon="3.92297">
        <ele>891</ele>
        <time>2017-02-27T23:31:32Z</time>
      </trkpt>
      <trkpt lat="44.51105" lon="3.92292">
        <ele>891</ele>
        <time>2017-02-27T23:33:32Z</time>
      </trkpt>
      <trkpt lat="44.51106" lon="3.92286">
        <ele>890</ele>
        <time>2017-02-27T23:35:32Z</time>
      </trkpt>
      <trkpt lat="44.51111" lon="3.92277">
        <ele>890</ele>
        <time>2017-02-27T23:37:32Z</time>
      </trkpt>
      <trkpt lat="44.51118" lon="3.92267">
        <ele>890</ele>
        <time>2017-02-27T23:39:32Z</time>
      </trkpt>
      <trkpt lat="44.51126" lon="3.92256">
        <ele>889</ele>
        <time>2017-02-27T23:41:32Z</time>
      </trkpt>
      <trkpt lat="44.51133" lon="3.9225">
        <ele>889</ele>
        <time>2017-02-27T23:43:32Z</time>
      </trkpt>
      <trkpt lat="44.51145" lon="3.92242">
        <ele>888</ele>
        <time>2017-02-27T23:45:32Z</time>
      </trkpt>
      <trkpt lat="44.51159" lon="3.92237">
        <ele>887</ele>
        <time>2017-02-27T23:47:32Z</time>
      </trkpt>
      <trkpt lat="44.51167" lon="3.92233">
        <ele>887</ele>
        <time>2017-02-27T23:49:32Z</time>
      </trkpt>
      <trkpt lat="44.51173" lon="3.92228">
        <ele>886</ele>
        <time>2017-02-27T23:51:32Z</time>
      </trkpt>
      <trkpt lat="44.51176" lon="3.92224">
        <ele>885</ele>
        <time>2017-02-27T23:53:32Z</time>
      </trkpt>
      <trkpt lat="44.51182" lon="3.92218">
        <ele>883</ele>
        <time>2017-02-27T23:55:32Z</time>
      </trkpt>
      <trkpt lat="44.51189" lon="3.92209">
        <ele>881</ele>
        <time>2017-02-27T23:57:32Z</time>
      </trkpt>
      <trkpt lat="44.51196" lon="3.922">
        <ele>878</ele>
        <time>2017-02-27T23:59:32Z</time>
      </trkpt>
      <trkpt lat="44.51202" lon="3.92196">
        <ele>877</ele>
        <time>2017-02-28T00:01:32Z</time>
      </trkpt>
      <trkpt lat="44.51206" lon="3.92195">
        <ele>877</ele>
        <time>2017-02-28T00:03:32Z</time>
      </trkpt>
      <trkpt lat="44.51211" lon="3.92192">
        <ele>876</ele>
        <time>2017-02-28T00:05:32Z</time>
      </trkpt>
      <trkpt lat="44.51216" lon="3.92191">
        <ele>876</ele>
        <time>2017-02-28T00:07:32Z</time>
      </trkpt>
      <trkpt lat="44.51225" lon="3.92188">
        <ele>875</ele>
        <time>2017-02-28T00:09:32Z</time>
      </trkpt>
      <trkpt lat="44.51228" lon="3.92186">
        <ele>875</ele>
        <time>2017-02-28T00:11:32Z</time>
      </trkpt>
      <trkpt lat="44.51233" lon="3.92186">
        <ele>875</ele>
        <time>2017-02-28T00:13:32Z</time>
      </trkpt>
      <trkpt lat="44.51238" lon="3.92184">
        <ele>874</ele>
        <time>2017-02-28T00:15:32Z</time>
      </trkpt>
      <trkpt lat="44.51242" lon="3.92181">
        <ele>873</ele>
        <time>2017-02-28T00:17:32Z</time>
      </trkpt>
      <trkpt lat="44.51246" lon="3.9218">
        <ele>873</ele>
        <time>2017-02-28T00:19:32Z</time>
      </trkpt>
      <trkpt lat="44.51257" lon="3.92175">
        <ele>872</ele>
        <time>2017-02-28T00:21:32Z</time>
      </trkpt>
      <trkpt lat="44.51267" lon="3.92172">
        <ele>872</ele>
        <time>2017-02-28T00:23:32Z</time>
      </trkpt>
      <trkpt lat="44.51277" lon="3.92167">
        <ele>871</ele>
        <time>2017-02-28T00:25:32Z</time>
      </trkpt>
      <trkpt lat="44.5129" lon="3.92161">
        <ele>870</ele>
        <time>2017-02-28T00:27:32Z</time>
      </trkpt>
      <trkpt lat="44.513" lon="3.92154">
        <ele>869</ele>
        <time>2017-02-28T00:29:32Z</time>
      </trkpt>
      <trkpt lat="44.51308" lon="3.92147">
        <ele>867</ele>
        <time>2017-02-28T00:31:32Z</time>
      </trkpt>
      <trkpt lat="44.51317" lon="3.92138">
        <ele>865</ele>
        <time>2017-02-28T00:33:32Z</time>
      </trkpt>
      <trkpt lat="44.51327" lon="3.92129">
        <ele>863</ele>
        <time>2017-02-28T00:35:32Z</time>
      </trkpt>
      <trkpt lat="44.51338" lon="3.92121">
        <ele>862</ele>
        <time>2017-02-28T00:37:32Z</time>
      </trkpt>
      <trkpt lat="44.51348" lon="3.92113">
        <ele>861</ele>
        <time>2017-02-28T00:39:32Z</time>
      </trkpt>
      <trkpt lat="44.51358" lon="3.92107">
        <ele>860</ele>
        <time>2017-02-28T00:41:32Z</time>
      </trkpt>
      <trkpt lat="44.51366" lon="3.92099">
        <ele>859</ele>
        <time>2017-02-28T00:43:32Z</time>
      </trkpt>
      <trkpt lat="44.51372" lon="3.92094">
        <ele>858</ele>
        <time>2017-02-28T00:45:32Z</time>
      </trkpt>
      <trkpt lat="44.51379" lon="3.92082">
        <ele>856</ele>
        <time>2017-02-28T00:47:32Z</time>
      </trkpt>
      <trkpt lat="44.51387" lon="3.92074">
        <ele>857</ele>
        <time>2017-02-28T00:49:32Z</time>
      </trkpt>
      <trkpt lat="44.51395" lon="3.92064">
        <ele>857</ele>
        <time>2017-02-28T00:51:32Z</time>
      </trkpt>
      <trkpt lat="44.51401" lon="3.92056">
        <ele>856</ele>
        <time>2017-02-28T00:53:32Z</time>
      </trkpt>
      <trkpt lat="44.51406" lon="3.92048">
        <ele>856</ele>
        <time>2017-02-28T00:55:32Z</time>
      </trkpt>
      <trkpt lat="44.51409" lon="3.92043">
        <ele>855</ele>
        <time>2017-02-28T00:57:32Z</time>
      </trkpt>
      <trkpt lat="44.51414" lon="3.92033">
        <ele>854</ele>
        <time>2017-02-28T00:59:32Z</time>
      </trkpt>
      <trkpt lat="44.51421" lon="3.92024">
        <ele>852</ele>
        <time>2017-02-28T01:01:32Z</time>
      </trkpt>
      <trkpt lat="44.51425" lon="3.92015">
        <ele>851</ele>
        <time>2017-02-28T01:03:32Z</time>
      </trkpt>
      <trkpt lat="44.51428" lon="3.92009">
        <ele>850</ele>
        <time>2017-02-28T01:05:32Z</time>
      </trkpt>
      <trkpt lat="44.51431" lon="3.92004">
        <ele>849</ele>
        <time>2017-02-28T01:07:32Z</time>
      </trkpt>
      <trkpt lat="44.51435" lon="3.92">
        <ele>848</ele>
        <time>2017-02-28T01:09:32Z</time>
      </trkpt>
      <trkpt lat="44.51439" lon="3.91995">
        <ele>849</ele>
        <time>2017-02-28T01:11:32Z</time>
      </trkpt>
      <trkpt lat="44.5144" lon="3.91994">
        <ele>850</ele>
        <time>2017-02-28T01:13:32Z</time>
      </trkpt>
      <trkpt lat="44.51442" lon="3.91992">
        <ele>850</ele>
        <time>2017-02-28T01:15:32Z</time>
      </trkpt>
      <trkpt lat="44.51443" lon="3.91983">
        <ele>851</ele>
        <time>2017-02-28T01:17:32Z</time>
      </trkpt>
      <trkpt lat="44.51443" lon="3.91975">
        <ele>853</ele>
        <time>2017-02-28T01:19:32Z</time>
      </trkpt>
      <trkpt lat="44.51444" lon="3.91974">
        <ele>853</ele>
        <time>2017-02-28T01:21:32Z</time>
      </trkpt>
      <trkpt lat="44.51446" lon="3.91973">
        <ele>853</ele>
        <time>2017-02-28T01:23:32Z</time>
      </trkpt>
      <trkpt lat="44.51448" lon="3.91973">
        <ele>853</ele>
        <time>2017-02-28T01:25:32Z</time>
      </trkpt>
      <trkpt lat="44.51452" lon="3.91972">
        <ele>853</ele>
        <time>2017-02-28T01:27:32Z</time>
      </trkpt>
      <trkpt lat="44.51455" lon="3.91971">
        <ele>853</ele>
        <time>2017-02-28T01:29:32Z</time>
      </trkpt>
      <trkpt lat="44.5146" lon="3.91968">
        <ele>853</ele>
        <time>2017-02-28T01:31:32Z</time>
      </trkpt>
      <trkpt lat="44.51466" lon="3.91961">
        <ele>854</ele>
        <time>2017-02-28T01:33:32Z</time>
      </trkpt>
      <trkpt lat="44.51471" lon="3.91954">
        <ele>855</ele>
        <time>2017-02-28T01:35:32Z</time>
      </trkpt>
      <trkpt lat="44.51478" lon="3.91946">
        <ele>855</ele>
        <time>2017-02-28T01:37:32Z</time>
      </trkpt>
      <trkpt lat="44.51482" lon="3.91938">
        <ele>855</ele>
        <time>2017-02-28T01:39:32Z</time>
      </trkpt>
      <trkpt lat="44.51483" lon="3.91934">
        <ele>856</ele>
        <time>2017-02-28T01:41:32Z</time>
      </trkpt>
      <trkpt lat="44.51484" lon="3.91931">
        <ele>856</ele>
        <time>2017-02-28T01:43:32Z</time>
      </trkpt>
      <trkpt lat="44.51487" lon="3.91928">
        <ele>856</ele>
        <time>2017-02-28T01:45:32Z</time>
      </trkpt>
      <trkpt lat="44.51492" lon="3.91924">
        <ele>856</ele>
        <time>2017-02-28T01:47:32Z</time>
      </trkpt>
      <trkpt lat="44.51495" lon="3.9192">
        <ele>855</ele>
        <time>2017-02-28T01:49:32Z</time>
      </trkpt>
      <trkpt lat="44.51497" lon="3.91917">
        <ele>855</ele>
        <time>2017-02-28T01:51:32Z</time>
      </trkpt>
      <trkpt lat="44.51499" lon="3.9191">
        <ele>856</ele>
        <time>2017-02-28T01:53:32Z</time>
      </trkpt>
      <trkpt lat="44.51502" lon="3.91891">
        <ele>859</ele>
        <time>2017-02-28T01:55:32Z</time>
      </trkpt>
      <trkpt lat="44.51502" lon="3.91882">
        <ele>860</ele>
        <time>2017-02-28T01:57:32Z</time>
      </trkpt>
      <trkpt lat="44.515" lon="3.91872">
        <ele>860</ele>
        <time>2017-02-28T01:59:32Z</time>
      </trkpt>
      <trkpt lat="44.51499" lon="3.91867">
        <ele>861</ele>
        <time>2017-02-28T02:01:32Z</time>
      </trkpt>
      <trkpt lat="44.515" lon="3.91864">
        <ele>861</ele>
        <time>2017-02-28T02:03:32Z</time>
      </trkpt>
      <trkpt lat="44.51502" lon="3.91862">
        <ele>862</ele>
        <time>2017-02-28T02:05:32Z</time>
      </trkpt>
      <trkpt lat="44.51504" lon="3.9186">
        <ele>862</ele>
        <time>2017-02-28T02:07:32Z</time>
      </trkpt>
      <trkpt lat="44.51511" lon="3.91856">
        <ele>864</ele>
        <time>2017-02-28T02:09:32Z</time>
      </trkpt>
      <trkpt lat="44.51518" lon="3.9185">
        <ele>866</ele>
        <time>2017-02-28T02:11:32Z</time>
      </trkpt>
      <trkpt lat="44.51522" lon="3.91844">
        <ele>867</ele>
        <time>2017-02-28T02:13:32Z</time>
      </trkpt>
      <trkpt lat="44.51525" lon="3.91838">
        <ele>868</ele>
        <time>2017-02-28T02:15:32Z</time>
      </trkpt>
      <trkpt lat="44.51529" lon="3.91832">
        <ele>869</ele>
        <time>2017-02-28T02:17:32Z</time>
      </trkpt>
      <trkpt lat="44.51532" lon="3.91826">
        <ele>870</ele>
        <time>2017-02-28T02:19:32Z</time>
      </trkpt>
      <trkpt lat="44.51536" lon="3.91816">
        <ele>872</ele>
        <time>2017-02-28T02:21:32Z</time>
      </trkpt>
      <trkpt lat="44.51539" lon="3.91807">
        <ele>873</ele>
        <time>2017-02-28T02:23:32Z</time>
      </trkpt>
      <trkpt lat="44.51541" lon="3.91799">
        <ele>873</ele>
        <time>2017-02-28T02:25:32Z</time>
      </trkpt>
      <trkpt lat="44.51543" lon="3.91794">
        <ele>874</ele>
        <time>2017-02-28T02:27:32Z</time>
      </trkpt>
      <trkpt lat="44.51547" lon="3.91785">
        <ele>874</ele>
        <time>2017-02-28T02:29:32Z</time>
      </trkpt>
      <trkpt lat="44.51551" lon="3.91772">
        <ele>875</ele>
        <time>2017-02-28T02:31:32Z</time>
      </trkpt>
      <trkpt lat="44.51556" lon="3.91761">
        <ele>875</ele>
        <time>2017-02-28T02:33:32Z</time>
      </trkpt>
      <trkpt lat="44.51556" lon="3.91757">
        <ele>875</ele>
        <time>2017-02-28T02:35:32Z</time>
      </trkpt>
      <trkpt lat="44.51557" lon="3.91749">
        <ele>875</ele>
        <time>2017-02-28T02:37:32Z</time>
      </trkpt>
      <trkpt lat="44.5156" lon="3.91743">
        <ele>875</ele>
        <time>2017-02-28T02:39:32Z</time>
      </trkpt>
      <trkpt lat="44.51561" lon="3.91733">
        <ele>877</ele>
        <time>2017-02-28T02:41:32Z</time>
      </trkpt>
      <trkpt lat="44.5156" lon="3.91725">
        <ele>878</ele>
        <time>2017-02-28T02:43:32Z</time>
      </trkpt>
      <trkpt lat="44.51554" lon="3.9171">
        <ele>880</ele>
        <time>2017-02-28T02:45:32Z</time>
      </trkpt>
      <trkpt lat="44.5155" lon="3.91703">
        <ele>882</ele>
        <time>2017-02-28T02:47:32Z</time>
      </trkpt>
      <trkpt lat="44.51545" lon="3.91693">
        <ele>884</ele>
        <time>2017-02-28T02:49:32Z</time>
      </trkpt>
      <trkpt lat="44.51541" lon="3.91683">
        <ele>885</ele>
        <time>2017-02-28T02:51:32Z</time>
      </trkpt>
      <trkpt lat="44.51541" lon="3.91678">
        <ele>886</ele>
        <time>2017-02-28T02:53:32Z</time>
      </trkpt>
      <trkpt lat="44.51543" lon="3.91672">
        <ele>887</ele>
        <time>2017-02-28T02:55:32Z</time>
      </trkpt>
      <trkpt lat="44.51545" lon="3.91663">
        <ele>888</ele>
        <time>2017-02-28T02:57:32Z</time>
      </trkpt>
      <trkpt lat="44.51545" lon="3.9166">
        <ele>888</ele>
        <time>2017-02-28T02:59:32Z</time>
      </trkpt>
      <trkpt lat="44.51542" lon="3.91656">
        <ele>889</ele>
        <time>2017-02-28T03:01:32Z</time>
      </trkpt>
      <trkpt lat="44.51541" lon="3.91652">
        <ele>889</ele>
        <time>2017-02-28T03:03:32Z</time>
      </trkpt>
      <trkpt lat="44.51542" lon="3.9165">
        <ele>890</ele>
        <time>2017-02-28T03:05:32Z</time>
      </trkpt>
      <trkpt lat="44.51545" lon="3.9165">
        <ele>889</ele>
        <time>2017-02-28T03:07:32Z</time>
      </trkpt>
      <trkpt lat="44.51552" lon="3.91653">
        <ele>888</ele>
        <time>2017-02-28T03:09:32Z</time>
      </trkpt>
      <trkpt lat="44.51557" lon="3.91658">
        <ele>887</ele>
        <time>2017-02-28T03:11:32Z</time>
      </trkpt>
      <trkpt lat="44.51559" lon="3.91661">
        <ele>886</ele>
        <time>2017-02-28T03:13:32Z</time>
      </trkpt>
      <trkpt lat="44.51562" lon="3.91662">
        <ele>886</ele>
        <time>2017-02-28T03:15:32Z</time>
      </trkpt>
      <trkpt lat="44.51565" lon="3.9166">
        <ele>886</ele>
        <time>2017-02-28T03:17:32Z</time>
      </trkpt>
      <trkpt lat="44.51568" lon="3.91655">
        <ele>887</ele>
        <time>2017-02-28T03:19:32Z</time>
      </trkpt>
      <trkpt lat="44.51576" lon="3.91637">
        <ele>889</ele>
        <time>2017-02-28T03:21:32Z</time>
      </trkpt>
      <trkpt lat="44.51591" lon="3.91603">
        <ele>894</ele>
        <time>2017-02-28T03:23:32Z</time>
      </trkpt>
      <trkpt lat="44.51594" lon="3.91597">
        <ele>896</ele>
        <time>2017-02-28T03:25:32Z</time>
      </trkpt>
      <trkpt lat="44.51598" lon="3.91594">
        <ele>896</ele>
        <time>2017-02-28T03:27:32Z</time>
      </trkpt>
      <trkpt lat="44.51602" lon="3.91588">
        <ele>897</ele>
        <time>2017-02-28T03:29:32Z</time>
      </trkpt>
      <trkpt lat="44.51612" lon="3.91577">
        <ele>898</ele>
        <time>2017-02-28T03:31:32Z</time>
      </trkpt>
      <trkpt lat="44.51615" lon="3.91575">
        <ele>898</ele>
        <time>2017-02-28T03:33:32Z</time>
      </trkpt>
      <trkpt lat="44.51617" lon="3.91574">
        <ele>898</ele>
        <time>2017-02-28T03:35:32Z</time>
      </trkpt>
      <trkpt lat="44.51618" lon="3.91574">
        <ele>898</ele>
        <time>2017-02-28T03:37:32Z</time>
      </trkpt>
      <trkpt lat="44.51619" lon="3.91573">
        <ele>898</ele>
        <time>2017-02-28T03:39:32Z</time>
      </trkpt>
      <trkpt lat="44.51622" lon="3.91571">
        <ele>898</ele>
        <time>2017-02-28T03:41:32Z</time>
      </trkpt>
      <trkpt lat="44.51624" lon="3.9157">
        <ele>898</ele>
        <time>2017-02-28T03:43:32Z</time>
      </trkpt>
      <trkpt lat="44.51628" lon="3.9157">
        <ele>898</ele>
        <time>2017-02-28T03:45:32Z</time>
      </trkpt>
      <trkpt lat="44.51634" lon="3.91567">
        <ele>899</ele>
        <time>2017-02-28T03:47:32Z</time>
      </trkpt>
      <trkpt lat="44.5164" lon="3.91563">
        <ele>899</ele>
        <time>2017-02-28T03:49:32Z</time>
      </trkpt>
      <trkpt lat="44.51649" lon="3.91557">
        <ele>899</ele>
        <time>2017-02-28T03:51:32Z</time>
      </trkpt>
      <trkpt lat="44.51655" lon="3.91552">
        <ele>900</ele>
        <time>2017-02-28T03:53:32Z</time>
      </trkpt>
      <trkpt lat="44.51659" lon="3.91548">
        <ele>900</ele>
        <time>2017-02-28T03:55:32Z</time>
      </trkpt>
      <trkpt lat="44.51663" lon="3.91543">
        <ele>900</ele>
        <time>2017-02-28T03:57:32Z</time>
      </trkpt>
      <trkpt lat="44.51667" lon="3.91536">
        <ele>901</ele>
        <time>2017-02-28T03:59:32Z</time>
      </trkpt>
      <trkpt lat="44.51672" lon="3.9153">
        <ele>902</ele>
        <time>2017-02-28T04:01:32Z</time>
      </trkpt>
      <trkpt lat="44.51678" lon="3.91521">
        <ele>903</ele>
        <time>2017-02-28T04:03:32Z</time>
      </trkpt>
      <trkpt lat="44.51688" lon="3.91513">
        <ele>905</ele>
        <time>2017-02-28T04:05:32Z</time>
      </trkpt>
      <trkpt lat="44.51695" lon="3.91507">
        <ele>906</ele>
        <time>2017-02-28T04:07:32Z</time>
      </trkpt>
      <trkpt lat="44.51701" lon="3.91504">
        <ele>907</ele>
        <time>2017-02-28T04:09:32Z</time>
      </trkpt>
      <trkpt lat="44.51709" lon="3.91503">
        <ele>907</ele>
        <time>2017-02-28T04:11:32Z</time>
      </trkpt>
      <trkpt lat="44.51712" lon="3.91501">
        <ele>908</ele>
        <time>2017-02-28T04:13:32Z</time>
      </trkpt>
      <trkpt lat="44.51716" lon="3.91497">
        <ele>908</ele>
        <time>2017-02-28T04:15:32Z</time>
      </trkpt>
      <trkpt lat="44.51726" lon="3.91485">
        <ele>908</ele>
        <time>2017-02-28T04:17:32Z</time>
      </trkpt>
      <trkpt lat="44.51729" lon="3.9148">
        <ele>907</ele>
        <time>2017-02-28T04:19:32Z</time>
      </trkpt>
      <trkpt lat="44.51734" lon="3.91474">
        <ele>907</ele>
        <time>2017-02-28T04:21:32Z</time>
      </trkpt>
      <trkpt lat="44.51738" lon="3.91466">
        <ele>906</ele>
        <time>2017-02-28T04:23:32Z</time>
      </trkpt>
      <trkpt lat="44.51747" lon="3.91456">
        <ele>906</ele>
        <time>2017-02-28T04:25:32Z</time>
      </trkpt>
      <trkpt lat="44.51755" lon="3.91443">
        <ele>905</ele>
        <time>2017-02-28T04:27:32Z</time>
      </trkpt>
      <trkpt lat="44.51761" lon="3.91433">
        <ele>904</ele>
        <time>2017-02-28T04:29:32Z</time>
      </trkpt>
      <trkpt lat="44.51766" lon="3.91422">
        <ele>904</ele>
        <time>2017-02-28T04:31:32Z</time>
      </trkpt>
      <trkpt lat="44.51771" lon="3.91409">
        <ele>903</ele>
        <time>2017-02-28T04:33:32Z</time>
      </trkpt>
      <trkpt lat="44.51778" lon="3.91398">
        <ele>903</ele>
        <time>2017-02-28T04:35:32Z</time>
      </trkpt>
      <trkpt lat="44.51788" lon="3.91387">
        <ele>903</ele>
        <time>2017-02-28T04:37:32Z</time>
      </trkpt>
      <trkpt lat="44.51798" lon="3.91376">
        <ele>903</ele>
        <time>2017-02-28T04:39:32Z</time>
      </trkpt>
      <trkpt lat="44.51805" lon="3.91369">
        <ele>903</ele>
        <time>2017-02-28T04:41:32Z</time>
      </trkpt>
      <trkpt lat="44.5181" lon="3.91367">
        <ele>904</ele>
        <time>2017-02-28T04:43:32Z</time>
      </trkpt>
      <trkpt lat="44.51816" lon="3.91368">
        <ele>905</ele>
        <time>2017-02-28T04:45:32Z</time>
      </trkpt>
      <trkpt lat="44.51827" lon="3.91373">
        <ele>906</ele>
        <time>2017-02-28T04:47:32Z</time>
      </trkpt>
      <trkpt lat="44.51838" lon="3.91381">
        <ele>906</ele>
        <time>2017-02-28T04:49:32Z</time>
      </trkpt>
      <trkpt lat="44.51844" lon="3.91386">
        <ele>905</ele>
        <time>2017-02-28T04:51:32Z</time>
      </trkpt>
      <trkpt lat="44.51847" lon="3.91385">
        <ele>905</ele>
        <time>2017-02-28T04:53:32Z</time>
      </trkpt>
      <trkpt lat="44.51849" lon="3.91382">
        <ele>904</ele>
        <time>2017-02-28T04:55:32Z</time>
      </trkpt>
      <trkpt lat="44.51851" lon="3.91376">
        <ele>904</ele>
        <time>2017-02-28T04:57:32Z</time>
      </trkpt>
      <trkpt lat="44.51856" lon="3.91371">
        <ele>903</ele>
        <time>2017-02-28T04:59:32Z</time>
      </trkpt>
      <trkpt lat="44.5186" lon="3.91365">
        <ele>902</ele>
        <time>2017-02-28T05:01:32Z</time>
      </trkpt>
      <trkpt lat="44.51874" lon="3.91342">
        <ele>898</ele>
        <time>2017-02-28T05:03:32Z</time>
      </trkpt>
      <trkpt lat="44.5188" lon="3.91329">
        <ele>897</ele>
        <time>2017-02-28T05:05:32Z</time>
      </trkpt>
      <trkpt lat="44.51884" lon="3.91322">
        <ele>896</ele>
        <time>2017-02-28T05:07:32Z</time>
      </trkpt>
      <trkpt lat="44.51886" lon="3.91319">
        <ele>896</ele>
        <time>2017-02-28T05:09:32Z</time>
      </trkpt>
      <trkpt lat="44.51891" lon="3.91314">
        <ele>895</ele>
        <time>2017-02-28T05:11:32Z</time>
      </trkpt>
      <trkpt lat="44.51899" lon="3.91309">
        <ele>894</ele>
        <time>2017-02-28T05:13:32Z</time>
      </trkpt>
      <trkpt lat="44.51907" lon="3.91301">
        <ele>893</ele>
        <time>2017-02-28T05:15:32Z</time>
      </trkpt>
      <trkpt lat="44.51916" lon="3.9129">
        <ele>891</ele>
        <time>2017-02-28T05:17:32Z</time>
      </trkpt>
      <trkpt lat="44.51922" lon="3.9128">
        <ele>890</ele>
        <time>2017-02-28T05:19:32Z</time>
      </trkpt>
      <trkpt lat="44.51929" lon="3.91268">
        <ele>888</ele>
        <time>2017-02-28T05:21:32Z</time>
      </trkpt>
      <trkpt lat="44.51932" lon="3.91263">
        <ele>888</ele>
        <time>2017-02-28T05:23:32Z</time>
      </trkpt>
      <trkpt lat="44.51933" lon="3.91259">
        <ele>887</ele>
        <time>2017-02-28T05:25:32Z</time>
      </trkpt>
      <trkpt lat="44.51934" lon="3.91254">
        <ele>887</ele>
        <time>2017-02-28T05:27:32Z</time>
      </trkpt>
      <trkpt lat="44.51936" lon="3.91252">
        <ele>887</ele>
        <time>2017-02-28T05:29:32Z</time>
      </trkpt>
      <trkpt lat="44.51938" lon="3.91251">
        <ele>886</ele>
        <time>2017-02-28T05:31:32Z</time>
      </trkpt>
      <trkpt lat="44.51941" lon="3.91251">
        <ele>885</ele>
        <time>2017-02-28T05:33:32Z</time>
      </trkpt>
      <trkpt lat="44.51946" lon="3.91255">
        <ele>884</ele>
        <time>2017-02-28T05:35:32Z</time>
      </trkpt>
      <trkpt lat="44.51949" lon="3.91259">
        <ele>883</ele>
        <time>2017-02-28T05:37:32Z</time>
      </trkpt>
      <trkpt lat="44.51952" lon="3.91265">
        <ele>882</ele>
        <time>2017-02-28T05:39:32Z</time>
      </trkpt>
      <trkpt lat="44.51952" lon="3.91274">
        <ele>882</ele>
        <time>2017-02-28T05:41:32Z</time>
      </trkpt>
      <trkpt lat="44.51952" lon="3.91278">
        <ele>882</ele>
        <time>2017-02-28T05:43:32Z</time>
      </trkpt>
      <trkpt lat="44.51953" lon="3.91281">
        <ele>882</ele>
        <time>2017-02-28T05:45:32Z</time>
      </trkpt>
      <trkpt lat="44.51954" lon="3.91281">
        <ele>882</ele>
        <time>2017-02-28T05:47:32Z</time>
      </trkpt>
      <trkpt lat="44.51955" lon="3.91281">
        <ele>882</ele>
        <time>2017-02-28T05:49:32Z</time>
      </trkpt>
      <trkpt lat="44.51957" lon="3.91281">
        <ele>881</ele>
        <time>2017-02-28T05:51:32Z</time>
      </trkpt>
      <trkpt lat="44.5196" lon="3.91276">
        <ele>880</ele>
        <time>2017-02-28T05:53:32Z</time>
      </trkpt>
      <trkpt lat="44.51965" lon="3.91267">
        <ele>879</ele>
        <time>2017-02-28T05:55:32Z</time>
      </trkpt>
      <trkpt lat="44.51969" lon="3.91255">
        <ele>878</ele>
        <time>2017-02-28T05:57:32Z</time>
      </trkpt>
      <trkpt lat="44.51971" lon="3.91248">
        <ele>877</ele>
        <time>2017-02-28T05:59:32Z</time>
      </trkpt>
      <trkpt lat="44.5197" lon="3.91242">
        <ele>877</ele>
        <time>2017-02-28T06:01:32Z</time>
      </trkpt>
      <trkpt lat="44.51971" lon="3.9124">
        <ele>877</ele>
        <time>2017-02-28T06:03:32Z</time>
      </trkpt>
      <trkpt lat="44.51973" lon="3.91239">
        <ele>876</ele>
        <time>2017-02-28T06:05:32Z</time>
      </trkpt>
      <trkpt lat="44.51975" lon="3.91239">
        <ele>876</ele>
        <time>2017-02-28T06:07:32Z</time>
      </trkpt>
      <trkpt lat="44.51977" lon="3.91241">
        <ele>875</ele>
        <time>2017-02-28T06:09:32Z</time>
      </trkpt>
      <trkpt lat="44.51978" lon="3.91243">
        <ele>875</ele>
        <time>2017-02-28T06:11:32Z</time>
      </trkpt>
      <trkpt lat="44.51983" lon="3.9125">
        <ele>874</ele>
        <time>2017-02-28T06:13:32Z</time>
      </trkpt>
      <trkpt lat="44.51984" lon="3.91253">
        <ele>873</ele>
        <time>2017-02-28T06:15:32Z</time>
      </trkpt>
      <trkpt lat="44.51984" lon="3.91256">
        <ele>874</ele>
        <time>2017-02-28T06:17:32Z</time>
      </trkpt>
      <trkpt lat="44.51984" lon="3.91265">
        <ele>874</ele>
        <time>2017-02-28T06:19:32Z</time>
      </trkpt>
      <trkpt lat="44.51984" lon="3.91269">
        <ele>874</ele>
        <time>2017-02-28T06:21:32Z</time>
      </trkpt>
      <trkpt lat="44.51985" lon="3.91271">
        <ele>874</ele>
        <time>2017-02-28T06:23:32Z</time>
      </trkpt>
      <trkpt lat="44.51986" lon="3.91272">
        <ele>873</ele>
        <time>2017-02-28T06:25:32Z</time>
      </trkpt>
      <trkpt lat="44.51987" lon="3.91272">
        <ele>873</ele>
        <time>2017-02-28T06:27:32Z</time>
      </trkpt>
      <trkpt lat="44.51988" lon="3.91271">
        <ele>873</ele>
        <time>2017-02-28T06:29:32Z</time>
      </trkpt>
      <trkpt lat="44.51992" lon="3.91262">
        <ele>872</ele>
        <time>2017-02-28T06:31:32Z</time>
      </trkpt>
      <trkpt lat="44.51996" lon="3.91256">
        <ele>870</ele>
        <time>2017-02-28T06:33:32Z</time>
      </trkpt>
      <trkpt lat="44.51999" lon="3.9125">
        <ele>869</ele>
        <time>2017-02-28T06:35:32Z</time>
      </trkpt>
      <trkpt lat="44.52004" lon="3.9124">
        <ele>869</ele>
        <time>2017-02-28T06:37:32Z</time>
      </trkpt>
      <trkpt lat="44.52006" lon="3.91231">
        <ele>869</ele>
        <time>2017-02-28T06:39:32Z</time>
      </trkpt>
      <trkpt lat="44.52008" lon="3.91224">
        <ele>869</ele>
        <time>2017-02-28T06:41:32Z</time>
      </trkpt>
      <trkpt lat="44.52009" lon="3.91215">
        <ele>869</ele>
        <time>2017-02-28T06:43:32Z</time>
      </trkpt>
      <trkpt lat="44.52011" lon="3.9121">
        <ele>870</ele>
        <time>2017-02-28T06:45:32Z</time>
      </trkpt>
      <trkpt lat="44.52014" lon="3.91206">
        <ele>869</ele>
        <time>2017-02-28T06:47:32Z</time>
      </trkpt>
      <trkpt lat="44.52019" lon="3.91204">
        <ele>869</ele>
        <time>2017-02-28T06:49:32Z</time>
      </trkpt>
      <trkpt lat="44.52023" lon="3.91202">
        <ele>869</ele>
        <time>2017-02-28T06:51:32Z</time>
      </trkpt>
      <trkpt lat="44.52028" lon="3.91201">
        <ele>869</ele>
        <time>2017-02-28T06:53:32Z</time>
      </trkpt>
      <trkpt lat="44.52034" lon="3.91201">
        <ele>869</ele>
        <time>2017-02-28T06:55:32Z</time>
      </trkpt>
      <trkpt lat="44.52045" lon="3.91207">
        <ele>869</ele>
        <time>2017-02-28T06:57:32Z</time>
      </trkpt>
      <trkpt lat="44.52056" lon="3.91213">
        <ele>870</ele>
        <time>2017-02-28T06:59:32Z</time>
      </trkpt>
      <trkpt lat="44.52061" lon="3.91215">
        <ele>870</ele>
        <time>2017-02-28T07:01:32Z</time>
      </trkpt>
      <trkpt lat="44.52079" lon="3.91222">
        <ele>871</ele>
        <time>2017-02-28T07:03:32Z</time>
      </trkpt>
      <trkpt lat="44.52091" lon="3.91224">
        <ele>872</ele>
        <time>2017-02-28T07:05:32Z</time>
      </trkpt>
      <trkpt lat="44.52099" lon="3.91224">
        <ele>873</ele>
        <time>2017-02-28T07:07:32Z</time>
      </trkpt>
      <trkpt lat="44.52099" lon="3.91224">
        <ele>873</ele>
        <time>2017-02-28T07:09:32Z</time>
      </trkpt>
      <trkpt lat="44.52102" lon="3.91211">
        <ele>872</ele>
        <time>2017-02-28T07:11:32Z</time>
      </trkpt>
      <trkpt lat="44.52103" lon="3.91209">
        <ele>872</ele>
        <time>2017-02-28T07:13:32Z</time>
      </trkpt>
      <trkpt lat="44.52106" lon="3.91196">
        <ele>871</ele>
        <time>2017-02-28T07:15:32Z</time>
      </trkpt>
      <trkpt lat="44.52116" lon="3.91173">
        <ele>868</ele>
        <time>2017-02-28T07:17:32Z</time>
      </trkpt>
      <trkpt lat="44.52118" lon="3.91169">
        <ele>868</ele>
        <time>2017-02-28T07:19:32Z</time>
      </trkpt>
      <trkpt lat="44.5212" lon="3.91164">
        <ele>867</ele>
        <time>2017-02-28T07:21:32Z</time>
      </trkpt>
      <trkpt lat="44.52124" lon="3.91158">
        <ele>866</ele>
        <time>2017-02-28T07:23:32Z</time>
      </trkpt>
      <trkpt lat="44.52129" lon="3.91153">
        <ele>866</ele>
        <time>2017-02-28T07:25:32Z</time>
      </trkpt>
      <trkpt lat="44.52132" lon="3.9115">
        <ele>865</ele>
        <time>2017-02-28T07:27:32Z</time>
      </trkpt>
      <trkpt lat="44.52136" lon="3.91147">
        <ele>865</ele>
        <time>2017-02-28T07:29:32Z</time>
      </trkpt>
      <trkpt lat="44.52141" lon="3.91145">
        <ele>864</ele>
        <time>2017-02-28T07:31:32Z</time>
      </trkpt>
      <trkpt lat="44.52148" lon="3.91141">
        <ele>864</ele>
        <time>2017-02-28T07:33:32Z</time>
      </trkpt>
      <trkpt lat="44.52154" lon="3.9114">
        <ele>864</ele>
        <time>2017-02-28T07:35:32Z</time>
      </trkpt>
      <trkpt lat="44.52161" lon="3.91138">
        <ele>864</ele>
        <time>2017-02-28T07:37:32Z</time>
      </trkpt>
      <trkpt lat="44.52168" lon="3.91136">
        <ele>863</ele>
        <time>2017-02-28T07:39:32Z</time>
      </trkpt>
      <trkpt lat="44.52171" lon="3.91134">
        <ele>863</ele>
        <time>2017-02-28T07:41:32Z</time>
      </trkpt>
      <trkpt lat="44.52173" lon="3.91133">
        <ele>863</ele>
        <time>2017-02-28T07:43:32Z</time>
      </trkpt>
      <trkpt lat="44.52174" lon="3.91132">
        <ele>863</ele>
        <time>2017-02-28T07:45:32Z</time>
      </trkpt>
      <trkpt lat="44.52175" lon="3.91129">
        <ele>862</ele>
        <time>2017-02-28T07:47:32Z</time>
      </trkpt>
      <trkpt lat="44.52175" lon="3.91129">
        <ele>862</ele>
        <time>2017-02-28T07:49:32Z</time>
      </trkpt>
      <trkpt lat="44.52174" lon="3.91128">
        <ele>862</ele>
        <time>2017-02-28T07:51:32Z</time>
      </trkpt>
      <trkpt lat="44.52172" lon="3.91127">
        <ele>862</ele>
        <time>2017-02-28T07:53:32Z</time>
      </trkpt>
      <trkpt lat="44.52169" lon="3.91127">
        <ele>861</ele>
        <time>2017-02-28T07:55:32Z</time>
      </trkpt>
      <trkpt lat="44.52157" lon="3.91126">
        <ele>861</ele>
        <time>2017-02-28T07:57:32Z</time>
      </trkpt>
      <trkpt lat="44.52142" lon="3.91121">
        <ele>860</ele>
        <time>2017-02-28T07:59:32Z</time>
      </trkpt>
      <trkpt lat="44.52129" lon="3.91118">
        <ele>859</ele>
        <time>2017-02-28T08:01:32Z</time>
      </trkpt>
      <trkpt lat="44.52117" lon="3.91118">
        <ele>859</ele>
        <time>2017-02-28T08:03:32Z</time>
      </trkpt>
      <trkpt lat="44.52103" lon="3.9112">
        <ele>859</ele>
        <time>2017-02-28T08:05:32Z</time>
      </trkpt>
      <trkpt lat="44.52096" lon="3.91123">
        <ele>859</ele>
        <time>2017-02-28T08:07:32Z</time>
      </trkpt>
      <trkpt lat="44.5209" lon="3.91127">
        <ele>860</ele>
        <time>2017-02-28T08:09:32Z</time>
      </trkpt>
      <trkpt lat="44.52086" lon="3.91127">
        <ele>860</ele>
        <time>2017-02-28T08:11:32Z</time>
      </trkpt>
      <trkpt lat="44.52085" lon="3.91122">
        <ele>859</ele>
        <time>2017-02-28T08:13:32Z</time>
      </trkpt>
      <trkpt lat="44.52086" lon="3.91117">
        <ele>858</ele>
        <time>2017-02-28T08:15:32Z</time>
      </trkpt>
      <trkpt lat="44.52092" lon="3.91112">
        <ele>858</ele>
        <time>2017-02-28T08:17:32Z</time>
      </trkpt>
      <trkpt lat="44.52104" lon="3.91106">
        <ele>857</ele>
        <time>2017-02-28T08:19:32Z</time>
      </trkpt>
      <trkpt lat="44.52114" lon="3.91105">
        <ele>856</ele>
        <time>2017-02-28T08:21:32Z</time>
      </trkpt>
      <trkpt lat="44.52132" lon="3.91101">
        <ele>856</ele>
        <time>2017-02-28T08:23:32Z</time>
      </trkpt>
      <trkpt lat="44.52148" lon="3.91097">
        <ele>855</ele>
        <time>2017-02-28T08:25:32Z</time>
      </trkpt>
      <trkpt lat="44.52154" lon="3.91094">
        <ele>854</ele>
        <time>2017-02-28T08:27:32Z</time>
      </trkpt>
      <trkpt lat="44.52156" lon="3.91089">
        <ele>853</ele>
        <time>2017-02-28T08:29:32Z</time>
      </trkpt>
      <trkpt lat="44.52157" lon="3.91082">
        <ele>852</ele>
        <time>2017-02-28T08:31:32Z</time>
      </trkpt>
      <trkpt lat="44.52157" lon="3.91071">
        <ele>852</ele>
        <time>2017-02-28T08:33:32Z</time>
      </trkpt>
      <trkpt lat="44.52158" lon="3.91064">
        <ele>852</ele>
        <time>2017-02-28T08:35:32Z</time>
      </trkpt>
      <trkpt lat="44.52158" lon="3.91058">
        <ele>852</ele>
        <time>2017-02-28T08:37:32Z</time>
      </trkpt>
      <trkpt lat="44.52158" lon="3.91058">
        <ele>852</ele>
        <time>2017-02-28T08:39:32Z</time>
      </trkpt>
      <trkpt lat="44.52158" lon="3.91056">
        <ele>852</ele>
        <time>2017-02-28T08:41:32Z</time>
      </trkpt>
      <trkpt lat="44.52158" lon="3.91043">
        <ele>851</ele>
        <time>2017-02-28T08:43:32Z</time>
      </trkpt>
      <trkpt lat="44.52158" lon="3.91022">
        <ele>851</ele>
        <time>2017-02-28T08:45:32Z</time>
      </trkpt>
      <trkpt lat="44.52158" lon="3.91001">
        <ele>851</ele>
        <time>2017-02-28T08:47:32Z</time>
      </trkpt>
      <trkpt lat="44.52157" lon="3.90995">
        <ele>851</ele>
        <time>2017-02-28T08:49:32Z</time>
      </trkpt>
      <trkpt lat="44.52152" lon="3.90987">
        <ele>850</ele>
        <time>2017-02-28T08:51:32Z</time>
      </trkpt>
      <trkpt lat="44.52152" lon="3.90987">
        <ele>850</ele>
        <time>2017-02-28T08:53:32Z</time>
      </trkpt>
      <trkpt lat="44.52156" lon="3.90979">
        <ele>851</ele>
        <time>2017-02-28T08:55:32Z</time>
      </trkpt>
      <trkpt lat="44.52162" lon="3.90965">
        <ele>851</ele>
        <time>2017-02-28T08:57:32Z</time>
      </trkpt>
      <trkpt lat="44.52165" lon="3.90958">
        <ele>851</ele>
        <time>2017-02-28T08:59:32Z</time>
      </trkpt>
      <trkpt lat="44.52165" lon="3.90958">
        <ele>851</ele>
        <time>2017-02-28T09:01:32Z</time>
      </trkpt>
      <trkpt lat="44.5217" lon="3.90948">
        <ele>851</ele>
        <time>2017-02-28T09:03:32Z</time>
      </trkpt>
      <trkpt lat="44.52177" lon="3.90934">
        <ele>852</ele>
        <time>2017-02-28T09:05:32Z</time>
      </trkpt>
      <trkpt lat="44.52188" lon="3.90917">
        <ele>853</ele>
        <time>2017-02-28T09:07:32Z</time>
      </trkpt>
      <trkpt lat="44.52198" lon="3.90902">
        <ele>853</ele>
        <time>2017-02-28T09:09:32Z</time>
      </trkpt>
      <trkpt lat="44.52219" lon="3.90877">
        <ele>853</ele>
        <time>2017-02-28T09:11:32Z</time>
      </trkpt>
      <trkpt lat="44.52222" lon="3.90873">
        <ele>853</ele>
        <time>2017-02-28T09:13:32Z</time>
      </trkpt>
      <trkpt lat="44.52226" lon="3.90868">
        <ele>853</ele>
        <time>2017-02-28T09:15:32Z</time>
      </trkpt>
      <trkpt lat="44.52226" lon="3.90868">
        <ele>853</ele>
        <time>2017-02-28T09:17:32Z</time>
      </trkpt>
      <trkpt lat="44.52234" lon="3.90861">
        <ele>853</ele>
        <time>2017-02-28T09:19:32Z</time>
      </trkpt>
      <trkpt lat="44.52236" lon="3.90858">
        <ele>853</ele>
        <time>2017-02-28T09:21:32Z</time>
      </trkpt>
      <trkpt lat="44.52239" lon="3.90853">
        <ele>852</ele>
        <time>2017-02-28T09:23:32Z</time>
      </trkpt>
      <trkpt lat="44.5224" lon="3.90849">
        <ele>852</ele>
        <time>2017-02-28T09:25:32Z</time>
      </trkpt>
      <trkpt lat="44.52242" lon="3.90842">
        <ele>852</ele>
        <time>2017-02-28T09:27:32Z</time>
      </trkpt>
      <trkpt lat="44.52244" lon="3.90832">
        <ele>851</ele>
        <time>2017-02-28T09:29:32Z</time>
      </trkpt>
      <trkpt lat="44.52246" lon="3.90824">
        <ele>850</ele>
        <time>2017-02-28T09:31:32Z</time>
      </trkpt>
      <trkpt lat="44.52246" lon="3.90814">
        <ele>849</ele>
        <time>2017-02-28T09:33:32Z</time>
      </trkpt>
      <trkpt lat="44.52247" lon="3.90803">
        <ele>848</ele>
        <time>2017-02-28T09:35:32Z</time>
      </trkpt>
      <trkpt lat="44.52246" lon="3.9078">
        <ele>846</ele>
        <time>2017-02-28T09:37:32Z</time>
      </trkpt>
      <trkpt lat="44.52243" lon="3.90745">
        <ele>845</ele>
        <time>2017-02-28T09:39:32Z</time>
      </trkpt>
      <trkpt lat="44.52243" lon="3.90742">
        <ele>845</ele>
        <time>2017-02-28T09:41:32Z</time>
      </trkpt>
      <trkpt lat="44.52242" lon="3.9073">
        <ele>847</ele>
        <time>2017-02-28T09:43:32Z</time>
      </trkpt>
      <trkpt lat="44.52238" lon="3.90716">
        <ele>850</ele>
        <time>2017-02-28T09:45:32Z</time>
      </trkpt>
      <trkpt lat="44.52234" lon="3.90704">
        <ele>852</ele>
        <time>2017-02-28T09:47:32Z</time>
      </trkpt>
      <trkpt lat="44.5223" lon="3.9069">
        <ele>854</ele>
        <time>2017-02-28T09:49:32Z</time>
      </trkpt>
      <trkpt lat="44.52227" lon="3.90682">
        <ele>856</ele>
        <time>2017-02-28T09:51:32Z</time>
      </trkpt>
      <trkpt lat="44.52227" lon="3.90682">
        <ele>856</ele>
        <time>2017-02-28T09:53:32Z</time>
      </trkpt>
      <trkpt lat="44.5223" lon="3.90678">
        <ele>856</ele>
        <time>2017-02-28T09:55:32Z</time>
      </trkpt>
      <trkpt lat="44.52246" lon="3.90665">
        <ele>859</ele>
        <time>2017-02-28T09:57:32Z</time>
      </trkpt>
      <trkpt lat="44.52265" lon="3.90649">
        <ele>863</ele>
        <time>2017-02-28T09:59:32Z</time>
      </trkpt>
      <trkpt lat="44.52278" lon="3.90639">
        <ele>865</ele>
        <time>2017-02-28T10:01:32Z</time>
      </trkpt>
      <trkpt lat="44.52292" lon="3.90633">
        <ele>866</ele>
        <time>2017-02-28T10:03:32Z</time>
      </trkpt>
      <trkpt lat="44.52307" lon="3.90628">
        <ele>867</ele>
        <time>2017-02-28T10:05:32Z</time>
      </trkpt>
      <trkpt lat="44.52313" lon="3.90623">
        <ele>868</ele>
        <time>2017-02-28T10:07:32Z</time>
      </trkpt>
      <trkpt lat="44.52313" lon="3.90623">
        <ele>868</ele>
        <time>2017-02-28T10:09:32Z</time>
      </trkpt>
      <trkpt lat="44.52315" lon="3.90619">
        <ele>869</ele>
        <time>2017-02-28T10:11:32Z</time>
      </trkpt>
      <trkpt lat="44.52319" lon="3.90614">
        <ele>870</ele>
        <time>2017-02-28T10:13:32Z</time>
      </trkpt>
      <trkpt lat="44.52324" lon="3.90604">
        <ele>872</ele>
        <time>2017-02-28T10:15:32Z</time>
      </trkpt>
      <trkpt lat="44.52327" lon="3.90597">
        <ele>873</ele>
        <time>2017-02-28T10:17:32Z</time>
      </trkpt>
      <trkpt lat="44.52332" lon="3.90589">
        <ele>875</ele>
        <time>2017-02-28T10:19:32Z</time>
      </trkpt>
      <trkpt lat="44.5234" lon="3.90582">
        <ele>876</ele>
        <time>2017-02-28T10:21:32Z</time>
      </trkpt>
      <trkpt lat="44.52343" lon="3.90577">
        <ele>877</ele>
        <time>2017-02-28T10:23:32Z</time>
      </trkpt>
      <trkpt lat="44.5235" lon="3.90559">
        <ele>883</ele>
        <time>2017-02-28T10:25:32Z</time>
      </trkpt>
      <trkpt lat="44.52357" lon="3.90544">
        <ele>887</ele>
        <time>2017-02-28T10:27:32Z</time>
      </trkpt>
      <trkpt lat="44.52359" lon="3.9054">
        <ele>888</ele>
        <time>2017-02-28T10:29:32Z</time>
      </trkpt>
      <trkpt lat="44.52365" lon="3.90534">
        <ele>889</ele>
        <time>2017-02-28T10:31:32Z</time>
      </trkpt>
      <trkpt lat="44.52367" lon="3.90532">
        <ele>889</ele>
        <time>2017-02-28T10:33:32Z</time>
      </trkpt>
      <trkpt lat="44.52369" lon="3.90526">
        <ele>891</ele>
        <time>2017-02-28T10:35:32Z</time>
      </trkpt>
      <trkpt lat="44.52371" lon="3.90522">
        <ele>892</ele>
        <time>2017-02-28T10:37:32Z</time>
      </trkpt>
      <trkpt lat="44.52373" lon="3.9052">
        <ele>892</ele>
        <time>2017-02-28T10:39:32Z</time>
      </trkpt>
      <trkpt lat="44.52376" lon="3.90517">
        <ele>893</ele>
        <time>2017-02-28T10:41:32Z</time>
      </trkpt>
      <trkpt lat="44.52378" lon="3.90514">
        <ele>893</ele>
        <time>2017-02-28T10:43:32Z</time>
      </trkpt>
      <trkpt lat="44.5238" lon="3.9051">
        <ele>894</ele>
        <time>2017-02-28T10:45:32Z</time>
      </trkpt>
      <trkpt lat="44.52381" lon="3.90505">
        <ele>895</ele>
        <time>2017-02-28T10:47:32Z</time>
      </trkpt>
      <trkpt lat="44.52381" lon="3.90502">
        <ele>896</ele>
        <time>2017-02-28T10:49:32Z</time>
      </trkpt>
      <trkpt lat="44.52377" lon="3.90494">
        <ele>899</ele>
        <time>2017-02-28T10:51:32Z</time>
      </trkpt>
      <trkpt lat="44.52374" lon="3.90487">
        <ele>900</ele>
        <time>2017-02-28T10:53:32Z</time>
      </trkpt>
      <trkpt lat="44.52371" lon="3.90483">
        <ele>901</ele>
        <time>2017-02-28T10:55:32Z</time>
      </trkpt>
      <trkpt lat="44.52368" lon="3.90479">
        <ele>903</ele>
        <time>2017-02-28T10:57:32Z</time>
      </trkpt>
      <trkpt lat="44.52365" lon="3.90474">
        <ele>904</ele>
        <time>2017-02-28T10:59:32Z</time>
      </trkpt>
      <trkpt lat="44.52361" lon="3.90468">
        <ele>906</ele>
        <time>2017-02-28T11:01:32Z</time>
      </trkpt>
      <trkpt lat="44.5236" lon="3.90466">
        <ele>906</ele>
        <time>2017-02-28T11:03:32Z</time>
      </trkpt>
      <trkpt lat="44.5236" lon="3.90466">
        <ele>906</ele>
        <time>2017-02-28T11:05:32Z</time>
      </trkpt>
      <trkpt lat="44.52369" lon="3.9045">
        <ele>907</ele>
        <time>2017-02-28T11:07:32Z</time>
      </trkpt>
      <trkpt lat="44.52377" lon="3.90431">
        <ele>909</ele>
        <time>2017-02-28T11:09:32Z</time>
      </trkpt>
      <trkpt lat="44.52379" lon="3.90422">
        <ele>910</ele>
        <time>2017-02-28T11:11:32Z</time>
      </trkpt>
      <trkpt lat="44.52378" lon="3.90415">
        <ele>911</ele>
        <time>2017-02-28T11:13:32Z</time>
      </trkpt>
      <trkpt lat="44.52377" lon="3.90414">
        <ele>912</ele>
        <time>2017-02-28T11:15:32Z</time>
      </trkpt>
      <trkpt lat="44.52377" lon="3.90414">
        <ele>912</ele>
        <time>2017-02-28T11:17:32Z</time>
      </trkpt>
      <trkpt lat="44.52379" lon="3.90408">
        <ele>912</ele>
        <time>2017-02-28T11:19:32Z</time>
      </trkpt>
      <trkpt lat="44.52382" lon="3.90402">
        <ele>912</ele>
        <time>2017-02-28T11:21:32Z</time>
      </trkpt>
      <trkpt lat="44.52387" lon="3.90392">
        <ele>913</ele>
        <time>2017-02-28T11:23:32Z</time>
      </trkpt>
      <trkpt lat="44.52387" lon="3.90392">
        <ele>913</ele>
        <time>2017-02-28T11:25:32Z</time>
      </trkpt>
      <trkpt lat="44.5238" lon="3.90394">
        <ele>914</ele>
        <time>2017-02-28T11:27:32Z</time>
      </trkpt>
      <trkpt lat="44.52371" lon="3.90395">
        <ele>915</ele>
        <time>2017-02-28T11:29:32Z</time>
      </trkpt>
      <trkpt lat="44.52362" lon="3.90397">
        <ele>917</ele>
        <time>2017-02-28T11:31:32Z</time>
      </trkpt>
      <trkpt lat="44.52355" lon="3.90396">
        <ele>918</ele>
        <time>2017-02-28T11:33:32Z</time>
      </trkpt>
      <trkpt lat="44.52346" lon="3.90393">
        <ele>920</ele>
        <time>2017-02-28T11:35:32Z</time>
      </trkpt>
      <trkpt lat="44.52343" lon="3.90391">
        <ele>921</ele>
        <time>2017-02-28T11:37:32Z</time>
      </trkpt>
      <trkpt lat="44.5234" lon="3.90385">
        <ele>923</ele>
        <time>2017-02-28T11:39:32Z</time>
      </trkpt>
      <trkpt lat="44.52337" lon="3.90373">
        <ele>925</ele>
        <time>2017-02-28T11:41:32Z</time>
      </trkpt>
      <trkpt lat="44.5233" lon="3.90338">
        <ele>931</ele>
        <time>2017-02-28T11:43:32Z</time>
      </trkpt>
      <trkpt lat="44.52323" lon="3.90305">
        <ele>934</ele>
        <time>2017-02-28T11:45:32Z</time>
      </trkpt>
      <trkpt lat="44.52317" lon="3.9029">
        <ele>936</ele>
        <time>2017-02-28T11:47:32Z</time>
      </trkpt>
      <trkpt lat="44.52312" lon="3.90279">
        <ele>937</ele>
        <time>2017-02-28T11:49:32Z</time>
      </trkpt>
      <trkpt lat="44.52298" lon="3.90257">
        <ele>940</ele>
        <time>2017-02-28T11:51:32Z</time>
      </trkpt>
      <trkpt lat="44.52287" lon="3.90239">
        <ele>943</ele>
        <time>2017-02-28T11:53:32Z</time>
      </trkpt>
      <trkpt lat="44.52283" lon="3.9023">
        <ele>944</ele>
        <time>2017-02-28T11:55:32Z</time>
      </trkpt>
      <trkpt lat="44.52279" lon="3.90223">
        <ele>946</ele>
        <time>2017-02-28T11:57:32Z</time>
      </trkpt>
      <trkpt lat="44.52278" lon="3.90218">
        <ele>947</ele>
        <time>2017-02-28T11:59:32Z</time>
      </trkpt>
      <trkpt lat="44.52277" lon="3.90204">
        <ele>950</ele>
        <time>2017-02-28T12:01:32Z</time>
      </trkpt>
      <trkpt lat="44.52277" lon="3.9019">
        <ele>952</ele>
        <time>2017-02-28T12:03:32Z</time>
      </trkpt>
      <trkpt lat="44.52276" lon="3.90186">
        <ele>953</ele>
        <time>2017-02-28T12:05:32Z</time>
      </trkpt>
      <trkpt lat="44.52275" lon="3.90183">
        <ele>954</ele>
        <time>2017-02-28T12:07:32Z</time>
      </trkpt>
      <trkpt lat="44.52272" lon="3.90177">
        <ele>955</ele>
        <time>2017-02-28T12:09:32Z</time>
      </trkpt>
      <trkpt lat="44.52268" lon="3.9017">
        <ele>957</ele>
        <time>2017-02-28T12:11:32Z</time>
      </trkpt>
      <trkpt lat="44.52264" lon="3.90163">
        <ele>958</ele>
        <time>2017-02-28T12:13:32Z</time>
      </trkpt>
      <trkpt lat="44.52262" lon="3.90156">
        <ele>960</ele>
        <time>2017-02-28T12:15:32Z</time>
      </trkpt>
      <trkpt lat="44.52258" lon="3.9015">
        <ele>961</ele>
        <time>2017-02-28T12:17:32Z</time>
      </trkpt>
      <trkpt lat="44.52253" lon="3.90141">
        <ele>963</ele>
        <time>2017-02-28T12:19:32Z</time>
      </trkpt>
      <trkpt lat="44.52248" lon="3.90128">
        <ele>964</ele>
        <time>2017-02-28T12:21:32Z</time>
      </trkpt>
      <trkpt lat="44.52247" lon="3.90121">
        <ele>965</ele>
        <time>2017-02-28T12:23:32Z</time>
      </trkpt>
      <trkpt lat="44.52248" lon="3.90117">
        <ele>966</ele>
        <time>2017-02-28T12:25:32Z</time>
      </trkpt>
      <trkpt lat="44.5225" lon="3.90114">
        <ele>967</ele>
        <time>2017-02-28T12:27:32Z</time>
      </trkpt>
      <trkpt lat="44.52256" lon="3.90109">
        <ele>968</ele>
        <time>2017-02-28T12:29:32Z</time>
      </trkpt>
      <trkpt lat="44.52263" lon="3.90101">
        <ele>970</ele>
        <time>2017-02-28T12:31:32Z</time>
      </trkpt>
      <trkpt lat="44.52269" lon="3.90086">
        <ele>973</ele>
        <time>2017-02-28T12:33:32Z</time>
      </trkpt>
      <trkpt lat="44.52274" lon="3.90069">
        <ele>976</ele>
        <time>2017-02-28T12:35:32Z</time>
      </trkpt>
      <trkpt lat="44.52276" lon="3.90052">
        <ele>978</ele>
        <time>2017-02-28T12:37:32Z</time>
      </trkpt>
      <trkpt lat="44.52275" lon="3.90024">
        <ele>983</ele>
        <time>2017-02-28T12:39:32Z</time>
      </trkpt>
      <trkpt lat="44.52269" lon="3.89993">
        <ele>987</ele>
        <time>2017-02-28T12:41:32Z</time>
      </trkpt>
      <trkpt lat="44.52267" lon="3.89968">
        <ele>990</ele>
        <time>2017-02-28T12:43:32Z</time>
      </trkpt>
      <trkpt lat="44.52267" lon="3.89959">
        <ele>992</ele>
        <time>2017-02-28T12:45:32Z</time>
      </trkpt>
      <trkpt lat="44.52266" lon="3.89946">
        <ele>993</ele>
        <time>2017-02-28T12:47:32Z</time>
      </trkpt>
      <trkpt lat="44.52264" lon="3.89925">
        <ele>996</ele>
        <time>2017-02-28T12:49:32Z</time>
      </trkpt>
      <trkpt lat="44.52261" lon="3.89907">
        <ele>999</ele>
        <time>2017-02-28T12:51:32Z</time>
      </trkpt>
      <trkpt lat="44.52257" lon="3.89893">
        <ele>1001</ele>
        <time>2017-02-28T12:53:32Z</time>
      </trkpt>
      <trkpt lat="44.52251" lon="3.89877">
        <ele>1004</ele>
        <time>2017-02-28T12:55:32Z</time>
      </trkpt>
      <trkpt lat="44.52241" lon="3.89856">
        <ele>1007</ele>
        <time>2017-02-28T12:57:32Z</time>
      </trkpt>
      <trkpt lat="44.52233" lon="3.89832">
        <ele>1010</ele>
        <time>2017-02-28T12:59:32Z</time>
      </trkpt>
      <trkpt lat="44.52227" lon="3.89805">
        <ele>1012</ele>
        <time>2017-02-28T13:01:32Z</time>
      </trkpt>
      <trkpt lat="44.52222" lon="3.89784">
        <ele>1014</ele>
        <time>2017-02-28T13:03:32Z</time>
      </trkpt>
      <trkpt lat="44.52219" lon="3.89769">
        <ele>1015</ele>
        <time>2017-02-28T13:05:32Z</time>
      </trkpt>
      <trkpt lat="44.52217" lon="3.89751">
        <ele>1016</ele>
        <time>2017-02-28T13:07:32Z</time>
      </trkpt>
      <trkpt lat="44.52216" lon="3.89739">
        <ele>1017</ele>
        <time>2017-02-28T13:09:32Z</time>
      </trkpt>
      <trkpt lat="44.52214" lon="3.89727">
        <ele>1018</ele>
        <time>2017-02-28T13:11:32Z</time>
      </trkpt>
      <trkpt lat="44.52211" lon="3.89727">
        <ele>1018</ele>
        <time>2017-02-28T13:13:32Z</time>
      </trkpt>
      <trkpt lat="44.52209" lon="3.89726">
        <ele>1018</ele>
        <time>2017-02-28T13:15:32Z</time>
      </trkpt>
      <trkpt lat="44.52207" lon="3.89723">
        <ele>1018</ele>
        <time>2017-02-28T13:17:32Z</time>
      </trkpt>
      <trkpt lat="44.522" lon="3.89702">
        <ele>1019</ele>
        <time>2017-02-28T13:19:32Z</time>
      </trkpt>
      <trkpt lat="44.52191" lon="3.89673">
        <ele>1021</ele>
        <time>2017-02-28T13:21:32Z</time>
      </trkpt>
      <trkpt lat="44.5218" lon="3.89637">
        <ele>1023</ele>
        <time>2017-02-28T13:23:32Z</time>
      </trkpt>
      <trkpt lat="44.52173" lon="3.8961">
        <ele>1024</ele>
        <time>2017-02-28T13:25:32Z</time>
      </trkpt>
      <trkpt lat="44.52169" lon="3.89584">
        <ele>1026</ele>
        <time>2017-02-28T13:27:32Z</time>
      </trkpt>
      <trkpt lat="44.52163" lon="3.89544">
        <ele>1029</ele>
        <time>2017-02-28T13:29:32Z</time>
      </trkpt>
      <trkpt lat="44.52155" lon="3.89503">
        <ele>1031</ele>
        <time>2017-02-28T13:31:32Z</time>
      </trkpt>
      <trkpt lat="44.52152" lon="3.89487">
        <ele>1031</ele>
        <time>2017-02-28T13:33:32Z</time>
      </trkpt>
      <trkpt lat="44.52148" lon="3.89474">
        <ele>1030</ele>
        <time>2017-02-28T13:35:32Z</time>
      </trkpt>
      <trkpt lat="44.52146" lon="3.8946">
        <ele>1029</ele>
        <time>2017-02-28T13:37:32Z</time>
      </trkpt>
      <trkpt lat="44.52143" lon="3.89437">
        <ele>1029</ele>
        <time>2017-02-28T13:39:32Z</time>
      </trkpt>
      <trkpt lat="44.52132" lon="3.89387">
        <ele>1027</ele>
        <time>2017-02-28T13:41:32Z</time>
      </trkpt>
      <trkpt lat="44.5212" lon="3.89339">
        <ele>1027</ele>
        <time>2017-02-28T13:43:32Z</time>
      </trkpt>
      <trkpt lat="44.52111" lon="3.89309">
        <ele>1028</ele>
        <time>2017-02-28T13:45:32Z</time>
      </trkpt>
      <trkpt lat="44.52106" lon="3.89294">
        <ele>1029</ele>
        <time>2017-02-28T13:47:32Z</time>
      </trkpt>
      <trkpt lat="44.52102" lon="3.89287">
        <ele>1030</ele>
        <time>2017-02-28T13:49:32Z</time>
      </trkpt>
      <trkpt lat="44.52102" lon="3.89287">
        <ele>1030</ele>
        <time>2017-02-28T13:51:32Z</time>
      </trkpt>
      <trkpt lat="44.52093" lon="3.89291">
        <ele>1030</ele>
        <time>2017-02-28T13:53:32Z</time>
      </trkpt>
      <trkpt lat="44.52081" lon="3.89293">
        <ele>1031</ele>
        <time>2017-02-28T13:55:32Z</time>
      </trkpt>
      <trkpt lat="44.52068" lon="3.89293">
        <ele>1032</ele>
        <time>2017-02-28T13:57:32Z</time>
      </trkpt>
      <trkpt lat="44.5206" lon="3.89293">
        <ele>1033</ele>
        <time>2017-02-28T13:59:32Z</time>
      </trkpt>
      <trkpt lat="44.52055" lon="3.89294">
        <ele>1034</ele>
        <time>2017-02-28T14:01:32Z</time>
      </trkpt>
      <trkpt lat="44.5205" lon="3.89297">
        <ele>1034</ele>
        <time>2017-02-28T14:03:32Z</time>
      </trkpt>
      <trkpt lat="44.52042" lon="3.89302">
        <ele>1035</ele>
        <time>2017-02-28T14:05:32Z</time>
      </trkpt>
      <trkpt lat="44.52023" lon="3.89322">
        <ele>1037</ele>
        <time>2017-02-28T14:07:32Z</time>
      </trkpt>
      <trkpt lat="44.52021" lon="3.89323">
        <ele>1037</ele>
        <time>2017-02-28T14:09:32Z</time>
      </trkpt>
      <trkpt lat="44.5202" lon="3.89325">
        <ele>1037</ele>
        <time>2017-02-28T14:11:32Z</time>
      </trkpt>
      <trkpt lat="44.52019" lon="3.89326">
        <ele>1037</ele>
        <time>2017-02-28T14:13:32Z</time>
      </trkpt>
      <trkpt lat="44.52018" lon="3.89328">
        <ele>1038</ele>
        <time>2017-02-28T14:15:32Z</time>
      </trkpt>
      <trkpt lat="44.52018" lon="3.89331">
        <ele>1038</ele>
        <time>2017-02-28T14:17:32Z</time>
      </trkpt>
      <trkpt lat="44.52017" lon="3.89334">
        <ele>1038</ele>
        <time>2017-02-28T14:19:32Z</time>
      </trkpt>
      <trkpt lat="44.52017" lon="3.89338">
        <ele>1038</ele>
        <time>2017-02-28T14:21:32Z</time>
      </trkpt>
      <trkpt lat="44.52017" lon="3.89356">
        <ele>1037</ele>
        <time>2017-02-28T14:23:32Z</time>
      </trkpt>
      <trkpt lat="44.52017" lon="3.89367">
        <ele>1037</ele>
        <time>2017-02-28T14:25:32Z</time>
      </trkpt>
      <trkpt lat="44.52016" lon="3.89404">
        <ele>1036</ele>
        <time>2017-02-28T14:27:32Z</time>
      </trkpt>
      <trkpt lat="44.52015" lon="3.89416">
        <ele>1036</ele>
        <time>2017-02-28T14:29:32Z</time>
      </trkpt>
      <trkpt lat="44.52014" lon="3.89424">
        <ele>1035</ele>
        <time>2017-02-28T14:31:32Z</time>
      </trkpt>
      <trkpt lat="44.52012" lon="3.8943">
        <ele>1035</ele>
        <time>2017-02-28T14:33:32Z</time>
      </trkpt>
      <trkpt lat="44.5201" lon="3.89435">
        <ele>1035</ele>
        <time>2017-02-28T14:35:32Z</time>
      </trkpt>
      <trkpt lat="44.52007" lon="3.89439">
        <ele>1035</ele>
        <time>2017-02-28T14:37:32Z</time>
      </trkpt>
      <trkpt lat="44.51996" lon="3.89449">
        <ele>1035</ele>
        <time>2017-02-28T14:39:32Z</time>
      </trkpt>
      <trkpt lat="44.51989" lon="3.89453">
        <ele>1034</ele>
        <time>2017-02-28T14:41:32Z</time>
      </trkpt>
      <trkpt lat="44.51989" lon="3.89453">
        <ele>1034</ele>
        <time>2017-02-28T14:43:32Z</time>
      </trkpt>
      <trkpt lat="44.51993" lon="3.89445">
        <ele>1035</ele>
        <time>2017-02-28T14:45:32Z</time>
      </trkpt>
      <trkpt lat="44.51995" lon="3.89439">
        <ele>1035</ele>
        <time>2017-02-28T14:47:32Z</time>
      </trkpt>
      <trkpt lat="44.51994" lon="3.89428">
        <ele>1036</ele>
        <time>2017-02-28T14:49:32Z</time>
      </trkpt>
      <trkpt lat="44.51992" lon="3.89411">
        <ele>1037</ele>
        <time>2017-02-28T14:51:32Z</time>
      </trkpt>
      <trkpt lat="44.51984" lon="3.89365">
        <ele>1039</ele>
        <time>2017-02-28T14:53:32Z</time>
      </trkpt>
      <trkpt lat="44.51979" lon="3.8933">
        <ele>1041</ele>
        <time>2017-02-28T14:55:32Z</time>
      </trkpt>
      <trkpt lat="44.51977" lon="3.8931">
        <ele>1041</ele>
        <time>2017-02-28T14:57:32Z</time>
      </trkpt>
      <trkpt lat="44.51977" lon="3.89297">
        <ele>1041</ele>
        <time>2017-02-28T14:59:32Z</time>
      </trkpt>
      <trkpt lat="44.51975" lon="3.89292">
        <ele>1041</ele>
        <time>2017-02-28T15:01:32Z</time>
      </trkpt>
      <trkpt lat="44.51973" lon="3.89285">
        <ele>1041</ele>
        <time>2017-02-28T15:03:32Z</time>
      </trkpt>
      <trkpt lat="44.5197" lon="3.89261">
        <ele>1042</ele>
        <time>2017-02-28T15:05:32Z</time>
      </trkpt>
      <trkpt lat="44.51968" lon="3.89248">
        <ele>1042</ele>
        <time>2017-02-28T15:07:32Z</time>
      </trkpt>
      <trkpt lat="44.51964" lon="3.89231">
        <ele>1043</ele>
        <time>2017-02-28T15:09:32Z</time>
      </trkpt>
      <trkpt lat="44.51958" lon="3.89206">
        <ele>1044</ele>
        <time>2017-02-28T15:11:32Z</time>
      </trkpt>
      <trkpt lat="44.51948" lon="3.89173">
        <ele>1046</ele>
        <time>2017-02-28T15:13:32Z</time>
      </trkpt>
      <trkpt lat="44.51936" lon="3.89135">
        <ele>1047</ele>
        <time>2017-02-28T15:15:32Z</time>
      </trkpt>
      <trkpt lat="44.51919" lon="3.89089">
        <ele>1047</ele>
        <time>2017-02-28T15:17:32Z</time>
      </trkpt>
      <trkpt lat="44.51908" lon="3.89057">
        <ele>1047</ele>
        <time>2017-02-28T15:19:32Z</time>
      </trkpt>
      <trkpt lat="44.51903" lon="3.89046">
        <ele>1047</ele>
        <time>2017-02-28T15:21:32Z</time>
      </trkpt>
      <trkpt lat="44.51897" lon="3.89035">
        <ele>1047</ele>
        <time>2017-02-28T15:23:32Z</time>
      </trkpt>
      <trkpt lat="44.51889" lon="3.89021">
        <ele>1047</ele>
        <time>2017-02-28T15:25:32Z</time>
      </trkpt>
      <trkpt lat="44.51882" lon="3.89014">
        <ele>1047</ele>
        <time>2017-02-28T15:27:32Z</time>
      </trkpt>
      <trkpt lat="44.5187" lon="3.89003">
        <ele>1048</ele>
        <time>2017-02-28T15:29:32Z</time>
      </trkpt>
      <trkpt lat="44.51851" lon="3.8899">
        <ele>1049</ele>
        <time>2017-02-28T15:31:32Z</time>
      </trkpt>
      <trkpt lat="44.51839" lon="3.88983">
        <ele>1050</ele>
        <time>2017-02-28T15:33:32Z</time>
      </trkpt>
      <trkpt lat="44.5183" lon="3.88977">
        <ele>1050</ele>
        <time>2017-02-28T15:35:32Z</time>
      </trkpt>
      <trkpt lat="44.51823" lon="3.88971">
        <ele>1050</ele>
        <time>2017-02-28T15:37:32Z</time>
      </trkpt>
      <trkpt lat="44.51811" lon="3.88956">
        <ele>1050</ele>
        <time>2017-02-28T15:39:32Z</time>
      </trkpt>
      <trkpt lat="44.51792" lon="3.88931">
        <ele>1049</ele>
        <time>2017-02-28T15:41:32Z</time>
      </trkpt>
      <trkpt lat="44.5178" lon="3.88911">
        <ele>1049</ele>
        <time>2017-02-28T15:43:32Z</time>
      </trkpt>
      <trkpt lat="44.51773" lon="3.88895">
        <ele>1050</ele>
        <time>2017-02-28T15:45:32Z</time>
      </trkpt>
      <trkpt lat="44.51771" lon="3.88891">
        <ele>1050</ele>
        <time>2017-02-28T15:47:32Z</time>
      </trkpt>
      <trkpt lat="44.51762" lon="3.88873">
        <ele>1052</ele>
        <time>2017-02-28T15:49:32Z</time>
      </trkpt>
      <trkpt lat="44.51748" lon="3.88853">
        <ele>1053</ele>
        <time>2017-02-28T15:51:32Z</time>
      </trkpt>
      <trkpt lat="44.51738" lon="3.88842">
        <ele>1054</ele>
        <time>2017-02-28T15:53:32Z</time>
      </trkpt>
      <trkpt lat="44.51731" lon="3.88836">
        <ele>1054</ele>
        <time>2017-02-28T15:55:32Z</time>
      </trkpt>
      <trkpt lat="44.51723" lon="3.88833">
        <ele>1055</ele>
        <time>2017-02-28T15:57:32Z</time>
      </trkpt>
      <trkpt lat="44.51712" lon="3.8883">
        <ele>1055</ele>
        <time>2017-02-28T15:59:32Z</time>
      </trkpt>
      <trkpt lat="44.51701" lon="3.88827">
        <ele>1055</ele>
        <time>2017-02-28T16:01:32Z</time>
      </trkpt>
      <trkpt lat="44.51694" lon="3.88825">
        <ele>1056</ele>
        <time>2017-02-28T16:03:32Z</time>
      </trkpt>
      <trkpt lat="44.51689" lon="3.88822">
        <ele>1056</ele>
        <time>2017-02-28T16:05:32Z</time>
      </trkpt>
      <trkpt lat="44.51684" lon="3.88816">
        <ele>1056</ele>
        <time>2017-02-28T16:07:32Z</time>
      </trkpt>
      <trkpt lat="44.51682" lon="3.88814">
        <ele>1056</ele>
        <time>2017-02-28T16:09:32Z</time>
      </trkpt>
      <trkpt lat="44.5168" lon="3.8881">
        <ele>1056</ele>
        <time>2017-02-28T16:11:32Z</time>
      </trkpt>
      <trkpt lat="44.51672" lon="3.88789">
        <ele>1057</ele>
        <time>2017-02-28T16:13:32Z</time>
      </trkpt>
      <trkpt lat="44.51662" lon="3.88758">
        <ele>1056</ele>
        <time>2017-02-28T16:15:32Z</time>
      </trkpt>
      <trkpt lat="44.51657" lon="3.88743">
        <ele>1056</ele>
        <time>2017-02-28T16:17:32Z</time>
      </trkpt>
      <trkpt lat="44.51655" lon="3.88736">
        <ele>1056</ele>
        <time>2017-02-28T16:19:32Z</time>
      </trkpt>
      <trkpt lat="44.51654" lon="3.88734">
        <ele>1056</ele>
        <time>2017-02-28T16:21:32Z</time>
      </trkpt>
      <trkpt lat="44.5165" lon="3.88728">
        <ele>1056</ele>
        <time>2017-02-28T16:23:32Z</time>
      </trkpt>
      <trkpt lat="44.51641" lon="3.88715">
        <ele>1056</ele>
        <time>2017-02-28T16:25:32Z</time>
      </trkpt>
      <trkpt lat="44.51627" lon="3.88696">
        <ele>1055</ele>
        <time>2017-02-28T16:27:32Z</time>
      </trkpt>
      <trkpt lat="44.51618" lon="3.88684">
        <ele>1054</ele>
        <time>2017-02-28T16:29:32Z</time>
      </trkpt>
      <trkpt lat="44.51612" lon="3.88675">
        <ele>1054</ele>
        <time>2017-02-28T16:31:32Z</time>
      </trkpt>
      <trkpt lat="44.51607" lon="3.88664">
        <ele>1054</ele>
        <time>2017-02-28T16:33:32Z</time>
      </trkpt>
      <trkpt lat="44.51602" lon="3.88653">
        <ele>1054</ele>
        <time>2017-02-28T16:35:32Z</time>
      </trkpt>
      <trkpt lat="44.51599" lon="3.88646">
        <ele>1055</ele>
        <time>2017-02-28T16:37:32Z</time>
      </trkpt>
      <trkpt lat="44.51594" lon="3.8864">
        <ele>1055</ele>
        <time>2017-02-28T16:39:32Z</time>
      </trkpt>
      <trkpt lat="44.51587" lon="3.88629">
        <ele>1055</ele>
        <time>2017-02-28T16:41:32Z</time>
      </trkpt>
      <trkpt lat="44.51578" lon="3.88611">
        <ele>1055</ele>
        <time>2017-02-28T16:43:32Z</time>
      </trkpt>
      <trkpt lat="44.51564" lon="3.88584">
        <ele>1055</ele>
        <time>2017-02-28T16:45:32Z</time>
      </trkpt>
      <trkpt lat="44.51544" lon="3.88553">
        <ele>1055</ele>
        <time>2017-02-28T16:47:32Z</time>
      </trkpt>
      <trkpt lat="44.51535" lon="3.88541">
        <ele>1056</ele>
        <time>2017-02-28T16:49:32Z</time>
      </trkpt>
      <trkpt lat="44.51527" lon="3.88532">
        <ele>1056</ele>
        <time>2017-02-28T16:51:32Z</time>
      </trkpt>
      <trkpt lat="44.5152" lon="3.88525">
        <ele>1056</ele>
        <time>2017-02-28T16:53:32Z</time>
      </trkpt>
      <trkpt lat="44.51514" lon="3.88517">
        <ele>1056</ele>
        <time>2017-02-28T16:55:32Z</time>
      </trkpt>
      <trkpt lat="44.51511" lon="3.88509">
        <ele>1057</ele>
        <time>2017-02-28T16:57:32Z</time>
      </trkpt>
      <trkpt lat="44.51508" lon="3.88501">
        <ele>1058</ele>
        <time>2017-02-28T16:59:32Z</time>
      </trkpt>
      <trkpt lat="44.51507" lon="3.88489">
        <ele>1059</ele>
        <time>2017-02-28T17:01:32Z</time>
      </trkpt>
      <trkpt lat="44.51506" lon="3.8848">
        <ele>1060</ele>
        <time>2017-02-28T17:03:32Z</time>
      </trkpt>
      <trkpt lat="44.51504" lon="3.88474">
        <ele>1061</ele>
        <time>2017-02-28T17:05:32Z</time>
      </trkpt>
      <trkpt lat="44.515" lon="3.88468">
        <ele>1061</ele>
        <time>2017-02-28T17:07:32Z</time>
      </trkpt>
      <trkpt lat="44.51494" lon="3.88461">
        <ele>1060</ele>
        <time>2017-02-28T17:09:32Z</time>
      </trkpt>
      <trkpt lat="44.51483" lon="3.88454">
        <ele>1058</ele>
        <time>2017-02-28T17:11:32Z</time>
      </trkpt>
      <trkpt lat="44.51473" lon="3.88446">
        <ele>1057</ele>
        <time>2017-02-28T17:13:32Z</time>
      </trkpt>
      <trkpt lat="44.51464" lon="3.8844">
        <ele>1056</ele>
        <time>2017-02-28T17:15:32Z</time>
      </trkpt>
      <trkpt lat="44.51456" lon="3.88433">
        <ele>1055</ele>
        <time>2017-02-28T17:17:32Z</time>
      </trkpt>
      <trkpt lat="44.51449" lon="3.88424">
        <ele>1055</ele>
        <time>2017-02-28T17:19:32Z</time>
      </trkpt>
      <trkpt lat="44.51444" lon="3.88416">
        <ele>1055</ele>
        <time>2017-02-28T17:21:32Z</time>
      </trkpt>
      <trkpt lat="44.51437" lon="3.88403">
        <ele>1055</ele>
        <time>2017-02-28T17:23:32Z</time>
      </trkpt>
      <trkpt lat="44.5143" lon="3.88387">
        <ele>1055</ele>
        <time>2017-02-28T17:25:32Z</time>
      </trkpt>
      <trkpt lat="44.51423" lon="3.88371">
        <ele>1056</ele>
        <time>2017-02-28T17:27:32Z</time>
      </trkpt>
      <trkpt lat="44.51417" lon="3.88359">
        <ele>1057</ele>
        <time>2017-02-28T17:29:32Z</time>
      </trkpt>
      <trkpt lat="44.51414" lon="3.88348">
        <ele>1057</ele>
        <time>2017-02-28T17:31:32Z</time>
      </trkpt>
      <trkpt lat="44.51411" lon="3.88337">
        <ele>1058</ele>
        <time>2017-02-28T17:33:32Z</time>
      </trkpt>
      <trkpt lat="44.5141" lon="3.88324">
        <ele>1059</ele>
        <time>2017-02-28T17:35:32Z</time>
      </trkpt>
      <trkpt lat="44.5141" lon="3.88311">
        <ele>1059</ele>
        <time>2017-02-28T17:37:32Z</time>
      </trkpt>
      <trkpt lat="44.51414" lon="3.8829">
        <ele>1059</ele>
        <time>2017-02-28T17:39:32Z</time>
      </trkpt>
      <trkpt lat="44.5142" lon="3.88262">
        <ele>1060</ele>
        <time>2017-02-28T17:41:32Z</time>
      </trkpt>
      <trkpt lat="44.51426" lon="3.88236">
        <ele>1061</ele>
        <time>2017-02-28T17:43:32Z</time>
      </trkpt>
      <trkpt lat="44.51432" lon="3.88212">
        <ele>1061</ele>
        <time>2017-02-28T17:45:32Z</time>
      </trkpt>
      <trkpt lat="44.51434" lon="3.88195">
        <ele>1060</ele>
        <time>2017-02-28T17:47:32Z</time>
      </trkpt>
      <trkpt lat="44.51435" lon="3.88181">
        <ele>1060</ele>
        <time>2017-02-28T17:49:32Z</time>
      </trkpt>
      <trkpt lat="44.51435" lon="3.88167">
        <ele>1060</ele>
        <time>2017-02-28T17:51:32Z</time>
      </trkpt>
      <trkpt lat="44.51433" lon="3.88155">
        <ele>1059</ele>
        <time>2017-02-28T17:53:32Z</time>
      </trkpt>
      <trkpt lat="44.51426" lon="3.88136">
        <ele>1059</ele>
        <time>2017-02-28T17:55:32Z</time>
      </trkpt>
      <trkpt lat="44.51425" lon="3.88134">
        <ele>1059</ele>
        <time>2017-02-28T17:57:32Z</time>
      </trkpt>
      <trkpt lat="44.51417" lon="3.88114">
        <ele>1059</ele>
        <time>2017-02-28T17:59:32Z</time>
      </trkpt>
      <trkpt lat="44.5141" lon="3.88097">
        <ele>1059</ele>
        <time>2017-02-28T18:01:32Z</time>
      </trkpt>
      <trkpt lat="44.51397" lon="3.88074">
        <ele>1057</ele>
        <time>2017-02-28T18:03:32Z</time>
      </trkpt>
      <trkpt lat="44.51383" lon="3.88049">
        <ele>1053</ele>
        <time>2017-02-28T18:05:32Z</time>
      </trkpt>
      <trkpt lat="44.51366" lon="3.88025">
        <ele>1052</ele>
        <time>2017-02-28T18:07:32Z</time>
      </trkpt>
      <trkpt lat="44.51349" lon="3.88002">
        <ele>1053</ele>
        <time>2017-02-28T18:09:32Z</time>
      </trkpt>
      <trkpt lat="44.51335" lon="3.87981">
        <ele>1052</ele>
        <time>2017-02-28T18:11:32Z</time>
      </trkpt>
      <trkpt lat="44.51328" lon="3.8797">
        <ele>1052</ele>
        <time>2017-02-28T18:13:32Z</time>
      </trkpt>
      <trkpt lat="44.51318" lon="3.87953">
        <ele>1052</ele>
        <time>2017-02-28T18:15:32Z</time>
      </trkpt>
      <trkpt lat="44.51303" lon="3.8793">
        <ele>1053</ele>
        <time>2017-02-28T18:17:32Z</time>
      </trkpt>
      <trkpt lat="44.51287" lon="3.87908">
        <ele>1055</ele>
        <time>2017-02-28T18:19:32Z</time>
      </trkpt>
      <trkpt lat="44.5128" lon="3.87901">
        <ele>1056</ele>
        <time>2017-02-28T18:21:32Z</time>
      </trkpt>
      <trkpt lat="44.51273" lon="3.87892">
        <ele>1057</ele>
        <time>2017-02-28T18:23:32Z</time>
      </trkpt>
      <trkpt lat="44.51268" lon="3.87884">
        <ele>1057</ele>
        <time>2017-02-28T18:25:32Z</time>
      </trkpt>
      <trkpt lat="44.51266" lon="3.87877">
        <ele>1058</ele>
        <time>2017-02-28T18:27:32Z</time>
      </trkpt>
      <trkpt lat="44.51265" lon="3.87871">
        <ele>1057</ele>
        <time>2017-02-28T18:29:32Z</time>
      </trkpt>
      <trkpt lat="44.51266" lon="3.87865">
        <ele>1057</ele>
        <time>2017-02-28T18:31:32Z</time>
      </trkpt>
      <trkpt lat="44.51266" lon="3.8784">
        <ele>1055</ele>
        <time>2017-02-28T18:33:32Z</time>
      </trkpt>
      <trkpt lat="44.51265" lon="3.87832">
        <ele>1055</ele>
        <time>2017-02-28T18:35:32Z</time>
      </trkpt>
      <trkpt lat="44.51264" lon="3.87824">
        <ele>1054</ele>
        <time>2017-02-28T18:37:32Z</time>
      </trkpt>
      <trkpt lat="44.5126" lon="3.87815">
        <ele>1054</ele>
        <time>2017-02-28T18:39:32Z</time>
      </trkpt>
      <trkpt lat="44.51246" lon="3.87796">
        <ele>1057</ele>
        <time>2017-02-28T18:41:32Z</time>
      </trkpt>
      <trkpt lat="44.51244" lon="3.87791">
        <ele>1057</ele>
        <time>2017-02-28T18:43:32Z</time>
      </trkpt>
      <trkpt lat="44.5124" lon="3.8778">
        <ele>1058</ele>
        <time>2017-02-28T18:45:32Z</time>
      </trkpt>
      <trkpt lat="44.51233" lon="3.87761">
        <ele>1059</ele>
        <time>2017-02-28T18:47:32Z</time>
      </trkpt>
      <trkpt lat="44.51231" lon="3.87749">
        <ele>1058</ele>
        <time>2017-02-28T18:49:32Z</time>
      </trkpt>
      <trkpt lat="44.51229" lon="3.87736">
        <ele>1060</ele>
        <time>2017-02-28T18:51:32Z</time>
      </trkpt>
      <trkpt lat="44.51228" lon="3.87728">
        <ele>1060</ele>
        <time>2017-02-28T18:53:32Z</time>
      </trkpt>
      <trkpt lat="44.51229" lon="3.87719">
        <ele>1060</ele>
        <time>2017-02-28T18:55:32Z</time>
      </trkpt>
      <trkpt lat="44.51231" lon="3.8771">
        <ele>1059</ele>
        <time>2017-02-28T18:57:32Z</time>
      </trkpt>
      <trkpt lat="44.51238" lon="3.87687">
        <ele>1056</ele>
        <time>2017-02-28T18:59:32Z</time>
      </trkpt>
      <trkpt lat="44.5124" lon="3.87679">
        <ele>1055</ele>
        <time>2017-02-28T19:01:32Z</time>
      </trkpt>
      <trkpt lat="44.5124" lon="3.8767">
        <ele>1055</ele>
        <time>2017-02-28T19:03:32Z</time>
      </trkpt>
      <trkpt lat="44.51238" lon="3.87657">
        <ele>1057</ele>
        <time>2017-02-28T19:05:32Z</time>
      </trkpt>
      <trkpt lat="44.51235" lon="3.87642">
        <ele>1060</ele>
        <time>2017-02-28T19:07:32Z</time>
      </trkpt>
      <trkpt lat="44.51232" lon="3.87629">
        <ele>1062</ele>
        <time>2017-02-28T19:09:32Z</time>
      </trkpt>
      <trkpt lat="44.51231" lon="3.87619">
        <ele>1063</ele>
        <time>2017-02-28T19:11:32Z</time>
      </trkpt>
      <trkpt lat="44.51232" lon="3.8761">
        <ele>1063</ele>
        <time>2017-02-28T19:13:32Z</time>
      </trkpt>
      <trkpt lat="44.51234" lon="3.87604">
        <ele>1062</ele>
        <time>2017-02-28T19:15:32Z</time>
      </trkpt>
      <trkpt lat="44.51237" lon="3.87597">
        <ele>1061</ele>
        <time>2017-02-28T19:17:32Z</time>
      </trkpt>
      <trkpt lat="44.51244" lon="3.87592">
        <ele>1058</ele>
        <time>2017-02-28T19:19:32Z</time>
      </trkpt>
      <trkpt lat="44.51251" lon="3.87585">
        <ele>1054</ele>
        <time>2017-02-28T19:21:32Z</time>
      </trkpt>
      <trkpt lat="44.51258" lon="3.8757">
        <ele>1051</ele>
        <time>2017-02-28T19:23:32Z</time>
      </trkpt>
      <trkpt lat="44.5126" lon="3.87562">
        <ele>1050</ele>
        <time>2017-02-28T19:25:32Z</time>
      </trkpt>
      <trkpt lat="44.5126" lon="3.87552">
        <ele>1050</ele>
        <time>2017-02-28T19:27:32Z</time>
      </trkpt>
      <trkpt lat="44.51255" lon="3.87526">
        <ele>1053</ele>
        <time>2017-02-28T19:29:32Z</time>
      </trkpt>
      <trkpt lat="44.51248" lon="3.87493">
        <ele>1056</ele>
        <time>2017-02-28T19:31:32Z</time>
      </trkpt>
      <trkpt lat="44.51245" lon="3.87477">
        <ele>1059</ele>
        <time>2017-02-28T19:33:32Z</time>
      </trkpt>
      <trkpt lat="44.51245" lon="3.87468">
        <ele>1060</ele>
        <time>2017-02-28T19:35:32Z</time>
      </trkpt>
      <trkpt lat="44.51247" lon="3.87459">
        <ele>1059</ele>
        <time>2017-02-28T19:37:32Z</time>
      </trkpt>
      <trkpt lat="44.51248" lon="3.87457">
        <ele>1059</ele>
        <time>2017-02-28T19:39:32Z</time>
      </trkpt>
      <trkpt lat="44.51255" lon="3.87444">
        <ele>1056</ele>
        <time>2017-02-28T19:41:32Z</time>
      </trkpt>
      <trkpt lat="44.51264" lon="3.8743">
        <ele>1054</ele>
        <time>2017-02-28T19:43:32Z</time>
      </trkpt>
      <trkpt lat="44.51283" lon="3.87408">
        <ele>1049</ele>
        <time>2017-02-28T19:45:32Z</time>
      </trkpt>
      <trkpt lat="44.51298" lon="3.87389">
        <ele>1045</ele>
        <time>2017-02-28T19:47:32Z</time>
      </trkpt>
      <trkpt lat="44.51307" lon="3.87376">
        <ele>1043</ele>
        <time>2017-02-28T19:49:32Z</time>
      </trkpt>
      <trkpt lat="44.51312" lon="3.87364">
        <ele>1043</ele>
        <time>2017-02-28T19:51:32Z</time>
      </trkpt>
      <trkpt lat="44.51314" lon="3.87355">
        <ele>1043</ele>
        <time>2017-02-28T19:53:32Z</time>
      </trkpt>
      <trkpt lat="44.51316" lon="3.87348">
        <ele>1043</ele>
        <time>2017-02-28T19:55:32Z</time>
      </trkpt>
      <trkpt lat="44.51316" lon="3.87331">
        <ele>1044</ele>
        <time>2017-02-28T19:57:32Z</time>
      </trkpt>
      <trkpt lat="44.51314" lon="3.87315">
        <ele>1044</ele>
        <time>2017-02-28T19:59:32Z</time>
      </trkpt>
      <trkpt lat="44.51312" lon="3.87288">
        <ele>1043</ele>
        <time>2017-02-28T20:01:32Z</time>
      </trkpt>
      <trkpt lat="44.51308" lon="3.8726">
        <ele>1043</ele>
        <time>2017-02-28T20:03:32Z</time>
      </trkpt>
      <trkpt lat="44.51306" lon="3.87235">
        <ele>1041</ele>
        <time>2017-02-28T20:05:32Z</time>
      </trkpt>
      <trkpt lat="44.51304" lon="3.87211">
        <ele>1040</ele>
        <time>2017-02-28T20:07:32Z</time>
      </trkpt>
      <trkpt lat="44.51301" lon="3.87189">
        <ele>1039</ele>
        <time>2017-02-28T20:09:32Z</time>
      </trkpt>
      <trkpt lat="44.51294" lon="3.87164">
        <ele>1040</ele>
        <time>2017-02-28T20:11:32Z</time>
      </trkpt>
      <trkpt lat="44.51291" lon="3.87148">
        <ele>1039</ele>
        <time>2017-02-28T20:13:32Z</time>
      </trkpt>
      <trkpt lat="44.5129" lon="3.87131">
        <ele>1037</ele>
        <time>2017-02-28T20:15:32Z</time>
      </trkpt>
      <trkpt lat="44.51291" lon="3.87118">
        <ele>1035</ele>
        <time>2017-02-28T20:17:32Z</time>
      </trkpt>
      <trkpt lat="44.5129" lon="3.87106">
        <ele>1033</ele>
        <time>2017-02-28T20:19:32Z</time>
      </trkpt>
      <trkpt lat="44.51288" lon="3.87095">
        <ele>1032</ele>
        <time>2017-02-28T20:21:32Z</time>
      </trkpt>
      <trkpt lat="44.51283" lon="3.87083">
        <ele>1033</ele>
        <time>2017-02-28T20:23:32Z</time>
      </trkpt>
      <trkpt lat="44.51271" lon="3.87061">
        <ele>1033</ele>
        <time>2017-02-28T20:25:32Z</time>
      </trkpt>
      <trkpt lat="44.51255" lon="3.8703">
        <ele>1033</ele>
        <time>2017-02-28T20:27:32Z</time>
      </trkpt>
      <trkpt lat="44.51242" lon="3.87001">
        <ele>1031</ele>
        <time>2017-02-28T20:29:32Z</time>
      </trkpt>
      <trkpt lat="44.51226" lon="3.86964">
        <ele>1029</ele>
        <time>2017-02-28T20:31:32Z</time>
      </trkpt>
      <trkpt lat="44.51219" lon="3.86949">
        <ele>1028</ele>
        <time>2017-02-28T20:33:32Z</time>
      </trkpt>
      <trkpt lat="44.51212" lon="3.86937">
        <ele>1027</ele>
        <time>2017-02-28T20:35:32Z</time>
      </trkpt>
      <trkpt lat="44.51203" lon="3.86923">
        <ele>1026</ele>
        <time>2017-02-28T20:37:32Z</time>
      </trkpt>
      <trkpt lat="44.51184" lon="3.86897">
        <ele>1026</ele>
        <time>2017-02-28T20:39:32Z</time>
      </trkpt>
      <trkpt lat="44.51168" lon="3.86874">
        <ele>1025</ele>
        <time>2017-02-28T20:41:32Z</time>
      </trkpt>
      <trkpt lat="44.51157" lon="3.86859">
        <ele>1025</ele>
        <time>2017-02-28T20:43:32Z</time>
      </trkpt>
      <trkpt lat="44.51145" lon="3.86846">
        <ele>1026</ele>
        <time>2017-02-28T20:45:32Z</time>
      </trkpt>
      <trkpt lat="44.51141" lon="3.86837">
        <ele>1025</ele>
        <time>2017-02-28T20:47:32Z</time>
      </trkpt>
      <trkpt lat="44.5114" lon="3.86826">
        <ele>1023</ele>
        <time>2017-02-28T20:49:32Z</time>
      </trkpt>
      <trkpt lat="44.51137" lon="3.86815">
        <ele>1022</ele>
        <time>2017-02-28T20:51:32Z</time>
      </trkpt>
      <trkpt lat="44.51131" lon="3.86803">
        <ele>1021</ele>
        <time>2017-02-28T20:53:32Z</time>
      </trkpt>
      <trkpt lat="44.51121" lon="3.86786">
        <ele>1020</ele>
        <time>2017-02-28T20:55:32Z</time>
      </trkpt>
      <trkpt lat="44.51109" lon="3.86759">
        <ele>1017</ele>
        <time>2017-02-28T20:57:32Z</time>
      </trkpt>
      <trkpt lat="44.511" lon="3.86734">
        <ele>1016</ele>
        <time>2017-02-28T20:59:32Z</time>
      </trkpt>
      <trkpt lat="44.51085" lon="3.86706">
        <ele>1014</ele>
        <time>2017-02-28T21:01:32Z</time>
      </trkpt>
      <trkpt lat="44.51071" lon="3.86685">
        <ele>1014</ele>
        <time>2017-02-28T21:03:32Z</time>
      </trkpt>
      <trkpt lat="44.51054" lon="3.86666">
        <ele>1014</ele>
        <time>2017-02-28T21:05:32Z</time>
      </trkpt>
      <trkpt lat="44.5104" lon="3.86652">
        <ele>1019</ele>
        <time>2017-02-28T21:07:32Z</time>
      </trkpt>
      <trkpt lat="44.5103" lon="3.86642">
        <ele>1021</ele>
        <time>2017-02-28T21:09:32Z</time>
      </trkpt>
      <trkpt lat="44.51027" lon="3.86639">
        <ele>1021</ele>
        <time>2017-02-28T21:11:32Z</time>
      </trkpt>
      <trkpt lat="44.51027" lon="3.86635">
        <ele>1022</ele>
        <time>2017-02-28T21:13:32Z</time>
      </trkpt>
      <trkpt lat="44.51027" lon="3.86629">
        <ele>1022</ele>
        <time>2017-02-28T21:15:32Z</time>
      </trkpt>
      <trkpt lat="44.51028" lon="3.86627">
        <ele>1022</ele>
        <time>2017-02-28T21:17:32Z</time>
      </trkpt>
      <trkpt lat="44.51028" lon="3.86624">
        <ele>1022</ele>
        <time>2017-02-28T21:19:32Z</time>
      </trkpt>
      <trkpt lat="44.5103" lon="3.8662">
        <ele>1022</ele>
        <time>2017-02-28T21:21:32Z</time>
      </trkpt>
      <trkpt lat="44.51033" lon="3.86615">
        <ele>1023</ele>
        <time>2017-02-28T21:23:32Z</time>
      </trkpt>
      <trkpt lat="44.51038" lon="3.86612">
        <ele>1023</ele>
        <time>2017-02-28T21:25:32Z</time>
      </trkpt>
      <trkpt lat="44.51042" lon="3.86611">
        <ele>1024</ele>
        <time>2017-02-28T21:27:32Z</time>
      </trkpt>
      <trkpt lat="44.51047" lon="3.86612">
        <ele>1024</ele>
        <time>2017-02-28T21:29:32Z</time>
      </trkpt>
      <trkpt lat="44.51063" lon="3.86618">
        <ele>1023</ele>
        <time>2017-02-28T21:31:32Z</time>
      </trkpt>
      <trkpt lat="44.51086" lon="3.86624">
        <ele>1021</ele>
        <time>2017-02-28T21:33:32Z</time>
      </trkpt>
      <trkpt lat="44.51094" lon="3.86626">
        <ele>1021</ele>
        <time>2017-02-28T21:35:32Z</time>
      </trkpt>
      <trkpt lat="44.51102" lon="3.86626">
        <ele>1022</ele>
        <time>2017-02-28T21:37:32Z</time>
      </trkpt>
      <trkpt lat="44.51109" lon="3.86626">
        <ele>1023</ele>
        <time>2017-02-28T21:39:32Z</time>
      </trkpt>
      <trkpt lat="44.51117" lon="3.86626">
        <ele>1024</ele>
        <time>2017-02-28T21:41:32Z</time>
      </trkpt>
      <trkpt lat="44.51122" lon="3.86628">
        <ele>1024</ele>
        <time>2017-02-28T21:43:32Z</time>
      </trkpt>
      <trkpt lat="44.51133" lon="3.86636">
        <ele>1022</ele>
        <time>2017-02-28T21:45:32Z</time>
      </trkpt>
      <trkpt lat="44.51143" lon="3.86643">
        <ele>1020</ele>
        <time>2017-02-28T21:47:32Z</time>
      </trkpt>
      <trkpt lat="44.51155" lon="3.86648">
        <ele>1019</ele>
        <time>2017-02-28T21:49:32Z</time>
      </trkpt>
      <trkpt lat="44.51165" lon="3.8665">
        <ele>1019</ele>
        <time>2017-02-28T21:51:32Z</time>
      </trkpt>
      <trkpt lat="44.51178" lon="3.86649">
        <ele>1022</ele>
        <time>2017-02-28T21:53:32Z</time>
      </trkpt>
      <trkpt lat="44.5119" lon="3.86648">
        <ele>1025</ele>
        <time>2017-02-28T21:55:32Z</time>
      </trkpt>
      <trkpt lat="44.51203" lon="3.86649">
        <ele>1027</ele>
        <time>2017-02-28T21:57:32Z</time>
      </trkpt>
      <trkpt lat="44.51213" lon="3.86654">
        <ele>1027</ele>
        <time>2017-02-28T21:59:32Z</time>
      </trkpt>
      <trkpt lat="44.5122" lon="3.86658">
        <ele>1026</ele>
        <time>2017-02-28T22:01:32Z</time>
      </trkpt>
      <trkpt lat="44.5123" lon="3.86665">
        <ele>1026</ele>
        <time>2017-02-28T22:03:32Z</time>
      </trkpt>
      <trkpt lat="44.51239" lon="3.86671">
        <ele>1025</ele>
        <time>2017-02-28T22:05:32Z</time>
      </trkpt>
      <trkpt lat="44.5125" lon="3.86677">
        <ele>1026</ele>
        <time>2017-02-28T22:07:32Z</time>
      </trkpt>
      <trkpt lat="44.51262" lon="3.86684">
        <ele>1024</ele>
        <time>2017-02-28T22:09:32Z</time>
      </trkpt>
      <trkpt lat="44.51275" lon="3.86695">
        <ele>1022</ele>
        <time>2017-02-28T22:11:32Z</time>
      </trkpt>
      <trkpt lat="44.51284" lon="3.86704">
        <ele>1020</ele>
        <time>2017-02-28T22:13:32Z</time>
      </trkpt>
      <trkpt lat="44.51291" lon="3.86711">
        <ele>1019</ele>
        <time>2017-02-28T22:15:32Z</time>
      </trkpt>
      <trkpt lat="44.51298" lon="3.86715">
        <ele>1019</ele>
        <time>2017-02-28T22:17:32Z</time>
      </trkpt>
      <trkpt lat="44.51307" lon="3.86716">
        <ele>1019</ele>
        <time>2017-02-28T22:19:32Z</time>
      </trkpt>
      <trkpt lat="44.51316" lon="3.86716">
        <ele>1020</ele>
        <time>2017-02-28T22:21:32Z</time>
      </trkpt>
      <trkpt lat="44.51326" lon="3.86713">
        <ele>1022</ele>
        <time>2017-02-28T22:23:32Z</time>
      </trkpt>
      <trkpt lat="44.51331" lon="3.8671">
        <ele>1024</ele>
        <time>2017-02-28T22:25:32Z</time>
      </trkpt>
      <trkpt lat="44.51335" lon="3.86706">
        <ele>1025</ele>
        <time>2017-02-28T22:27:32Z</time>
      </trkpt>
      <trkpt lat="44.51346" lon="3.8669">
        <ele>1028</ele>
        <time>2017-02-28T22:29:32Z</time>
      </trkpt>
      <trkpt lat="44.51356" lon="3.86673">
        <ele>1031</ele>
        <time>2017-02-28T22:31:32Z</time>
      </trkpt>
      <trkpt lat="44.51368" lon="3.86648">
        <ele>1036</ele>
        <time>2017-02-28T22:33:32Z</time>
      </trkpt>
      <trkpt lat="44.5138" lon="3.86624">
        <ele>1039</ele>
        <time>2017-02-28T22:35:32Z</time>
      </trkpt>
      <trkpt lat="44.51386" lon="3.86611">
        <ele>1041</ele>
        <time>2017-02-28T22:37:32Z</time>
      </trkpt>
      <trkpt lat="44.5139" lon="3.86606">
        <ele>1041</ele>
        <time>2017-02-28T22:39:32Z</time>
      </trkpt>
      <trkpt lat="44.51394" lon="3.86601">
        <ele>1042</ele>
        <time>2017-02-28T22:41:32Z</time>
      </trkpt>
      <trkpt lat="44.51395" lon="3.86601">
        <ele>1042</ele>
        <time>2017-02-28T22:43:32Z</time>
      </trkpt>
      <trkpt lat="44.51396" lon="3.866">
        <ele>1042</ele>
        <time>2017-02-28T22:45:32Z</time>
      </trkpt>
      <trkpt lat="44.51398" lon="3.866">
        <ele>1041</ele>
        <time>2017-02-28T22:47:32Z</time>
      </trkpt>
      <trkpt lat="44.51401" lon="3.86599">
        <ele>1041</ele>
        <time>2017-02-28T22:49:32Z</time>
      </trkpt>
      <trkpt lat="44.51404" lon="3.866">
        <ele>1040</ele>
        <time>2017-02-28T22:51:32Z</time>
      </trkpt>
      <trkpt lat="44.51406" lon="3.866">
        <ele>1040</ele>
        <time>2017-02-28T22:53:32Z</time>
      </trkpt>
      <trkpt lat="44.51411" lon="3.86605">
        <ele>1038</ele>
        <time>2017-02-28T22:55:32Z</time>
      </trkpt>
      <trkpt lat="44.51414" lon="3.86608">
        <ele>1037</ele>
        <time>2017-02-28T22:57:32Z</time>
      </trkpt>
      <trkpt lat="44.51419" lon="3.86613">
        <ele>1036</ele>
        <time>2017-02-28T22:59:32Z</time>
      </trkpt>
      <trkpt lat="44.51423" lon="3.86616">
        <ele>1036</ele>
        <time>2017-02-28T23:01:32Z</time>
      </trkpt>
      <trkpt lat="44.51428" lon="3.86618">
        <ele>1037</ele>
        <time>2017-02-28T23:03:32Z</time>
      </trkpt>
      <trkpt lat="44.51437" lon="3.86623">
        <ele>1037</ele>
        <time>2017-02-28T23:05:32Z</time>
      </trkpt>
      <trkpt lat="44.51445" lon="3.86628">
        <ele>1038</ele>
        <time>2017-02-28T23:07:32Z</time>
      </trkpt>
      <trkpt lat="44.51448" lon="3.86633">
        <ele>1037</ele>
        <time>2017-02-28T23:09:32Z</time>
      </trkpt>
      <trkpt lat="44.5145" lon="3.8664">
        <ele>1037</ele>
        <time>2017-02-28T23:11:32Z</time>
      </trkpt>
      <trkpt lat="44.51453" lon="3.86658">
        <ele>1034</ele>
        <time>2017-02-28T23:13:32Z</time>
      </trkpt>
      <trkpt lat="44.51457" lon="3.86679">
        <ele>1032</ele>
        <time>2017-02-28T23:15:32Z</time>
      </trkpt>
      <trkpt lat="44.51459" lon="3.867">
        <ele>1030</ele>
        <time>2017-02-28T23:17:32Z</time>
      </trkpt>
      <trkpt lat="44.5146" lon="3.86716">
        <ele>1028</ele>
        <time>2017-02-28T23:19:32Z</time>
      </trkpt>
      <trkpt lat="44.51459" lon="3.86722">
        <ele>1027</ele>
        <time>2017-02-28T23:21:32Z</time>
      </trkpt>
      <trkpt lat="44.51457" lon="3.86731">
        <ele>1025</ele>
        <time>2017-02-28T23:23:32Z</time>
      </trkpt>
      <trkpt lat="44.51448" lon="3.86768">
        <ele>1019</ele>
        <time>2017-02-28T23:25:32Z</time>
      </trkpt>
      <trkpt lat="44.5144" lon="3.86805">
        <ele>1014</ele>
        <time>2017-02-28T23:27:32Z</time>
      </trkpt>
      <trkpt lat="44.51438" lon="3.8682">
        <ele>1012</ele>
        <time>2017-02-28T23:29:32Z</time>
      </trkpt>
      <trkpt lat="44.51437" lon="3.86838">
        <ele>1010</ele>
        <time>2017-02-28T23:31:32Z</time>
      </trkpt>
      <trkpt lat="44.51437" lon="3.86856">
        <ele>1008</ele>
        <time>2017-02-28T23:33:32Z</time>
      </trkpt>
      <trkpt lat="44.51441" lon="3.86881">
        <ele>1007</ele>
        <time>2017-02-28T23:35:32Z</time>
      </trkpt>
      <trkpt lat="44.51445" lon="3.86903">
        <ele>1005</ele>
        <time>2017-02-28T23:37:32Z</time>
      </trkpt>
      <trkpt lat="44.51447" lon="3.86926">
        <ele>1003</ele>
        <time>2017-02-28T23:39:32Z</time>
      </trkpt>
      <trkpt lat="44.51449" lon="3.86943">
        <ele>1001</ele>
        <time>2017-02-28T23:41:32Z</time>
      </trkpt>
      <trkpt lat="44.51452" lon="3.86956">
        <ele>999</ele>
        <time>2017-02-28T23:43:32Z</time>
      </trkpt>
      <trkpt lat="44.51455" lon="3.86972">
        <ele>997</ele>
        <time>2017-02-28T23:45:32Z</time>
      </trkpt>
      <trkpt lat="44.51458" lon="3.86984">
        <ele>995</ele>
        <time>2017-02-28T23:47:32Z</time>
      </trkpt>
      <trkpt lat="44.51462" lon="3.86994">
        <ele>994</ele>
        <time>2017-02-28T23:49:32Z</time>
      </trkpt>
      <trkpt lat="44.51465" lon="3.87">
        <ele>993</ele>
        <time>2017-02-28T23:51:32Z</time>
      </trkpt>
      <trkpt lat="44.51469" lon="3.87005">
        <ele>993</ele>
        <time>2017-02-28T23:53:32Z</time>
      </trkpt>
      <trkpt lat="44.5148" lon="3.87012">
        <ele>993</ele>
        <time>2017-02-28T23:55:32Z</time>
      </trkpt>
      <trkpt lat="44.51488" lon="3.87016">
        <ele>993</ele>
        <time>2017-02-28T23:57:32Z</time>
      </trkpt>
      <trkpt lat="44.51496" lon="3.87017">
        <ele>993</ele>
        <time>2017-02-28T23:59:32Z</time>
      </trkpt>
      <trkpt lat="44.515" lon="3.87016">
        <ele>994</ele>
        <time>2017-03-01T00:01:32Z</time>
      </trkpt>
      <trkpt lat="44.51506" lon="3.87012">
        <ele>994</ele>
        <time>2017-03-01T00:03:32Z</time>
      </trkpt>
      <trkpt lat="44.51512" lon="3.87004">
        <ele>994</ele>
        <time>2017-03-01T00:05:32Z</time>
      </trkpt>
      <trkpt lat="44.51523" lon="3.86984">
        <ele>995</ele>
        <time>2017-03-01T00:07:32Z</time>
      </trkpt>
      <trkpt lat="44.51537" lon="3.86956">
        <ele>997</ele>
        <time>2017-03-01T00:09:32Z</time>
      </trkpt>
      <trkpt lat="44.51556" lon="3.8692">
        <ele>998</ele>
        <time>2017-03-01T00:11:32Z</time>
      </trkpt>
      <trkpt lat="44.5157" lon="3.86893">
        <ele>997</ele>
        <time>2017-03-01T00:13:32Z</time>
      </trkpt>
      <trkpt lat="44.51582" lon="3.86874">
        <ele>997</ele>
        <time>2017-03-01T00:15:32Z</time>
      </trkpt>
      <trkpt lat="44.51594" lon="3.86857">
        <ele>996</ele>
        <time>2017-03-01T00:17:32Z</time>
      </trkpt>
      <trkpt lat="44.51605" lon="3.86844">
        <ele>996</ele>
        <time>2017-03-01T00:19:32Z</time>
      </trkpt>
      <trkpt lat="44.51618" lon="3.86831">
        <ele>996</ele>
        <time>2017-03-01T00:21:32Z</time>
      </trkpt>
      <trkpt lat="44.51631" lon="3.86817">
        <ele>996</ele>
        <time>2017-03-01T00:23:32Z</time>
      </trkpt>
      <trkpt lat="44.51646" lon="3.86805">
        <ele>996</ele>
        <time>2017-03-01T00:25:32Z</time>
      </trkpt>
      <trkpt lat="44.51667" lon="3.86791">
        <ele>994</ele>
        <time>2017-03-01T00:27:32Z</time>
      </trkpt>
      <trkpt lat="44.51686" lon="3.8678">
        <ele>992</ele>
        <time>2017-03-01T00:29:32Z</time>
      </trkpt>
      <trkpt lat="44.51708" lon="3.8677">
        <ele>990</ele>
        <time>2017-03-01T00:31:32Z</time>
      </trkpt>
      <trkpt lat="44.51724" lon="3.86765">
        <ele>988</ele>
        <time>2017-03-01T00:33:32Z</time>
      </trkpt>
      <trkpt lat="44.51758" lon="3.86761">
        <ele>982</ele>
        <time>2017-03-01T00:35:32Z</time>
      </trkpt>
      <trkpt lat="44.51774" lon="3.86758">
        <ele>979</ele>
        <time>2017-03-01T00:37:32Z</time>
      </trkpt>
      <trkpt lat="44.51797" lon="3.86753">
        <ele>975</ele>
        <time>2017-03-01T00:39:32Z</time>
      </trkpt>
      <trkpt lat="44.51816" lon="3.86746">
        <ele>973</ele>
        <time>2017-03-01T00:41:32Z</time>
      </trkpt>
      <trkpt lat="44.51834" lon="3.86735">
        <ele>971</ele>
        <time>2017-03-01T00:43:32Z</time>
      </trkpt>
      <trkpt lat="44.51842" lon="3.86727">
        <ele>972</ele>
        <time>2017-03-01T00:45:32Z</time>
      </trkpt>
      <trkpt lat="44.51854" lon="3.86715">
        <ele>972</ele>
        <time>2017-03-01T00:47:32Z</time>
      </trkpt>
      <trkpt lat="44.51864" lon="3.867">
        <ele>972</ele>
        <time>2017-03-01T00:49:32Z</time>
      </trkpt>
      <trkpt lat="44.51877" lon="3.86684">
        <ele>970</ele>
        <time>2017-03-01T00:51:32Z</time>
      </trkpt>
      <trkpt lat="44.51887" lon="3.86673">
        <ele>967</ele>
        <time>2017-03-01T00:53:32Z</time>
      </trkpt>
      <trkpt lat="44.51893" lon="3.86668">
        <ele>965</ele>
        <time>2017-03-01T00:55:32Z</time>
      </trkpt>
      <trkpt lat="44.519" lon="3.86666">
        <ele>963</ele>
        <time>2017-03-01T00:57:32Z</time>
      </trkpt>
      <trkpt lat="44.51907" lon="3.86665">
        <ele>961</ele>
        <time>2017-03-01T00:59:32Z</time>
      </trkpt>
      <trkpt lat="44.51915" lon="3.86667">
        <ele>958</ele>
        <time>2017-03-01T01:01:32Z</time>
      </trkpt>
      <trkpt lat="44.51924" lon="3.86668">
        <ele>958</ele>
        <time>2017-03-01T01:03:32Z</time>
      </trkpt>
      <trkpt lat="44.51938" lon="3.86666">
        <ele>959</ele>
        <time>2017-03-01T01:05:32Z</time>
      </trkpt>
      <trkpt lat="44.51946" lon="3.86665">
        <ele>960</ele>
        <time>2017-03-01T01:07:32Z</time>
      </trkpt>
      <trkpt lat="44.51955" lon="3.86662">
        <ele>960</ele>
        <time>2017-03-01T01:09:32Z</time>
      </trkpt>
      <trkpt lat="44.5196" lon="3.86659">
        <ele>961</ele>
        <time>2017-03-01T01:11:32Z</time>
      </trkpt>
      <trkpt lat="44.51967" lon="3.86656">
        <ele>961</ele>
        <time>2017-03-01T01:13:32Z</time>
      </trkpt>
      <trkpt lat="44.51971" lon="3.86654">
        <ele>961</ele>
        <time>2017-03-01T01:15:32Z</time>
      </trkpt>
      <trkpt lat="44.51995" lon="3.86643">
        <ele>962</ele>
        <time>2017-03-01T01:17:32Z</time>
      </trkpt>
      <trkpt lat="44.52" lon="3.8664">
        <ele>961</ele>
        <time>2017-03-01T01:19:32Z</time>
      </trkpt>
      <trkpt lat="44.52004" lon="3.86638">
        <ele>963</ele>
        <time>2017-03-01T01:21:32Z</time>
      </trkpt>
      <trkpt lat="44.52008" lon="3.86634">
        <ele>964</ele>
        <time>2017-03-01T01:23:32Z</time>
      </trkpt>
      <trkpt lat="44.52014" lon="3.86624">
        <ele>966</ele>
        <time>2017-03-01T01:25:32Z</time>
      </trkpt>
      <trkpt lat="44.52027" lon="3.86596">
        <ele>968</ele>
        <time>2017-03-01T01:27:32Z</time>
      </trkpt>
      <trkpt lat="44.52043" lon="3.8656">
        <ele>970</ele>
        <time>2017-03-01T01:29:32Z</time>
      </trkpt>
      <trkpt lat="44.52056" lon="3.86533">
        <ele>971</ele>
        <time>2017-03-01T01:31:32Z</time>
      </trkpt>
      <trkpt lat="44.52068" lon="3.86511">
        <ele>970</ele>
        <time>2017-03-01T01:33:32Z</time>
      </trkpt>
      <trkpt lat="44.52081" lon="3.86495">
        <ele>970</ele>
        <time>2017-03-01T01:35:32Z</time>
      </trkpt>
      <trkpt lat="44.52094" lon="3.86481">
        <ele>974</ele>
        <time>2017-03-01T01:37:32Z</time>
      </trkpt>
      <trkpt lat="44.52113" lon="3.86467">
        <ele>980</ele>
        <time>2017-03-01T01:39:32Z</time>
      </trkpt>
      <trkpt lat="44.52121" lon="3.86465">
        <ele>982</ele>
        <time>2017-03-01T01:41:32Z</time>
      </trkpt>
      <trkpt lat="44.52124" lon="3.86466">
        <ele>984</ele>
        <time>2017-03-01T01:43:32Z</time>
      </trkpt>
      <trkpt lat="44.52126" lon="3.86468">
        <ele>984</ele>
        <time>2017-03-01T01:45:32Z</time>
      </trkpt>
      <trkpt lat="44.52127" lon="3.8647">
        <ele>985</ele>
        <time>2017-03-01T01:47:32Z</time>
      </trkpt>
      <trkpt lat="44.52126" lon="3.86474">
        <ele>985</ele>
        <time>2017-03-01T01:49:32Z</time>
      </trkpt>
      <trkpt lat="44.52124" lon="3.86478">
        <ele>984</ele>
        <time>2017-03-01T01:51:32Z</time>
      </trkpt>
      <trkpt lat="44.52117" lon="3.86487">
        <ele>982</ele>
        <time>2017-03-01T01:53:32Z</time>
      </trkpt>
      <trkpt lat="44.52099" lon="3.86507">
        <ele>978</ele>
        <time>2017-03-01T01:55:32Z</time>
      </trkpt>
      <trkpt lat="44.52096" lon="3.86512">
        <ele>978</ele>
        <time>2017-03-01T01:57:32Z</time>
      </trkpt>
      <trkpt lat="44.52093" lon="3.86523">
        <ele>979</ele>
        <time>2017-03-01T01:59:32Z</time>
      </trkpt>
      <trkpt lat="44.52088" lon="3.86541">
        <ele>981</ele>
        <time>2017-03-01T02:01:32Z</time>
      </trkpt>
      <trkpt lat="44.52081" lon="3.86572">
        <ele>984</ele>
        <time>2017-03-01T02:03:32Z</time>
      </trkpt>
      <trkpt lat="44.52072" lon="3.86614">
        <ele>989</ele>
        <time>2017-03-01T02:05:32Z</time>
      </trkpt>
      <trkpt lat="44.52064" lon="3.86646">
        <ele>991</ele>
        <time>2017-03-01T02:07:32Z</time>
      </trkpt>
      <trkpt lat="44.52058" lon="3.86671">
        <ele>992</ele>
        <time>2017-03-01T02:09:32Z</time>
      </trkpt>
      <trkpt lat="44.52054" lon="3.86685">
        <ele>992</ele>
        <time>2017-03-01T02:11:32Z</time>
      </trkpt>
      <trkpt lat="44.52047" lon="3.86698">
        <ele>990</ele>
        <time>2017-03-01T02:13:32Z</time>
      </trkpt>
      <trkpt lat="44.52041" lon="3.86713">
        <ele>990</ele>
        <time>2017-03-01T02:15:32Z</time>
      </trkpt>
      <trkpt lat="44.52038" lon="3.86722">
        <ele>990</ele>
        <time>2017-03-01T02:17:32Z</time>
      </trkpt>
      <trkpt lat="44.52036" lon="3.8673">
        <ele>990</ele>
        <time>2017-03-01T02:19:32Z</time>
      </trkpt>
      <trkpt lat="44.52035" lon="3.86738">
        <ele>991</ele>
        <time>2017-03-01T02:21:32Z</time>
      </trkpt>
      <trkpt lat="44.52035" lon="3.86745">
        <ele>992</ele>
        <time>2017-03-01T02:23:32Z</time>
      </trkpt>
      <trkpt lat="44.52038" lon="3.86753">
        <ele>994</ele>
        <time>2017-03-01T02:25:32Z</time>
      </trkpt>
      <trkpt lat="44.52041" lon="3.86759">
        <ele>996</ele>
        <time>2017-03-01T02:27:32Z</time>
      </trkpt>
      <trkpt lat="44.52047" lon="3.86764">
        <ele>999</ele>
        <time>2017-03-01T02:29:32Z</time>
      </trkpt>
      <trkpt lat="44.52053" lon="3.86765">
        <ele>1001</ele>
        <time>2017-03-01T02:31:32Z</time>
      </trkpt>
      <trkpt lat="44.52063" lon="3.86763">
        <ele>1004</ele>
        <time>2017-03-01T02:33:32Z</time>
      </trkpt>
      <trkpt lat="44.52083" lon="3.86758">
        <ele>1009</ele>
        <time>2017-03-01T02:35:32Z</time>
      </trkpt>
      <trkpt lat="44.52095" lon="3.86757">
        <ele>1012</ele>
        <time>2017-03-01T02:37:32Z</time>
      </trkpt>
      <trkpt lat="44.52101" lon="3.86759">
        <ele>1015</ele>
        <time>2017-03-01T02:39:32Z</time>
      </trkpt>
      <trkpt lat="44.52105" lon="3.86762">
        <ele>1016</ele>
        <time>2017-03-01T02:41:32Z</time>
      </trkpt>
      <trkpt lat="44.52106" lon="3.86766">
        <ele>1017</ele>
        <time>2017-03-01T02:43:32Z</time>
      </trkpt>
      <trkpt lat="44.52106" lon="3.86769">
        <ele>1017</ele>
        <time>2017-03-01T02:45:32Z</time>
      </trkpt>
      <trkpt lat="44.52106" lon="3.86773">
        <ele>1018</ele>
        <time>2017-03-01T02:47:32Z</time>
      </trkpt>
      <trkpt lat="44.52105" lon="3.86781">
        <ele>1019</ele>
        <time>2017-03-01T02:49:32Z</time>
      </trkpt>
      <trkpt lat="44.52099" lon="3.86793">
        <ele>1019</ele>
        <time>2017-03-01T02:51:32Z</time>
      </trkpt>
      <trkpt lat="44.52087" lon="3.86814">
        <ele>1018</ele>
        <time>2017-03-01T02:53:32Z</time>
      </trkpt>
      <trkpt lat="44.52085" lon="3.86816">
        <ele>1018</ele>
        <time>2017-03-01T02:55:32Z</time>
      </trkpt>
      <trkpt lat="44.52076" lon="3.8683">
        <ele>1018</ele>
        <time>2017-03-01T02:57:32Z</time>
      </trkpt>
      <trkpt lat="44.52061" lon="3.86845">
        <ele>1019</ele>
        <time>2017-03-01T02:59:32Z</time>
      </trkpt>
      <trkpt lat="44.52044" lon="3.86861">
        <ele>1020</ele>
        <time>2017-03-01T03:01:32Z</time>
      </trkpt>
      <trkpt lat="44.52023" lon="3.86876">
        <ele>1021</ele>
        <time>2017-03-01T03:03:32Z</time>
      </trkpt>
      <trkpt lat="44.52007" lon="3.86887">
        <ele>1022</ele>
        <time>2017-03-01T03:05:32Z</time>
      </trkpt>
      <trkpt lat="44.51997" lon="3.86896">
        <ele>1023</ele>
        <time>2017-03-01T03:07:32Z</time>
      </trkpt>
      <trkpt lat="44.51983" lon="3.8691">
        <ele>1025</ele>
        <time>2017-03-01T03:09:32Z</time>
      </trkpt>
      <trkpt lat="44.51964" lon="3.86934">
        <ele>1027</ele>
        <time>2017-03-01T03:11:32Z</time>
      </trkpt>
      <trkpt lat="44.51951" lon="3.86956">
        <ele>1029</ele>
        <time>2017-03-01T03:13:32Z</time>
      </trkpt>
      <trkpt lat="44.51931" lon="3.86988">
        <ele>1032</ele>
        <time>2017-03-01T03:15:32Z</time>
      </trkpt>
      <trkpt lat="44.51905" lon="3.87032">
        <ele>1034</ele>
        <time>2017-03-01T03:17:32Z</time>
      </trkpt>
      <trkpt lat="44.51897" lon="3.87045">
        <ele>1035</ele>
        <time>2017-03-01T03:19:32Z</time>
      </trkpt>
      <trkpt lat="44.51892" lon="3.87057">
        <ele>1036</ele>
        <time>2017-03-01T03:21:32Z</time>
      </trkpt>
      <trkpt lat="44.5189" lon="3.8707">
        <ele>1038</ele>
        <time>2017-03-01T03:23:32Z</time>
      </trkpt>
      <trkpt lat="44.5189" lon="3.8708">
        <ele>1041</ele>
        <time>2017-03-01T03:25:32Z</time>
      </trkpt>
      <trkpt lat="44.51891" lon="3.87091">
        <ele>1041</ele>
        <time>2017-03-01T03:27:32Z</time>
      </trkpt>
      <trkpt lat="44.51894" lon="3.87101">
        <ele>1041</ele>
        <time>2017-03-01T03:29:32Z</time>
      </trkpt>
      <trkpt lat="44.51898" lon="3.87107">
        <ele>1042</ele>
        <time>2017-03-01T03:31:32Z</time>
      </trkpt>
      <trkpt lat="44.51903" lon="3.87114">
        <ele>1043</ele>
        <time>2017-03-01T03:33:32Z</time>
      </trkpt>
      <trkpt lat="44.51924" lon="3.87134">
        <ele>1049</ele>
        <time>2017-03-01T03:35:32Z</time>
      </trkpt>
      <trkpt lat="44.51945" lon="3.87157">
        <ele>1054</ele>
        <time>2017-03-01T03:37:32Z</time>
      </trkpt>
      <trkpt lat="44.51955" lon="3.87169">
        <ele>1057</ele>
        <time>2017-03-01T03:39:32Z</time>
      </trkpt>
      <trkpt lat="44.51962" lon="3.8718">
        <ele>1060</ele>
        <time>2017-03-01T03:41:32Z</time>
      </trkpt>
      <trkpt lat="44.51967" lon="3.87194">
        <ele>1062</ele>
        <time>2017-03-01T03:43:32Z</time>
      </trkpt>
      <trkpt lat="44.51968" lon="3.87205">
        <ele>1063</ele>
        <time>2017-03-01T03:45:32Z</time>
      </trkpt>
      <trkpt lat="44.51968" lon="3.87214">
        <ele>1063</ele>
        <time>2017-03-01T03:47:32Z</time>
      </trkpt>
      <trkpt lat="44.51966" lon="3.87224">
        <ele>1063</ele>
        <time>2017-03-01T03:49:32Z</time>
      </trkpt>
      <trkpt lat="44.51966" lon="3.87224">
        <ele>1063</ele>
        <time>2017-03-01T03:51:32Z</time>
      </trkpt>
      <trkpt lat="44.51971" lon="3.8722">
        <ele>1064</ele>
        <time>2017-03-01T03:53:32Z</time>
      </trkpt>
      <trkpt lat="44.51974" lon="3.87216">
        <ele>1065</ele>
        <time>2017-03-01T03:55:32Z</time>
      </trkpt>
      <trkpt lat="44.51977" lon="3.87207">
        <ele>1065</ele>
        <time>2017-03-01T03:57:32Z</time>
      </trkpt>
      <trkpt lat="44.51985" lon="3.87185">
        <ele>1067</ele>
        <time>2017-03-01T03:59:32Z</time>
      </trkpt>
      <trkpt lat="44.51991" lon="3.87162">
        <ele>1067</ele>
        <time>2017-03-01T04:01:32Z</time>
      </trkpt>
      <trkpt lat="44.51995" lon="3.87146">
        <ele>1068</ele>
        <time>2017-03-01T04:03:32Z</time>
      </trkpt>
      <trkpt lat="44.52" lon="3.87132">
        <ele>1069</ele>
        <time>2017-03-01T04:05:32Z</time>
      </trkpt>
      <trkpt lat="44.52006" lon="3.87114">
        <ele>1069</ele>
        <time>2017-03-01T04:07:32Z</time>
      </trkpt>
      <trkpt lat="44.52014" lon="3.87095">
        <ele>1070</ele>
        <time>2017-03-01T04:09:32Z</time>
      </trkpt>
      <trkpt lat="44.52021" lon="3.87081">
        <ele>1070</ele>
        <time>2017-03-01T04:11:32Z</time>
      </trkpt>
      <trkpt lat="44.52028" lon="3.87069">
        <ele>1070</ele>
        <time>2017-03-01T04:13:32Z</time>
      </trkpt>
      <trkpt lat="44.52039" lon="3.87053">
        <ele>1070</ele>
        <time>2017-03-01T04:15:32Z</time>
      </trkpt>
      <trkpt lat="44.5205" lon="3.8704">
        <ele>1069</ele>
        <time>2017-03-01T04:17:32Z</time>
      </trkpt>
      <trkpt lat="44.52062" lon="3.87029">
        <ele>1070</ele>
        <time>2017-03-01T04:19:32Z</time>
      </trkpt>
      <trkpt lat="44.52074" lon="3.87018">
        <ele>1070</ele>
        <time>2017-03-01T04:21:32Z</time>
      </trkpt>
      <trkpt lat="44.52093" lon="3.87002">
        <ele>1070</ele>
        <time>2017-03-01T04:23:32Z</time>
      </trkpt>
      <trkpt lat="44.52114" lon="3.86986">
        <ele>1069</ele>
        <time>2017-03-01T04:25:32Z</time>
      </trkpt>
      <trkpt lat="44.52135" lon="3.86968">
        <ele>1069</ele>
        <time>2017-03-01T04:27:32Z</time>
      </trkpt>
      <trkpt lat="44.52159" lon="3.86949">
        <ele>1070</ele>
        <time>2017-03-01T04:29:32Z</time>
      </trkpt>
      <trkpt lat="44.52179" lon="3.86936">
        <ele>1071</ele>
        <time>2017-03-01T04:31:32Z</time>
      </trkpt>
      <trkpt lat="44.52198" lon="3.86924">
        <ele>1073</ele>
        <time>2017-03-01T04:33:32Z</time>
      </trkpt>
      <trkpt lat="44.52217" lon="3.86909">
        <ele>1074</ele>
        <time>2017-03-01T04:35:32Z</time>
      </trkpt>
      <trkpt lat="44.52232" lon="3.86897">
        <ele>1075</ele>
        <time>2017-03-01T04:37:32Z</time>
      </trkpt>
      <trkpt lat="44.52235" lon="3.86893">
        <ele>1075</ele>
        <time>2017-03-01T04:39:32Z</time>
      </trkpt>
      <trkpt lat="44.52253" lon="3.86878">
        <ele>1076</ele>
        <time>2017-03-01T04:41:32Z</time>
      </trkpt>
      <trkpt lat="44.52279" lon="3.86855">
        <ele>1077</ele>
        <time>2017-03-01T04:43:32Z</time>
      </trkpt>
      <trkpt lat="44.52299" lon="3.86836">
        <ele>1079</ele>
        <time>2017-03-01T04:45:32Z</time>
      </trkpt>
      <trkpt lat="44.52317" lon="3.86812">
        <ele>1080</ele>
        <time>2017-03-01T04:47:32Z</time>
      </trkpt>
      <trkpt lat="44.52333" lon="3.86792">
        <ele>1081</ele>
        <time>2017-03-01T04:49:32Z</time>
      </trkpt>
      <trkpt lat="44.52347" lon="3.86772">
        <ele>1082</ele>
        <time>2017-03-01T04:51:32Z</time>
      </trkpt>
      <trkpt lat="44.52363" lon="3.8675">
        <ele>1083</ele>
        <time>2017-03-01T04:53:32Z</time>
      </trkpt>
      <trkpt lat="44.52379" lon="3.86725">
        <ele>1084</ele>
        <time>2017-03-01T04:55:32Z</time>
      </trkpt>
      <trkpt lat="44.52393" lon="3.86703">
        <ele>1086</ele>
        <time>2017-03-01T04:57:32Z</time>
      </trkpt>
      <trkpt lat="44.52395" lon="3.867">
        <ele>1086</ele>
        <time>2017-03-01T04:59:32Z</time>
      </trkpt>
      <trkpt lat="44.52396" lon="3.86697">
        <ele>1086</ele>
        <time>2017-03-01T05:01:32Z</time>
      </trkpt>
      <trkpt lat="44.52396" lon="3.86695">
        <ele>1086</ele>
        <time>2017-03-01T05:03:32Z</time>
      </trkpt>
      <trkpt lat="44.52396" lon="3.86694">
        <ele>1086</ele>
        <time>2017-03-01T05:05:32Z</time>
      </trkpt>
      <trkpt lat="44.52396" lon="3.86691">
        <ele>1086</ele>
        <time>2017-03-01T05:07:32Z</time>
      </trkpt>
      <trkpt lat="44.52396" lon="3.8669">
        <ele>1086</ele>
        <time>2017-03-01T05:09:32Z</time>
      </trkpt>
      <trkpt lat="44.52395" lon="3.86687">
        <ele>1086</ele>
        <time>2017-03-01T05:11:32Z</time>
      </trkpt>
      <trkpt lat="44.52394" lon="3.86683">
        <ele>1086</ele>
        <time>2017-03-01T05:13:32Z</time>
      </trkpt>
      <trkpt lat="44.52394" lon="3.86683">
        <ele>1086</ele>
        <time>2017-03-01T05:15:32Z</time>
      </trkpt>
      <trkpt lat="44.52402" lon="3.86686">
        <ele>1087</ele>
        <time>2017-03-01T05:17:32Z</time>
      </trkpt>
      <trkpt lat="44.52402" lon="3.86686">
        <ele>1087</ele>
        <time>2017-03-01T05:19:32Z</time>
      </trkpt>
      <trkpt lat="44.52409" lon="3.86677">
        <ele>1088</ele>
        <time>2017-03-01T05:21:32Z</time>
      </trkpt>
      <trkpt lat="44.52419" lon="3.86662">
        <ele>1089</ele>
        <time>2017-03-01T05:23:32Z</time>
      </trkpt>
      <trkpt lat="44.52433" lon="3.86638">
        <ele>1089</ele>
        <time>2017-03-01T05:25:32Z</time>
      </trkpt>
      <trkpt lat="44.52449" lon="3.8661">
        <ele>1090</ele>
        <time>2017-03-01T05:27:32Z</time>
      </trkpt>
      <trkpt lat="44.52459" lon="3.86593">
        <ele>1091</ele>
        <time>2017-03-01T05:29:32Z</time>
      </trkpt>
      <trkpt lat="44.52472" lon="3.86571">
        <ele>1092</ele>
        <time>2017-03-01T05:31:32Z</time>
      </trkpt>
      <trkpt lat="44.5248" lon="3.86556">
        <ele>1093</ele>
        <time>2017-03-01T05:33:32Z</time>
      </trkpt>
      <trkpt lat="44.52486" lon="3.86543">
        <ele>1094</ele>
        <time>2017-03-01T05:35:32Z</time>
      </trkpt>
      <trkpt lat="44.52494" lon="3.86519">
        <ele>1096</ele>
        <time>2017-03-01T05:37:32Z</time>
      </trkpt>
      <trkpt lat="44.52501" lon="3.86498">
        <ele>1097</ele>
        <time>2017-03-01T05:39:32Z</time>
      </trkpt>
      <trkpt lat="44.52509" lon="3.86469">
        <ele>1097</ele>
        <time>2017-03-01T05:41:32Z</time>
      </trkpt>
      <trkpt lat="44.52517" lon="3.86442">
        <ele>1097</ele>
        <time>2017-03-01T05:43:32Z</time>
      </trkpt>
      <trkpt lat="44.52528" lon="3.86414">
        <ele>1097</ele>
        <time>2017-03-01T05:45:32Z</time>
      </trkpt>
      <trkpt lat="44.52536" lon="3.86396">
        <ele>1098</ele>
        <time>2017-03-01T05:47:32Z</time>
      </trkpt>
      <trkpt lat="44.52545" lon="3.86378">
        <ele>1099</ele>
        <time>2017-03-01T05:49:32Z</time>
      </trkpt>
      <trkpt lat="44.52559" lon="3.86356">
        <ele>1100</ele>
        <time>2017-03-01T05:51:32Z</time>
      </trkpt>
      <trkpt lat="44.52575" lon="3.86329">
        <ele>1102</ele>
        <time>2017-03-01T05:53:32Z</time>
      </trkpt>
      <trkpt lat="44.52584" lon="3.86315">
        <ele>1102</ele>
        <time>2017-03-01T05:55:32Z</time>
      </trkpt>
      <trkpt lat="44.52584" lon="3.86302">
        <ele>1101</ele>
        <time>2017-03-01T05:57:32Z</time>
      </trkpt>
      <trkpt lat="44.52585" lon="3.86261">
        <ele>1099</ele>
        <time>2017-03-01T05:59:32Z</time>
      </trkpt>
      <trkpt lat="44.52586" lon="3.86218">
        <ele>1096</ele>
        <time>2017-03-01T06:01:32Z</time>
      </trkpt>
      <trkpt lat="44.52588" lon="3.86162">
        <ele>1094</ele>
        <time>2017-03-01T06:03:32Z</time>
      </trkpt>
      <trkpt lat="44.52589" lon="3.86134">
        <ele>1093</ele>
        <time>2017-03-01T06:05:32Z</time>
      </trkpt>
      <trkpt lat="44.52592" lon="3.86112">
        <ele>1092</ele>
        <time>2017-03-01T06:07:32Z</time>
      </trkpt>
      <trkpt lat="44.52596" lon="3.86075">
        <ele>1091</ele>
        <time>2017-03-01T06:09:32Z</time>
      </trkpt>
      <trkpt lat="44.526" lon="3.8604">
        <ele>1089</ele>
        <time>2017-03-01T06:11:32Z</time>
      </trkpt>
      <trkpt lat="44.52603" lon="3.86018">
        <ele>1088</ele>
        <time>2017-03-01T06:13:32Z</time>
      </trkpt>
      <trkpt lat="44.52604" lon="3.85993">
        <ele>1087</ele>
        <time>2017-03-01T06:15:32Z</time>
      </trkpt>
      <trkpt lat="44.52606" lon="3.85966">
        <ele>1085</ele>
        <time>2017-03-01T06:17:32Z</time>
      </trkpt>
      <trkpt lat="44.52607" lon="3.85952">
        <ele>1084</ele>
        <time>2017-03-01T06:19:32Z</time>
      </trkpt>
      <trkpt lat="44.52609" lon="3.85938">
        <ele>1083</ele>
        <time>2017-03-01T06:21:32Z</time>
      </trkpt>
      <trkpt lat="44.52613" lon="3.85925">
        <ele>1082</ele>
        <time>2017-03-01T06:23:32Z</time>
      </trkpt>
      <trkpt lat="44.52617" lon="3.85919">
        <ele>1082</ele>
        <time>2017-03-01T06:25:32Z</time>
      </trkpt>
      <trkpt lat="44.52622" lon="3.85915">
        <ele>1081</ele>
        <time>2017-03-01T06:27:32Z</time>
      </trkpt>
      <trkpt lat="44.52638" lon="3.85908">
        <ele>1080</ele>
        <time>2017-03-01T06:29:32Z</time>
      </trkpt>
      <trkpt lat="44.52656" lon="3.85903">
        <ele>1079</ele>
        <time>2017-03-01T06:31:32Z</time>
      </trkpt>
      <trkpt lat="44.52656" lon="3.85901">
        <ele>1079</ele>
        <time>2017-03-01T06:33:32Z</time>
      </trkpt>
      <trkpt lat="44.52656" lon="3.85901">
        <ele>1079</ele>
        <time>2017-03-01T06:35:32Z</time>
      </trkpt>
      <trkpt lat="44.52658" lon="3.859">
        <ele>1079</ele>
        <time>2017-03-01T06:37:32Z</time>
      </trkpt>
      <trkpt lat="44.52661" lon="3.85893">
        <ele>1078</ele>
        <time>2017-03-01T06:39:32Z</time>
      </trkpt>
      <trkpt lat="44.52661" lon="3.85888">
        <ele>1078</ele>
        <time>2017-03-01T06:41:32Z</time>
      </trkpt>
      <trkpt lat="44.52659" lon="3.85877">
        <ele>1078</ele>
        <time>2017-03-01T06:43:32Z</time>
      </trkpt>
      <trkpt lat="44.52649" lon="3.85855">
        <ele>1077</ele>
        <time>2017-03-01T06:45:32Z</time>
      </trkpt>
      <trkpt lat="44.52641" lon="3.85838">
        <ele>1077</ele>
        <time>2017-03-01T06:47:32Z</time>
      </trkpt>
      <trkpt lat="44.52639" lon="3.85834">
        <ele>1077</ele>
        <time>2017-03-01T06:49:32Z</time>
      </trkpt>
      <trkpt lat="44.52635" lon="3.85824">
        <ele>1077</ele>
        <time>2017-03-01T06:51:32Z</time>
      </trkpt>
      <trkpt lat="44.5263" lon="3.85813">
        <ele>1078</ele>
        <time>2017-03-01T06:53:32Z</time>
      </trkpt>
      <trkpt lat="44.52627" lon="3.85804">
        <ele>1078</ele>
        <time>2017-03-01T06:55:32Z</time>
      </trkpt>
      <trkpt lat="44.52624" lon="3.85794">
        <ele>1079</ele>
        <time>2017-03-01T06:57:32Z</time>
      </trkpt>
      <trkpt lat="44.52624" lon="3.85783">
        <ele>1079</ele>
        <time>2017-03-01T06:59:32Z</time>
      </trkpt>
      <trkpt lat="44.52624" lon="3.85782">
        <ele>1079</ele>
        <time>2017-03-01T07:01:32Z</time>
      </trkpt>
      <trkpt lat="44.52624" lon="3.85761">
        <ele>1080</ele>
        <time>2017-03-01T07:03:32Z</time>
      </trkpt>
      <trkpt lat="44.52624" lon="3.85744">
        <ele>1081</ele>
        <time>2017-03-01T07:05:32Z</time>
      </trkpt>
      <trkpt lat="44.52626" lon="3.85727">
        <ele>1082</ele>
        <time>2017-03-01T07:07:32Z</time>
      </trkpt>
      <trkpt lat="44.52629" lon="3.85709">
        <ele>1083</ele>
        <time>2017-03-01T07:09:32Z</time>
      </trkpt>
      <trkpt lat="44.52634" lon="3.85694">
        <ele>1084</ele>
        <time>2017-03-01T07:11:32Z</time>
      </trkpt>
      <trkpt lat="44.52644" lon="3.85676">
        <ele>1085</ele>
        <time>2017-03-01T07:13:32Z</time>
      </trkpt>
      <trkpt lat="44.52654" lon="3.85657">
        <ele>1086</ele>
        <time>2017-03-01T07:15:32Z</time>
      </trkpt>
      <trkpt lat="44.5266" lon="3.8564">
        <ele>1087</ele>
        <time>2017-03-01T07:17:32Z</time>
      </trkpt>
      <trkpt lat="44.52665" lon="3.8562">
        <ele>1088</ele>
        <time>2017-03-01T07:19:32Z</time>
      </trkpt>
      <trkpt lat="44.52668" lon="3.85599">
        <ele>1089</ele>
        <time>2017-03-01T07:21:32Z</time>
      </trkpt>
      <trkpt lat="44.52673" lon="3.85573">
        <ele>1090</ele>
        <time>2017-03-01T07:23:32Z</time>
      </trkpt>
      <trkpt lat="44.52676" lon="3.85554">
        <ele>1092</ele>
        <time>2017-03-01T07:25:32Z</time>
      </trkpt>
      <trkpt lat="44.52678" lon="3.85532">
        <ele>1094</ele>
        <time>2017-03-01T07:27:32Z</time>
      </trkpt>
      <trkpt lat="44.52679" lon="3.85507">
        <ele>1096</ele>
        <time>2017-03-01T07:29:32Z</time>
      </trkpt>
      <trkpt lat="44.52681" lon="3.85489">
        <ele>1098</ele>
        <time>2017-03-01T07:31:32Z</time>
      </trkpt>
      <trkpt lat="44.52683" lon="3.85472">
        <ele>1100</ele>
        <time>2017-03-01T07:33:32Z</time>
      </trkpt>
      <trkpt lat="44.52687" lon="3.85457">
        <ele>1101</ele>
        <time>2017-03-01T07:35:32Z</time>
      </trkpt>
      <trkpt lat="44.52693" lon="3.85437">
        <ele>1103</ele>
        <time>2017-03-01T07:37:32Z</time>
      </trkpt>
      <trkpt lat="44.52701" lon="3.85415">
        <ele>1104</ele>
        <time>2017-03-01T07:39:32Z</time>
      </trkpt>
      <trkpt lat="44.52711" lon="3.85389">
        <ele>1106</ele>
        <time>2017-03-01T07:41:32Z</time>
      </trkpt>
      <trkpt lat="44.52721" lon="3.85358">
        <ele>1107</ele>
        <time>2017-03-01T07:43:32Z</time>
      </trkpt>
      <trkpt lat="44.52733" lon="3.85325">
        <ele>1108</ele>
        <time>2017-03-01T07:45:32Z</time>
      </trkpt>
      <trkpt lat="44.52745" lon="3.85294">
        <ele>1107</ele>
        <time>2017-03-01T07:47:32Z</time>
      </trkpt>
      <trkpt lat="44.52749" lon="3.85279">
        <ele>1106</ele>
        <time>2017-03-01T07:49:32Z</time>
      </trkpt>
      <trkpt lat="44.52754" lon="3.85264">
        <ele>1106</ele>
        <time>2017-03-01T07:51:32Z</time>
      </trkpt>
      <trkpt lat="44.52755" lon="3.85261">
        <ele>1106</ele>
        <time>2017-03-01T07:53:32Z</time>
      </trkpt>
      <trkpt lat="44.52755" lon="3.85261">
        <ele>1106</ele>
        <time>2017-03-01T07:55:32Z</time>
      </trkpt>
      <trkpt lat="44.5276" lon="3.85239">
        <ele>1107</ele>
        <time>2017-03-01T07:57:32Z</time>
      </trkpt>
      <trkpt lat="44.52762" lon="3.8523">
        <ele>1107</ele>
        <time>2017-03-01T07:59:32Z</time>
      </trkpt>
      <trkpt lat="44.52762" lon="3.8522">
        <ele>1108</ele>
        <time>2017-03-01T08:01:32Z</time>
      </trkpt>
      <trkpt lat="44.52761" lon="3.8521">
        <ele>1109</ele>
        <time>2017-03-01T08:03:32Z</time>
      </trkpt>
      <trkpt lat="44.52759" lon="3.85198">
        <ele>1110</ele>
        <time>2017-03-01T08:05:32Z</time>
      </trkpt>
      <trkpt lat="44.52756" lon="3.85184">
        <ele>1111</ele>
        <time>2017-03-01T08:07:32Z</time>
      </trkpt>
      <trkpt lat="44.52753" lon="3.85171">
        <ele>1112</ele>
        <time>2017-03-01T08:09:32Z</time>
      </trkpt>
      <trkpt lat="44.52754" lon="3.85155">
        <ele>1114</ele>
        <time>2017-03-01T08:11:32Z</time>
      </trkpt>
      <trkpt lat="44.52755" lon="3.8514">
        <ele>1116</ele>
        <time>2017-03-01T08:13:32Z</time>
      </trkpt>
      <trkpt lat="44.52757" lon="3.85129">
        <ele>1118</ele>
        <time>2017-03-01T08:15:32Z</time>
      </trkpt>
      <trkpt lat="44.5276" lon="3.85121">
        <ele>1118</ele>
        <time>2017-03-01T08:17:32Z</time>
      </trkpt>
      <trkpt lat="44.52774" lon="3.85096">
        <ele>1120</ele>
        <time>2017-03-01T08:19:32Z</time>
      </trkpt>
      <trkpt lat="44.5279" lon="3.85076">
        <ele>1120</ele>
        <time>2017-03-01T08:21:32Z</time>
      </trkpt>
      <trkpt lat="44.52792" lon="3.85072">
        <ele>1120</ele>
        <time>2017-03-01T08:23:32Z</time>
      </trkpt>
      <trkpt lat="44.52794" lon="3.85069">
        <ele>1121</ele>
        <time>2017-03-01T08:25:32Z</time>
      </trkpt>
      <trkpt lat="44.52796" lon="3.85063">
        <ele>1121</ele>
        <time>2017-03-01T08:27:32Z</time>
      </trkpt>
      <trkpt lat="44.52798" lon="3.85054">
        <ele>1122</ele>
        <time>2017-03-01T08:29:32Z</time>
      </trkpt>
      <trkpt lat="44.52798" lon="3.85054">
        <ele>1122</ele>
        <time>2017-03-01T08:31:32Z</time>
      </trkpt>
      <trkpt lat="44.52794" lon="3.85052">
        <ele>1123</ele>
        <time>2017-03-01T08:33:32Z</time>
      </trkpt>
      <trkpt lat="44.52788" lon="3.85048">
        <ele>1125</ele>
        <time>2017-03-01T08:35:32Z</time>
      </trkpt>
      <trkpt lat="44.5278" lon="3.85044">
        <ele>1127</ele>
        <time>2017-03-01T08:37:32Z</time>
      </trkpt>
      <trkpt lat="44.52778" lon="3.85044">
        <ele>1127</ele>
        <time>2017-03-01T08:39:32Z</time>
      </trkpt>
      <trkpt lat="44.52771" lon="3.85043">
        <ele>1128</ele>
        <time>2017-03-01T08:41:32Z</time>
      </trkpt>
      <trkpt lat="44.52764" lon="3.85043">
        <ele>1129</ele>
        <time>2017-03-01T08:43:32Z</time>
      </trkpt>
      <trkpt lat="44.52756" lon="3.85048">
        <ele>1130</ele>
        <time>2017-03-01T08:45:32Z</time>
      </trkpt>
      <trkpt lat="44.52748" lon="3.85056">
        <ele>1130</ele>
        <time>2017-03-01T08:47:32Z</time>
      </trkpt>
      <trkpt lat="44.52738" lon="3.85071">
        <ele>1131</ele>
        <time>2017-03-01T08:49:32Z</time>
      </trkpt>
      <trkpt lat="44.52728" lon="3.85093">
        <ele>1131</ele>
        <time>2017-03-01T08:51:32Z</time>
      </trkpt>
      <trkpt lat="44.52717" lon="3.85115">
        <ele>1131</ele>
        <time>2017-03-01T08:53:32Z</time>
      </trkpt>
      <trkpt lat="44.5271" lon="3.85135">
        <ele>1131</ele>
        <time>2017-03-01T08:55:32Z</time>
      </trkpt>
      <trkpt lat="44.5271" lon="3.85135">
        <ele>1131</ele>
        <time>2017-03-01T08:57:32Z</time>
      </trkpt>
      <trkpt lat="44.52707" lon="3.85135">
        <ele>1132</ele>
        <time>2017-03-01T08:59:32Z</time>
      </trkpt>
      <trkpt lat="44.52705" lon="3.85135">
        <ele>1132</ele>
        <time>2017-03-01T09:01:32Z</time>
      </trkpt>
      <trkpt lat="44.52704" lon="3.85136">
        <ele>1132</ele>
        <time>2017-03-01T09:03:32Z</time>
      </trkpt>
      <trkpt lat="44.52703" lon="3.85137">
        <ele>1133</ele>
        <time>2017-03-01T09:05:32Z</time>
      </trkpt>
      <trkpt lat="44.52697" lon="3.85146">
        <ele>1133</ele>
        <time>2017-03-01T09:07:32Z</time>
      </trkpt>
      <trkpt lat="44.52688" lon="3.85161">
        <ele>1133</ele>
        <time>2017-03-01T09:09:32Z</time>
      </trkpt>
      <trkpt lat="44.52677" lon="3.85179">
        <ele>1135</ele>
        <time>2017-03-01T09:11:32Z</time>
      </trkpt>
      <trkpt lat="44.5267" lon="3.85187">
        <ele>1136</ele>
        <time>2017-03-01T09:13:32Z</time>
      </trkpt>
      <trkpt lat="44.52663" lon="3.85192">
        <ele>1137</ele>
        <time>2017-03-01T09:15:32Z</time>
      </trkpt>
      <trkpt lat="44.52657" lon="3.85197">
        <ele>1138</ele>
        <time>2017-03-01T09:17:32Z</time>
      </trkpt>
      <trkpt lat="44.52651" lon="3.85199">
        <ele>1140</ele>
        <time>2017-03-01T09:19:32Z</time>
      </trkpt>
      <trkpt lat="44.52645" lon="3.85203">
        <ele>1140</ele>
        <time>2017-03-01T09:21:32Z</time>
      </trkpt>
      <trkpt lat="44.52641" lon="3.85207">
        <ele>1141</ele>
        <time>2017-03-01T09:23:32Z</time>
      </trkpt>
      <trkpt lat="44.52635" lon="3.85213">
        <ele>1142</ele>
        <time>2017-03-01T09:25:32Z</time>
      </trkpt>
      <trkpt lat="44.52608" lon="3.85238">
        <ele>1145</ele>
        <time>2017-03-01T09:27:32Z</time>
      </trkpt>
      <trkpt lat="44.52555" lon="3.85279">
        <ele>1148</ele>
        <time>2017-03-01T09:29:32Z</time>
      </trkpt>
      <trkpt lat="44.52541" lon="3.85289">
        <ele>1148</ele>
        <time>2017-03-01T09:31:32Z</time>
      </trkpt>
      <trkpt lat="44.52537" lon="3.85291">
        <ele>1148</ele>
        <time>2017-03-01T09:33:32Z</time>
      </trkpt>
      <trkpt lat="44.52533" lon="3.8529">
        <ele>1148</ele>
        <time>2017-03-01T09:35:32Z</time>
      </trkpt>
      <trkpt lat="44.5253" lon="3.8529">
        <ele>1149</ele>
        <time>2017-03-01T09:37:32Z</time>
      </trkpt>
      <trkpt lat="44.52528" lon="3.85288">
        <ele>1149</ele>
        <time>2017-03-01T09:39:32Z</time>
      </trkpt>
      <trkpt lat="44.52525" lon="3.85286">
        <ele>1149</ele>
        <time>2017-03-01T09:41:32Z</time>
      </trkpt>
      <trkpt lat="44.52523" lon="3.85283">
        <ele>1150</ele>
        <time>2017-03-01T09:43:32Z</time>
      </trkpt>
      <trkpt lat="44.52519" lon="3.85276">
        <ele>1150</ele>
        <time>2017-03-01T09:45:32Z</time>
      </trkpt>
      <trkpt lat="44.52519" lon="3.85276">
        <ele>1150</ele>
        <time>2017-03-01T09:47:32Z</time>
      </trkpt>
      <trkpt lat="44.5252" lon="3.85265">
        <ele>1151</ele>
        <time>2017-03-01T09:49:32Z</time>
      </trkpt>
      <trkpt lat="44.5252" lon="3.85265">
        <ele>1151</ele>
        <time>2017-03-01T09:51:32Z</time>
      </trkpt>
      <trkpt lat="44.5251" lon="3.85249">
        <ele>1153</ele>
        <time>2017-03-01T09:53:32Z</time>
      </trkpt>
      <trkpt lat="44.52505" lon="3.85239">
        <ele>1154</ele>
        <time>2017-03-01T09:55:32Z</time>
      </trkpt>
      <trkpt lat="44.52499" lon="3.85225">
        <ele>1155</ele>
        <time>2017-03-01T09:57:32Z</time>
      </trkpt>
      <trkpt lat="44.52495" lon="3.85212">
        <ele>1154</ele>
        <time>2017-03-01T09:59:32Z</time>
      </trkpt>
      <trkpt lat="44.52488" lon="3.85189">
        <ele>1154</ele>
        <time>2017-03-01T10:01:32Z</time>
      </trkpt>
      <trkpt lat="44.5248" lon="3.85167">
        <ele>1153</ele>
        <time>2017-03-01T10:03:32Z</time>
      </trkpt>
      <trkpt lat="44.52478" lon="3.8516">
        <ele>1154</ele>
        <time>2017-03-01T10:05:32Z</time>
      </trkpt>
      <trkpt lat="44.52475" lon="3.85155">
        <ele>1154</ele>
        <time>2017-03-01T10:07:32Z</time>
      </trkpt>
      <trkpt lat="44.52472" lon="3.8515">
        <ele>1154</ele>
        <time>2017-03-01T10:09:32Z</time>
      </trkpt>
      <trkpt lat="44.52472" lon="3.85146">
        <ele>1154</ele>
        <time>2017-03-01T10:11:32Z</time>
      </trkpt>
      <trkpt lat="44.52473" lon="3.8514">
        <ele>1155</ele>
        <time>2017-03-01T10:13:32Z</time>
      </trkpt>
      <trkpt lat="44.52475" lon="3.85135">
        <ele>1157</ele>
        <time>2017-03-01T10:15:32Z</time>
      </trkpt>
      <trkpt lat="44.52479" lon="3.85132">
        <ele>1158</ele>
        <time>2017-03-01T10:17:32Z</time>
      </trkpt>
      <trkpt lat="44.52482" lon="3.85132">
        <ele>1159</ele>
        <time>2017-03-01T10:19:32Z</time>
      </trkpt>
      <trkpt lat="44.52487" lon="3.85134">
        <ele>1160</ele>
        <time>2017-03-01T10:21:32Z</time>
      </trkpt>
      <trkpt lat="44.52489" lon="3.85138">
        <ele>1160</ele>
        <time>2017-03-01T10:23:32Z</time>
      </trkpt>
      <trkpt lat="44.52494" lon="3.85146">
        <ele>1160</ele>
        <time>2017-03-01T10:25:32Z</time>
      </trkpt>
      <trkpt lat="44.525" lon="3.85153">
        <ele>1161</ele>
        <time>2017-03-01T10:27:32Z</time>
      </trkpt>
      <trkpt lat="44.52506" lon="3.85155">
        <ele>1161</ele>
        <time>2017-03-01T10:29:32Z</time>
      </trkpt>
      <trkpt lat="44.52515" lon="3.85156">
        <ele>1161</ele>
        <time>2017-03-01T10:31:32Z</time>
      </trkpt>
      <trkpt lat="44.52528" lon="3.85155">
        <ele>1161</ele>
        <time>2017-03-01T10:33:32Z</time>
      </trkpt>
      <trkpt lat="44.52531" lon="3.85154">
        <ele>1161</ele>
        <time>2017-03-01T10:35:32Z</time>
      </trkpt>
      <trkpt lat="44.52533" lon="3.85153">
        <ele>1161</ele>
        <time>2017-03-01T10:37:32Z</time>
      </trkpt>
      <trkpt lat="44.52535" lon="3.85151">
        <ele>1161</ele>
        <time>2017-03-01T10:39:32Z</time>
      </trkpt>
      <trkpt lat="44.52537" lon="3.85148">
        <ele>1162</ele>
        <time>2017-03-01T10:41:32Z</time>
      </trkpt>
      <trkpt lat="44.52548" lon="3.8513">
        <ele>1165</ele>
        <time>2017-03-01T10:43:32Z</time>
      </trkpt>
      <trkpt lat="44.52562" lon="3.85105">
        <ele>1169</ele>
        <time>2017-03-01T10:45:32Z</time>
      </trkpt>
      <trkpt lat="44.52576" lon="3.85081">
        <ele>1173</ele>
        <time>2017-03-01T10:47:32Z</time>
      </trkpt>
      <trkpt lat="44.52587" lon="3.85061">
        <ele>1176</ele>
        <time>2017-03-01T10:49:32Z</time>
      </trkpt>
      <trkpt lat="44.52596" lon="3.85041">
        <ele>1177</ele>
        <time>2017-03-01T10:51:32Z</time>
      </trkpt>
      <trkpt lat="44.52601" lon="3.8503">
        <ele>1177</ele>
        <time>2017-03-01T10:53:32Z</time>
      </trkpt>
      <trkpt lat="44.52605" lon="3.85021">
        <ele>1177</ele>
        <time>2017-03-01T10:55:32Z</time>
      </trkpt>
      <trkpt lat="44.52608" lon="3.85012">
        <ele>1178</ele>
        <time>2017-03-01T10:57:32Z</time>
      </trkpt>
      <trkpt lat="44.5261" lon="3.84995">
        <ele>1180</ele>
        <time>2017-03-01T10:59:32Z</time>
      </trkpt>
      <trkpt lat="44.52613" lon="3.84985">
        <ele>1180</ele>
        <time>2017-03-01T11:01:32Z</time>
      </trkpt>
      <trkpt lat="44.52616" lon="3.84975">
        <ele>1181</ele>
        <time>2017-03-01T11:03:32Z</time>
      </trkpt>
      <trkpt lat="44.52622" lon="3.84962">
        <ele>1180</ele>
        <time>2017-03-01T11:05:32Z</time>
      </trkpt>
      <trkpt lat="44.52627" lon="3.84947">
        <ele>1181</ele>
        <time>2017-03-01T11:07:32Z</time>
      </trkpt>
      <trkpt lat="44.52632" lon="3.84924">
        <ele>1182</ele>
        <time>2017-03-01T11:09:32Z</time>
      </trkpt>
      <trkpt lat="44.52635" lon="3.84898">
        <ele>1185</ele>
        <time>2017-03-01T11:11:32Z</time>
      </trkpt>
      <trkpt lat="44.52639" lon="3.84874">
        <ele>1188</ele>
        <time>2017-03-01T11:13:32Z</time>
      </trkpt>
      <trkpt lat="44.52643" lon="3.84856">
        <ele>1190</ele>
        <time>2017-03-01T11:15:32Z</time>
      </trkpt>
      <trkpt lat="44.52646" lon="3.84849">
        <ele>1191</ele>
        <time>2017-03-01T11:17:32Z</time>
      </trkpt>
      <trkpt lat="44.52647" lon="3.84846">
        <ele>1191</ele>
        <time>2017-03-01T11:19:32Z</time>
      </trkpt>
      <trkpt lat="44.5265" lon="3.84842">
        <ele>1191</ele>
        <time>2017-03-01T11:21:32Z</time>
      </trkpt>
      <trkpt lat="44.52657" lon="3.84835">
        <ele>1190</ele>
        <time>2017-03-01T11:23:32Z</time>
      </trkpt>
      <trkpt lat="44.52669" lon="3.84825">
        <ele>1189</ele>
        <time>2017-03-01T11:25:32Z</time>
      </trkpt>
      <trkpt lat="44.52684" lon="3.84811">
        <ele>1188</ele>
        <time>2017-03-01T11:27:32Z</time>
      </trkpt>
      <trkpt lat="44.52694" lon="3.84796">
        <ele>1188</ele>
        <time>2017-03-01T11:29:32Z</time>
      </trkpt>
      <trkpt lat="44.52702" lon="3.84782">
        <ele>1189</ele>
        <time>2017-03-01T11:31:32Z</time>
      </trkpt>
      <trkpt lat="44.52708" lon="3.84768">
        <ele>1189</ele>
        <time>2017-03-01T11:33:32Z</time>
      </trkpt>
      <trkpt lat="44.52708" lon="3.84765">
        <ele>1190</ele>
        <time>2017-03-01T11:35:32Z</time>
      </trkpt>
      <trkpt lat="44.52708" lon="3.84762">
        <ele>1191</ele>
        <time>2017-03-01T11:37:32Z</time>
      </trkpt>
      <trkpt lat="44.52707" lon="3.84756">
        <ele>1192</ele>
        <time>2017-03-01T11:39:32Z</time>
      </trkpt>
      <trkpt lat="44.52707" lon="3.84756">
        <ele>1192</ele>
        <time>2017-03-01T11:41:32Z</time>
      </trkpt>
      <trkpt lat="44.52706" lon="3.84754">
        <ele>1192</ele>
        <time>2017-03-01T11:43:32Z</time>
      </trkpt>
      <trkpt lat="44.52704" lon="3.84752">
        <ele>1193</ele>
        <time>2017-03-01T11:45:32Z</time>
      </trkpt>
      <trkpt lat="44.52699" lon="3.84751">
        <ele>1195</ele>
        <time>2017-03-01T11:47:32Z</time>
      </trkpt>
      <trkpt lat="44.52696" lon="3.84754">
        <ele>1195</ele>
        <time>2017-03-01T11:49:32Z</time>
      </trkpt>
      <trkpt lat="44.52693" lon="3.84761">
        <ele>1195</ele>
        <time>2017-03-01T11:51:32Z</time>
      </trkpt>
      <trkpt lat="44.5269" lon="3.84769">
        <ele>1194</ele>
        <time>2017-03-01T11:53:32Z</time>
      </trkpt>
      <trkpt lat="44.52682" lon="3.8478">
        <ele>1195</ele>
        <time>2017-03-01T11:55:32Z</time>
      </trkpt>
      <trkpt lat="44.52667" lon="3.84793">
        <ele>1196</ele>
        <time>2017-03-01T11:57:32Z</time>
      </trkpt>
      <trkpt lat="44.52648" lon="3.84807">
        <ele>1198</ele>
        <time>2017-03-01T11:59:32Z</time>
      </trkpt>
      <trkpt lat="44.52635" lon="3.84815">
        <ele>1200</ele>
        <time>2017-03-01T12:01:32Z</time>
      </trkpt>
      <trkpt lat="44.5263" lon="3.84819">
        <ele>1201</ele>
        <time>2017-03-01T12:03:32Z</time>
      </trkpt>
      <trkpt lat="44.52624" lon="3.84824">
        <ele>1202</ele>
        <time>2017-03-01T12:05:32Z</time>
      </trkpt>
      <trkpt lat="44.52618" lon="3.84829">
        <ele>1202</ele>
        <time>2017-03-01T12:07:32Z</time>
      </trkpt>
      <trkpt lat="44.5261" lon="3.84839">
        <ele>1203</ele>
        <time>2017-03-01T12:09:32Z</time>
      </trkpt>
      <trkpt lat="44.52597" lon="3.84857">
        <ele>1203</ele>
        <time>2017-03-01T12:11:32Z</time>
      </trkpt>
      <trkpt lat="44.52582" lon="3.84878">
        <ele>1204</ele>
        <time>2017-03-01T12:13:32Z</time>
      </trkpt>
      <trkpt lat="44.52566" lon="3.84893">
        <ele>1203</ele>
        <time>2017-03-01T12:15:32Z</time>
      </trkpt>
      <trkpt lat="44.52551" lon="3.84904">
        <ele>1202</ele>
        <time>2017-03-01T12:17:32Z</time>
      </trkpt>
      <trkpt lat="44.5254" lon="3.84909">
        <ele>1202</ele>
        <time>2017-03-01T12:19:32Z</time>
      </trkpt>
      <trkpt lat="44.52529" lon="3.84912">
        <ele>1203</ele>
        <time>2017-03-01T12:21:32Z</time>
      </trkpt>
      <trkpt lat="44.52514" lon="3.84912">
        <ele>1204</ele>
        <time>2017-03-01T12:23:32Z</time>
      </trkpt>
      <trkpt lat="44.525" lon="3.84913">
        <ele>1205</ele>
        <time>2017-03-01T12:25:32Z</time>
      </trkpt>
      <trkpt lat="44.52489" lon="3.84912">
        <ele>1205</ele>
        <time>2017-03-01T12:27:32Z</time>
      </trkpt>
      <trkpt lat="44.52472" lon="3.84907">
        <ele>1206</ele>
        <time>2017-03-01T12:29:32Z</time>
      </trkpt>
      <trkpt lat="44.52454" lon="3.84899">
        <ele>1208</ele>
        <time>2017-03-01T12:31:32Z</time>
      </trkpt>
      <trkpt lat="44.52434" lon="3.84888">
        <ele>1210</ele>
        <time>2017-03-01T12:33:32Z</time>
      </trkpt>
      <trkpt lat="44.52414" lon="3.84879">
        <ele>1211</ele>
        <time>2017-03-01T12:35:32Z</time>
      </trkpt>
      <trkpt lat="44.52397" lon="3.8487">
        <ele>1210</ele>
        <time>2017-03-01T12:37:32Z</time>
      </trkpt>
      <trkpt lat="44.52382" lon="3.8486">
        <ele>1210</ele>
        <time>2017-03-01T12:39:32Z</time>
      </trkpt>
      <trkpt lat="44.52368" lon="3.84849">
        <ele>1210</ele>
        <time>2017-03-01T12:41:32Z</time>
      </trkpt>
      <trkpt lat="44.52361" lon="3.84843">
        <ele>1210</ele>
        <time>2017-03-01T12:43:32Z</time>
      </trkpt>
      <trkpt lat="44.52358" lon="3.84839">
        <ele>1210</ele>
        <time>2017-03-01T12:45:32Z</time>
      </trkpt>
      <trkpt lat="44.52357" lon="3.84837">
        <ele>1211</ele>
        <time>2017-03-01T12:47:32Z</time>
      </trkpt>
      <trkpt lat="44.52355" lon="3.84832">
        <ele>1211</ele>
        <time>2017-03-01T12:49:32Z</time>
      </trkpt>
      <trkpt lat="44.52355" lon="3.84828">
        <ele>1211</ele>
        <time>2017-03-01T12:51:32Z</time>
      </trkpt>
      <trkpt lat="44.52356" lon="3.84822">
        <ele>1212</ele>
        <time>2017-03-01T12:53:32Z</time>
      </trkpt>
      <trkpt lat="44.52356" lon="3.84822">
        <ele>1212</ele>
        <time>2017-03-01T12:55:32Z</time>
      </trkpt>
      <trkpt lat="44.52358" lon="3.84819">
        <ele>1213</ele>
        <time>2017-03-01T12:57:32Z</time>
      </trkpt>
      <trkpt lat="44.5236" lon="3.84818">
        <ele>1213</ele>
        <time>2017-03-01T12:59:32Z</time>
      </trkpt>
      <trkpt lat="44.52363" lon="3.84818">
        <ele>1214</ele>
        <time>2017-03-01T13:01:32Z</time>
      </trkpt>
      <trkpt lat="44.52366" lon="3.8482">
        <ele>1214</ele>
        <time>2017-03-01T13:03:32Z</time>
      </trkpt>
      <trkpt lat="44.52371" lon="3.84824">
        <ele>1215</ele>
        <time>2017-03-01T13:05:32Z</time>
      </trkpt>
      <trkpt lat="44.52379" lon="3.84831">
        <ele>1216</ele>
        <time>2017-03-01T13:07:32Z</time>
      </trkpt>
      <trkpt lat="44.52383" lon="3.84833">
        <ele>1216</ele>
        <time>2017-03-01T13:09:32Z</time>
      </trkpt>
      <trkpt lat="44.52388" lon="3.84834">
        <ele>1217</ele>
        <time>2017-03-01T13:11:32Z</time>
      </trkpt>
      <trkpt lat="44.52399" lon="3.84834">
        <ele>1219</ele>
        <time>2017-03-01T13:13:32Z</time>
      </trkpt>
      <trkpt lat="44.52419" lon="3.84833">
        <ele>1222</ele>
        <time>2017-03-01T13:15:32Z</time>
      </trkpt>
      <trkpt lat="44.52435" lon="3.84831">
        <ele>1223</ele>
        <time>2017-03-01T13:17:32Z</time>
      </trkpt>
      <trkpt lat="44.52447" lon="3.84827">
        <ele>1224</ele>
        <time>2017-03-01T13:19:32Z</time>
      </trkpt>
      <trkpt lat="44.52465" lon="3.84816">
        <ele>1226</ele>
        <time>2017-03-01T13:21:32Z</time>
      </trkpt>
      <trkpt lat="44.52486" lon="3.848">
        <ele>1230</ele>
        <time>2017-03-01T13:23:32Z</time>
      </trkpt>
      <trkpt lat="44.52506" lon="3.84783">
        <ele>1233</ele>
        <time>2017-03-01T13:25:32Z</time>
      </trkpt>
      <trkpt lat="44.52525" lon="3.84762">
        <ele>1233</ele>
        <time>2017-03-01T13:27:32Z</time>
      </trkpt>
      <trkpt lat="44.52543" lon="3.84739">
        <ele>1235</ele>
        <time>2017-03-01T13:29:32Z</time>
      </trkpt>
      <trkpt lat="44.52558" lon="3.84712">
        <ele>1237</ele>
        <time>2017-03-01T13:31:32Z</time>
      </trkpt>
      <trkpt lat="44.52574" lon="3.84683">
        <ele>1240</ele>
        <time>2017-03-01T13:33:32Z</time>
      </trkpt>
      <trkpt lat="44.52584" lon="3.84658">
        <ele>1243</ele>
        <time>2017-03-01T13:35:32Z</time>
      </trkpt>
      <trkpt lat="44.52596" lon="3.84636">
        <ele>1244</ele>
        <time>2017-03-01T13:37:32Z</time>
      </trkpt>
      <trkpt lat="44.52607" lon="3.84612">
        <ele>1244</ele>
        <time>2017-03-01T13:39:32Z</time>
      </trkpt>
      <trkpt lat="44.52616" lon="3.84586">
        <ele>1246</ele>
        <time>2017-03-01T13:41:32Z</time>
      </trkpt>
      <trkpt lat="44.52624" lon="3.84557">
        <ele>1247</ele>
        <time>2017-03-01T13:43:32Z</time>
      </trkpt>
      <trkpt lat="44.52634" lon="3.84517">
        <ele>1249</ele>
        <time>2017-03-01T13:45:32Z</time>
      </trkpt>
      <trkpt lat="44.52639" lon="3.84494">
        <ele>1250</ele>
        <time>2017-03-01T13:47:32Z</time>
      </trkpt>
      <trkpt lat="44.52642" lon="3.8448">
        <ele>1250</ele>
        <time>2017-03-01T13:49:32Z</time>
      </trkpt>
      <trkpt lat="44.52643" lon="3.84474">
        <ele>1250</ele>
        <time>2017-03-01T13:51:32Z</time>
      </trkpt>
      <trkpt lat="44.52644" lon="3.84467">
        <ele>1250</ele>
        <time>2017-03-01T13:53:32Z</time>
      </trkpt>
      <trkpt lat="44.52647" lon="3.8445">
        <ele>1250</ele>
        <time>2017-03-01T13:55:32Z</time>
      </trkpt>
      <trkpt lat="44.52649" lon="3.84438">
        <ele>1250</ele>
        <time>2017-03-01T13:57:32Z</time>
      </trkpt>
      <trkpt lat="44.52649" lon="3.84428">
        <ele>1251</ele>
        <time>2017-03-01T13:59:32Z</time>
      </trkpt>
      <trkpt lat="44.52649" lon="3.84428">
        <ele>1251</ele>
        <time>2017-03-01T14:01:32Z</time>
      </trkpt>
      <trkpt lat="44.52647" lon="3.84428">
        <ele>1252</ele>
        <time>2017-03-01T14:03:32Z</time>
      </trkpt>
      <trkpt lat="44.52645" lon="3.84431">
        <ele>1253</ele>
        <time>2017-03-01T14:05:32Z</time>
      </trkpt>
      <trkpt lat="44.52642" lon="3.84435">
        <ele>1254</ele>
        <time>2017-03-01T14:07:32Z</time>
      </trkpt>
      <trkpt lat="44.52641" lon="3.84439">
        <ele>1254</ele>
        <time>2017-03-01T14:09:32Z</time>
      </trkpt>
      <trkpt lat="44.52637" lon="3.84448">
        <ele>1255</ele>
        <time>2017-03-01T14:11:32Z</time>
      </trkpt>
      <trkpt lat="44.52632" lon="3.84462">
        <ele>1256</ele>
        <time>2017-03-01T14:13:32Z</time>
      </trkpt>
      <trkpt lat="44.52632" lon="3.84463">
        <ele>1256</ele>
        <time>2017-03-01T14:15:32Z</time>
      </trkpt>
      <trkpt lat="44.5263" lon="3.84466">
        <ele>1256</ele>
        <time>2017-03-01T14:17:32Z</time>
      </trkpt>
      <trkpt lat="44.5262" lon="3.84485">
        <ele>1259</ele>
        <time>2017-03-01T14:19:32Z</time>
      </trkpt>
      <trkpt lat="44.52608" lon="3.84507">
        <ele>1261</ele>
        <time>2017-03-01T14:21:32Z</time>
      </trkpt>
      <trkpt lat="44.52592" lon="3.84528">
        <ele>1264</ele>
        <time>2017-03-01T14:23:32Z</time>
      </trkpt>
      <trkpt lat="44.52576" lon="3.84553">
        <ele>1264</ele>
        <time>2017-03-01T14:25:32Z</time>
      </trkpt>
      <trkpt lat="44.52561" lon="3.84569">
        <ele>1264</ele>
        <time>2017-03-01T14:27:32Z</time>
      </trkpt>
      <trkpt lat="44.52542" lon="3.84586">
        <ele>1265</ele>
        <time>2017-03-01T14:29:32Z</time>
      </trkpt>
      <trkpt lat="44.52521" lon="3.846">
        <ele>1267</ele>
        <time>2017-03-01T14:31:32Z</time>
      </trkpt>
      <trkpt lat="44.52494" lon="3.84609">
        <ele>1269</ele>
        <time>2017-03-01T14:33:32Z</time>
      </trkpt>
      <trkpt lat="44.52479" lon="3.84613">
        <ele>1268</ele>
        <time>2017-03-01T14:35:32Z</time>
      </trkpt>
      <trkpt lat="44.52467" lon="3.84613">
        <ele>1267</ele>
        <time>2017-03-01T14:37:32Z</time>
      </trkpt>
      <trkpt lat="44.52458" lon="3.84613">
        <ele>1267</ele>
        <time>2017-03-01T14:39:32Z</time>
      </trkpt>
      <trkpt lat="44.52452" lon="3.84611">
        <ele>1267</ele>
        <time>2017-03-01T14:41:32Z</time>
      </trkpt>
      <trkpt lat="44.5245" lon="3.84611">
        <ele>1267</ele>
        <time>2017-03-01T14:43:32Z</time>
      </trkpt>
      <trkpt lat="44.52443" lon="3.84607">
        <ele>1267</ele>
        <time>2017-03-01T14:45:32Z</time>
      </trkpt>
      <trkpt lat="44.52441" lon="3.84605">
        <ele>1268</ele>
        <time>2017-03-01T14:47:32Z</time>
      </trkpt>
      <trkpt lat="44.52435" lon="3.84601">
        <ele>1268</ele>
        <time>2017-03-01T14:49:32Z</time>
      </trkpt>
      <trkpt lat="44.52427" lon="3.84592">
        <ele>1270</ele>
        <time>2017-03-01T14:51:32Z</time>
      </trkpt>
      <trkpt lat="44.52416" lon="3.84577">
        <ele>1272</ele>
        <time>2017-03-01T14:53:32Z</time>
      </trkpt>
      <trkpt lat="44.52407" lon="3.84564">
        <ele>1273</ele>
        <time>2017-03-01T14:55:32Z</time>
      </trkpt>
      <trkpt lat="44.52396" lon="3.84549">
        <ele>1274</ele>
        <time>2017-03-01T14:57:32Z</time>
      </trkpt>
      <trkpt lat="44.52374" lon="3.84523">
        <ele>1275</ele>
        <time>2017-03-01T14:59:32Z</time>
      </trkpt>
      <trkpt lat="44.52358" lon="3.84504">
        <ele>1276</ele>
        <time>2017-03-01T15:01:32Z</time>
      </trkpt>
      <trkpt lat="44.52346" lon="3.84486">
        <ele>1277</ele>
        <time>2017-03-01T15:03:32Z</time>
      </trkpt>
      <trkpt lat="44.52338" lon="3.84471">
        <ele>1278</ele>
        <time>2017-03-01T15:05:32Z</time>
      </trkpt>
      <trkpt lat="44.52329" lon="3.84451">
        <ele>1278</ele>
        <time>2017-03-01T15:07:32Z</time>
      </trkpt>
      <trkpt lat="44.52323" lon="3.84434">
        <ele>1279</ele>
        <time>2017-03-01T15:09:32Z</time>
      </trkpt>
      <trkpt lat="44.5232" lon="3.8442">
        <ele>1281</ele>
        <time>2017-03-01T15:11:32Z</time>
      </trkpt>
      <trkpt lat="44.52314" lon="3.84383">
        <ele>1281</ele>
        <time>2017-03-01T15:13:32Z</time>
      </trkpt>
      <trkpt lat="44.52314" lon="3.84367">
        <ele>1282</ele>
        <time>2017-03-01T15:15:32Z</time>
      </trkpt>
      <trkpt lat="44.52319" lon="3.84341">
        <ele>1284</ele>
        <time>2017-03-01T15:17:32Z</time>
      </trkpt>
      <trkpt lat="44.52322" lon="3.84332">
        <ele>1284</ele>
        <time>2017-03-01T15:19:32Z</time>
      </trkpt>
      <trkpt lat="44.52326" lon="3.84319">
        <ele>1285</ele>
        <time>2017-03-01T15:21:32Z</time>
      </trkpt>
      <trkpt lat="44.52327" lon="3.84318">
        <ele>1285</ele>
        <time>2017-03-01T15:23:32Z</time>
      </trkpt>
      <trkpt lat="44.52327" lon="3.84318">
        <ele>1285</ele>
        <time>2017-03-01T15:25:32Z</time>
      </trkpt>
      <trkpt lat="44.52339" lon="3.84292">
        <ele>1287</ele>
        <time>2017-03-01T15:27:32Z</time>
      </trkpt>
      <trkpt lat="44.52362" lon="3.84243">
        <ele>1291</ele>
        <time>2017-03-01T15:29:32Z</time>
      </trkpt>
      <trkpt lat="44.52369" lon="3.84223">
        <ele>1293</ele>
        <time>2017-03-01T15:31:32Z</time>
      </trkpt>
      <trkpt lat="44.5238" lon="3.84179">
        <ele>1296</ele>
        <time>2017-03-01T15:33:32Z</time>
      </trkpt>
      <trkpt lat="44.52384" lon="3.84159">
        <ele>1297</ele>
        <time>2017-03-01T15:35:32Z</time>
      </trkpt>
      <trkpt lat="44.52384" lon="3.84144">
        <ele>1298</ele>
        <time>2017-03-01T15:37:32Z</time>
      </trkpt>
      <trkpt lat="44.52382" lon="3.84125">
        <ele>1298</ele>
        <time>2017-03-01T15:39:32Z</time>
      </trkpt>
      <trkpt lat="44.52377" lon="3.84085">
        <ele>1298</ele>
        <time>2017-03-01T15:41:32Z</time>
      </trkpt>
      <trkpt lat="44.52374" lon="3.84044">
        <ele>1300</ele>
        <time>2017-03-01T15:43:32Z</time>
      </trkpt>
      <trkpt lat="44.52374" lon="3.84016">
        <ele>1301</ele>
        <time>2017-03-01T15:45:32Z</time>
      </trkpt>
      <trkpt lat="44.52378" lon="3.83982">
        <ele>1303</ele>
        <time>2017-03-01T15:47:32Z</time>
      </trkpt>
      <trkpt lat="44.52384" lon="3.83958">
        <ele>1304</ele>
        <time>2017-03-01T15:49:32Z</time>
      </trkpt>
      <trkpt lat="44.52392" lon="3.83939">
        <ele>1305</ele>
        <time>2017-03-01T15:51:32Z</time>
      </trkpt>
      <trkpt lat="44.52401" lon="3.83922">
        <ele>1307</ele>
        <time>2017-03-01T15:53:32Z</time>
      </trkpt>
      <trkpt lat="44.52418" lon="3.83894">
        <ele>1309</ele>
        <time>2017-03-01T15:55:32Z</time>
      </trkpt>
      <trkpt lat="44.52436" lon="3.83861">
        <ele>1311</ele>
        <time>2017-03-01T15:57:32Z</time>
      </trkpt>
      <trkpt lat="44.52446" lon="3.8384">
        <ele>1312</ele>
        <time>2017-03-01T15:59:32Z</time>
      </trkpt>
      <trkpt lat="44.52452" lon="3.8382">
        <ele>1313</ele>
        <time>2017-03-01T16:01:32Z</time>
      </trkpt>
      <trkpt lat="44.52457" lon="3.8379">
        <ele>1314</ele>
        <time>2017-03-01T16:03:32Z</time>
      </trkpt>
      <trkpt lat="44.52466" lon="3.83741">
        <ele>1316</ele>
        <time>2017-03-01T16:05:32Z</time>
      </trkpt>
      <trkpt lat="44.52474" lon="3.83702">
        <ele>1319</ele>
        <time>2017-03-01T16:07:32Z</time>
      </trkpt>
      <trkpt lat="44.52485" lon="3.83651">
        <ele>1323</ele>
        <time>2017-03-01T16:09:32Z</time>
      </trkpt>
      <trkpt lat="44.52496" lon="3.83605">
        <ele>1326</ele>
        <time>2017-03-01T16:11:32Z</time>
      </trkpt>
      <trkpt lat="44.52498" lon="3.83588">
        <ele>1327</ele>
        <time>2017-03-01T16:13:32Z</time>
      </trkpt>
      <trkpt lat="44.52499" lon="3.83572">
        <ele>1327</ele>
        <time>2017-03-01T16:15:32Z</time>
      </trkpt>
      <trkpt lat="44.52498" lon="3.83556">
        <ele>1328</ele>
        <time>2017-03-01T16:17:32Z</time>
      </trkpt>
      <trkpt lat="44.52494" lon="3.83523">
        <ele>1329</ele>
        <time>2017-03-01T16:19:32Z</time>
      </trkpt>
      <trkpt lat="44.5249" lon="3.83497">
        <ele>1329</ele>
        <time>2017-03-01T16:21:32Z</time>
      </trkpt>
      <trkpt lat="44.52487" lon="3.83456">
        <ele>1331</ele>
        <time>2017-03-01T16:23:32Z</time>
      </trkpt>
      <trkpt lat="44.52481" lon="3.83398">
        <ele>1332</ele>
        <time>2017-03-01T16:25:32Z</time>
      </trkpt>
      <trkpt lat="44.52475" lon="3.83342">
        <ele>1335</ele>
        <time>2017-03-01T16:27:32Z</time>
      </trkpt>
      <trkpt lat="44.52472" lon="3.833">
        <ele>1337</ele>
        <time>2017-03-01T16:29:32Z</time>
      </trkpt>
      <trkpt lat="44.52474" lon="3.83293">
        <ele>1338</ele>
        <time>2017-03-01T16:31:32Z</time>
      </trkpt>
      <trkpt lat="44.52476" lon="3.83291">
        <ele>1339</ele>
        <time>2017-03-01T16:33:32Z</time>
      </trkpt>
      <trkpt lat="44.5248" lon="3.8329">
        <ele>1340</ele>
        <time>2017-03-01T16:35:32Z</time>
      </trkpt>
      <trkpt lat="44.52482" lon="3.83291">
        <ele>1340</ele>
        <time>2017-03-01T16:37:32Z</time>
      </trkpt>
      <trkpt lat="44.52482" lon="3.83291">
        <ele>1340</ele>
        <time>2017-03-01T16:39:32Z</time>
      </trkpt>
      <trkpt lat="44.52485" lon="3.83295">
        <ele>1341</ele>
        <time>2017-03-01T16:41:32Z</time>
      </trkpt>
      <trkpt lat="44.52491" lon="3.83323">
        <ele>1340</ele>
        <time>2017-03-01T16:43:32Z</time>
      </trkpt>
      <trkpt lat="44.52498" lon="3.83344">
        <ele>1341</ele>
        <time>2017-03-01T16:45:32Z</time>
      </trkpt>
      <trkpt lat="44.52514" lon="3.83376">
        <ele>1341</ele>
        <time>2017-03-01T16:47:32Z</time>
      </trkpt>
      <trkpt lat="44.52535" lon="3.83418">
        <ele>1341</ele>
        <time>2017-03-01T16:49:32Z</time>
      </trkpt>
      <trkpt lat="44.52546" lon="3.83439">
        <ele>1341</ele>
        <time>2017-03-01T16:51:32Z</time>
      </trkpt>
      <trkpt lat="44.52556" lon="3.83468">
        <ele>1341</ele>
        <time>2017-03-01T16:53:32Z</time>
      </trkpt>
      <trkpt lat="44.52564" lon="3.83491">
        <ele>1341</ele>
        <time>2017-03-01T16:55:32Z</time>
      </trkpt>
      <trkpt lat="44.5257" lon="3.83508">
        <ele>1341</ele>
        <time>2017-03-01T16:57:32Z</time>
      </trkpt>
      <trkpt lat="44.52575" lon="3.83526">
        <ele>1342</ele>
        <time>2017-03-01T16:59:32Z</time>
      </trkpt>
      <trkpt lat="44.52579" lon="3.83533">
        <ele>1342</ele>
        <time>2017-03-01T17:01:32Z</time>
      </trkpt>
      <trkpt lat="44.52583" lon="3.83535">
        <ele>1343</ele>
        <time>2017-03-01T17:03:32Z</time>
      </trkpt>
      <trkpt lat="44.52583" lon="3.83535">
        <ele>1343</ele>
        <time>2017-03-01T17:05:32Z</time>
      </trkpt>
      <trkpt lat="44.52588" lon="3.83534">
        <ele>1342</ele>
        <time>2017-03-01T17:07:32Z</time>
      </trkpt>
      <trkpt lat="44.52592" lon="3.83531">
        <ele>1342</ele>
        <time>2017-03-01T17:09:32Z</time>
      </trkpt>
      <trkpt lat="44.52595" lon="3.83522">
        <ele>1341</ele>
        <time>2017-03-01T17:11:32Z</time>
      </trkpt>
      <trkpt lat="44.52604" lon="3.83485">
        <ele>1341</ele>
        <time>2017-03-01T17:13:32Z</time>
      </trkpt>
      <trkpt lat="44.5261" lon="3.83461">
        <ele>1343</ele>
        <time>2017-03-01T17:15:32Z</time>
      </trkpt>
      <trkpt lat="44.52622" lon="3.83437">
        <ele>1343</ele>
        <time>2017-03-01T17:17:32Z</time>
      </trkpt>
      <trkpt lat="44.5264" lon="3.83399">
        <ele>1345</ele>
        <time>2017-03-01T17:19:32Z</time>
      </trkpt>
      <trkpt lat="44.52657" lon="3.83363">
        <ele>1347</ele>
        <time>2017-03-01T17:21:32Z</time>
      </trkpt>
      <trkpt lat="44.52662" lon="3.83348">
        <ele>1349</ele>
        <time>2017-03-01T17:23:32Z</time>
      </trkpt>
      <trkpt lat="44.52669" lon="3.83314">
        <ele>1350</ele>
        <time>2017-03-01T17:25:32Z</time>
      </trkpt>
      <trkpt lat="44.52676" lon="3.83282">
        <ele>1350</ele>
        <time>2017-03-01T17:27:32Z</time>
      </trkpt>
      <trkpt lat="44.52682" lon="3.83241">
        <ele>1351</ele>
        <time>2017-03-01T17:29:32Z</time>
      </trkpt>
      <trkpt lat="44.5269" lon="3.83192">
        <ele>1352</ele>
        <time>2017-03-01T17:31:32Z</time>
      </trkpt>
      <trkpt lat="44.52701" lon="3.83141">
        <ele>1353</ele>
        <time>2017-03-01T17:33:32Z</time>
      </trkpt>
      <trkpt lat="44.5271" lon="3.83095">
        <ele>1355</ele>
        <time>2017-03-01T17:35:32Z</time>
      </trkpt>
      <trkpt lat="44.52718" lon="3.83045">
        <ele>1358</ele>
        <time>2017-03-01T17:37:32Z</time>
      </trkpt>
      <trkpt lat="44.52727" lon="3.82995">
        <ele>1360</ele>
        <time>2017-03-01T17:39:32Z</time>
      </trkpt>
      <trkpt lat="44.52732" lon="3.82969">
        <ele>1361</ele>
        <time>2017-03-01T17:41:32Z</time>
      </trkpt>
      <trkpt lat="44.52734" lon="3.82941">
        <ele>1362</ele>
        <time>2017-03-01T17:43:32Z</time>
      </trkpt>
      <trkpt lat="44.52736" lon="3.82892">
        <ele>1364</ele>
        <time>2017-03-01T17:45:32Z</time>
      </trkpt>
      <trkpt lat="44.52734" lon="3.82866">
        <ele>1364</ele>
        <time>2017-03-01T17:47:32Z</time>
      </trkpt>
      <trkpt lat="44.52732" lon="3.82843">
        <ele>1365</ele>
        <time>2017-03-01T17:49:32Z</time>
      </trkpt>
      <trkpt lat="44.52733" lon="3.82829">
        <ele>1365</ele>
        <time>2017-03-01T17:51:32Z</time>
      </trkpt>
      <trkpt lat="44.52737" lon="3.82819">
        <ele>1364</ele>
        <time>2017-03-01T17:53:32Z</time>
      </trkpt>
      <trkpt lat="44.52738" lon="3.82818">
        <ele>1364</ele>
        <time>2017-03-01T17:55:32Z</time>
      </trkpt>
      <trkpt lat="44.52753" lon="3.82794">
        <ele>1363</ele>
        <time>2017-03-01T17:57:32Z</time>
      </trkpt>
      <trkpt lat="44.52768" lon="3.82768">
        <ele>1362</ele>
        <time>2017-03-01T17:59:32Z</time>
      </trkpt>
      <trkpt lat="44.52787" lon="3.82736">
        <ele>1362</ele>
        <time>2017-03-01T18:01:32Z</time>
      </trkpt>
      <trkpt lat="44.52816" lon="3.82688">
        <ele>1364</ele>
        <time>2017-03-01T18:03:32Z</time>
      </trkpt>
      <trkpt lat="44.52823" lon="3.82675">
        <ele>1365</ele>
        <time>2017-03-01T18:05:32Z</time>
      </trkpt>
      <trkpt lat="44.52833" lon="3.82653">
        <ele>1366</ele>
        <time>2017-03-01T18:07:32Z</time>
      </trkpt>
      <trkpt lat="44.52851" lon="3.8262">
        <ele>1366</ele>
        <time>2017-03-01T18:09:32Z</time>
      </trkpt>
      <trkpt lat="44.52872" lon="3.82575">
        <ele>1368</ele>
        <time>2017-03-01T18:11:32Z</time>
      </trkpt>
      <trkpt lat="44.52891" lon="3.82542">
        <ele>1369</ele>
        <time>2017-03-01T18:13:32Z</time>
      </trkpt>
      <trkpt lat="44.52896" lon="3.82524">
        <ele>1370</ele>
        <time>2017-03-01T18:15:32Z</time>
      </trkpt>
      <trkpt lat="44.52899" lon="3.82497">
        <ele>1372</ele>
        <time>2017-03-01T18:17:32Z</time>
      </trkpt>
      <trkpt lat="44.52903" lon="3.82449">
        <ele>1374</ele>
        <time>2017-03-01T18:19:32Z</time>
      </trkpt>
      <trkpt lat="44.52902" lon="3.8244">
        <ele>1374</ele>
        <time>2017-03-01T18:21:32Z</time>
      </trkpt>
      <trkpt lat="44.529" lon="3.82432">
        <ele>1375</ele>
        <time>2017-03-01T18:23:32Z</time>
      </trkpt>
      <trkpt lat="44.52901" lon="3.82422">
        <ele>1375</ele>
        <time>2017-03-01T18:25:32Z</time>
      </trkpt>
      <trkpt lat="44.52902" lon="3.82412">
        <ele>1376</ele>
        <time>2017-03-01T18:27:32Z</time>
      </trkpt>
      <trkpt lat="44.5291" lon="3.82384">
        <ele>1379</ele>
        <time>2017-03-01T18:29:32Z</time>
      </trkpt>
      <trkpt lat="44.52928" lon="3.82328">
        <ele>1384</ele>
        <time>2017-03-01T18:31:32Z</time>
      </trkpt>
      <trkpt lat="44.52946" lon="3.8227">
        <ele>1388</ele>
        <time>2017-03-01T18:33:32Z</time>
      </trkpt>
      <trkpt lat="44.52962" lon="3.8222">
        <ele>1390</ele>
        <time>2017-03-01T18:35:32Z</time>
      </trkpt>
      <trkpt lat="44.52973" lon="3.82175">
        <ele>1393</ele>
        <time>2017-03-01T18:37:32Z</time>
      </trkpt>
      <trkpt lat="44.52981" lon="3.82133">
        <ele>1394</ele>
        <time>2017-03-01T18:39:32Z</time>
      </trkpt>
      <trkpt lat="44.52988" lon="3.82104">
        <ele>1396</ele>
        <time>2017-03-01T18:41:32Z</time>
      </trkpt>
      <trkpt lat="44.52999" lon="3.82075">
        <ele>1398</ele>
        <time>2017-03-01T18:43:32Z</time>
      </trkpt>
      <trkpt lat="44.53006" lon="3.82044">
        <ele>1399</ele>
        <time>2017-03-01T18:45:32Z</time>
      </trkpt>
      <trkpt lat="44.53015" lon="3.82006">
        <ele>1400</ele>
        <time>2017-03-01T18:47:32Z</time>
      </trkpt>
      <trkpt lat="44.53024" lon="3.81973">
        <ele>1402</ele>
        <time>2017-03-01T18:49:32Z</time>
      </trkpt>
      <trkpt lat="44.53031" lon="3.81944">
        <ele>1403</ele>
        <time>2017-03-01T18:51:32Z</time>
      </trkpt>
      <trkpt lat="44.53033" lon="3.81919">
        <ele>1405</ele>
        <time>2017-03-01T18:53:32Z</time>
      </trkpt>
      <trkpt lat="44.53038" lon="3.8187">
        <ele>1409</ele>
        <time>2017-03-01T18:55:32Z</time>
      </trkpt>
      <trkpt lat="44.53044" lon="3.81823">
        <ele>1413</ele>
        <time>2017-03-01T18:57:32Z</time>
      </trkpt>
      <trkpt lat="44.53053" lon="3.81776">
        <ele>1416</ele>
        <time>2017-03-01T18:59:32Z</time>
      </trkpt>
      <trkpt lat="44.53053" lon="3.8177">
        <ele>1416</ele>
        <time>2017-03-01T19:01:32Z</time>
      </trkpt>
      <trkpt lat="44.53053" lon="3.81762">
        <ele>1417</ele>
        <time>2017-03-01T19:03:32Z</time>
      </trkpt>
      <trkpt lat="44.53053" lon="3.81756">
        <ele>1417</ele>
        <time>2017-03-01T19:05:32Z</time>
      </trkpt>
      <trkpt lat="44.53051" lon="3.81749">
        <ele>1418</ele>
        <time>2017-03-01T19:07:32Z</time>
      </trkpt>
      <trkpt lat="44.53048" lon="3.81743">
        <ele>1418</ele>
        <time>2017-03-01T19:09:32Z</time>
      </trkpt>
      <trkpt lat="44.53045" lon="3.81738">
        <ele>1419</ele>
        <time>2017-03-01T19:11:32Z</time>
      </trkpt>
      <trkpt lat="44.53005" lon="3.81697">
        <ele>1425</ele>
        <time>2017-03-01T19:13:32Z</time>
      </trkpt>
      <trkpt lat="44.52993" lon="3.81684">
        <ele>1427</ele>
        <time>2017-03-01T19:15:32Z</time>
      </trkpt>
      <trkpt lat="44.52988" lon="3.81679">
        <ele>1427</ele>
        <time>2017-03-01T19:17:32Z</time>
      </trkpt>
      <trkpt lat="44.52986" lon="3.81676">
        <ele>1428</ele>
        <time>2017-03-01T19:19:32Z</time>
      </trkpt>
      <trkpt lat="44.52985" lon="3.81674">
        <ele>1428</ele>
        <time>2017-03-01T19:21:32Z</time>
      </trkpt>
      <trkpt lat="44.52985" lon="3.81672">
        <ele>1428</ele>
        <time>2017-03-01T19:23:32Z</time>
      </trkpt>
      <trkpt lat="44.52984" lon="3.81669">
        <ele>1429</ele>
        <time>2017-03-01T19:25:32Z</time>
      </trkpt>
      <trkpt lat="44.52984" lon="3.81666">
        <ele>1429</ele>
        <time>2017-03-01T19:27:32Z</time>
      </trkpt>
      <trkpt lat="44.52984" lon="3.81664">
        <ele>1429</ele>
        <time>2017-03-01T19:29:32Z</time>
      </trkpt>
      <trkpt lat="44.52985" lon="3.81662">
        <ele>1429</ele>
        <time>2017-03-01T19:31:32Z</time>
      </trkpt>
      <trkpt lat="44.52986" lon="3.81659">
        <ele>1430</ele>
        <time>2017-03-01T19:33:32Z</time>
      </trkpt>
      <trkpt lat="44.52988" lon="3.81657">
        <ele>1430</ele>
        <time>2017-03-01T19:35:32Z</time>
      </trkpt>
      <trkpt lat="44.52992" lon="3.81653">
        <ele>1430</ele>
        <time>2017-03-01T19:37:32Z</time>
      </trkpt>
      <trkpt lat="44.53" lon="3.81646">
        <ele>1431</ele>
        <time>2017-03-01T19:39:32Z</time>
      </trkpt>
      <trkpt lat="44.53005" lon="3.8164">
        <ele>1431</ele>
        <time>2017-03-01T19:41:32Z</time>
      </trkpt>
      <trkpt lat="44.53007" lon="3.81636">
        <ele>1431</ele>
        <time>2017-03-01T19:43:32Z</time>
      </trkpt>
      <trkpt lat="44.53011" lon="3.8163">
        <ele>1431</ele>
        <time>2017-03-01T19:45:32Z</time>
      </trkpt>
      <trkpt lat="44.53014" lon="3.81618">
        <ele>1432</ele>
        <time>2017-03-01T19:47:32Z</time>
      </trkpt>
      <trkpt lat="44.53015" lon="3.81604">
        <ele>1433</ele>
        <time>2017-03-01T19:49:32Z</time>
      </trkpt>
      <trkpt lat="44.53011" lon="3.81575">
        <ele>1436</ele>
        <time>2017-03-01T19:51:32Z</time>
      </trkpt>
      <trkpt lat="44.53004" lon="3.81537">
        <ele>1439</ele>
        <time>2017-03-01T19:53:32Z</time>
      </trkpt>
      <trkpt lat="44.53002" lon="3.81513">
        <ele>1440</ele>
        <time>2017-03-01T19:55:32Z</time>
      </trkpt>
      <trkpt lat="44.53002" lon="3.81497">
        <ele>1441</ele>
        <time>2017-03-01T19:57:32Z</time>
      </trkpt>
      <trkpt lat="44.53009" lon="3.8147">
        <ele>1439</ele>
        <time>2017-03-01T19:59:32Z</time>
      </trkpt>
      <trkpt lat="44.5302" lon="3.81429">
        <ele>1436</ele>
        <time>2017-03-01T20:01:32Z</time>
      </trkpt>
      <trkpt lat="44.53029" lon="3.81395">
        <ele>1433</ele>
        <time>2017-03-01T20:03:32Z</time>
      </trkpt>
      <trkpt lat="44.5304" lon="3.81358">
        <ele>1431</ele>
        <time>2017-03-01T20:05:32Z</time>
      </trkpt>
      <trkpt lat="44.53048" lon="3.81321">
        <ele>1430</ele>
        <time>2017-03-01T20:07:32Z</time>
      </trkpt>
      <trkpt lat="44.53052" lon="3.81276">
        <ele>1430</ele>
        <time>2017-03-01T20:09:32Z</time>
      </trkpt>
      <trkpt lat="44.53056" lon="3.81214">
        <ele>1429</ele>
        <time>2017-03-01T20:11:32Z</time>
      </trkpt>
      <trkpt lat="44.53057" lon="3.81175">
        <ele>1428</ele>
        <time>2017-03-01T20:13:32Z</time>
      </trkpt>
      <trkpt lat="44.53056" lon="3.81144">
        <ele>1428</ele>
        <time>2017-03-01T20:15:32Z</time>
      </trkpt>
      <trkpt lat="44.53047" lon="3.81078">
        <ele>1427</ele>
        <time>2017-03-01T20:17:32Z</time>
      </trkpt>
      <trkpt lat="44.53041" lon="3.81045">
        <ele>1428</ele>
        <time>2017-03-01T20:19:32Z</time>
      </trkpt>
      <trkpt lat="44.53033" lon="3.81019">
        <ele>1429</ele>
        <time>2017-03-01T20:21:32Z</time>
      </trkpt>
      <trkpt lat="44.53031" lon="3.81012">
        <ele>1429</ele>
        <time>2017-03-01T20:23:32Z</time>
      </trkpt>
      <trkpt lat="44.5303" lon="3.81008">
        <ele>1429</ele>
        <time>2017-03-01T20:25:32Z</time>
      </trkpt>
      <trkpt lat="44.53029" lon="3.80997">
        <ele>1429</ele>
        <time>2017-03-01T20:27:32Z</time>
      </trkpt>
      <trkpt lat="44.53028" lon="3.80989">
        <ele>1429</ele>
        <time>2017-03-01T20:29:32Z</time>
      </trkpt>
      <trkpt lat="44.53024" lon="3.80979">
        <ele>1429</ele>
        <time>2017-03-01T20:31:32Z</time>
      </trkpt>
      <trkpt lat="44.53015" lon="3.80958">
        <ele>1430</ele>
        <time>2017-03-01T20:33:32Z</time>
      </trkpt>
      <trkpt lat="44.5301" lon="3.80941">
        <ele>1430</ele>
        <time>2017-03-01T20:35:32Z</time>
      </trkpt>
      <trkpt lat="44.53006" lon="3.80927">
        <ele>1430</ele>
        <time>2017-03-01T20:37:32Z</time>
      </trkpt>
      <trkpt lat="44.53004" lon="3.80919">
        <ele>1431</ele>
        <time>2017-03-01T20:39:32Z</time>
      </trkpt>
      <trkpt lat="44.53003" lon="3.80916">
        <ele>1431</ele>
        <time>2017-03-01T20:41:32Z</time>
      </trkpt>
      <trkpt lat="44.53" lon="3.80913">
        <ele>1431</ele>
        <time>2017-03-01T20:43:32Z</time>
      </trkpt>
      <trkpt lat="44.52994" lon="3.80908">
        <ele>1431</ele>
        <time>2017-03-01T20:45:32Z</time>
      </trkpt>
      <trkpt lat="44.52991" lon="3.80907">
        <ele>1431</ele>
        <time>2017-03-01T20:47:32Z</time>
      </trkpt>
      <trkpt lat="44.52979" lon="3.80906">
        <ele>1430</ele>
        <time>2017-03-01T20:49:32Z</time>
      </trkpt>
      <trkpt lat="44.52979" lon="3.80906">
        <ele>1430</ele>
        <time>2017-03-01T20:51:32Z</time>
      </trkpt>
      <trkpt lat="44.52976" lon="3.80898">
        <ele>1430</ele>
        <time>2017-03-01T20:53:32Z</time>
      </trkpt>
      <trkpt lat="44.52964" lon="3.80864">
        <ele>1430</ele>
        <time>2017-03-01T20:55:32Z</time>
      </trkpt>
      <trkpt lat="44.52952" lon="3.80816">
        <ele>1430</ele>
        <time>2017-03-01T20:57:32Z</time>
      </trkpt>
      <trkpt lat="44.52944" lon="3.8078">
        <ele>1431</ele>
        <time>2017-03-01T20:59:32Z</time>
      </trkpt>
      <trkpt lat="44.52938" lon="3.8074">
        <ele>1432</ele>
        <time>2017-03-01T21:01:32Z</time>
      </trkpt>
      <trkpt lat="44.52931" lon="3.80684">
        <ele>1433</ele>
        <time>2017-03-01T21:03:32Z</time>
      </trkpt>
      <trkpt lat="44.52925" lon="3.80632">
        <ele>1437</ele>
        <time>2017-03-01T21:05:32Z</time>
      </trkpt>
      <trkpt lat="44.52914" lon="3.80577">
        <ele>1441</ele>
        <time>2017-03-01T21:07:32Z</time>
      </trkpt>
      <trkpt lat="44.52911" lon="3.80544">
        <ele>1442</ele>
        <time>2017-03-01T21:09:32Z</time>
      </trkpt>
      <trkpt lat="44.5291" lon="3.80501">
        <ele>1443</ele>
        <time>2017-03-01T21:11:32Z</time>
      </trkpt>
      <trkpt lat="44.52912" lon="3.80467">
        <ele>1445</ele>
        <time>2017-03-01T21:13:32Z</time>
      </trkpt>
      <trkpt lat="44.52916" lon="3.80432">
        <ele>1447</ele>
        <time>2017-03-01T21:15:32Z</time>
      </trkpt>
      <trkpt lat="44.52922" lon="3.80407">
        <ele>1448</ele>
        <time>2017-03-01T21:17:32Z</time>
      </trkpt>
      <trkpt lat="44.5293" lon="3.80382">
        <ele>1447</ele>
        <time>2017-03-01T21:19:32Z</time>
      </trkpt>
      <trkpt lat="44.52932" lon="3.80365">
        <ele>1447</ele>
        <time>2017-03-01T21:21:32Z</time>
      </trkpt>
      <trkpt lat="44.52934" lon="3.80327">
        <ele>1447</ele>
        <time>2017-03-01T21:23:32Z</time>
      </trkpt>
      <trkpt lat="44.52937" lon="3.80299">
        <ele>1446</ele>
        <time>2017-03-01T21:25:32Z</time>
      </trkpt>
      <trkpt lat="44.52946" lon="3.80244">
        <ele>1446</ele>
        <time>2017-03-01T21:27:32Z</time>
      </trkpt>
      <trkpt lat="44.52952" lon="3.80181">
        <ele>1445</ele>
        <time>2017-03-01T21:29:32Z</time>
      </trkpt>
      <trkpt lat="44.52957" lon="3.80128">
        <ele>1445</ele>
        <time>2017-03-01T21:31:32Z</time>
      </trkpt>
      <trkpt lat="44.52959" lon="3.80056">
        <ele>1445</ele>
        <time>2017-03-01T21:33:32Z</time>
      </trkpt>
      <trkpt lat="44.52961" lon="3.79985">
        <ele>1444</ele>
        <time>2017-03-01T21:35:32Z</time>
      </trkpt>
      <trkpt lat="44.52961" lon="3.79929">
        <ele>1444</ele>
        <time>2017-03-01T21:37:32Z</time>
      </trkpt>
      <trkpt lat="44.52961" lon="3.79899">
        <ele>1444</ele>
        <time>2017-03-01T21:39:32Z</time>
      </trkpt>
      <trkpt lat="44.52961" lon="3.79889">
        <ele>1444</ele>
        <time>2017-03-01T21:41:32Z</time>
      </trkpt>
      <trkpt lat="44.52958" lon="3.79866">
        <ele>1444</ele>
        <time>2017-03-01T21:43:32Z</time>
      </trkpt>
      <trkpt lat="44.52948" lon="3.7982">
        <ele>1444</ele>
        <time>2017-03-01T21:45:32Z</time>
      </trkpt>
      <trkpt lat="44.52939" lon="3.79783">
        <ele>1444</ele>
        <time>2017-03-01T21:47:32Z</time>
      </trkpt>
      <trkpt lat="44.52936" lon="3.79754">
        <ele>1444</ele>
        <time>2017-03-01T21:49:32Z</time>
      </trkpt>
      <trkpt lat="44.52933" lon="3.79709">
        <ele>1444</ele>
        <time>2017-03-01T21:51:32Z</time>
      </trkpt>
      <trkpt lat="44.52931" lon="3.79671">
        <ele>1445</ele>
        <time>2017-03-01T21:53:32Z</time>
      </trkpt>
      <trkpt lat="44.52929" lon="3.79628">
        <ele>1444</ele>
        <time>2017-03-01T21:55:32Z</time>
      </trkpt>
      <trkpt lat="44.52927" lon="3.79599">
        <ele>1444</ele>
        <time>2017-03-01T21:57:32Z</time>
      </trkpt>
      <trkpt lat="44.5292" lon="3.79568">
        <ele>1445</ele>
        <time>2017-03-01T21:59:32Z</time>
      </trkpt>
      <trkpt lat="44.52914" lon="3.79532">
        <ele>1444</ele>
        <time>2017-03-01T22:01:32Z</time>
      </trkpt>
      <trkpt lat="44.52909" lon="3.79491">
        <ele>1444</ele>
        <time>2017-03-01T22:03:32Z</time>
      </trkpt>
      <trkpt lat="44.52903" lon="3.7946">
        <ele>1445</ele>
        <time>2017-03-01T22:05:32Z</time>
      </trkpt>
      <trkpt lat="44.52891" lon="3.79417">
        <ele>1447</ele>
        <time>2017-03-01T22:07:32Z</time>
      </trkpt>
      <trkpt lat="44.52887" lon="3.79395">
        <ele>1447</ele>
        <time>2017-03-01T22:09:32Z</time>
      </trkpt>
      <trkpt lat="44.52888" lon="3.79376">
        <ele>1447</ele>
        <time>2017-03-01T22:11:32Z</time>
      </trkpt>
      <trkpt lat="44.52892" lon="3.79348">
        <ele>1447</ele>
        <time>2017-03-01T22:13:32Z</time>
      </trkpt>
      <trkpt lat="44.529" lon="3.79306">
        <ele>1446</ele>
        <time>2017-03-01T22:15:32Z</time>
      </trkpt>
      <trkpt lat="44.52906" lon="3.7928">
        <ele>1445</ele>
        <time>2017-03-01T22:17:32Z</time>
      </trkpt>
      <trkpt lat="44.52923" lon="3.79234">
        <ele>1443</ele>
        <time>2017-03-01T22:19:32Z</time>
      </trkpt>
      <trkpt lat="44.5294" lon="3.79184">
        <ele>1440</ele>
        <time>2017-03-01T22:21:32Z</time>
      </trkpt>
      <trkpt lat="44.52955" lon="3.79137">
        <ele>1438</ele>
        <time>2017-03-01T22:23:32Z</time>
      </trkpt>
      <trkpt lat="44.52968" lon="3.79103">
        <ele>1438</ele>
        <time>2017-03-01T22:25:32Z</time>
      </trkpt>
      <trkpt lat="44.5298" lon="3.79064">
        <ele>1437</ele>
        <time>2017-03-01T22:27:32Z</time>
      </trkpt>
      <trkpt lat="44.52983" lon="3.79048">
        <ele>1436</ele>
        <time>2017-03-01T22:29:32Z</time>
      </trkpt>
      <trkpt lat="44.52987" lon="3.79013">
        <ele>1435</ele>
        <time>2017-03-01T22:31:32Z</time>
      </trkpt>
      <trkpt lat="44.52991" lon="3.78961">
        <ele>1432</ele>
        <time>2017-03-01T22:33:32Z</time>
      </trkpt>
      <trkpt lat="44.52996" lon="3.78905">
        <ele>1429</ele>
        <time>2017-03-01T22:35:32Z</time>
      </trkpt>
      <trkpt lat="44.52997" lon="3.78862">
        <ele>1428</ele>
        <time>2017-03-01T22:37:32Z</time>
      </trkpt>
      <trkpt lat="44.52996" lon="3.78823">
        <ele>1426</ele>
        <time>2017-03-01T22:39:32Z</time>
      </trkpt>
      <trkpt lat="44.52997" lon="3.78795">
        <ele>1424</ele>
        <time>2017-03-01T22:41:32Z</time>
      </trkpt>
      <trkpt lat="44.53" lon="3.78768">
        <ele>1423</ele>
        <time>2017-03-01T22:43:32Z</time>
      </trkpt>
      <trkpt lat="44.53003" lon="3.78741">
        <ele>1421</ele>
        <time>2017-03-01T22:45:32Z</time>
      </trkpt>
      <trkpt lat="44.53005" lon="3.78701">
        <ele>1418</ele>
        <time>2017-03-01T22:47:32Z</time>
      </trkpt>
      <trkpt lat="44.53007" lon="3.78658">
        <ele>1415</ele>
        <time>2017-03-01T22:49:32Z</time>
      </trkpt>
      <trkpt lat="44.53007" lon="3.78649">
        <ele>1414</ele>
        <time>2017-03-01T22:51:32Z</time>
      </trkpt>
      <trkpt lat="44.53011" lon="3.78615">
        <ele>1413</ele>
        <time>2017-03-01T22:53:32Z</time>
      </trkpt>
      <trkpt lat="44.53013" lon="3.78593">
        <ele>1412</ele>
        <time>2017-03-01T22:55:32Z</time>
      </trkpt>
      <trkpt lat="44.53014" lon="3.78567">
        <ele>1412</ele>
        <time>2017-03-01T22:57:32Z</time>
      </trkpt>
      <trkpt lat="44.53016" lon="3.78545">
        <ele>1412</ele>
        <time>2017-03-01T22:59:32Z</time>
      </trkpt>
      <trkpt lat="44.53016" lon="3.78534">
        <ele>1412</ele>
        <time>2017-03-01T23:01:32Z</time>
      </trkpt>
      <trkpt lat="44.53019" lon="3.78523">
        <ele>1412</ele>
        <time>2017-03-01T23:03:32Z</time>
      </trkpt>
      <trkpt lat="44.53019" lon="3.78523">
        <ele>1412</ele>
        <time>2017-03-01T23:05:32Z</time>
      </trkpt>
      <trkpt lat="44.53017" lon="3.78519">
        <ele>1412</ele>
        <time>2017-03-01T23:07:32Z</time>
      </trkpt>
      <trkpt lat="44.53015" lon="3.78516">
        <ele>1412</ele>
        <time>2017-03-01T23:09:32Z</time>
      </trkpt>
      <trkpt lat="44.53015" lon="3.78516">
        <ele>1412</ele>
        <time>2017-03-01T23:11:32Z</time>
      </trkpt>
      <trkpt lat="44.53003" lon="3.78525">
        <ele>1413</ele>
        <time>2017-03-01T23:13:32Z</time>
      </trkpt>
      <trkpt lat="44.52993" lon="3.78535">
        <ele>1413</ele>
        <time>2017-03-01T23:15:32Z</time>
      </trkpt>
      <trkpt lat="44.52984" lon="3.78555">
        <ele>1411</ele>
        <time>2017-03-01T23:17:32Z</time>
      </trkpt>
      <trkpt lat="44.5297" lon="3.78579">
        <ele>1410</ele>
        <time>2017-03-01T23:19:32Z</time>
      </trkpt>
      <trkpt lat="44.52952" lon="3.78608">
        <ele>1409</ele>
        <time>2017-03-01T23:21:32Z</time>
      </trkpt>
      <trkpt lat="44.52909" lon="3.78659">
        <ele>1406</ele>
        <time>2017-03-01T23:23:32Z</time>
      </trkpt>
      <trkpt lat="44.52898" lon="3.78672">
        <ele>1405</ele>
        <time>2017-03-01T23:25:32Z</time>
      </trkpt>
      <trkpt lat="44.52882" lon="3.78692">
        <ele>1403</ele>
        <time>2017-03-01T23:27:32Z</time>
      </trkpt>
      <trkpt lat="44.52869" lon="3.78713">
        <ele>1402</ele>
        <time>2017-03-01T23:29:32Z</time>
      </trkpt>
      <trkpt lat="44.52868" lon="3.78715">
        <ele>1402</ele>
        <time>2017-03-01T23:31:32Z</time>
      </trkpt>
      <trkpt lat="44.52859" lon="3.78733">
        <ele>1401</ele>
        <time>2017-03-01T23:33:32Z</time>
      </trkpt>
      <trkpt lat="44.52855" lon="3.78743">
        <ele>1401</ele>
        <time>2017-03-01T23:35:32Z</time>
      </trkpt>
      <trkpt lat="44.52847" lon="3.78766">
        <ele>1401</ele>
        <time>2017-03-01T23:37:32Z</time>
      </trkpt>
      <trkpt lat="44.52839" lon="3.78789">
        <ele>1401</ele>
        <time>2017-03-01T23:39:32Z</time>
      </trkpt>
      <trkpt lat="44.52833" lon="3.78807">
        <ele>1401</ele>
        <time>2017-03-01T23:41:32Z</time>
      </trkpt>
      <trkpt lat="44.52825" lon="3.78841">
        <ele>1400</ele>
        <time>2017-03-01T23:43:32Z</time>
      </trkpt>
      <trkpt lat="44.5281" lon="3.7888">
        <ele>1399</ele>
        <time>2017-03-01T23:45:32Z</time>
      </trkpt>
      <trkpt lat="44.52794" lon="3.78911">
        <ele>1397</ele>
        <time>2017-03-01T23:47:32Z</time>
      </trkpt>
      <trkpt lat="44.52779" lon="3.78938">
        <ele>1396</ele>
        <time>2017-03-01T23:49:32Z</time>
      </trkpt>
      <trkpt lat="44.52766" lon="3.78955">
        <ele>1395</ele>
        <time>2017-03-01T23:51:32Z</time>
      </trkpt>
      <trkpt lat="44.5275" lon="3.7897">
        <ele>1394</ele>
        <time>2017-03-01T23:53:32Z</time>
      </trkpt>
      <trkpt lat="44.52738" lon="3.78978">
        <ele>1394</ele>
        <time>2017-03-01T23:55:32Z</time>
      </trkpt>
      <trkpt lat="44.52738" lon="3.78978">
        <ele>1394</ele>
        <time>2017-03-01T23:57:32Z</time>
      </trkpt>
      <trkpt lat="44.5275" lon="3.78952">
        <ele>1392</ele>
        <time>2017-03-01T23:59:32Z</time>
      </trkpt>
      <trkpt lat="44.52766" lon="3.78916">
        <ele>1391</ele>
        <time>2017-03-02T00:01:32Z</time>
      </trkpt>
      <trkpt lat="44.52774" lon="3.78883">
        <ele>1390</ele>
        <time>2017-03-02T00:03:32Z</time>
      </trkpt>
      <trkpt lat="44.52781" lon="3.78849">
        <ele>1389</ele>
        <time>2017-03-02T00:05:32Z</time>
      </trkpt>
      <trkpt lat="44.52781" lon="3.78821">
        <ele>1387</ele>
        <time>2017-03-02T00:07:32Z</time>
      </trkpt>
      <trkpt lat="44.52779" lon="3.78795">
        <ele>1385</ele>
        <time>2017-03-02T00:09:32Z</time>
      </trkpt>
      <trkpt lat="44.52776" lon="3.78773">
        <ele>1382</ele>
        <time>2017-03-02T00:11:32Z</time>
      </trkpt>
      <trkpt lat="44.52778" lon="3.78748">
        <ele>1381</ele>
        <time>2017-03-02T00:13:32Z</time>
      </trkpt>
      <trkpt lat="44.52784" lon="3.78713">
        <ele>1381</ele>
        <time>2017-03-02T00:15:32Z</time>
      </trkpt>
      <trkpt lat="44.52793" lon="3.78665">
        <ele>1380</ele>
        <time>2017-03-02T00:17:32Z</time>
      </trkpt>
      <trkpt lat="44.52803" lon="3.78625">
        <ele>1380</ele>
        <time>2017-03-02T00:19:32Z</time>
      </trkpt>
      <trkpt lat="44.52815" lon="3.78588">
        <ele>1381</ele>
        <time>2017-03-02T00:21:32Z</time>
      </trkpt>
      <trkpt lat="44.52823" lon="3.78566">
        <ele>1385</ele>
        <time>2017-03-02T00:23:32Z</time>
      </trkpt>
      <trkpt lat="44.52824" lon="3.7856">
        <ele>1386</ele>
        <time>2017-03-02T00:25:32Z</time>
      </trkpt>
      <trkpt lat="44.52824" lon="3.78558">
        <ele>1386</ele>
        <time>2017-03-02T00:27:32Z</time>
      </trkpt>
      <trkpt lat="44.52824" lon="3.78556">
        <ele>1386</ele>
        <time>2017-03-02T00:29:32Z</time>
      </trkpt>
      <trkpt lat="44.52822" lon="3.7855">
        <ele>1387</ele>
        <time>2017-03-02T00:31:32Z</time>
      </trkpt>
      <trkpt lat="44.52814" lon="3.78542">
        <ele>1386</ele>
        <time>2017-03-02T00:33:32Z</time>
      </trkpt>
      <trkpt lat="44.52802" lon="3.78537">
        <ele>1385</ele>
        <time>2017-03-02T00:35:32Z</time>
      </trkpt>
      <trkpt lat="44.52784" lon="3.78536">
        <ele>1381</ele>
        <time>2017-03-02T00:37:32Z</time>
      </trkpt>
      <trkpt lat="44.52738" lon="3.78537">
        <ele>1373</ele>
        <time>2017-03-02T00:39:32Z</time>
      </trkpt>
      <trkpt lat="44.52696" lon="3.7854">
        <ele>1367</ele>
        <time>2017-03-02T00:41:32Z</time>
      </trkpt>
      <trkpt lat="44.52676" lon="3.7854">
        <ele>1364</ele>
        <time>2017-03-02T00:43:32Z</time>
      </trkpt>
      <trkpt lat="44.52654" lon="3.7853">
        <ele>1362</ele>
        <time>2017-03-02T00:45:32Z</time>
      </trkpt>
      <trkpt lat="44.52642" lon="3.78521">
        <ele>1361</ele>
        <time>2017-03-02T00:47:32Z</time>
      </trkpt>
      <trkpt lat="44.52636" lon="3.78516">
        <ele>1361</ele>
        <time>2017-03-02T00:49:32Z</time>
      </trkpt>
      <trkpt lat="44.52627" lon="3.78503">
        <ele>1361</ele>
        <time>2017-03-02T00:51:32Z</time>
      </trkpt>
      <trkpt lat="44.5262" lon="3.78484">
        <ele>1364</ele>
        <time>2017-03-02T00:53:32Z</time>
      </trkpt>
      <trkpt lat="44.52608" lon="3.78446">
        <ele>1369</ele>
        <time>2017-03-02T00:55:32Z</time>
      </trkpt>
      <trkpt lat="44.526" lon="3.78432">
        <ele>1370</ele>
        <time>2017-03-02T00:57:32Z</time>
      </trkpt>
      <trkpt lat="44.5259" lon="3.78424">
        <ele>1369</ele>
        <time>2017-03-02T00:59:32Z</time>
      </trkpt>
      <trkpt lat="44.52583" lon="3.78423">
        <ele>1368</ele>
        <time>2017-03-02T01:01:32Z</time>
      </trkpt>
      <trkpt lat="44.52577" lon="3.78424">
        <ele>1367</ele>
        <time>2017-03-02T01:03:32Z</time>
      </trkpt>
      <trkpt lat="44.5256" lon="3.78437">
        <ele>1364</ele>
        <time>2017-03-02T01:05:32Z</time>
      </trkpt>
      <trkpt lat="44.52545" lon="3.78445">
        <ele>1362</ele>
        <time>2017-03-02T01:07:32Z</time>
      </trkpt>
      <trkpt lat="44.52524" lon="3.78451">
        <ele>1359</ele>
        <time>2017-03-02T01:09:32Z</time>
      </trkpt>
      <trkpt lat="44.5252" lon="3.78453">
        <ele>1359</ele>
        <time>2017-03-02T01:11:32Z</time>
      </trkpt>
      <trkpt lat="44.52492" lon="3.78461">
        <ele>1356</ele>
        <time>2017-03-02T01:13:32Z</time>
      </trkpt>
      <trkpt lat="44.52476" lon="3.78465">
        <ele>1355</ele>
        <time>2017-03-02T01:15:32Z</time>
      </trkpt>
      <trkpt lat="44.52462" lon="3.78466">
        <ele>1354</ele>
        <time>2017-03-02T01:17:32Z</time>
      </trkpt>
      <trkpt lat="44.52448" lon="3.78466">
        <ele>1353</ele>
        <time>2017-03-02T01:19:32Z</time>
      </trkpt>
      <trkpt lat="44.52438" lon="3.78464">
        <ele>1353</ele>
        <time>2017-03-02T01:21:32Z</time>
      </trkpt>
      <trkpt lat="44.52426" lon="3.78458">
        <ele>1353</ele>
        <time>2017-03-02T01:23:32Z</time>
      </trkpt>
      <trkpt lat="44.52415" lon="3.78444">
        <ele>1353</ele>
        <time>2017-03-02T01:25:32Z</time>
      </trkpt>
      <trkpt lat="44.52411" lon="3.78435">
        <ele>1352</ele>
        <time>2017-03-02T01:27:32Z</time>
      </trkpt>
      <trkpt lat="44.52407" lon="3.78414">
        <ele>1352</ele>
        <time>2017-03-02T01:29:32Z</time>
      </trkpt>
      <trkpt lat="44.52406" lon="3.78408">
        <ele>1352</ele>
        <time>2017-03-02T01:31:32Z</time>
      </trkpt>
      <trkpt lat="44.52406" lon="3.78406">
        <ele>1351</ele>
        <time>2017-03-02T01:33:32Z</time>
      </trkpt>
      <trkpt lat="44.52405" lon="3.78396">
        <ele>1351</ele>
        <time>2017-03-02T01:35:32Z</time>
      </trkpt>
      <trkpt lat="44.52406" lon="3.78382">
        <ele>1350</ele>
        <time>2017-03-02T01:37:32Z</time>
      </trkpt>
      <trkpt lat="44.52407" lon="3.78367">
        <ele>1350</ele>
        <time>2017-03-02T01:39:32Z</time>
      </trkpt>
      <trkpt lat="44.5241" lon="3.78344">
        <ele>1350</ele>
        <time>2017-03-02T01:41:32Z</time>
      </trkpt>
      <trkpt lat="44.52416" lon="3.78311">
        <ele>1350</ele>
        <time>2017-03-02T01:43:32Z</time>
      </trkpt>
      <trkpt lat="44.52423" lon="3.78271">
        <ele>1349</ele>
        <time>2017-03-02T01:45:32Z</time>
      </trkpt>
      <trkpt lat="44.5243" lon="3.78202">
        <ele>1347</ele>
        <time>2017-03-02T01:47:32Z</time>
      </trkpt>
      <trkpt lat="44.52434" lon="3.78172">
        <ele>1346</ele>
        <time>2017-03-02T01:49:32Z</time>
      </trkpt>
      <trkpt lat="44.52442" lon="3.78128">
        <ele>1346</ele>
        <time>2017-03-02T01:51:32Z</time>
      </trkpt>
      <trkpt lat="44.52451" lon="3.78086">
        <ele>1345</ele>
        <time>2017-03-02T01:53:32Z</time>
      </trkpt>
      <trkpt lat="44.52452" lon="3.78076">
        <ele>1346</ele>
        <time>2017-03-02T01:55:32Z</time>
      </trkpt>
      <trkpt lat="44.52453" lon="3.7807">
        <ele>1346</ele>
        <time>2017-03-02T01:57:32Z</time>
      </trkpt>
      <trkpt lat="44.52454" lon="3.78065">
        <ele>1346</ele>
        <time>2017-03-02T01:59:32Z</time>
      </trkpt>
      <trkpt lat="44.52456" lon="3.78059">
        <ele>1347</ele>
        <time>2017-03-02T02:01:32Z</time>
      </trkpt>
      <trkpt lat="44.52462" lon="3.78045">
        <ele>1348</ele>
        <time>2017-03-02T02:03:32Z</time>
      </trkpt>
      <trkpt lat="44.52471" lon="3.78031">
        <ele>1349</ele>
        <time>2017-03-02T02:05:32Z</time>
      </trkpt>
      <trkpt lat="44.52473" lon="3.78028">
        <ele>1349</ele>
        <time>2017-03-02T02:07:32Z</time>
      </trkpt>
      <trkpt lat="44.52474" lon="3.78025">
        <ele>1349</ele>
        <time>2017-03-02T02:09:32Z</time>
      </trkpt>
      <trkpt lat="44.52476" lon="3.78021">
        <ele>1349</ele>
        <time>2017-03-02T02:11:32Z</time>
      </trkpt>
      <trkpt lat="44.52478" lon="3.78019">
        <ele>1349</ele>
        <time>2017-03-02T02:13:32Z</time>
      </trkpt>
      <trkpt lat="44.52478" lon="3.78015">
        <ele>1349</ele>
        <time>2017-03-02T02:15:32Z</time>
      </trkpt>
      <trkpt lat="44.52478" lon="3.78009">
        <ele>1349</ele>
        <time>2017-03-02T02:17:32Z</time>
      </trkpt>
      <trkpt lat="44.52477" lon="3.78002">
        <ele>1349</ele>
        <time>2017-03-02T02:19:32Z</time>
      </trkpt>
      <trkpt lat="44.52473" lon="3.77985">
        <ele>1352</ele>
        <time>2017-03-02T02:21:32Z</time>
      </trkpt>
      <trkpt lat="44.52473" lon="3.77985">
        <ele>1352</ele>
        <time>2017-03-02T02:23:32Z</time>
      </trkpt>
      <trkpt lat="44.52469" lon="3.77996">
        <ele>1349</ele>
        <time>2017-03-02T02:25:32Z</time>
      </trkpt>
      <trkpt lat="44.52465" lon="3.78">
        <ele>1348</ele>
        <time>2017-03-02T02:27:32Z</time>
      </trkpt>
      <trkpt lat="44.52458" lon="3.78003">
        <ele>1347</ele>
        <time>2017-03-02T02:29:32Z</time>
      </trkpt>
      <trkpt lat="44.5245" lon="3.78003">
        <ele>1347</ele>
        <time>2017-03-02T02:31:32Z</time>
      </trkpt>
      <trkpt lat="44.52438" lon="3.78006">
        <ele>1346</ele>
        <time>2017-03-02T02:33:32Z</time>
      </trkpt>
      <trkpt lat="44.52422" lon="3.78009">
        <ele>1345</ele>
        <time>2017-03-02T02:35:32Z</time>
      </trkpt>
      <trkpt lat="44.52414" lon="3.78013">
        <ele>1344</ele>
        <time>2017-03-02T02:37:32Z</time>
      </trkpt>
      <trkpt lat="44.52404" lon="3.78022">
        <ele>1345</ele>
        <time>2017-03-02T02:39:32Z</time>
      </trkpt>
      <trkpt lat="44.52396" lon="3.78035">
        <ele>1345</ele>
        <time>2017-03-02T02:41:32Z</time>
      </trkpt>
      <trkpt lat="44.52387" lon="3.78049">
        <ele>1345</ele>
        <time>2017-03-02T02:43:32Z</time>
      </trkpt>
      <trkpt lat="44.52379" lon="3.7806">
        <ele>1344</ele>
        <time>2017-03-02T02:45:32Z</time>
      </trkpt>
      <trkpt lat="44.52372" lon="3.78076">
        <ele>1343</ele>
        <time>2017-03-02T02:47:32Z</time>
      </trkpt>
      <trkpt lat="44.52364" lon="3.78091">
        <ele>1342</ele>
        <time>2017-03-02T02:49:32Z</time>
      </trkpt>
      <trkpt lat="44.52357" lon="3.78104">
        <ele>1341</ele>
        <time>2017-03-02T02:51:32Z</time>
      </trkpt>
      <trkpt lat="44.52349" lon="3.78116">
        <ele>1340</ele>
        <time>2017-03-02T02:53:32Z</time>
      </trkpt>
      <trkpt lat="44.52339" lon="3.78129">
        <ele>1338</ele>
        <time>2017-03-02T02:55:32Z</time>
      </trkpt>
      <trkpt lat="44.52328" lon="3.78145">
        <ele>1337</ele>
        <time>2017-03-02T02:57:32Z</time>
      </trkpt>
      <trkpt lat="44.5231" lon="3.78165">
        <ele>1336</ele>
        <time>2017-03-02T02:59:32Z</time>
      </trkpt>
      <trkpt lat="44.52295" lon="3.78185">
        <ele>1335</ele>
        <time>2017-03-02T03:01:32Z</time>
      </trkpt>
      <trkpt lat="44.52285" lon="3.78197">
        <ele>1335</ele>
        <time>2017-03-02T03:03:32Z</time>
      </trkpt>
      <trkpt lat="44.52272" lon="3.78214">
        <ele>1333</ele>
        <time>2017-03-02T03:05:32Z</time>
      </trkpt>
      <trkpt lat="44.5226" lon="3.78228">
        <ele>1332</ele>
        <time>2017-03-02T03:07:32Z</time>
      </trkpt>
      <trkpt lat="44.52246" lon="3.78246">
        <ele>1329</ele>
        <time>2017-03-02T03:09:32Z</time>
      </trkpt>
      <trkpt lat="44.52234" lon="3.78261">
        <ele>1328</ele>
        <time>2017-03-02T03:11:32Z</time>
      </trkpt>
      <trkpt lat="44.52224" lon="3.78274">
        <ele>1327</ele>
        <time>2017-03-02T03:13:32Z</time>
      </trkpt>
      <trkpt lat="44.52215" lon="3.78287">
        <ele>1326</ele>
        <time>2017-03-02T03:15:32Z</time>
      </trkpt>
      <trkpt lat="44.52208" lon="3.78299">
        <ele>1325</ele>
        <time>2017-03-02T03:17:32Z</time>
      </trkpt>
      <trkpt lat="44.522" lon="3.78314">
        <ele>1324</ele>
        <time>2017-03-02T03:19:32Z</time>
      </trkpt>
      <trkpt lat="44.52192" lon="3.78323">
        <ele>1323</ele>
        <time>2017-03-02T03:21:32Z</time>
      </trkpt>
      <trkpt lat="44.5218" lon="3.78332">
        <ele>1323</ele>
        <time>2017-03-02T03:23:32Z</time>
      </trkpt>
      <trkpt lat="44.52168" lon="3.78337">
        <ele>1324</ele>
        <time>2017-03-02T03:25:32Z</time>
      </trkpt>
      <trkpt lat="44.5216" lon="3.78339">
        <ele>1325</ele>
        <time>2017-03-02T03:27:32Z</time>
      </trkpt>
      <trkpt lat="44.52154" lon="3.78342">
        <ele>1326</ele>
        <time>2017-03-02T03:29:32Z</time>
      </trkpt>
      <trkpt lat="44.52151" lon="3.78344">
        <ele>1326</ele>
        <time>2017-03-02T03:31:32Z</time>
      </trkpt>
      <trkpt lat="44.5215" lon="3.7835">
        <ele>1326</ele>
        <time>2017-03-02T03:33:32Z</time>
      </trkpt>
      <trkpt lat="44.52151" lon="3.78366">
        <ele>1324</ele>
        <time>2017-03-02T03:35:32Z</time>
      </trkpt>
      <trkpt lat="44.5215" lon="3.78383">
        <ele>1323</ele>
        <time>2017-03-02T03:37:32Z</time>
      </trkpt>
      <trkpt lat="44.52147" lon="3.78392">
        <ele>1323</ele>
        <time>2017-03-02T03:39:32Z</time>
      </trkpt>
      <trkpt lat="44.52147" lon="3.78392">
        <ele>1323</ele>
        <time>2017-03-02T03:41:32Z</time>
      </trkpt>
      <trkpt lat="44.52143" lon="3.78394">
        <ele>1323</ele>
        <time>2017-03-02T03:43:32Z</time>
      </trkpt>
      <trkpt lat="44.52139" lon="3.78397">
        <ele>1324</ele>
        <time>2017-03-02T03:45:32Z</time>
      </trkpt>
      <trkpt lat="44.52124" lon="3.78425">
        <ele>1325</ele>
        <time>2017-03-02T03:47:32Z</time>
      </trkpt>
      <trkpt lat="44.521" lon="3.78468">
        <ele>1327</ele>
        <time>2017-03-02T03:49:32Z</time>
      </trkpt>
      <trkpt lat="44.52073" lon="3.78504">
        <ele>1332</ele>
        <time>2017-03-02T03:51:32Z</time>
      </trkpt>
      <trkpt lat="44.52045" lon="3.78538">
        <ele>1336</ele>
        <time>2017-03-02T03:53:32Z</time>
      </trkpt>
      <trkpt lat="44.52018" lon="3.78563">
        <ele>1341</ele>
        <time>2017-03-02T03:55:32Z</time>
      </trkpt>
      <trkpt lat="44.51989" lon="3.78595">
        <ele>1344</ele>
        <time>2017-03-02T03:57:32Z</time>
      </trkpt>
      <trkpt lat="44.51958" lon="3.78625">
        <ele>1347</ele>
        <time>2017-03-02T03:59:32Z</time>
      </trkpt>
      <trkpt lat="44.5192" lon="3.78651">
        <ele>1351</ele>
        <time>2017-03-02T04:01:32Z</time>
      </trkpt>
      <trkpt lat="44.51883" lon="3.78678">
        <ele>1353</ele>
        <time>2017-03-02T04:03:32Z</time>
      </trkpt>
      <trkpt lat="44.51861" lon="3.78688">
        <ele>1354</ele>
        <time>2017-03-02T04:05:32Z</time>
      </trkpt>
      <trkpt lat="44.51836" lon="3.78692">
        <ele>1357</ele>
        <time>2017-03-02T04:07:32Z</time>
      </trkpt>
      <trkpt lat="44.51811" lon="3.78691">
        <ele>1357</ele>
        <time>2017-03-02T04:09:32Z</time>
      </trkpt>
      <trkpt lat="44.51783" lon="3.78684">
        <ele>1359</ele>
        <time>2017-03-02T04:11:32Z</time>
      </trkpt>
      <trkpt lat="44.51756" lon="3.78675">
        <ele>1361</ele>
        <time>2017-03-02T04:13:32Z</time>
      </trkpt>
      <trkpt lat="44.51752" lon="3.78673">
        <ele>1361</ele>
        <time>2017-03-02T04:15:32Z</time>
      </trkpt>
      <trkpt lat="44.51726" lon="3.7866">
        <ele>1363</ele>
        <time>2017-03-02T04:17:32Z</time>
      </trkpt>
      <trkpt lat="44.51697" lon="3.78649">
        <ele>1365</ele>
        <time>2017-03-02T04:19:32Z</time>
      </trkpt>
      <trkpt lat="44.51693" lon="3.78647">
        <ele>1366</ele>
        <time>2017-03-02T04:21:32Z</time>
      </trkpt>
      <trkpt lat="44.51667" lon="3.78644">
        <ele>1366</ele>
        <time>2017-03-02T04:23:32Z</time>
      </trkpt>
      <trkpt lat="44.5162" lon="3.78641">
        <ele>1367</ele>
        <time>2017-03-02T04:25:32Z</time>
      </trkpt>
      <trkpt lat="44.51587" lon="3.78632">
        <ele>1367</ele>
        <time>2017-03-02T04:27:32Z</time>
      </trkpt>
      <trkpt lat="44.51543" lon="3.78616">
        <ele>1366</ele>
        <time>2017-03-02T04:29:32Z</time>
      </trkpt>
      <trkpt lat="44.51518" lon="3.78604">
        <ele>1364</ele>
        <time>2017-03-02T04:31:32Z</time>
      </trkpt>
      <trkpt lat="44.51499" lon="3.78592">
        <ele>1362</ele>
        <time>2017-03-02T04:33:32Z</time>
      </trkpt>
      <trkpt lat="44.51499" lon="3.78592">
        <ele>1362</ele>
        <time>2017-03-02T04:35:32Z</time>
      </trkpt>
      <trkpt lat="44.51515" lon="3.78571">
        <ele>1362</ele>
        <time>2017-03-02T04:37:32Z</time>
      </trkpt>
      <trkpt lat="44.51519" lon="3.78565">
        <ele>1362</ele>
        <time>2017-03-02T04:39:32Z</time>
      </trkpt>
      <trkpt lat="44.51519" lon="3.78565">
        <ele>1362</ele>
        <time>2017-03-02T04:41:32Z</time>
      </trkpt>
      <trkpt lat="44.51507" lon="3.78536">
        <ele>1360</ele>
        <time>2017-03-02T04:43:32Z</time>
      </trkpt>
      <trkpt lat="44.51495" lon="3.78501">
        <ele>1357</ele>
        <time>2017-03-02T04:45:32Z</time>
      </trkpt>
      <trkpt lat="44.51492" lon="3.7848">
        <ele>1355</ele>
        <time>2017-03-02T04:47:32Z</time>
      </trkpt>
      <trkpt lat="44.51489" lon="3.78449">
        <ele>1353</ele>
        <time>2017-03-02T04:49:32Z</time>
      </trkpt>
      <trkpt lat="44.51483" lon="3.78407">
        <ele>1349</ele>
        <time>2017-03-02T04:51:32Z</time>
      </trkpt>
      <trkpt lat="44.51479" lon="3.78387">
        <ele>1347</ele>
        <time>2017-03-02T04:53:32Z</time>
      </trkpt>
      <trkpt lat="44.51473" lon="3.78366">
        <ele>1344</ele>
        <time>2017-03-02T04:55:32Z</time>
      </trkpt>
      <trkpt lat="44.51467" lon="3.78334">
        <ele>1341</ele>
        <time>2017-03-02T04:57:32Z</time>
      </trkpt>
      <trkpt lat="44.51462" lon="3.78313">
        <ele>1338</ele>
        <time>2017-03-02T04:59:32Z</time>
      </trkpt>
      <trkpt lat="44.51455" lon="3.78291">
        <ele>1334</ele>
        <time>2017-03-02T05:01:32Z</time>
      </trkpt>
      <trkpt lat="44.5145" lon="3.78268">
        <ele>1330</ele>
        <time>2017-03-02T05:03:32Z</time>
      </trkpt>
      <trkpt lat="44.51445" lon="3.78252">
        <ele>1327</ele>
        <time>2017-03-02T05:05:32Z</time>
      </trkpt>
      <trkpt lat="44.51439" lon="3.78241">
        <ele>1325</ele>
        <time>2017-03-02T05:07:32Z</time>
      </trkpt>
      <trkpt lat="44.51433" lon="3.78235">
        <ele>1323</ele>
        <time>2017-03-02T05:09:32Z</time>
      </trkpt>
      <trkpt lat="44.51425" lon="3.78231">
        <ele>1321</ele>
        <time>2017-03-02T05:11:32Z</time>
      </trkpt>
      <trkpt lat="44.5142" lon="3.78229">
        <ele>1320</ele>
        <time>2017-03-02T05:13:32Z</time>
      </trkpt>
      <trkpt lat="44.51417" lon="3.78228">
        <ele>1319</ele>
        <time>2017-03-02T05:15:32Z</time>
      </trkpt>
      <trkpt lat="44.51409" lon="3.78225">
        <ele>1319</ele>
        <time>2017-03-02T05:17:32Z</time>
      </trkpt>
      <trkpt lat="44.51391" lon="3.78215">
        <ele>1318</ele>
        <time>2017-03-02T05:19:32Z</time>
      </trkpt>
      <trkpt lat="44.51367" lon="3.78199">
        <ele>1317</ele>
        <time>2017-03-02T05:21:32Z</time>
      </trkpt>
      <trkpt lat="44.51344" lon="3.78185">
        <ele>1316</ele>
        <time>2017-03-02T05:23:32Z</time>
      </trkpt>
      <trkpt lat="44.5132" lon="3.78167">
        <ele>1315</ele>
        <time>2017-03-02T05:25:32Z</time>
      </trkpt>
      <trkpt lat="44.51299" lon="3.78151">
        <ele>1314</ele>
        <time>2017-03-02T05:27:32Z</time>
      </trkpt>
      <trkpt lat="44.51278" lon="3.78138">
        <ele>1314</ele>
        <time>2017-03-02T05:29:32Z</time>
      </trkpt>
      <trkpt lat="44.51265" lon="3.78131">
        <ele>1314</ele>
        <time>2017-03-02T05:31:32Z</time>
      </trkpt>
      <trkpt lat="44.51258" lon="3.78122">
        <ele>1313</ele>
        <time>2017-03-02T05:33:32Z</time>
      </trkpt>
      <trkpt lat="44.51253" lon="3.78112">
        <ele>1312</ele>
        <time>2017-03-02T05:35:32Z</time>
      </trkpt>
      <trkpt lat="44.51237" lon="3.78094">
        <ele>1310</ele>
        <time>2017-03-02T05:37:32Z</time>
      </trkpt>
      <trkpt lat="44.5122" lon="3.78075">
        <ele>1308</ele>
        <time>2017-03-02T05:39:32Z</time>
      </trkpt>
      <trkpt lat="44.51205" lon="3.7806">
        <ele>1308</ele>
        <time>2017-03-02T05:41:32Z</time>
      </trkpt>
      <trkpt lat="44.51192" lon="3.78043">
        <ele>1307</ele>
        <time>2017-03-02T05:43:32Z</time>
      </trkpt>
      <trkpt lat="44.51182" lon="3.7803">
        <ele>1306</ele>
        <time>2017-03-02T05:45:32Z</time>
      </trkpt>
      <trkpt lat="44.51172" lon="3.78017">
        <ele>1306</ele>
        <time>2017-03-02T05:47:32Z</time>
      </trkpt>
      <trkpt lat="44.51163" lon="3.78001">
        <ele>1305</ele>
        <time>2017-03-02T05:49:32Z</time>
      </trkpt>
      <trkpt lat="44.51153" lon="3.77985">
        <ele>1302</ele>
        <time>2017-03-02T05:51:32Z</time>
      </trkpt>
      <trkpt lat="44.51146" lon="3.77977">
        <ele>1301</ele>
        <time>2017-03-02T05:53:32Z</time>
      </trkpt>
      <trkpt lat="44.51134" lon="3.77968">
        <ele>1300</ele>
        <time>2017-03-02T05:55:32Z</time>
      </trkpt>
      <trkpt lat="44.51122" lon="3.77962">
        <ele>1299</ele>
        <time>2017-03-02T05:57:32Z</time>
      </trkpt>
      <trkpt lat="44.51112" lon="3.77959">
        <ele>1299</ele>
        <time>2017-03-02T05:59:32Z</time>
      </trkpt>
      <trkpt lat="44.51098" lon="3.77957">
        <ele>1298</ele>
        <time>2017-03-02T06:01:32Z</time>
      </trkpt>
      <trkpt lat="44.51089" lon="3.77941">
        <ele>1297</ele>
        <time>2017-03-02T06:03:32Z</time>
      </trkpt>
      <trkpt lat="44.51071" lon="3.77912">
        <ele>1294</ele>
        <time>2017-03-02T06:05:32Z</time>
      </trkpt>
      <trkpt lat="44.51052" lon="3.77878">
        <ele>1289</ele>
        <time>2017-03-02T06:07:32Z</time>
      </trkpt>
      <trkpt lat="44.51034" lon="3.77848">
        <ele>1285</ele>
        <time>2017-03-02T06:09:32Z</time>
      </trkpt>
      <trkpt lat="44.51018" lon="3.77819">
        <ele>1282</ele>
        <time>2017-03-02T06:11:32Z</time>
      </trkpt>
      <trkpt lat="44.51003" lon="3.77793">
        <ele>1279</ele>
        <time>2017-03-02T06:13:32Z</time>
      </trkpt>
      <trkpt lat="44.50998" lon="3.77782">
        <ele>1278</ele>
        <time>2017-03-02T06:15:32Z</time>
      </trkpt>
      <trkpt lat="44.50996" lon="3.77774">
        <ele>1277</ele>
        <time>2017-03-02T06:17:32Z</time>
      </trkpt>
      <trkpt lat="44.50996" lon="3.77774">
        <ele>1277</ele>
        <time>2017-03-02T06:19:32Z</time>
      </trkpt>
      <trkpt lat="44.51009" lon="3.77772">
        <ele>1276</ele>
        <time>2017-03-02T06:21:32Z</time>
      </trkpt>
      <trkpt lat="44.51029" lon="3.7777">
        <ele>1275</ele>
        <time>2017-03-02T06:23:32Z</time>
      </trkpt>
      <trkpt lat="44.51048" lon="3.77769">
        <ele>1274</ele>
        <time>2017-03-02T06:25:32Z</time>
      </trkpt>
      <trkpt lat="44.51063" lon="3.77767">
        <ele>1272</ele>
        <time>2017-03-02T06:27:32Z</time>
      </trkpt>
      <trkpt lat="44.51074" lon="3.77764">
        <ele>1271</ele>
        <time>2017-03-02T06:29:32Z</time>
      </trkpt>
      <trkpt lat="44.51086" lon="3.77764">
        <ele>1271</ele>
        <time>2017-03-02T06:31:32Z</time>
      </trkpt>
      <trkpt lat="44.51103" lon="3.77767">
        <ele>1270</ele>
        <time>2017-03-02T06:33:32Z</time>
      </trkpt>
      <trkpt lat="44.51133" lon="3.77771">
        <ele>1269</ele>
        <time>2017-03-02T06:35:32Z</time>
      </trkpt>
      <trkpt lat="44.51168" lon="3.77777">
        <ele>1269</ele>
        <time>2017-03-02T06:37:32Z</time>
      </trkpt>
      <trkpt lat="44.51198" lon="3.77781">
        <ele>1266</ele>
        <time>2017-03-02T06:39:32Z</time>
      </trkpt>
      <trkpt lat="44.51218" lon="3.77784">
        <ele>1264</ele>
        <time>2017-03-02T06:41:32Z</time>
      </trkpt>
      <trkpt lat="44.51218" lon="3.77784">
        <ele>1264</ele>
        <time>2017-03-02T06:43:32Z</time>
      </trkpt>
      <trkpt lat="44.51242" lon="3.77775">
        <ele>1260</ele>
        <time>2017-03-02T06:45:32Z</time>
      </trkpt>
      <trkpt lat="44.5126" lon="3.77772">
        <ele>1260</ele>
        <time>2017-03-02T06:47:32Z</time>
      </trkpt>
      <trkpt lat="44.51264" lon="3.77767">
        <ele>1260</ele>
        <time>2017-03-02T06:49:32Z</time>
      </trkpt>
      <trkpt lat="44.51267" lon="3.77762">
        <ele>1260</ele>
        <time>2017-03-02T06:51:32Z</time>
      </trkpt>
      <trkpt lat="44.51268" lon="3.77756">
        <ele>1259</ele>
        <time>2017-03-02T06:53:32Z</time>
      </trkpt>
      <trkpt lat="44.51269" lon="3.77751">
        <ele>1259</ele>
        <time>2017-03-02T06:55:32Z</time>
      </trkpt>
      <trkpt lat="44.51268" lon="3.77746">
        <ele>1258</ele>
        <time>2017-03-02T06:57:32Z</time>
      </trkpt>
      <trkpt lat="44.51266" lon="3.77741">
        <ele>1257</ele>
        <time>2017-03-02T06:59:32Z</time>
      </trkpt>
      <trkpt lat="44.51264" lon="3.77735">
        <ele>1256</ele>
        <time>2017-03-02T07:01:32Z</time>
      </trkpt>
      <trkpt lat="44.51252" lon="3.77712">
        <ele>1251</ele>
        <time>2017-03-02T07:03:32Z</time>
      </trkpt>
      <trkpt lat="44.5123" lon="3.77668">
        <ele>1246</ele>
        <time>2017-03-02T07:05:32Z</time>
      </trkpt>
      <trkpt lat="44.51194" lon="3.77617">
        <ele>1243</ele>
        <time>2017-03-02T07:07:32Z</time>
      </trkpt>
      <trkpt lat="44.51164" lon="3.77581">
        <ele>1237</ele>
        <time>2017-03-02T07:09:32Z</time>
      </trkpt>
      <trkpt lat="44.51149" lon="3.7756">
        <ele>1237</ele>
        <time>2017-03-02T07:11:32Z</time>
      </trkpt>
      <trkpt lat="44.51132" lon="3.77547">
        <ele>1236</ele>
        <time>2017-03-02T07:13:32Z</time>
      </trkpt>
      <trkpt lat="44.51101" lon="3.77532">
        <ele>1232</ele>
        <time>2017-03-02T07:15:32Z</time>
      </trkpt>
      <trkpt lat="44.51058" lon="3.77516">
        <ele>1230</ele>
        <time>2017-03-02T07:17:32Z</time>
      </trkpt>
      <trkpt lat="44.51032" lon="3.77506">
        <ele>1230</ele>
        <time>2017-03-02T07:19:32Z</time>
      </trkpt>
      <trkpt lat="44.51012" lon="3.77492">
        <ele>1229</ele>
        <time>2017-03-02T07:21:32Z</time>
      </trkpt>
      <trkpt lat="44.50996" lon="3.77472">
        <ele>1228</ele>
        <time>2017-03-02T07:23:32Z</time>
      </trkpt>
      <trkpt lat="44.50985" lon="3.77448">
        <ele>1228</ele>
        <time>2017-03-02T07:25:32Z</time>
      </trkpt>
      <trkpt lat="44.50969" lon="3.77411">
        <ele>1226</ele>
        <time>2017-03-02T07:27:32Z</time>
      </trkpt>
      <trkpt lat="44.5096" lon="3.77381">
        <ele>1225</ele>
        <time>2017-03-02T07:29:32Z</time>
      </trkpt>
      <trkpt lat="44.50953" lon="3.77356">
        <ele>1224</ele>
        <time>2017-03-02T07:31:32Z</time>
      </trkpt>
      <trkpt lat="44.50949" lon="3.77321">
        <ele>1221</ele>
        <time>2017-03-02T07:33:32Z</time>
      </trkpt>
      <trkpt lat="44.50946" lon="3.77284">
        <ele>1220</ele>
        <time>2017-03-02T07:35:32Z</time>
      </trkpt>
      <trkpt lat="44.50942" lon="3.77249">
        <ele>1219</ele>
        <time>2017-03-02T07:37:32Z</time>
      </trkpt>
      <trkpt lat="44.50938" lon="3.7722">
        <ele>1217</ele>
        <time>2017-03-02T07:39:32Z</time>
      </trkpt>
      <trkpt lat="44.50932" lon="3.77194">
        <ele>1215</ele>
        <time>2017-03-02T07:41:32Z</time>
      </trkpt>
      <trkpt lat="44.50923" lon="3.77168">
        <ele>1212</ele>
        <time>2017-03-02T07:43:32Z</time>
      </trkpt>
      <trkpt lat="44.50916" lon="3.77139">
        <ele>1208</ele>
        <time>2017-03-02T07:45:32Z</time>
      </trkpt>
      <trkpt lat="44.50909" lon="3.77129">
        <ele>1207</ele>
        <time>2017-03-02T07:47:32Z</time>
      </trkpt>
      <trkpt lat="44.50905" lon="3.77111">
        <ele>1205</ele>
        <time>2017-03-02T07:49:32Z</time>
      </trkpt>
      <trkpt lat="44.50889" lon="3.77079">
        <ele>1202</ele>
        <time>2017-03-02T07:51:32Z</time>
      </trkpt>
      <trkpt lat="44.50874" lon="3.77055">
        <ele>1203</ele>
        <time>2017-03-02T07:53:32Z</time>
      </trkpt>
      <trkpt lat="44.50858" lon="3.77025">
        <ele>1201</ele>
        <time>2017-03-02T07:55:32Z</time>
      </trkpt>
      <trkpt lat="44.50839" lon="3.77">
        <ele>1197</ele>
        <time>2017-03-02T07:57:32Z</time>
      </trkpt>
      <trkpt lat="44.50815" lon="3.76981">
        <ele>1197</ele>
        <time>2017-03-02T07:59:32Z</time>
      </trkpt>
      <trkpt lat="44.50778" lon="3.7696">
        <ele>1195</ele>
        <time>2017-03-02T08:01:32Z</time>
      </trkpt>
      <trkpt lat="44.50715" lon="3.76925">
        <ele>1188</ele>
        <time>2017-03-02T08:03:32Z</time>
      </trkpt>
      <trkpt lat="44.50665" lon="3.76903">
        <ele>1185</ele>
        <time>2017-03-02T08:05:32Z</time>
      </trkpt>
      <trkpt lat="44.50642" lon="3.76893">
        <ele>1183</ele>
        <time>2017-03-02T08:07:32Z</time>
      </trkpt>
      <trkpt lat="44.50621" lon="3.76886">
        <ele>1182</ele>
        <time>2017-03-02T08:09:32Z</time>
      </trkpt>
      <trkpt lat="44.50592" lon="3.76878">
        <ele>1179</ele>
        <time>2017-03-02T08:11:32Z</time>
      </trkpt>
      <trkpt lat="44.50564" lon="3.76871">
        <ele>1178</ele>
        <time>2017-03-02T08:13:32Z</time>
      </trkpt>
      <trkpt lat="44.50541" lon="3.76865">
        <ele>1177</ele>
        <time>2017-03-02T08:15:32Z</time>
      </trkpt>
      <trkpt lat="44.50541" lon="3.76865">
        <ele>1177</ele>
        <time>2017-03-02T08:17:32Z</time>
      </trkpt>
      <trkpt lat="44.5053" lon="3.76862">
        <ele>1176</ele>
        <time>2017-03-02T08:19:32Z</time>
      </trkpt>
      <trkpt lat="44.50507" lon="3.76857">
        <ele>1175</ele>
        <time>2017-03-02T08:21:32Z</time>
      </trkpt>
      <trkpt lat="44.50491" lon="3.76855">
        <ele>1175</ele>
        <time>2017-03-02T08:23:32Z</time>
      </trkpt>
      <trkpt lat="44.50478" lon="3.76854">
        <ele>1174</ele>
        <time>2017-03-02T08:25:32Z</time>
      </trkpt>
      <trkpt lat="44.50468" lon="3.76852">
        <ele>1174</ele>
        <time>2017-03-02T08:27:32Z</time>
      </trkpt>
      <trkpt lat="44.50455" lon="3.76844">
        <ele>1172</ele>
        <time>2017-03-02T08:29:32Z</time>
      </trkpt>
      <trkpt lat="44.50427" lon="3.76822">
        <ele>1170</ele>
        <time>2017-03-02T08:31:32Z</time>
      </trkpt>
      <trkpt lat="44.50396" lon="3.76798">
        <ele>1170</ele>
        <time>2017-03-02T08:33:32Z</time>
      </trkpt>
      <trkpt lat="44.5037" lon="3.76775">
        <ele>1168</ele>
        <time>2017-03-02T08:35:32Z</time>
      </trkpt>
      <trkpt lat="44.5036" lon="3.76768">
        <ele>1167</ele>
        <time>2017-03-02T08:37:32Z</time>
      </trkpt>
      <trkpt lat="44.50351" lon="3.76764">
        <ele>1166</ele>
        <time>2017-03-02T08:39:32Z</time>
      </trkpt>
      <trkpt lat="44.50336" lon="3.76761">
        <ele>1165</ele>
        <time>2017-03-02T08:41:32Z</time>
      </trkpt>
      <trkpt lat="44.50311" lon="3.76754">
        <ele>1163</ele>
        <time>2017-03-02T08:43:32Z</time>
      </trkpt>
      <trkpt lat="44.50295" lon="3.76751">
        <ele>1162</ele>
        <time>2017-03-02T08:45:32Z</time>
      </trkpt>
      <trkpt lat="44.50265" lon="3.76745">
        <ele>1162</ele>
        <time>2017-03-02T08:47:32Z</time>
      </trkpt>
      <trkpt lat="44.50251" lon="3.76744">
        <ele>1161</ele>
        <time>2017-03-02T08:49:32Z</time>
      </trkpt>
      <trkpt lat="44.50235" lon="3.76742">
        <ele>1160</ele>
        <time>2017-03-02T08:51:32Z</time>
      </trkpt>
      <trkpt lat="44.50227" lon="3.7674">
        <ele>1160</ele>
        <time>2017-03-02T08:53:32Z</time>
      </trkpt>
      <trkpt lat="44.50215" lon="3.76734">
        <ele>1159</ele>
        <time>2017-03-02T08:55:32Z</time>
      </trkpt>
      <trkpt lat="44.502" lon="3.76726">
        <ele>1158</ele>
        <time>2017-03-02T08:57:32Z</time>
      </trkpt>
      <trkpt lat="44.5019" lon="3.76717">
        <ele>1157</ele>
        <time>2017-03-02T08:59:32Z</time>
      </trkpt>
      <trkpt lat="44.50188" lon="3.76715">
        <ele>1157</ele>
        <time>2017-03-02T09:01:32Z</time>
      </trkpt>
      <trkpt lat="44.50177" lon="3.76704">
        <ele>1155</ele>
        <time>2017-03-02T09:03:32Z</time>
      </trkpt>
      <trkpt lat="44.50163" lon="3.76692">
        <ele>1153</ele>
        <time>2017-03-02T09:05:32Z</time>
      </trkpt>
      <trkpt lat="44.50155" lon="3.76682">
        <ele>1152</ele>
        <time>2017-03-02T09:07:32Z</time>
      </trkpt>
      <trkpt lat="44.5015" lon="3.76676">
        <ele>1152</ele>
        <time>2017-03-02T09:09:32Z</time>
      </trkpt>
      <trkpt lat="44.50137" lon="3.76661">
        <ele>1153</ele>
        <time>2017-03-02T09:11:32Z</time>
      </trkpt>
      <trkpt lat="44.50131" lon="3.76657">
        <ele>1154</ele>
        <time>2017-03-02T09:13:32Z</time>
      </trkpt>
      <trkpt lat="44.50131" lon="3.76657">
        <ele>1154</ele>
        <time>2017-03-02T09:15:32Z</time>
      </trkpt>
      <trkpt lat="44.5013" lon="3.76612">
        <ele>1162</ele>
        <time>2017-03-02T09:17:32Z</time>
      </trkpt>
      <trkpt lat="44.50122" lon="3.76597">
        <ele>1165</ele>
        <time>2017-03-02T09:19:32Z</time>
      </trkpt>
      <trkpt lat="44.50112" lon="3.7659">
        <ele>1168</ele>
        <time>2017-03-02T09:21:32Z</time>
      </trkpt>
      <trkpt lat="44.50072" lon="3.76559">
        <ele>1178</ele>
        <time>2017-03-02T09:23:32Z</time>
      </trkpt>
      <trkpt lat="44.50033" lon="3.7653">
        <ele>1185</ele>
        <time>2017-03-02T09:25:32Z</time>
      </trkpt>
      <trkpt lat="44.49999" lon="3.76515">
        <ele>1189</ele>
        <time>2017-03-02T09:27:32Z</time>
      </trkpt>
      <trkpt lat="44.49982" lon="3.76506">
        <ele>1191</ele>
        <time>2017-03-02T09:29:32Z</time>
      </trkpt>
      <trkpt lat="44.49972" lon="3.76496">
        <ele>1193</ele>
        <time>2017-03-02T09:31:32Z</time>
      </trkpt>
      <trkpt lat="44.49969" lon="3.7649">
        <ele>1194</ele>
        <time>2017-03-02T09:33:32Z</time>
      </trkpt>
      <trkpt lat="44.49964" lon="3.76472">
        <ele>1196</ele>
        <time>2017-03-02T09:35:32Z</time>
      </trkpt>
      <trkpt lat="44.49962" lon="3.76453">
        <ele>1198</ele>
        <time>2017-03-02T09:37:32Z</time>
      </trkpt>
      <trkpt lat="44.49961" lon="3.7644">
        <ele>1199</ele>
        <time>2017-03-02T09:39:32Z</time>
      </trkpt>
      <trkpt lat="44.49961" lon="3.76431">
        <ele>1200</ele>
        <time>2017-03-02T09:41:32Z</time>
      </trkpt>
      <trkpt lat="44.49963" lon="3.76418">
        <ele>1202</ele>
        <time>2017-03-02T09:43:32Z</time>
      </trkpt>
      <trkpt lat="44.49964" lon="3.76404">
        <ele>1203</ele>
        <time>2017-03-02T09:45:32Z</time>
      </trkpt>
      <trkpt lat="44.4996" lon="3.7638">
        <ele>1204</ele>
        <time>2017-03-02T09:47:32Z</time>
      </trkpt>
      <trkpt lat="44.49955" lon="3.76358">
        <ele>1205</ele>
        <time>2017-03-02T09:49:32Z</time>
      </trkpt>
      <trkpt lat="44.49952" lon="3.76336">
        <ele>1206</ele>
        <time>2017-03-02T09:51:32Z</time>
      </trkpt>
      <trkpt lat="44.4995" lon="3.76312">
        <ele>1206</ele>
        <time>2017-03-02T09:53:32Z</time>
      </trkpt>
      <trkpt lat="44.49949" lon="3.76287">
        <ele>1206</ele>
        <time>2017-03-02T09:55:32Z</time>
      </trkpt>
      <trkpt lat="44.49947" lon="3.76273">
        <ele>1206</ele>
        <time>2017-03-02T09:57:32Z</time>
      </trkpt>
      <trkpt lat="44.49942" lon="3.76256">
        <ele>1206</ele>
        <time>2017-03-02T09:59:32Z</time>
      </trkpt>
      <trkpt lat="44.49937" lon="3.76239">
        <ele>1206</ele>
        <time>2017-03-02T10:01:32Z</time>
      </trkpt>
      <trkpt lat="44.49935" lon="3.76233">
        <ele>1206</ele>
        <time>2017-03-02T10:03:32Z</time>
      </trkpt>
      <trkpt lat="44.49929" lon="3.76199">
        <ele>1206</ele>
        <time>2017-03-02T10:05:32Z</time>
      </trkpt>
      <trkpt lat="44.49921" lon="3.7616">
        <ele>1205</ele>
        <time>2017-03-02T10:07:32Z</time>
      </trkpt>
      <trkpt lat="44.49913" lon="3.76125">
        <ele>1204</ele>
        <time>2017-03-02T10:09:32Z</time>
      </trkpt>
      <trkpt lat="44.49909" lon="3.76104">
        <ele>1203</ele>
        <time>2017-03-02T10:11:32Z</time>
      </trkpt>
      <trkpt lat="44.49904" lon="3.76083">
        <ele>1202</ele>
        <time>2017-03-02T10:13:32Z</time>
      </trkpt>
      <trkpt lat="44.49895" lon="3.76053">
        <ele>1200</ele>
        <time>2017-03-02T10:15:32Z</time>
      </trkpt>
      <trkpt lat="44.49895" lon="3.76051">
        <ele>1200</ele>
        <time>2017-03-02T10:17:32Z</time>
      </trkpt>
      <trkpt lat="44.49894" lon="3.76032">
        <ele>1199</ele>
        <time>2017-03-02T10:19:32Z</time>
      </trkpt>
      <trkpt lat="44.49896" lon="3.76005">
        <ele>1198</ele>
        <time>2017-03-02T10:21:32Z</time>
      </trkpt>
      <trkpt lat="44.49898" lon="3.75989">
        <ele>1198</ele>
        <time>2017-03-02T10:23:32Z</time>
      </trkpt>
      <trkpt lat="44.49898" lon="3.75989">
        <ele>1198</ele>
        <time>2017-03-02T10:25:32Z</time>
      </trkpt>
      <trkpt lat="44.49899" lon="3.75977">
        <ele>1197</ele>
        <time>2017-03-02T10:27:32Z</time>
      </trkpt>
      <trkpt lat="44.49902" lon="3.7596">
        <ele>1197</ele>
        <time>2017-03-02T10:29:32Z</time>
      </trkpt>
      <trkpt lat="44.49909" lon="3.75944">
        <ele>1197</ele>
        <time>2017-03-02T10:31:32Z</time>
      </trkpt>
      <trkpt lat="44.49921" lon="3.7592">
        <ele>1196</ele>
        <time>2017-03-02T10:33:32Z</time>
      </trkpt>
      <trkpt lat="44.49935" lon="3.75899">
        <ele>1195</ele>
        <time>2017-03-02T10:35:32Z</time>
      </trkpt>
      <trkpt lat="44.49947" lon="3.75885">
        <ele>1193</ele>
        <time>2017-03-02T10:37:32Z</time>
      </trkpt>
      <trkpt lat="44.49959" lon="3.75874">
        <ele>1192</ele>
        <time>2017-03-02T10:39:32Z</time>
      </trkpt>
      <trkpt lat="44.4997" lon="3.75867">
        <ele>1191</ele>
        <time>2017-03-02T10:41:32Z</time>
      </trkpt>
      <trkpt lat="44.49976" lon="3.75865">
        <ele>1190</ele>
        <time>2017-03-02T10:43:32Z</time>
      </trkpt>
      <trkpt lat="44.49986" lon="3.75866">
        <ele>1190</ele>
        <time>2017-03-02T10:45:32Z</time>
      </trkpt>
      <trkpt lat="44.50001" lon="3.7587">
        <ele>1190</ele>
        <time>2017-03-02T10:47:32Z</time>
      </trkpt>
      <trkpt lat="44.50014" lon="3.75869">
        <ele>1191</ele>
        <time>2017-03-02T10:49:32Z</time>
      </trkpt>
      <trkpt lat="44.50025" lon="3.75865">
        <ele>1191</ele>
        <time>2017-03-02T10:51:32Z</time>
      </trkpt>
      <trkpt lat="44.50035" lon="3.75859">
        <ele>1191</ele>
        <time>2017-03-02T10:53:32Z</time>
      </trkpt>
      <trkpt lat="44.50044" lon="3.7585">
        <ele>1190</ele>
        <time>2017-03-02T10:55:32Z</time>
      </trkpt>
      <trkpt lat="44.50052" lon="3.75836">
        <ele>1188</ele>
        <time>2017-03-02T10:57:32Z</time>
      </trkpt>
      <trkpt lat="44.5006" lon="3.7582">
        <ele>1187</ele>
        <time>2017-03-02T10:59:32Z</time>
      </trkpt>
      <trkpt lat="44.50064" lon="3.75808">
        <ele>1186</ele>
        <time>2017-03-02T11:01:32Z</time>
      </trkpt>
      <trkpt lat="44.50067" lon="3.75795">
        <ele>1185</ele>
        <time>2017-03-02T11:03:32Z</time>
      </trkpt>
      <trkpt lat="44.50068" lon="3.7579">
        <ele>1185</ele>
        <time>2017-03-02T11:05:32Z</time>
      </trkpt>
      <trkpt lat="44.50071" lon="3.75774">
        <ele>1184</ele>
        <time>2017-03-02T11:07:32Z</time>
      </trkpt>
      <trkpt lat="44.50073" lon="3.75762">
        <ele>1183</ele>
        <time>2017-03-02T11:09:32Z</time>
      </trkpt>
      <trkpt lat="44.50074" lon="3.75753">
        <ele>1182</ele>
        <time>2017-03-02T11:11:32Z</time>
      </trkpt>
      <trkpt lat="44.50075" lon="3.75746">
        <ele>1182</ele>
        <time>2017-03-02T11:13:32Z</time>
      </trkpt>
      <trkpt lat="44.50077" lon="3.75738">
        <ele>1182</ele>
        <time>2017-03-02T11:15:32Z</time>
      </trkpt>
      <trkpt lat="44.50079" lon="3.75729">
        <ele>1181</ele>
        <time>2017-03-02T11:17:32Z</time>
      </trkpt>
      <trkpt lat="44.50081" lon="3.75722">
        <ele>1181</ele>
        <time>2017-03-02T11:19:32Z</time>
      </trkpt>
      <trkpt lat="44.50083" lon="3.75716">
        <ele>1181</ele>
        <time>2017-03-02T11:21:32Z</time>
      </trkpt>
      <trkpt lat="44.50084" lon="3.75709">
        <ele>1181</ele>
        <time>2017-03-02T11:23:32Z</time>
      </trkpt>
      <trkpt lat="44.50084" lon="3.75703">
        <ele>1180</ele>
        <time>2017-03-02T11:25:32Z</time>
      </trkpt>
      <trkpt lat="44.50085" lon="3.75697">
        <ele>1180</ele>
        <time>2017-03-02T11:27:32Z</time>
      </trkpt>
      <trkpt lat="44.50087" lon="3.75691">
        <ele>1180</ele>
        <time>2017-03-02T11:29:32Z</time>
      </trkpt>
      <trkpt lat="44.50089" lon="3.75684">
        <ele>1180</ele>
        <time>2017-03-02T11:31:32Z</time>
      </trkpt>
      <trkpt lat="44.50091" lon="3.75676">
        <ele>1179</ele>
        <time>2017-03-02T11:33:32Z</time>
      </trkpt>
      <trkpt lat="44.50092" lon="3.75671">
        <ele>1179</ele>
        <time>2017-03-02T11:35:32Z</time>
      </trkpt>
      <trkpt lat="44.50092" lon="3.75671">
        <ele>1179</ele>
        <time>2017-03-02T11:37:32Z</time>
      </trkpt>
      <trkpt lat="44.50091" lon="3.75666">
        <ele>1179</ele>
        <time>2017-03-02T11:39:32Z</time>
      </trkpt>
      <trkpt lat="44.50087" lon="3.75659">
        <ele>1178</ele>
        <time>2017-03-02T11:41:32Z</time>
      </trkpt>
      <trkpt lat="44.50081" lon="3.75654">
        <ele>1177</ele>
        <time>2017-03-02T11:43:32Z</time>
      </trkpt>
      <trkpt lat="44.50076" lon="3.75653">
        <ele>1176</ele>
        <time>2017-03-02T11:45:32Z</time>
      </trkpt>
      <trkpt lat="44.50071" lon="3.75655">
        <ele>1176</ele>
        <time>2017-03-02T11:47:32Z</time>
      </trkpt>
      <trkpt lat="44.50071" lon="3.75655">
        <ele>1176</ele>
        <time>2017-03-02T11:49:32Z</time>
      </trkpt>
      <trkpt lat="44.50069" lon="3.75644">
        <ele>1175</ele>
        <time>2017-03-02T11:51:32Z</time>
      </trkpt>
      <trkpt lat="44.50067" lon="3.75623">
        <ele>1174</ele>
        <time>2017-03-02T11:53:32Z</time>
      </trkpt>
      <trkpt lat="44.50064" lon="3.75608">
        <ele>1173</ele>
        <time>2017-03-02T11:55:32Z</time>
      </trkpt>
      <trkpt lat="44.50062" lon="3.75602">
        <ele>1172</ele>
        <time>2017-03-02T11:57:32Z</time>
      </trkpt>
      <trkpt lat="44.5006" lon="3.75599">
        <ele>1172</ele>
        <time>2017-03-02T11:59:32Z</time>
      </trkpt>
      <trkpt lat="44.50052" lon="3.75594">
        <ele>1171</ele>
        <time>2017-03-02T12:01:32Z</time>
      </trkpt>
      <trkpt lat="44.50036" lon="3.75581">
        <ele>1168</ele>
        <time>2017-03-02T12:03:32Z</time>
      </trkpt>
      <trkpt lat="44.50023" lon="3.75572">
        <ele>1167</ele>
        <time>2017-03-02T12:05:32Z</time>
      </trkpt>
      <trkpt lat="44.50017" lon="3.75567">
        <ele>1167</ele>
        <time>2017-03-02T12:07:32Z</time>
      </trkpt>
      <trkpt lat="44.5001" lon="3.75564">
        <ele>1166</ele>
        <time>2017-03-02T12:09:32Z</time>
      </trkpt>
      <trkpt lat="44.50004" lon="3.7556">
        <ele>1165</ele>
        <time>2017-03-02T12:11:32Z</time>
      </trkpt>
      <trkpt lat="44.50001" lon="3.75558">
        <ele>1165</ele>
        <time>2017-03-02T12:13:32Z</time>
      </trkpt>
      <trkpt lat="44.49994" lon="3.75549">
        <ele>1164</ele>
        <time>2017-03-02T12:15:32Z</time>
      </trkpt>
      <trkpt lat="44.4999" lon="3.75543">
        <ele>1164</ele>
        <time>2017-03-02T12:17:32Z</time>
      </trkpt>
      <trkpt lat="44.49987" lon="3.75537">
        <ele>1164</ele>
        <time>2017-03-02T12:19:32Z</time>
      </trkpt>
      <trkpt lat="44.49983" lon="3.75527">
        <ele>1164</ele>
        <time>2017-03-02T12:21:32Z</time>
      </trkpt>
      <trkpt lat="44.49981" lon="3.7552">
        <ele>1164</ele>
        <time>2017-03-02T12:23:32Z</time>
      </trkpt>
      <trkpt lat="44.4998" lon="3.75511">
        <ele>1164</ele>
        <time>2017-03-02T12:25:32Z</time>
      </trkpt>
      <trkpt lat="44.4998" lon="3.75502">
        <ele>1164</ele>
        <time>2017-03-02T12:27:32Z</time>
      </trkpt>
      <trkpt lat="44.49979" lon="3.75488">
        <ele>1164</ele>
        <time>2017-03-02T12:29:32Z</time>
      </trkpt>
      <trkpt lat="44.4998" lon="3.75475">
        <ele>1164</ele>
        <time>2017-03-02T12:31:32Z</time>
      </trkpt>
      <trkpt lat="44.49981" lon="3.75459">
        <ele>1164</ele>
        <time>2017-03-02T12:33:32Z</time>
      </trkpt>
      <trkpt lat="44.4998" lon="3.75446">
        <ele>1163</ele>
        <time>2017-03-02T12:35:32Z</time>
      </trkpt>
      <trkpt lat="44.49981" lon="3.75438">
        <ele>1163</ele>
        <time>2017-03-02T12:37:32Z</time>
      </trkpt>
      <trkpt lat="44.49981" lon="3.75426">
        <ele>1163</ele>
        <time>2017-03-02T12:39:32Z</time>
      </trkpt>
      <trkpt lat="44.49983" lon="3.75414">
        <ele>1163</ele>
        <time>2017-03-02T12:41:32Z</time>
      </trkpt>
      <trkpt lat="44.49985" lon="3.75405">
        <ele>1163</ele>
        <time>2017-03-02T12:43:32Z</time>
      </trkpt>
      <trkpt lat="44.49986" lon="3.75397">
        <ele>1162</ele>
        <time>2017-03-02T12:45:32Z</time>
      </trkpt>
      <trkpt lat="44.49989" lon="3.75386">
        <ele>1162</ele>
        <time>2017-03-02T12:47:32Z</time>
      </trkpt>
      <trkpt lat="44.49995" lon="3.75369">
        <ele>1162</ele>
        <time>2017-03-02T12:49:32Z</time>
      </trkpt>
      <trkpt lat="44.5" lon="3.75346">
        <ele>1162</ele>
        <time>2017-03-02T12:51:32Z</time>
      </trkpt>
      <trkpt lat="44.5" lon="3.75331">
        <ele>1161</ele>
        <time>2017-03-02T12:53:32Z</time>
      </trkpt>
      <trkpt lat="44.49998" lon="3.75324">
        <ele>1161</ele>
        <time>2017-03-02T12:55:32Z</time>
      </trkpt>
      <trkpt lat="44.49998" lon="3.75321">
        <ele>1162</ele>
        <time>2017-03-02T12:57:32Z</time>
      </trkpt>
      <trkpt lat="44.49991" lon="3.7531">
        <ele>1162</ele>
        <time>2017-03-02T12:59:32Z</time>
      </trkpt>
      <trkpt lat="44.49975" lon="3.7529">
        <ele>1162</ele>
        <time>2017-03-02T13:01:32Z</time>
      </trkpt>
      <trkpt lat="44.49952" lon="3.75261">
        <ele>1163</ele>
        <time>2017-03-02T13:03:32Z</time>
      </trkpt>
      <trkpt lat="44.49932" lon="3.75246">
        <ele>1163</ele>
        <time>2017-03-02T13:05:32Z</time>
      </trkpt>
      <trkpt lat="44.49921" lon="3.7524">
        <ele>1163</ele>
        <time>2017-03-02T13:07:32Z</time>
      </trkpt>
      <trkpt lat="44.49906" lon="3.75237">
        <ele>1163</ele>
        <time>2017-03-02T13:09:32Z</time>
      </trkpt>
      <trkpt lat="44.49893" lon="3.75238">
        <ele>1163</ele>
        <time>2017-03-02T13:11:32Z</time>
      </trkpt>
      <trkpt lat="44.49877" lon="3.75242">
        <ele>1163</ele>
        <time>2017-03-02T13:13:32Z</time>
      </trkpt>
      <trkpt lat="44.49864" lon="3.75244">
        <ele>1164</ele>
        <time>2017-03-02T13:15:32Z</time>
      </trkpt>
      <trkpt lat="44.49852" lon="3.75249">
        <ele>1163</ele>
        <time>2017-03-02T13:17:32Z</time>
      </trkpt>
      <trkpt lat="44.49843" lon="3.7525">
        <ele>1164</ele>
        <time>2017-03-02T13:19:32Z</time>
      </trkpt>
      <trkpt lat="44.49836" lon="3.75249">
        <ele>1164</ele>
        <time>2017-03-02T13:21:32Z</time>
      </trkpt>
      <trkpt lat="44.49827" lon="3.75244">
        <ele>1164</ele>
        <time>2017-03-02T13:23:32Z</time>
      </trkpt>
      <trkpt lat="44.49816" lon="3.75233">
        <ele>1164</ele>
        <time>2017-03-02T13:25:32Z</time>
      </trkpt>
      <trkpt lat="44.49802" lon="3.75215">
        <ele>1165</ele>
        <time>2017-03-02T13:27:32Z</time>
      </trkpt>
      <trkpt lat="44.49788" lon="3.75194">
        <ele>1166</ele>
        <time>2017-03-02T13:29:32Z</time>
      </trkpt>
      <trkpt lat="44.49769" lon="3.7516">
        <ele>1166</ele>
        <time>2017-03-02T13:31:32Z</time>
      </trkpt>
      <trkpt lat="44.49767" lon="3.75155">
        <ele>1166</ele>
        <time>2017-03-02T13:33:32Z</time>
      </trkpt>
      <trkpt lat="44.49767" lon="3.75155">
        <ele>1166</ele>
        <time>2017-03-02T13:35:32Z</time>
      </trkpt>
      <trkpt lat="44.4976" lon="3.75151">
        <ele>1166</ele>
        <time>2017-03-02T13:37:32Z</time>
      </trkpt>
      <trkpt lat="44.49756" lon="3.75148">
        <ele>1166</ele>
        <time>2017-03-02T13:39:32Z</time>
      </trkpt>
      <trkpt lat="44.4975" lon="3.75143">
        <ele>1165</ele>
        <time>2017-03-02T13:41:32Z</time>
      </trkpt>
      <trkpt lat="44.49747" lon="3.7514">
        <ele>1165</ele>
        <time>2017-03-02T13:43:32Z</time>
      </trkpt>
      <trkpt lat="44.49744" lon="3.75137">
        <ele>1165</ele>
        <time>2017-03-02T13:45:32Z</time>
      </trkpt>
      <trkpt lat="44.49741" lon="3.75134">
        <ele>1165</ele>
        <time>2017-03-02T13:47:32Z</time>
      </trkpt>
      <trkpt lat="44.49738" lon="3.75129">
        <ele>1164</ele>
        <time>2017-03-02T13:49:32Z</time>
      </trkpt>
      <trkpt lat="44.49735" lon="3.75122">
        <ele>1164</ele>
        <time>2017-03-02T13:51:32Z</time>
      </trkpt>
      <trkpt lat="44.49731" lon="3.75109">
        <ele>1164</ele>
        <time>2017-03-02T13:53:32Z</time>
      </trkpt>
      <trkpt lat="44.49729" lon="3.75101">
        <ele>1164</ele>
        <time>2017-03-02T13:55:32Z</time>
      </trkpt>
      <trkpt lat="44.49729" lon="3.75097">
        <ele>1164</ele>
        <time>2017-03-02T13:57:32Z</time>
      </trkpt>
      <trkpt lat="44.49727" lon="3.75081">
        <ele>1163</ele>
        <time>2017-03-02T13:59:32Z</time>
      </trkpt>
      <trkpt lat="44.49726" lon="3.75062">
        <ele>1163</ele>
        <time>2017-03-02T14:01:32Z</time>
      </trkpt>
      <trkpt lat="44.49722" lon="3.75047">
        <ele>1162</ele>
        <time>2017-03-02T14:03:32Z</time>
      </trkpt>
      <trkpt lat="44.49711" lon="3.75025">
        <ele>1160</ele>
        <time>2017-03-02T14:05:32Z</time>
      </trkpt>
      <trkpt lat="44.49694" lon="3.74998">
        <ele>1157</ele>
        <time>2017-03-02T14:07:32Z</time>
      </trkpt>
      <trkpt lat="44.49674" lon="3.74976">
        <ele>1155</ele>
        <time>2017-03-02T14:09:32Z</time>
      </trkpt>
      <trkpt lat="44.49642" lon="3.74944">
        <ele>1152</ele>
        <time>2017-03-02T14:11:32Z</time>
      </trkpt>
      <trkpt lat="44.49606" lon="3.74912">
        <ele>1150</ele>
        <time>2017-03-02T14:13:32Z</time>
      </trkpt>
      <trkpt lat="44.49581" lon="3.74886">
        <ele>1148</ele>
        <time>2017-03-02T14:15:32Z</time>
      </trkpt>
      <trkpt lat="44.49572" lon="3.74875">
        <ele>1147</ele>
        <time>2017-03-02T14:17:32Z</time>
      </trkpt>
      <trkpt lat="44.49552" lon="3.74849">
        <ele>1146</ele>
        <time>2017-03-02T14:19:32Z</time>
      </trkpt>
      <trkpt lat="44.49524" lon="3.7481">
        <ele>1144</ele>
        <time>2017-03-02T14:21:32Z</time>
      </trkpt>
      <trkpt lat="44.49514" lon="3.74795">
        <ele>1143</ele>
        <time>2017-03-02T14:23:32Z</time>
      </trkpt>
      <trkpt lat="44.49508" lon="3.74781">
        <ele>1142</ele>
        <time>2017-03-02T14:25:32Z</time>
      </trkpt>
      <trkpt lat="44.49502" lon="3.74769">
        <ele>1142</ele>
        <time>2017-03-02T14:27:32Z</time>
      </trkpt>
      <trkpt lat="44.49481" lon="3.74736">
        <ele>1140</ele>
        <time>2017-03-02T14:29:32Z</time>
      </trkpt>
      <trkpt lat="44.49469" lon="3.7472">
        <ele>1139</ele>
        <time>2017-03-02T14:31:32Z</time>
      </trkpt>
      <trkpt lat="44.49464" lon="3.74715">
        <ele>1139</ele>
        <time>2017-03-02T14:33:32Z</time>
      </trkpt>
      <trkpt lat="44.49448" lon="3.74706">
        <ele>1138</ele>
        <time>2017-03-02T14:35:32Z</time>
      </trkpt>
      <trkpt lat="44.49438" lon="3.74699">
        <ele>1138</ele>
        <time>2017-03-02T14:37:32Z</time>
      </trkpt>
      <trkpt lat="44.49428" lon="3.74688">
        <ele>1137</ele>
        <time>2017-03-02T14:39:32Z</time>
      </trkpt>
      <trkpt lat="44.49417" lon="3.74672">
        <ele>1137</ele>
        <time>2017-03-02T14:41:32Z</time>
      </trkpt>
      <trkpt lat="44.49407" lon="3.74647">
        <ele>1135</ele>
        <time>2017-03-02T14:43:32Z</time>
      </trkpt>
      <trkpt lat="44.49391" lon="3.74594">
        <ele>1132</ele>
        <time>2017-03-02T14:45:32Z</time>
      </trkpt>
      <trkpt lat="44.49369" lon="3.74534">
        <ele>1129</ele>
        <time>2017-03-02T14:47:32Z</time>
      </trkpt>
      <trkpt lat="44.49356" lon="3.74491">
        <ele>1126</ele>
        <time>2017-03-02T14:49:32Z</time>
      </trkpt>
      <trkpt lat="44.49353" lon="3.74481">
        <ele>1126</ele>
        <time>2017-03-02T14:51:32Z</time>
      </trkpt>
      <trkpt lat="44.4934" lon="3.74454">
        <ele>1124</ele>
        <time>2017-03-02T14:53:32Z</time>
      </trkpt>
      <trkpt lat="44.49329" lon="3.74441">
        <ele>1123</ele>
        <time>2017-03-02T14:55:32Z</time>
      </trkpt>
      <trkpt lat="44.49323" lon="3.74426">
        <ele>1121</ele>
        <time>2017-03-02T14:57:32Z</time>
      </trkpt>
      <trkpt lat="44.49316" lon="3.74414">
        <ele>1119</ele>
        <time>2017-03-02T14:59:32Z</time>
      </trkpt>
      <trkpt lat="44.49315" lon="3.74407">
        <ele>1119</ele>
        <time>2017-03-02T15:01:32Z</time>
      </trkpt>
      <trkpt lat="44.49313" lon="3.74401">
        <ele>1118</ele>
        <time>2017-03-02T15:03:32Z</time>
      </trkpt>
      <trkpt lat="44.49309" lon="3.74389">
        <ele>1117</ele>
        <time>2017-03-02T15:05:32Z</time>
      </trkpt>
      <trkpt lat="44.49309" lon="3.74387">
        <ele>1117</ele>
        <time>2017-03-02T15:07:32Z</time>
      </trkpt>
      <trkpt lat="44.49304" lon="3.74379">
        <ele>1116</ele>
        <time>2017-03-02T15:09:32Z</time>
      </trkpt>
      <trkpt lat="44.49297" lon="3.74371">
        <ele>1115</ele>
        <time>2017-03-02T15:11:32Z</time>
      </trkpt>
      <trkpt lat="44.49296" lon="3.74366">
        <ele>1114</ele>
        <time>2017-03-02T15:13:32Z</time>
      </trkpt>
      <trkpt lat="44.49293" lon="3.74361">
        <ele>1114</ele>
        <time>2017-03-02T15:15:32Z</time>
      </trkpt>
      <trkpt lat="44.49286" lon="3.74354">
        <ele>1113</ele>
        <time>2017-03-02T15:17:32Z</time>
      </trkpt>
      <trkpt lat="44.49278" lon="3.74351">
        <ele>1112</ele>
        <time>2017-03-02T15:19:32Z</time>
      </trkpt>
      <trkpt lat="44.49266" lon="3.7434">
        <ele>1110</ele>
        <time>2017-03-02T15:21:32Z</time>
      </trkpt>
      <trkpt lat="44.49258" lon="3.74327">
        <ele>1108</ele>
        <time>2017-03-02T15:23:32Z</time>
      </trkpt>
      <trkpt lat="44.49252" lon="3.74317">
        <ele>1107</ele>
        <time>2017-03-02T15:25:32Z</time>
      </trkpt>
      <trkpt lat="44.49245" lon="3.74309">
        <ele>1106</ele>
        <time>2017-03-02T15:27:32Z</time>
      </trkpt>
      <trkpt lat="44.49241" lon="3.74303">
        <ele>1104</ele>
        <time>2017-03-02T15:29:32Z</time>
      </trkpt>
      <trkpt lat="44.49239" lon="3.743">
        <ele>1104</ele>
        <time>2017-03-02T15:31:32Z</time>
      </trkpt>
      <trkpt lat="44.49238" lon="3.74298">
        <ele>1104</ele>
        <time>2017-03-02T15:33:32Z</time>
      </trkpt>
      <trkpt lat="44.49236" lon="3.74294">
        <ele>1103</ele>
        <time>2017-03-02T15:35:32Z</time>
      </trkpt>
      <trkpt lat="44.49232" lon="3.74283">
        <ele>1102</ele>
        <time>2017-03-02T15:37:32Z</time>
      </trkpt>
      <trkpt lat="44.49227" lon="3.74274">
        <ele>1100</ele>
        <time>2017-03-02T15:39:32Z</time>
      </trkpt>
      <trkpt lat="44.49213" lon="3.74258">
        <ele>1097</ele>
        <time>2017-03-02T15:41:32Z</time>
      </trkpt>
      <trkpt lat="44.49202" lon="3.74242">
        <ele>1095</ele>
        <time>2017-03-02T15:43:32Z</time>
      </trkpt>
      <trkpt lat="44.49189" lon="3.74224">
        <ele>1091</ele>
        <time>2017-03-02T15:45:32Z</time>
      </trkpt>
      <trkpt lat="44.49178" lon="3.74204">
        <ele>1088</ele>
        <time>2017-03-02T15:47:32Z</time>
      </trkpt>
      <trkpt lat="44.49173" lon="3.74197">
        <ele>1087</ele>
        <time>2017-03-02T15:49:32Z</time>
      </trkpt>
      <trkpt lat="44.49172" lon="3.74194">
        <ele>1087</ele>
        <time>2017-03-02T15:51:32Z</time>
      </trkpt>
      <trkpt lat="44.4917" lon="3.7419">
        <ele>1086</ele>
        <time>2017-03-02T15:53:32Z</time>
      </trkpt>
      <trkpt lat="44.49168" lon="3.74184">
        <ele>1085</ele>
        <time>2017-03-02T15:55:32Z</time>
      </trkpt>
      <trkpt lat="44.49165" lon="3.74169">
        <ele>1084</ele>
        <time>2017-03-02T15:57:32Z</time>
      </trkpt>
      <trkpt lat="44.49162" lon="3.74161">
        <ele>1083</ele>
        <time>2017-03-02T15:59:32Z</time>
      </trkpt>
      <trkpt lat="44.4916" lon="3.74154">
        <ele>1082</ele>
        <time>2017-03-02T16:01:32Z</time>
      </trkpt>
      <trkpt lat="44.49159" lon="3.74144">
        <ele>1081</ele>
        <time>2017-03-02T16:03:32Z</time>
      </trkpt>
      <trkpt lat="44.49158" lon="3.74137">
        <ele>1080</ele>
        <time>2017-03-02T16:05:32Z</time>
      </trkpt>
      <trkpt lat="44.49157" lon="3.74134">
        <ele>1080</ele>
        <time>2017-03-02T16:07:32Z</time>
      </trkpt>
      <trkpt lat="44.49156" lon="3.74133">
        <ele>1080</ele>
        <time>2017-03-02T16:09:32Z</time>
      </trkpt>
      <trkpt lat="44.49153" lon="3.74132">
        <ele>1079</ele>
        <time>2017-03-02T16:11:32Z</time>
      </trkpt>
      <trkpt lat="44.4915" lon="3.74133">
        <ele>1079</ele>
        <time>2017-03-02T16:13:32Z</time>
      </trkpt>
      <trkpt lat="44.49148" lon="3.74136">
        <ele>1079</ele>
        <time>2017-03-02T16:15:32Z</time>
      </trkpt>
      <trkpt lat="44.49146" lon="3.74142">
        <ele>1079</ele>
        <time>2017-03-02T16:17:32Z</time>
      </trkpt>
      <trkpt lat="44.49143" lon="3.7415">
        <ele>1079</ele>
        <time>2017-03-02T16:19:32Z</time>
      </trkpt>
      <trkpt lat="44.49142" lon="3.74165">
        <ele>1080</ele>
        <time>2017-03-02T16:21:32Z</time>
      </trkpt>
      <trkpt lat="44.49143" lon="3.74184">
        <ele>1082</ele>
        <time>2017-03-02T16:23:32Z</time>
      </trkpt>
      <trkpt lat="44.49145" lon="3.74213">
        <ele>1084</ele>
        <time>2017-03-02T16:25:32Z</time>
      </trkpt>
      <trkpt lat="44.49145" lon="3.74218">
        <ele>1084</ele>
        <time>2017-03-02T16:27:32Z</time>
      </trkpt>
      <trkpt lat="44.49145" lon="3.74222">
        <ele>1084</ele>
        <time>2017-03-02T16:29:32Z</time>
      </trkpt>
      <trkpt lat="44.49145" lon="3.74225">
        <ele>1085</ele>
        <time>2017-03-02T16:31:32Z</time>
      </trkpt>
      <trkpt lat="44.49144" lon="3.74227">
        <ele>1084</ele>
        <time>2017-03-02T16:33:32Z</time>
      </trkpt>
      <trkpt lat="44.49143" lon="3.74228">
        <ele>1084</ele>
        <time>2017-03-02T16:35:32Z</time>
      </trkpt>
      <trkpt lat="44.49142" lon="3.74229">
        <ele>1084</ele>
        <time>2017-03-02T16:37:32Z</time>
      </trkpt>
      <trkpt lat="44.4914" lon="3.74228">
        <ele>1084</ele>
        <time>2017-03-02T16:39:32Z</time>
      </trkpt>
      <trkpt lat="44.49138" lon="3.74223">
        <ele>1083</ele>
        <time>2017-03-02T16:41:32Z</time>
      </trkpt>
      <trkpt lat="44.49133" lon="3.74211">
        <ele>1082</ele>
        <time>2017-03-02T16:43:32Z</time>
      </trkpt>
      <trkpt lat="44.49132" lon="3.74206">
        <ele>1081</ele>
        <time>2017-03-02T16:45:32Z</time>
      </trkpt>
      <trkpt lat="44.49131" lon="3.74194">
        <ele>1080</ele>
        <time>2017-03-02T16:47:32Z</time>
      </trkpt>
      <trkpt lat="44.49129" lon="3.74188">
        <ele>1080</ele>
        <time>2017-03-02T16:49:32Z</time>
      </trkpt>
      <trkpt lat="44.49128" lon="3.74187">
        <ele>1080</ele>
        <time>2017-03-02T16:51:32Z</time>
      </trkpt>
      <trkpt lat="44.49127" lon="3.74186">
        <ele>1079</ele>
        <time>2017-03-02T16:53:32Z</time>
      </trkpt>
      <trkpt lat="44.49123" lon="3.74184">
        <ele>1079</ele>
        <time>2017-03-02T16:55:32Z</time>
      </trkpt>
      <trkpt lat="44.49123" lon="3.74184">
        <ele>1079</ele>
        <time>2017-03-02T16:57:32Z</time>
      </trkpt>
      <trkpt lat="44.49117" lon="3.74137">
        <ele>1076</ele>
        <time>2017-03-02T16:59:32Z</time>
      </trkpt>
      <trkpt lat="44.49114" lon="3.7412">
        <ele>1075</ele>
        <time>2017-03-02T17:01:32Z</time>
      </trkpt>
      <trkpt lat="44.4911" lon="3.74108">
        <ele>1074</ele>
        <time>2017-03-02T17:03:32Z</time>
      </trkpt>
      <trkpt lat="44.49109" lon="3.74104">
        <ele>1074</ele>
        <time>2017-03-02T17:05:32Z</time>
      </trkpt>
      <trkpt lat="44.49107" lon="3.74099">
        <ele>1074</ele>
        <time>2017-03-02T17:07:32Z</time>
      </trkpt>
      <trkpt lat="44.49105" lon="3.74094">
        <ele>1073</ele>
        <time>2017-03-02T17:09:32Z</time>
      </trkpt>
      <trkpt lat="44.491" lon="3.74086">
        <ele>1073</ele>
        <time>2017-03-02T17:11:32Z</time>
      </trkpt>
      <trkpt lat="44.49099" lon="3.74083">
        <ele>1073</ele>
        <time>2017-03-02T17:13:32Z</time>
      </trkpt>
      <trkpt lat="44.49089" lon="3.74071">
        <ele>1072</ele>
        <time>2017-03-02T17:15:32Z</time>
      </trkpt>
      <trkpt lat="44.49084" lon="3.74064">
        <ele>1072</ele>
        <time>2017-03-02T17:17:32Z</time>
      </trkpt>
      <trkpt lat="44.49068" lon="3.74047">
        <ele>1072</ele>
        <time>2017-03-02T17:19:32Z</time>
      </trkpt>
      <trkpt lat="44.49051" lon="3.74028">
        <ele>1071</ele>
        <time>2017-03-02T17:21:32Z</time>
      </trkpt>
      <trkpt lat="44.49037" lon="3.74011">
        <ele>1070</ele>
        <time>2017-03-02T17:23:32Z</time>
      </trkpt>
      <trkpt lat="44.49032" lon="3.74004">
        <ele>1070</ele>
        <time>2017-03-02T17:25:32Z</time>
      </trkpt>
      <trkpt lat="44.49031" lon="3.74002">
        <ele>1070</ele>
        <time>2017-03-02T17:27:32Z</time>
      </trkpt>
      <trkpt lat="44.4903" lon="3.73998">
        <ele>1070</ele>
        <time>2017-03-02T17:29:32Z</time>
      </trkpt>
      <trkpt lat="44.49025" lon="3.7399">
        <ele>1070</ele>
        <time>2017-03-02T17:31:32Z</time>
      </trkpt>
      <trkpt lat="44.4902" lon="3.73968">
        <ele>1070</ele>
        <time>2017-03-02T17:33:32Z</time>
      </trkpt>
      <trkpt lat="44.49017" lon="3.73958">
        <ele>1070</ele>
        <time>2017-03-02T17:35:32Z</time>
      </trkpt>
      <trkpt lat="44.49016" lon="3.73947">
        <ele>1070</ele>
        <time>2017-03-02T17:37:32Z</time>
      </trkpt>
      <trkpt lat="44.49016" lon="3.73947">
        <ele>1070</ele>
        <time>2017-03-02T17:39:32Z</time>
      </trkpt>
      <trkpt lat="44.49007" lon="3.73946">
        <ele>1069</ele>
        <time>2017-03-02T17:41:32Z</time>
      </trkpt>
      <trkpt lat="44.4899" lon="3.73941">
        <ele>1069</ele>
        <time>2017-03-02T17:43:32Z</time>
      </trkpt>
      <trkpt lat="44.48948" lon="3.73932">
        <ele>1069</ele>
        <time>2017-03-02T17:45:32Z</time>
      </trkpt>
      <trkpt lat="44.48938" lon="3.73929">
        <ele>1069</ele>
        <time>2017-03-02T17:47:32Z</time>
      </trkpt>
      <trkpt lat="44.48934" lon="3.73927">
        <ele>1068</ele>
        <time>2017-03-02T17:49:32Z</time>
      </trkpt>
      <trkpt lat="44.48929" lon="3.73925">
        <ele>1068</ele>
        <time>2017-03-02T17:51:32Z</time>
      </trkpt>
      <trkpt lat="44.48928" lon="3.73923">
        <ele>1068</ele>
        <time>2017-03-02T17:53:32Z</time>
      </trkpt>
      <trkpt lat="44.48925" lon="3.73921">
        <ele>1068</ele>
        <time>2017-03-02T17:55:32Z</time>
      </trkpt>
      <trkpt lat="44.48922" lon="3.73917">
        <ele>1068</ele>
        <time>2017-03-02T17:57:32Z</time>
      </trkpt>
      <trkpt lat="44.48919" lon="3.73911">
        <ele>1068</ele>
        <time>2017-03-02T17:59:32Z</time>
      </trkpt>
      <trkpt lat="44.48915" lon="3.73898">
        <ele>1068</ele>
        <time>2017-03-02T18:01:32Z</time>
      </trkpt>
      <trkpt lat="44.48908" lon="3.73862">
        <ele>1070</ele>
        <time>2017-03-02T18:03:32Z</time>
      </trkpt>
      <trkpt lat="44.48904" lon="3.73846">
        <ele>1071</ele>
        <time>2017-03-02T18:05:32Z</time>
      </trkpt>
      <trkpt lat="44.48902" lon="3.7384">
        <ele>1071</ele>
        <time>2017-03-02T18:07:32Z</time>
      </trkpt>
      <trkpt lat="44.48897" lon="3.73817">
        <ele>1072</ele>
        <time>2017-03-02T18:09:32Z</time>
      </trkpt>
      <trkpt lat="44.48894" lon="3.73796">
        <ele>1072</ele>
        <time>2017-03-02T18:11:32Z</time>
      </trkpt>
      <trkpt lat="44.48889" lon="3.73773">
        <ele>1072</ele>
        <time>2017-03-02T18:13:32Z</time>
      </trkpt>
      <trkpt lat="44.48889" lon="3.73771">
        <ele>1072</ele>
        <time>2017-03-02T18:15:32Z</time>
      </trkpt>
      <trkpt lat="44.48883" lon="3.73752">
        <ele>1073</ele>
        <time>2017-03-02T18:17:32Z</time>
      </trkpt>
      <trkpt lat="44.48874" lon="3.73727">
        <ele>1073</ele>
        <time>2017-03-02T18:19:32Z</time>
      </trkpt>
      <trkpt lat="44.48865" lon="3.73703">
        <ele>1072</ele>
        <time>2017-03-02T18:21:32Z</time>
      </trkpt>
      <trkpt lat="44.48851" lon="3.73679">
        <ele>1072</ele>
        <time>2017-03-02T18:23:32Z</time>
      </trkpt>
      <trkpt lat="44.48834" lon="3.73644">
        <ele>1071</ele>
        <time>2017-03-02T18:25:32Z</time>
      </trkpt>
      <trkpt lat="44.48833" lon="3.73643">
        <ele>1071</ele>
        <time>2017-03-02T18:27:32Z</time>
      </trkpt>
      <trkpt lat="44.48804" lon="3.73593">
        <ele>1071</ele>
        <time>2017-03-02T18:29:32Z</time>
      </trkpt>
      <trkpt lat="44.48786" lon="3.73563">
        <ele>1071</ele>
        <time>2017-03-02T18:31:32Z</time>
      </trkpt>
      <trkpt lat="44.48774" lon="3.73546">
        <ele>1071</ele>
        <time>2017-03-02T18:33:32Z</time>
      </trkpt>
      <trkpt lat="44.48765" lon="3.73537">
        <ele>1071</ele>
        <time>2017-03-02T18:35:32Z</time>
      </trkpt>
      <trkpt lat="44.48742" lon="3.7352">
        <ele>1071</ele>
        <time>2017-03-02T18:37:32Z</time>
      </trkpt>
      <trkpt lat="44.48708" lon="3.73495">
        <ele>1070</ele>
        <time>2017-03-02T18:39:32Z</time>
      </trkpt>
      <trkpt lat="44.4867" lon="3.73469">
        <ele>1070</ele>
        <time>2017-03-02T18:41:32Z</time>
      </trkpt>
      <trkpt lat="44.48655" lon="3.73458">
        <ele>1070</ele>
        <time>2017-03-02T18:43:32Z</time>
      </trkpt>
      <trkpt lat="44.48642" lon="3.7345">
        <ele>1071</ele>
        <time>2017-03-02T18:45:32Z</time>
      </trkpt>
      <trkpt lat="44.48631" lon="3.73447">
        <ele>1071</ele>
        <time>2017-03-02T18:47:32Z</time>
      </trkpt>
      <trkpt lat="44.48615" lon="3.73443">
        <ele>1071</ele>
        <time>2017-03-02T18:49:32Z</time>
      </trkpt>
      <trkpt lat="44.48615" lon="3.73443">
        <ele>1071</ele>
        <time>2017-03-02T18:51:32Z</time>
      </trkpt>
      <trkpt lat="44.48613" lon="3.73433">
        <ele>1071</ele>
        <time>2017-03-02T18:53:32Z</time>
      </trkpt>
      <trkpt lat="44.48612" lon="3.73424">
        <ele>1070</ele>
        <time>2017-03-02T18:55:32Z</time>
      </trkpt>
      <trkpt lat="44.48612" lon="3.73423">
        <ele>1070</ele>
        <time>2017-03-02T18:57:32Z</time>
      </trkpt>
      <trkpt lat="44.4861" lon="3.73406">
        <ele>1071</ele>
        <time>2017-03-02T18:59:32Z</time>
      </trkpt>
      <trkpt lat="44.48608" lon="3.73398">
        <ele>1071</ele>
        <time>2017-03-02T19:01:32Z</time>
      </trkpt>
      <trkpt lat="44.48604" lon="3.7339">
        <ele>1072</ele>
        <time>2017-03-02T19:03:32Z</time>
      </trkpt>
      <trkpt lat="44.48595" lon="3.73377">
        <ele>1073</ele>
        <time>2017-03-02T19:05:32Z</time>
      </trkpt>
      <trkpt lat="44.48579" lon="3.73358">
        <ele>1074</ele>
        <time>2017-03-02T19:07:32Z</time>
      </trkpt>
      <trkpt lat="44.48566" lon="3.73337">
        <ele>1075</ele>
        <time>2017-03-02T19:09:32Z</time>
      </trkpt>
      <trkpt lat="44.48555" lon="3.73326">
        <ele>1076</ele>
        <time>2017-03-02T19:11:32Z</time>
      </trkpt>
      <trkpt lat="44.4854" lon="3.73309">
        <ele>1077</ele>
        <time>2017-03-02T19:13:32Z</time>
      </trkpt>
      <trkpt lat="44.48527" lon="3.73295">
        <ele>1078</ele>
        <time>2017-03-02T19:15:32Z</time>
      </trkpt>
      <trkpt lat="44.48514" lon="3.73282">
        <ele>1079</ele>
        <time>2017-03-02T19:17:32Z</time>
      </trkpt>
      <trkpt lat="44.48504" lon="3.7327">
        <ele>1080</ele>
        <time>2017-03-02T19:19:32Z</time>
      </trkpt>
      <trkpt lat="44.48504" lon="3.7327">
        <ele>1080</ele>
        <time>2017-03-02T19:21:32Z</time>
      </trkpt>
      <trkpt lat="44.48513" lon="3.73255">
        <ele>1082</ele>
        <time>2017-03-02T19:23:32Z</time>
      </trkpt>
      <trkpt lat="44.48516" lon="3.73244">
        <ele>1083</ele>
        <time>2017-03-02T19:25:32Z</time>
      </trkpt>
      <trkpt lat="44.48517" lon="3.73239">
        <ele>1084</ele>
        <time>2017-03-02T19:27:32Z</time>
      </trkpt>
      <trkpt lat="44.48517" lon="3.73239">
        <ele>1084</ele>
        <time>2017-03-02T19:29:32Z</time>
      </trkpt>
      <trkpt lat="44.48516" lon="3.73233">
        <ele>1085</ele>
        <time>2017-03-02T19:31:32Z</time>
      </trkpt>
      <trkpt lat="44.48511" lon="3.73215">
        <ele>1087</ele>
        <time>2017-03-02T19:33:32Z</time>
      </trkpt>
      <trkpt lat="44.48509" lon="3.73206">
        <ele>1089</ele>
        <time>2017-03-02T19:35:32Z</time>
      </trkpt>
      <trkpt lat="44.48509" lon="3.73198">
        <ele>1090</ele>
        <time>2017-03-02T19:37:32Z</time>
      </trkpt>
      <trkpt lat="44.48511" lon="3.73192">
        <ele>1091</ele>
        <time>2017-03-02T19:39:32Z</time>
      </trkpt>
      <trkpt lat="44.48517" lon="3.73176">
        <ele>1094</ele>
        <time>2017-03-02T19:41:32Z</time>
      </trkpt>
      <trkpt lat="44.4852" lon="3.73169">
        <ele>1095</ele>
        <time>2017-03-02T19:43:32Z</time>
      </trkpt>
      <trkpt lat="44.4852" lon="3.73168">
        <ele>1095</ele>
        <time>2017-03-02T19:45:32Z</time>
      </trkpt>
      <trkpt lat="44.4852" lon="3.73164">
        <ele>1096</ele>
        <time>2017-03-02T19:47:32Z</time>
      </trkpt>
      <trkpt lat="44.48526" lon="3.73158">
        <ele>1097</ele>
        <time>2017-03-02T19:49:32Z</time>
      </trkpt>
      <trkpt lat="44.48529" lon="3.73154">
        <ele>1098</ele>
        <time>2017-03-02T19:51:32Z</time>
      </trkpt>
      <trkpt lat="44.4853" lon="3.73148">
        <ele>1099</ele>
        <time>2017-03-02T19:53:32Z</time>
      </trkpt>
      <trkpt lat="44.48531" lon="3.73141">
        <ele>1101</ele>
        <time>2017-03-02T19:55:32Z</time>
      </trkpt>
      <trkpt lat="44.48535" lon="3.7313">
        <ele>1103</ele>
        <time>2017-03-02T19:57:32Z</time>
      </trkpt>
      <trkpt lat="44.48539" lon="3.73119">
        <ele>1105</ele>
        <time>2017-03-02T19:59:32Z</time>
      </trkpt>
      <trkpt lat="44.48543" lon="3.73114">
        <ele>1106</ele>
        <time>2017-03-02T20:01:32Z</time>
      </trkpt>
      <trkpt lat="44.48546" lon="3.73107">
        <ele>1107</ele>
        <time>2017-03-02T20:03:32Z</time>
      </trkpt>
      <trkpt lat="44.48549" lon="3.73099">
        <ele>1109</ele>
        <time>2017-03-02T20:05:32Z</time>
      </trkpt>
      <trkpt lat="44.4855" lon="3.7309">
        <ele>1110</ele>
        <time>2017-03-02T20:07:32Z</time>
      </trkpt>
      <trkpt lat="44.4855" lon="3.7309">
        <ele>1110</ele>
        <time>2017-03-02T20:09:32Z</time>
      </trkpt>
      <trkpt lat="44.48546" lon="3.73093">
        <ele>1110</ele>
        <time>2017-03-02T20:11:32Z</time>
      </trkpt>
      <trkpt lat="44.4854" lon="3.73098">
        <ele>1109</ele>
        <time>2017-03-02T20:13:32Z</time>
      </trkpt>
      <trkpt lat="44.48535" lon="3.73102">
        <ele>1108</ele>
        <time>2017-03-02T20:15:32Z</time>
      </trkpt>
      <trkpt lat="44.48534" lon="3.73103">
        <ele>1108</ele>
        <time>2017-03-02T20:17:32Z</time>
      </trkpt>
      <trkpt lat="44.48532" lon="3.73103">
        <ele>1108</ele>
        <time>2017-03-02T20:19:32Z</time>
      </trkpt>
      <trkpt lat="44.48529" lon="3.73103">
        <ele>1108</ele>
        <time>2017-03-02T20:21:32Z</time>
      </trkpt>
      <trkpt lat="44.48528" lon="3.73102">
        <ele>1108</ele>
        <time>2017-03-02T20:23:32Z</time>
      </trkpt>
      <trkpt lat="44.48526" lon="3.73099">
        <ele>1109</ele>
        <time>2017-03-02T20:25:32Z</time>
      </trkpt>
      <trkpt lat="44.48525" lon="3.73095">
        <ele>1110</ele>
        <time>2017-03-02T20:27:32Z</time>
      </trkpt>
      <trkpt lat="44.48522" lon="3.73089">
        <ele>1111</ele>
        <time>2017-03-02T20:29:32Z</time>
      </trkpt>
      <trkpt lat="44.4852" lon="3.73086">
        <ele>1112</ele>
        <time>2017-03-02T20:31:32Z</time>
      </trkpt>
      <trkpt lat="44.48517" lon="3.73083">
        <ele>1112</ele>
        <time>2017-03-02T20:33:32Z</time>
      </trkpt>
      <trkpt lat="44.48511" lon="3.7308">
        <ele>1113</ele>
        <time>2017-03-02T20:35:32Z</time>
      </trkpt>
      <trkpt lat="44.48501" lon="3.73075">
        <ele>1115</ele>
        <time>2017-03-02T20:37:32Z</time>
      </trkpt>
      <trkpt lat="44.48487" lon="3.73072">
        <ele>1117</ele>
        <time>2017-03-02T20:39:32Z</time>
      </trkpt>
      <trkpt lat="44.48478" lon="3.7307">
        <ele>1117</ele>
        <time>2017-03-02T20:41:32Z</time>
      </trkpt>
      <trkpt lat="44.48474" lon="3.73067">
        <ele>1118</ele>
        <time>2017-03-02T20:43:32Z</time>
      </trkpt>
      <trkpt lat="44.48471" lon="3.73064">
        <ele>1119</ele>
        <time>2017-03-02T20:45:32Z</time>
      </trkpt>
      <trkpt lat="44.48467" lon="3.73059">
        <ele>1121</ele>
        <time>2017-03-02T20:47:32Z</time>
      </trkpt>
      <trkpt lat="44.48466" lon="3.73055">
        <ele>1122</ele>
        <time>2017-03-02T20:49:32Z</time>
      </trkpt>
      <trkpt lat="44.48466" lon="3.7305">
        <ele>1123</ele>
        <time>2017-03-02T20:51:32Z</time>
      </trkpt>
      <trkpt lat="44.48469" lon="3.73039">
        <ele>1126</ele>
        <time>2017-03-02T20:53:32Z</time>
      </trkpt>
      <trkpt lat="44.48469" lon="3.73038">
        <ele>1126</ele>
        <time>2017-03-02T20:55:32Z</time>
      </trkpt>
      <trkpt lat="44.48468" lon="3.73034">
        <ele>1127</ele>
        <time>2017-03-02T20:57:32Z</time>
      </trkpt>
      <trkpt lat="44.48471" lon="3.73023">
        <ele>1130</ele>
        <time>2017-03-02T20:59:32Z</time>
      </trkpt>
      <trkpt lat="44.48473" lon="3.73018">
        <ele>1131</ele>
        <time>2017-03-02T21:01:32Z</time>
      </trkpt>
      <trkpt lat="44.48477" lon="3.7301">
        <ele>1134</ele>
        <time>2017-03-02T21:03:32Z</time>
      </trkpt>
      <trkpt lat="44.48481" lon="3.73">
        <ele>1136</ele>
        <time>2017-03-02T21:05:32Z</time>
      </trkpt>
      <trkpt lat="44.48483" lon="3.72979">
        <ele>1140</ele>
        <time>2017-03-02T21:07:32Z</time>
      </trkpt>
      <trkpt lat="44.48487" lon="3.72956">
        <ele>1144</ele>
        <time>2017-03-02T21:09:32Z</time>
      </trkpt>
      <trkpt lat="44.48486" lon="3.72935">
        <ele>1147</ele>
        <time>2017-03-02T21:11:32Z</time>
      </trkpt>
      <trkpt lat="44.48487" lon="3.72913">
        <ele>1151</ele>
        <time>2017-03-02T21:13:32Z</time>
      </trkpt>
      <trkpt lat="44.48487" lon="3.72891">
        <ele>1154</ele>
        <time>2017-03-02T21:15:32Z</time>
      </trkpt>
      <trkpt lat="44.48485" lon="3.72881">
        <ele>1155</ele>
        <time>2017-03-02T21:17:32Z</time>
      </trkpt>
      <trkpt lat="44.48479" lon="3.72872">
        <ele>1156</ele>
        <time>2017-03-02T21:19:32Z</time>
      </trkpt>
      <trkpt lat="44.48469" lon="3.7286">
        <ele>1156</ele>
        <time>2017-03-02T21:21:32Z</time>
      </trkpt>
      <trkpt lat="44.48467" lon="3.72856">
        <ele>1156</ele>
        <time>2017-03-02T21:23:32Z</time>
      </trkpt>
      <trkpt lat="44.48467" lon="3.72848">
        <ele>1157</ele>
        <time>2017-03-02T21:25:32Z</time>
      </trkpt>
      <trkpt lat="44.48469" lon="3.72831">
        <ele>1159</ele>
        <time>2017-03-02T21:27:32Z</time>
      </trkpt>
      <trkpt lat="44.48465" lon="3.72788">
        <ele>1161</ele>
        <time>2017-03-02T21:29:32Z</time>
      </trkpt>
      <trkpt lat="44.48461" lon="3.72764">
        <ele>1162</ele>
        <time>2017-03-02T21:31:32Z</time>
      </trkpt>
      <trkpt lat="44.4846" lon="3.72741">
        <ele>1163</ele>
        <time>2017-03-02T21:33:32Z</time>
      </trkpt>
      <trkpt lat="44.48462" lon="3.7271">
        <ele>1165</ele>
        <time>2017-03-02T21:35:32Z</time>
      </trkpt>
      <trkpt lat="44.48463" lon="3.72689">
        <ele>1166</ele>
        <time>2017-03-02T21:37:32Z</time>
      </trkpt>
      <trkpt lat="44.4846" lon="3.72653">
        <ele>1167</ele>
        <time>2017-03-02T21:39:32Z</time>
      </trkpt>
      <trkpt lat="44.48461" lon="3.72625">
        <ele>1170</ele>
        <time>2017-03-02T21:41:32Z</time>
      </trkpt>
      <trkpt lat="44.48459" lon="3.72606">
        <ele>1171</ele>
        <time>2017-03-02T21:43:32Z</time>
      </trkpt>
      <trkpt lat="44.4845" lon="3.72561">
        <ele>1173</ele>
        <time>2017-03-02T21:45:32Z</time>
      </trkpt>
      <trkpt lat="44.4844" lon="3.72521">
        <ele>1175</ele>
        <time>2017-03-02T21:47:32Z</time>
      </trkpt>
      <trkpt lat="44.48431" lon="3.72461">
        <ele>1182</ele>
        <time>2017-03-02T21:49:32Z</time>
      </trkpt>
      <trkpt lat="44.48415" lon="3.72429">
        <ele>1183</ele>
        <time>2017-03-02T21:51:32Z</time>
      </trkpt>
      <trkpt lat="44.48413" lon="3.72426">
        <ele>1184</ele>
        <time>2017-03-02T21:53:32Z</time>
      </trkpt>
      <trkpt lat="44.48382" lon="3.72402">
        <ele>1191</ele>
        <time>2017-03-02T21:55:32Z</time>
      </trkpt>
      <trkpt lat="44.48379" lon="3.72401">
        <ele>1191</ele>
        <time>2017-03-02T21:57:32Z</time>
      </trkpt>
      <trkpt lat="44.48339" lon="3.72392">
        <ele>1196</ele>
        <time>2017-03-02T21:59:32Z</time>
      </trkpt>
      <trkpt lat="44.48317" lon="3.72397">
        <ele>1197</ele>
        <time>2017-03-02T22:01:32Z</time>
      </trkpt>
      <trkpt lat="44.48302" lon="3.72396">
        <ele>1199</ele>
        <time>2017-03-02T22:03:32Z</time>
      </trkpt>
      <trkpt lat="44.48289" lon="3.7239">
        <ele>1201</ele>
        <time>2017-03-02T22:05:32Z</time>
      </trkpt>
      <trkpt lat="44.48287" lon="3.72388">
        <ele>1201</ele>
        <time>2017-03-02T22:07:32Z</time>
      </trkpt>
      <trkpt lat="44.4828" lon="3.72379">
        <ele>1203</ele>
        <time>2017-03-02T22:09:32Z</time>
      </trkpt>
      <trkpt lat="44.48272" lon="3.72364">
        <ele>1205</ele>
        <time>2017-03-02T22:11:32Z</time>
      </trkpt>
      <trkpt lat="44.48261" lon="3.72341">
        <ele>1207</ele>
        <time>2017-03-02T22:13:32Z</time>
      </trkpt>
      <trkpt lat="44.48242" lon="3.72293">
        <ele>1206</ele>
        <time>2017-03-02T22:15:32Z</time>
      </trkpt>
      <trkpt lat="44.48233" lon="3.72273">
        <ele>1204</ele>
        <time>2017-03-02T22:17:32Z</time>
      </trkpt>
      <trkpt lat="44.48223" lon="3.72251">
        <ele>1202</ele>
        <time>2017-03-02T22:19:32Z</time>
      </trkpt>
      <trkpt lat="44.48219" lon="3.72241">
        <ele>1201</ele>
        <time>2017-03-02T22:21:32Z</time>
      </trkpt>
      <trkpt lat="44.48213" lon="3.72221">
        <ele>1198</ele>
        <time>2017-03-02T22:23:32Z</time>
      </trkpt>
      <trkpt lat="44.48211" lon="3.72215">
        <ele>1197</ele>
        <time>2017-03-02T22:25:32Z</time>
      </trkpt>
      <trkpt lat="44.48202" lon="3.72183">
        <ele>1192</ele>
        <time>2017-03-02T22:27:32Z</time>
      </trkpt>
      <trkpt lat="44.4819" lon="3.72141">
        <ele>1186</ele>
        <time>2017-03-02T22:29:32Z</time>
      </trkpt>
      <trkpt lat="44.48186" lon="3.72125">
        <ele>1183</ele>
        <time>2017-03-02T22:31:32Z</time>
      </trkpt>
      <trkpt lat="44.48181" lon="3.72104">
        <ele>1181</ele>
        <time>2017-03-02T22:33:32Z</time>
      </trkpt>
      <trkpt lat="44.48177" lon="3.72081">
        <ele>1178</ele>
        <time>2017-03-02T22:35:32Z</time>
      </trkpt>
      <trkpt lat="44.48176" lon="3.72061">
        <ele>1177</ele>
        <time>2017-03-02T22:37:32Z</time>
      </trkpt>
      <trkpt lat="44.48174" lon="3.72044">
        <ele>1177</ele>
        <time>2017-03-02T22:39:32Z</time>
      </trkpt>
      <trkpt lat="44.48174" lon="3.72043">
        <ele>1177</ele>
        <time>2017-03-02T22:41:32Z</time>
      </trkpt>
      <trkpt lat="44.48171" lon="3.72037">
        <ele>1176</ele>
        <time>2017-03-02T22:43:32Z</time>
      </trkpt>
      <trkpt lat="44.48171" lon="3.72036">
        <ele>1176</ele>
        <time>2017-03-02T22:45:32Z</time>
      </trkpt>
      <trkpt lat="44.48162" lon="3.72023">
        <ele>1175</ele>
        <time>2017-03-02T22:47:32Z</time>
      </trkpt>
      <trkpt lat="44.48148" lon="3.72005">
        <ele>1174</ele>
        <time>2017-03-02T22:49:32Z</time>
      </trkpt>
      <trkpt lat="44.48143" lon="3.71997">
        <ele>1173</ele>
        <time>2017-03-02T22:51:32Z</time>
      </trkpt>
      <trkpt lat="44.48138" lon="3.71987">
        <ele>1173</ele>
        <time>2017-03-02T22:53:32Z</time>
      </trkpt>
      <trkpt lat="44.48126" lon="3.71955">
        <ele>1171</ele>
        <time>2017-03-02T22:55:32Z</time>
      </trkpt>
      <trkpt lat="44.48122" lon="3.71949">
        <ele>1170</ele>
        <time>2017-03-02T22:57:32Z</time>
      </trkpt>
      <trkpt lat="44.48112" lon="3.71933">
        <ele>1169</ele>
        <time>2017-03-02T22:59:32Z</time>
      </trkpt>
      <trkpt lat="44.48109" lon="3.71927">
        <ele>1169</ele>
        <time>2017-03-02T23:01:32Z</time>
      </trkpt>
      <trkpt lat="44.48109" lon="3.71927">
        <ele>1169</ele>
        <time>2017-03-02T23:03:32Z</time>
      </trkpt>
      <trkpt lat="44.48137" lon="3.71918">
        <ele>1171</ele>
        <time>2017-03-02T23:05:32Z</time>
      </trkpt>
      <trkpt lat="44.48146" lon="3.71912">
        <ele>1171</ele>
        <time>2017-03-02T23:07:32Z</time>
      </trkpt>
      <trkpt lat="44.48148" lon="3.71911">
        <ele>1171</ele>
        <time>2017-03-02T23:09:32Z</time>
      </trkpt>
      <trkpt lat="44.48155" lon="3.71901">
        <ele>1170</ele>
        <time>2017-03-02T23:11:32Z</time>
      </trkpt>
      <trkpt lat="44.4816" lon="3.7189">
        <ele>1168</ele>
        <time>2017-03-02T23:13:32Z</time>
      </trkpt>
      <trkpt lat="44.48164" lon="3.7188">
        <ele>1167</ele>
        <time>2017-03-02T23:15:32Z</time>
      </trkpt>
      <trkpt lat="44.48171" lon="3.71856">
        <ele>1165</ele>
        <time>2017-03-02T23:17:32Z</time>
      </trkpt>
      <trkpt lat="44.48178" lon="3.71834">
        <ele>1163</ele>
        <time>2017-03-02T23:19:32Z</time>
      </trkpt>
      <trkpt lat="44.48181" lon="3.71736">
        <ele>1157</ele>
        <time>2017-03-02T23:21:32Z</time>
      </trkpt>
      <trkpt lat="44.48181" lon="3.71731">
        <ele>1157</ele>
        <time>2017-03-02T23:23:32Z</time>
      </trkpt>
      <trkpt lat="44.48174" lon="3.71686">
        <ele>1156</ele>
        <time>2017-03-02T23:25:32Z</time>
      </trkpt>
      <trkpt lat="44.48173" lon="3.71684">
        <ele>1155</ele>
        <time>2017-03-02T23:27:32Z</time>
      </trkpt>
      <trkpt lat="44.48172" lon="3.71682">
        <ele>1155</ele>
        <time>2017-03-02T23:29:32Z</time>
      </trkpt>
      <trkpt lat="44.48137" lon="3.71636">
        <ele>1151</ele>
        <time>2017-03-02T23:31:32Z</time>
      </trkpt>
      <trkpt lat="44.48109" lon="3.71609">
        <ele>1148</ele>
        <time>2017-03-02T23:33:32Z</time>
      </trkpt>
      <trkpt lat="44.48109" lon="3.71609">
        <ele>1148</ele>
        <time>2017-03-02T23:35:32Z</time>
      </trkpt>
      <trkpt lat="44.48073" lon="3.71541">
        <ele>1146</ele>
        <time>2017-03-02T23:37:32Z</time>
      </trkpt>
      <trkpt lat="44.4807" lon="3.71534">
        <ele>1145</ele>
        <time>2017-03-02T23:39:32Z</time>
      </trkpt>
      <trkpt lat="44.4803" lon="3.71414">
        <ele>1138</ele>
        <time>2017-03-02T23:41:32Z</time>
      </trkpt>
      <trkpt lat="44.47997" lon="3.71275">
        <ele>1128</ele>
        <time>2017-03-02T23:43:32Z</time>
      </trkpt>
      <trkpt lat="44.47995" lon="3.71267">
        <ele>1128</ele>
        <time>2017-03-02T23:45:32Z</time>
      </trkpt>
      <trkpt lat="44.47994" lon="3.71263">
        <ele>1127</ele>
        <time>2017-03-02T23:47:32Z</time>
      </trkpt>
      <trkpt lat="44.47991" lon="3.71256">
        <ele>1127</ele>
        <time>2017-03-02T23:49:32Z</time>
      </trkpt>
      <trkpt lat="44.47991" lon="3.71256">
        <ele>1127</ele>
        <time>2017-03-02T23:51:32Z</time>
      </trkpt>
      <trkpt lat="44.47989" lon="3.71243">
        <ele>1125</ele>
        <time>2017-03-02T23:53:32Z</time>
      </trkpt>
      <trkpt lat="44.47988" lon="3.71226">
        <ele>1123</ele>
        <time>2017-03-02T23:55:32Z</time>
      </trkpt>
      <trkpt lat="44.47987" lon="3.71213">
        <ele>1122</ele>
        <time>2017-03-02T23:57:32Z</time>
      </trkpt>
      <trkpt lat="44.47989" lon="3.71193">
        <ele>1120</ele>
        <time>2017-03-02T23:59:32Z</time>
      </trkpt>
      <trkpt lat="44.47993" lon="3.71173">
        <ele>1119</ele>
        <time>2017-03-03T00:01:32Z</time>
      </trkpt>
      <trkpt lat="44.47996" lon="3.71164">
        <ele>1119</ele>
        <time>2017-03-03T00:03:32Z</time>
      </trkpt>
      <trkpt lat="44.47997" lon="3.71156">
        <ele>1118</ele>
        <time>2017-03-03T00:05:32Z</time>
      </trkpt>
      <trkpt lat="44.47998" lon="3.71152">
        <ele>1117</ele>
        <time>2017-03-03T00:07:32Z</time>
      </trkpt>
      <trkpt lat="44.47997" lon="3.71148">
        <ele>1116</ele>
        <time>2017-03-03T00:09:32Z</time>
      </trkpt>
      <trkpt lat="44.47997" lon="3.71145">
        <ele>1116</ele>
        <time>2017-03-03T00:11:32Z</time>
      </trkpt>
      <trkpt lat="44.47996" lon="3.71142">
        <ele>1115</ele>
        <time>2017-03-03T00:13:32Z</time>
      </trkpt>
      <trkpt lat="44.47994" lon="3.71138">
        <ele>1114</ele>
        <time>2017-03-03T00:15:32Z</time>
      </trkpt>
      <trkpt lat="44.47991" lon="3.71135">
        <ele>1113</ele>
        <time>2017-03-03T00:17:32Z</time>
      </trkpt>
      <trkpt lat="44.47989" lon="3.71134">
        <ele>1112</ele>
        <time>2017-03-03T00:19:32Z</time>
      </trkpt>
      <trkpt lat="44.47981" lon="3.71131">
        <ele>1110</ele>
        <time>2017-03-03T00:21:32Z</time>
      </trkpt>
      <trkpt lat="44.47959" lon="3.71124">
        <ele>1105</ele>
        <time>2017-03-03T00:23:32Z</time>
      </trkpt>
      <trkpt lat="44.47951" lon="3.71123">
        <ele>1103</ele>
        <time>2017-03-03T00:25:32Z</time>
      </trkpt>
      <trkpt lat="44.47946" lon="3.71124">
        <ele>1102</ele>
        <time>2017-03-03T00:27:32Z</time>
      </trkpt>
      <trkpt lat="44.47939" lon="3.71128">
        <ele>1102</ele>
        <time>2017-03-03T00:29:32Z</time>
      </trkpt>
      <trkpt lat="44.47932" lon="3.71139">
        <ele>1102</ele>
        <time>2017-03-03T00:31:32Z</time>
      </trkpt>
      <trkpt lat="44.47931" lon="3.7114">
        <ele>1102</ele>
        <time>2017-03-03T00:33:32Z</time>
      </trkpt>
      <trkpt lat="44.4793" lon="3.71141">
        <ele>1102</ele>
        <time>2017-03-03T00:35:32Z</time>
      </trkpt>
      <trkpt lat="44.47929" lon="3.71141">
        <ele>1102</ele>
        <time>2017-03-03T00:37:32Z</time>
      </trkpt>
      <trkpt lat="44.47928" lon="3.71141">
        <ele>1102</ele>
        <time>2017-03-03T00:39:32Z</time>
      </trkpt>
      <trkpt lat="44.47927" lon="3.7114">
        <ele>1102</ele>
        <time>2017-03-03T00:41:32Z</time>
      </trkpt>
      <trkpt lat="44.47927" lon="3.71138">
        <ele>1101</ele>
        <time>2017-03-03T00:43:32Z</time>
      </trkpt>
      <trkpt lat="44.47928" lon="3.71132">
        <ele>1100</ele>
        <time>2017-03-03T00:45:32Z</time>
      </trkpt>
      <trkpt lat="44.47931" lon="3.71124">
        <ele>1100</ele>
        <time>2017-03-03T00:47:32Z</time>
      </trkpt>
      <trkpt lat="44.47937" lon="3.7111">
        <ele>1098</ele>
        <time>2017-03-03T00:49:32Z</time>
      </trkpt>
      <trkpt lat="44.47949" lon="3.71087">
        <ele>1097</ele>
        <time>2017-03-03T00:51:32Z</time>
      </trkpt>
      <trkpt lat="44.47972" lon="3.71046">
        <ele>1095</ele>
        <time>2017-03-03T00:53:32Z</time>
      </trkpt>
      <trkpt lat="44.47992" lon="3.71004">
        <ele>1089</ele>
        <time>2017-03-03T00:55:32Z</time>
      </trkpt>
      <trkpt lat="44.48004" lon="3.70976">
        <ele>1086</ele>
        <time>2017-03-03T00:57:32Z</time>
      </trkpt>
      <trkpt lat="44.48011" lon="3.70957">
        <ele>1084</ele>
        <time>2017-03-03T00:59:32Z</time>
      </trkpt>
      <trkpt lat="44.48022" lon="3.70934">
        <ele>1082</ele>
        <time>2017-03-03T01:01:32Z</time>
      </trkpt>
      <trkpt lat="44.48033" lon="3.70915">
        <ele>1080</ele>
        <time>2017-03-03T01:03:32Z</time>
      </trkpt>
      <trkpt lat="44.48034" lon="3.70909">
        <ele>1079</ele>
        <time>2017-03-03T01:05:32Z</time>
      </trkpt>
      <trkpt lat="44.48034" lon="3.70906">
        <ele>1079</ele>
        <time>2017-03-03T01:07:32Z</time>
      </trkpt>
      <trkpt lat="44.48033" lon="3.70904">
        <ele>1079</ele>
        <time>2017-03-03T01:09:32Z</time>
      </trkpt>
      <trkpt lat="44.48033" lon="3.70904">
        <ele>1079</ele>
        <time>2017-03-03T01:11:32Z</time>
      </trkpt>
      <trkpt lat="44.48031" lon="3.70902">
        <ele>1079</ele>
        <time>2017-03-03T01:13:32Z</time>
      </trkpt>
      <trkpt lat="44.48021" lon="3.709">
        <ele>1078</ele>
        <time>2017-03-03T01:15:32Z</time>
      </trkpt>
      <trkpt lat="44.48003" lon="3.70902">
        <ele>1077</ele>
        <time>2017-03-03T01:17:32Z</time>
      </trkpt>
      <trkpt lat="44.47988" lon="3.70905">
        <ele>1077</ele>
        <time>2017-03-03T01:19:32Z</time>
      </trkpt>
      <trkpt lat="44.47983" lon="3.70904">
        <ele>1077</ele>
        <time>2017-03-03T01:21:32Z</time>
      </trkpt>
      <trkpt lat="44.47981" lon="3.70903">
        <ele>1077</ele>
        <time>2017-03-03T01:23:32Z</time>
      </trkpt>
      <trkpt lat="44.4798" lon="3.70902">
        <ele>1077</ele>
        <time>2017-03-03T01:25:32Z</time>
      </trkpt>
      <trkpt lat="44.47979" lon="3.709">
        <ele>1077</ele>
        <time>2017-03-03T01:27:32Z</time>
      </trkpt>
      <trkpt lat="44.47977" lon="3.70897">
        <ele>1077</ele>
        <time>2017-03-03T01:29:32Z</time>
      </trkpt>
      <trkpt lat="44.47976" lon="3.70879">
        <ele>1076</ele>
        <time>2017-03-03T01:31:32Z</time>
      </trkpt>
      <trkpt lat="44.47973" lon="3.70841">
        <ele>1073</ele>
        <time>2017-03-03T01:33:32Z</time>
      </trkpt>
      <trkpt lat="44.47973" lon="3.70841">
        <ele>1073</ele>
        <time>2017-03-03T01:35:32Z</time>
      </trkpt>
      <trkpt lat="44.4796" lon="3.70839">
        <ele>1073</ele>
        <time>2017-03-03T01:37:32Z</time>
      </trkpt>
      <trkpt lat="44.4796" lon="3.70839">
        <ele>1073</ele>
        <time>2017-03-03T01:39:32Z</time>
      </trkpt>
      <trkpt lat="44.47963" lon="3.70818">
        <ele>1074</ele>
        <time>2017-03-03T01:41:32Z</time>
      </trkpt>
      <trkpt lat="44.47964" lon="3.70807">
        <ele>1074</ele>
        <time>2017-03-03T01:43:32Z</time>
      </trkpt>
      <trkpt lat="44.47965" lon="3.70802">
        <ele>1075</ele>
        <time>2017-03-03T01:45:32Z</time>
      </trkpt>
      <trkpt lat="44.47965" lon="3.70801">
        <ele>1075</ele>
        <time>2017-03-03T01:47:32Z</time>
      </trkpt>
      <trkpt lat="44.47967" lon="3.70798">
        <ele>1075</ele>
        <time>2017-03-03T01:49:32Z</time>
      </trkpt>
      <trkpt lat="44.47967" lon="3.70797">
        <ele>1075</ele>
        <time>2017-03-03T01:51:32Z</time>
      </trkpt>
      <trkpt lat="44.47969" lon="3.70795">
        <ele>1075</ele>
        <time>2017-03-03T01:53:32Z</time>
      </trkpt>
      <trkpt lat="44.47976" lon="3.70786">
        <ele>1075</ele>
        <time>2017-03-03T01:55:32Z</time>
      </trkpt>
      <trkpt lat="44.48001" lon="3.70757">
        <ele>1077</ele>
        <time>2017-03-03T01:57:32Z</time>
      </trkpt>
      <trkpt lat="44.48012" lon="3.70744">
        <ele>1077</ele>
        <time>2017-03-03T01:59:32Z</time>
      </trkpt>
      <trkpt lat="44.4803" lon="3.70723">
        <ele>1078</ele>
        <time>2017-03-03T02:01:32Z</time>
      </trkpt>
      <trkpt lat="44.48043" lon="3.70708">
        <ele>1078</ele>
        <time>2017-03-03T02:03:32Z</time>
      </trkpt>
      <trkpt lat="44.48051" lon="3.70699">
        <ele>1079</ele>
        <time>2017-03-03T02:05:32Z</time>
      </trkpt>
      <trkpt lat="44.48057" lon="3.70692">
        <ele>1079</ele>
        <time>2017-03-03T02:07:32Z</time>
      </trkpt>
      <trkpt lat="44.48065" lon="3.70679">
        <ele>1080</ele>
        <time>2017-03-03T02:09:32Z</time>
      </trkpt>
      <trkpt lat="44.48084" lon="3.70647">
        <ele>1082</ele>
        <time>2017-03-03T02:11:32Z</time>
      </trkpt>
      <trkpt lat="44.48095" lon="3.70627">
        <ele>1085</ele>
        <time>2017-03-03T02:13:32Z</time>
      </trkpt>
      <trkpt lat="44.48102" lon="3.70613">
        <ele>1087</ele>
        <time>2017-03-03T02:15:32Z</time>
      </trkpt>
      <trkpt lat="44.48105" lon="3.70608">
        <ele>1087</ele>
        <time>2017-03-03T02:17:32Z</time>
      </trkpt>
      <trkpt lat="44.48106" lon="3.70607">
        <ele>1088</ele>
        <time>2017-03-03T02:19:32Z</time>
      </trkpt>
      <trkpt lat="44.4811" lon="3.70605">
        <ele>1088</ele>
        <time>2017-03-03T02:21:32Z</time>
      </trkpt>
      <trkpt lat="44.4811" lon="3.70605">
        <ele>1088</ele>
        <time>2017-03-03T02:23:32Z</time>
      </trkpt>
      <trkpt lat="44.4811" lon="3.70596">
        <ele>1089</ele>
        <time>2017-03-03T02:25:32Z</time>
      </trkpt>
      <trkpt lat="44.4811" lon="3.70592">
        <ele>1090</ele>
        <time>2017-03-03T02:27:32Z</time>
      </trkpt>
      <trkpt lat="44.4811" lon="3.70584">
        <ele>1091</ele>
        <time>2017-03-03T02:29:32Z</time>
      </trkpt>
      <trkpt lat="44.48108" lon="3.70565">
        <ele>1092</ele>
        <time>2017-03-03T02:31:32Z</time>
      </trkpt>
      <trkpt lat="44.48103" lon="3.70535">
        <ele>1094</ele>
        <time>2017-03-03T02:33:32Z</time>
      </trkpt>
      <trkpt lat="44.48102" lon="3.7052">
        <ele>1095</ele>
        <time>2017-03-03T02:35:32Z</time>
      </trkpt>
      <trkpt lat="44.48103" lon="3.70498">
        <ele>1097</ele>
        <time>2017-03-03T02:37:32Z</time>
      </trkpt>
      <trkpt lat="44.48105" lon="3.70486">
        <ele>1098</ele>
        <time>2017-03-03T02:39:32Z</time>
      </trkpt>
      <trkpt lat="44.48106" lon="3.70483">
        <ele>1098</ele>
        <time>2017-03-03T02:41:32Z</time>
      </trkpt>
      <trkpt lat="44.48109" lon="3.70476">
        <ele>1099</ele>
        <time>2017-03-03T02:43:32Z</time>
      </trkpt>
      <trkpt lat="44.48113" lon="3.70471">
        <ele>1100</ele>
        <time>2017-03-03T02:45:32Z</time>
      </trkpt>
      <trkpt lat="44.48119" lon="3.70463">
        <ele>1102</ele>
        <time>2017-03-03T02:47:32Z</time>
      </trkpt>
      <trkpt lat="44.48119" lon="3.70463">
        <ele>1102</ele>
        <time>2017-03-03T02:49:32Z</time>
      </trkpt>
      <trkpt lat="44.48122" lon="3.70466">
        <ele>1102</ele>
        <time>2017-03-03T02:51:32Z</time>
      </trkpt>
      <trkpt lat="44.48127" lon="3.7047">
        <ele>1103</ele>
        <time>2017-03-03T02:53:32Z</time>
      </trkpt>
      <trkpt lat="44.48127" lon="3.7047">
        <ele>1103</ele>
        <time>2017-03-03T02:55:32Z</time>
      </trkpt>
      <trkpt lat="44.48144" lon="3.70462">
        <ele>1107</ele>
        <time>2017-03-03T02:57:32Z</time>
      </trkpt>
      <trkpt lat="44.48159" lon="3.70451">
        <ele>1110</ele>
        <time>2017-03-03T02:59:32Z</time>
      </trkpt>
      <trkpt lat="44.48169" lon="3.70438">
        <ele>1113</ele>
        <time>2017-03-03T03:01:32Z</time>
      </trkpt>
      <trkpt lat="44.48177" lon="3.70417">
        <ele>1115</ele>
        <time>2017-03-03T03:03:32Z</time>
      </trkpt>
      <trkpt lat="44.48193" lon="3.70388">
        <ele>1120</ele>
        <time>2017-03-03T03:05:32Z</time>
      </trkpt>
      <trkpt lat="44.48212" lon="3.70363">
        <ele>1125</ele>
        <time>2017-03-03T03:07:32Z</time>
      </trkpt>
      <trkpt lat="44.48229" lon="3.70335">
        <ele>1130</ele>
        <time>2017-03-03T03:09:32Z</time>
      </trkpt>
      <trkpt lat="44.48231" lon="3.70329">
        <ele>1131</ele>
        <time>2017-03-03T03:11:32Z</time>
      </trkpt>
      <trkpt lat="44.48235" lon="3.70293">
        <ele>1134</ele>
        <time>2017-03-03T03:13:32Z</time>
      </trkpt>
      <trkpt lat="44.48237" lon="3.70287">
        <ele>1134</ele>
        <time>2017-03-03T03:15:32Z</time>
      </trkpt>
      <trkpt lat="44.4825" lon="3.70267">
        <ele>1138</ele>
        <time>2017-03-03T03:17:32Z</time>
      </trkpt>
      <trkpt lat="44.48265" lon="3.70252">
        <ele>1140</ele>
        <time>2017-03-03T03:19:32Z</time>
      </trkpt>
      <trkpt lat="44.48279" lon="3.70231">
        <ele>1142</ele>
        <time>2017-03-03T03:21:32Z</time>
      </trkpt>
      <trkpt lat="44.48289" lon="3.70215">
        <ele>1143</ele>
        <time>2017-03-03T03:23:32Z</time>
      </trkpt>
      <trkpt lat="44.48291" lon="3.70211">
        <ele>1143</ele>
        <time>2017-03-03T03:25:32Z</time>
      </trkpt>
      <trkpt lat="44.48303" lon="3.70159">
        <ele>1144</ele>
        <time>2017-03-03T03:27:32Z</time>
      </trkpt>
      <trkpt lat="44.48311" lon="3.70086">
        <ele>1147</ele>
        <time>2017-03-03T03:29:32Z</time>
      </trkpt>
      <trkpt lat="44.48324" lon="3.69974">
        <ele>1153</ele>
        <time>2017-03-03T03:31:32Z</time>
      </trkpt>
      <trkpt lat="44.48324" lon="3.69972">
        <ele>1153</ele>
        <time>2017-03-03T03:33:32Z</time>
      </trkpt>
      <trkpt lat="44.4834" lon="3.6995">
        <ele>1153</ele>
        <time>2017-03-03T03:35:32Z</time>
      </trkpt>
      <trkpt lat="44.48343" lon="3.69929">
        <ele>1154</ele>
        <time>2017-03-03T03:37:32Z</time>
      </trkpt>
      <trkpt lat="44.48345" lon="3.69916">
        <ele>1155</ele>
        <time>2017-03-03T03:39:32Z</time>
      </trkpt>
      <trkpt lat="44.48345" lon="3.69907">
        <ele>1156</ele>
        <time>2017-03-03T03:41:32Z</time>
      </trkpt>
      <trkpt lat="44.48348" lon="3.69898">
        <ele>1156</ele>
        <time>2017-03-03T03:43:32Z</time>
      </trkpt>
      <trkpt lat="44.48354" lon="3.69863">
        <ele>1158</ele>
        <time>2017-03-03T03:45:32Z</time>
      </trkpt>
      <trkpt lat="44.48363" lon="3.69809">
        <ele>1160</ele>
        <time>2017-03-03T03:47:32Z</time>
      </trkpt>
      <trkpt lat="44.48368" lon="3.69782">
        <ele>1161</ele>
        <time>2017-03-03T03:49:32Z</time>
      </trkpt>
      <trkpt lat="44.48374" lon="3.69758">
        <ele>1162</ele>
        <time>2017-03-03T03:51:32Z</time>
      </trkpt>
      <trkpt lat="44.48378" lon="3.69743">
        <ele>1163</ele>
        <time>2017-03-03T03:53:32Z</time>
      </trkpt>
      <trkpt lat="44.48384" lon="3.69725">
        <ele>1163</ele>
        <time>2017-03-03T03:55:32Z</time>
      </trkpt>
      <trkpt lat="44.48392" lon="3.69706">
        <ele>1163</ele>
        <time>2017-03-03T03:57:32Z</time>
      </trkpt>
      <trkpt lat="44.48403" lon="3.69677">
        <ele>1164</ele>
        <time>2017-03-03T03:59:32Z</time>
      </trkpt>
      <trkpt lat="44.48412" lon="3.69653">
        <ele>1164</ele>
        <time>2017-03-03T04:01:32Z</time>
      </trkpt>
      <trkpt lat="44.48423" lon="3.69629">
        <ele>1166</ele>
        <time>2017-03-03T04:03:32Z</time>
      </trkpt>
      <trkpt lat="44.48434" lon="3.69604">
        <ele>1167</ele>
        <time>2017-03-03T04:05:32Z</time>
      </trkpt>
      <trkpt lat="44.48439" lon="3.69588">
        <ele>1168</ele>
        <time>2017-03-03T04:07:32Z</time>
      </trkpt>
      <trkpt lat="44.48447" lon="3.69567">
        <ele>1169</ele>
        <time>2017-03-03T04:09:32Z</time>
      </trkpt>
      <trkpt lat="44.48459" lon="3.69534">
        <ele>1169</ele>
        <time>2017-03-03T04:11:32Z</time>
      </trkpt>
      <trkpt lat="44.48467" lon="3.69513">
        <ele>1169</ele>
        <time>2017-03-03T04:13:32Z</time>
      </trkpt>
      <trkpt lat="44.48472" lon="3.69492">
        <ele>1169</ele>
        <time>2017-03-03T04:15:32Z</time>
      </trkpt>
      <trkpt lat="44.48476" lon="3.69464">
        <ele>1170</ele>
        <time>2017-03-03T04:17:32Z</time>
      </trkpt>
      <trkpt lat="44.48479" lon="3.69433">
        <ele>1171</ele>
        <time>2017-03-03T04:19:32Z</time>
      </trkpt>
      <trkpt lat="44.4848" lon="3.69395">
        <ele>1172</ele>
        <time>2017-03-03T04:21:32Z</time>
      </trkpt>
      <trkpt lat="44.48482" lon="3.6936">
        <ele>1171</ele>
        <time>2017-03-03T04:23:32Z</time>
      </trkpt>
      <trkpt lat="44.48482" lon="3.6936">
        <ele>1171</ele>
        <time>2017-03-03T04:25:32Z</time>
      </trkpt>
      <trkpt lat="44.48478" lon="3.69359">
        <ele>1172</ele>
        <time>2017-03-03T04:27:32Z</time>
      </trkpt>
      <trkpt lat="44.48478" lon="3.69359">
        <ele>1172</ele>
        <time>2017-03-03T04:29:32Z</time>
      </trkpt>
      <trkpt lat="44.48479" lon="3.69354">
        <ele>1172</ele>
        <time>2017-03-03T04:31:32Z</time>
      </trkpt>
      <trkpt lat="44.48479" lon="3.69352">
        <ele>1172</ele>
        <time>2017-03-03T04:33:32Z</time>
      </trkpt>
      <trkpt lat="44.48479" lon="3.69342">
        <ele>1172</ele>
        <time>2017-03-03T04:35:32Z</time>
      </trkpt>
      <trkpt lat="44.48476" lon="3.6933">
        <ele>1172</ele>
        <time>2017-03-03T04:37:32Z</time>
      </trkpt>
      <trkpt lat="44.48475" lon="3.69329">
        <ele>1172</ele>
        <time>2017-03-03T04:39:32Z</time>
      </trkpt>
      <trkpt lat="44.4847" lon="3.6932">
        <ele>1171</ele>
        <time>2017-03-03T04:41:32Z</time>
      </trkpt>
      <trkpt lat="44.48461" lon="3.69303">
        <ele>1171</ele>
        <time>2017-03-03T04:43:32Z</time>
      </trkpt>
      <trkpt lat="44.48456" lon="3.69294">
        <ele>1170</ele>
        <time>2017-03-03T04:45:32Z</time>
      </trkpt>
      <trkpt lat="44.48451" lon="3.69283">
        <ele>1169</ele>
        <time>2017-03-03T04:47:32Z</time>
      </trkpt>
      <trkpt lat="44.48448" lon="3.69276">
        <ele>1169</ele>
        <time>2017-03-03T04:49:32Z</time>
      </trkpt>
      <trkpt lat="44.48445" lon="3.69269">
        <ele>1168</ele>
        <time>2017-03-03T04:51:32Z</time>
      </trkpt>
      <trkpt lat="44.48443" lon="3.69256">
        <ele>1167</ele>
        <time>2017-03-03T04:53:32Z</time>
      </trkpt>
      <trkpt lat="44.48441" lon="3.6924">
        <ele>1165</ele>
        <time>2017-03-03T04:55:32Z</time>
      </trkpt>
      <trkpt lat="44.48441" lon="3.6924">
        <ele>1165</ele>
        <time>2017-03-03T04:57:32Z</time>
      </trkpt>
      <trkpt lat="44.4843" lon="3.6924">
        <ele>1165</ele>
        <time>2017-03-03T04:59:32Z</time>
      </trkpt>
      <trkpt lat="44.48422" lon="3.69239">
        <ele>1165</ele>
        <time>2017-03-03T05:01:32Z</time>
      </trkpt>
      <trkpt lat="44.48409" lon="3.69232">
        <ele>1165</ele>
        <time>2017-03-03T05:03:32Z</time>
      </trkpt>
      <trkpt lat="44.48383" lon="3.69216">
        <ele>1167</ele>
        <time>2017-03-03T05:05:32Z</time>
      </trkpt>
      <trkpt lat="44.48357" lon="3.692">
        <ele>1168</ele>
        <time>2017-03-03T05:07:32Z</time>
      </trkpt>
      <trkpt lat="44.48341" lon="3.69188">
        <ele>1168</ele>
        <time>2017-03-03T05:09:32Z</time>
      </trkpt>
      <trkpt lat="44.48335" lon="3.69182">
        <ele>1168</ele>
        <time>2017-03-03T05:11:32Z</time>
      </trkpt>
      <trkpt lat="44.48331" lon="3.69173">
        <ele>1167</ele>
        <time>2017-03-03T05:13:32Z</time>
      </trkpt>
      <trkpt lat="44.48328" lon="3.69162">
        <ele>1167</ele>
        <time>2017-03-03T05:15:32Z</time>
      </trkpt>
      <trkpt lat="44.48325" lon="3.69145">
        <ele>1167</ele>
        <time>2017-03-03T05:17:32Z</time>
      </trkpt>
      <trkpt lat="44.48324" lon="3.69135">
        <ele>1166</ele>
        <time>2017-03-03T05:19:32Z</time>
      </trkpt>
      <trkpt lat="44.48323" lon="3.69119">
        <ele>1166</ele>
        <time>2017-03-03T05:21:32Z</time>
      </trkpt>
      <trkpt lat="44.4832" lon="3.69082">
        <ele>1165</ele>
        <time>2017-03-03T05:23:32Z</time>
      </trkpt>
      <trkpt lat="44.48321" lon="3.69034">
        <ele>1164</ele>
        <time>2017-03-03T05:25:32Z</time>
      </trkpt>
      <trkpt lat="44.4832" lon="3.69019">
        <ele>1165</ele>
        <time>2017-03-03T05:27:32Z</time>
      </trkpt>
      <trkpt lat="44.48319" lon="3.69009">
        <ele>1165</ele>
        <time>2017-03-03T05:29:32Z</time>
      </trkpt>
      <trkpt lat="44.48317" lon="3.68997">
        <ele>1166</ele>
        <time>2017-03-03T05:31:32Z</time>
      </trkpt>
      <trkpt lat="44.48314" lon="3.68972">
        <ele>1169</ele>
        <time>2017-03-03T05:33:32Z</time>
      </trkpt>
      <trkpt lat="44.48313" lon="3.68942">
        <ele>1171</ele>
        <time>2017-03-03T05:35:32Z</time>
      </trkpt>
      <trkpt lat="44.48314" lon="3.68925">
        <ele>1172</ele>
        <time>2017-03-03T05:37:32Z</time>
      </trkpt>
      <trkpt lat="44.48325" lon="3.68903">
        <ele>1169</ele>
        <time>2017-03-03T05:39:32Z</time>
      </trkpt>
      <trkpt lat="44.48336" lon="3.68881">
        <ele>1168</ele>
        <time>2017-03-03T05:41:32Z</time>
      </trkpt>
      <trkpt lat="44.48352" lon="3.68857">
        <ele>1164</ele>
        <time>2017-03-03T05:43:32Z</time>
      </trkpt>
      <trkpt lat="44.48374" lon="3.68824">
        <ele>1159</ele>
        <time>2017-03-03T05:45:32Z</time>
      </trkpt>
      <trkpt lat="44.48375" lon="3.68821">
        <ele>1158</ele>
        <time>2017-03-03T05:47:32Z</time>
      </trkpt>
      <trkpt lat="44.48379" lon="3.68793">
        <ele>1157</ele>
        <time>2017-03-03T05:49:32Z</time>
      </trkpt>
      <trkpt lat="44.48379" lon="3.6879">
        <ele>1157</ele>
        <time>2017-03-03T05:51:32Z</time>
      </trkpt>
      <trkpt lat="44.48379" lon="3.68782">
        <ele>1157</ele>
        <time>2017-03-03T05:53:32Z</time>
      </trkpt>
      <trkpt lat="44.48379" lon="3.68766">
        <ele>1157</ele>
        <time>2017-03-03T05:55:32Z</time>
      </trkpt>
      <trkpt lat="44.48378" lon="3.68763">
        <ele>1157</ele>
        <time>2017-03-03T05:57:32Z</time>
      </trkpt>
      <trkpt lat="44.48373" lon="3.6874">
        <ele>1157</ele>
        <time>2017-03-03T05:59:32Z</time>
      </trkpt>
      <trkpt lat="44.48362" lon="3.68718">
        <ele>1158</ele>
        <time>2017-03-03T06:01:32Z</time>
      </trkpt>
      <trkpt lat="44.48345" lon="3.6869">
        <ele>1159</ele>
        <time>2017-03-03T06:03:32Z</time>
      </trkpt>
      <trkpt lat="44.48327" lon="3.68663">
        <ele>1162</ele>
        <time>2017-03-03T06:05:32Z</time>
      </trkpt>
      <trkpt lat="44.48322" lon="3.68656">
        <ele>1163</ele>
        <time>2017-03-03T06:07:32Z</time>
      </trkpt>
      <trkpt lat="44.48317" lon="3.68649">
        <ele>1165</ele>
        <time>2017-03-03T06:09:32Z</time>
      </trkpt>
      <trkpt lat="44.48313" lon="3.68643">
        <ele>1166</ele>
        <time>2017-03-03T06:11:32Z</time>
      </trkpt>
      <trkpt lat="44.4831" lon="3.68633">
        <ele>1166</ele>
        <time>2017-03-03T06:13:32Z</time>
      </trkpt>
      <trkpt lat="44.48306" lon="3.68611">
        <ele>1167</ele>
        <time>2017-03-03T06:15:32Z</time>
      </trkpt>
      <trkpt lat="44.48303" lon="3.68596">
        <ele>1168</ele>
        <time>2017-03-03T06:17:32Z</time>
      </trkpt>
      <trkpt lat="44.48301" lon="3.68583">
        <ele>1169</ele>
        <time>2017-03-03T06:19:32Z</time>
      </trkpt>
      <trkpt lat="44.483" lon="3.68563">
        <ele>1169</ele>
        <time>2017-03-03T06:21:32Z</time>
      </trkpt>
      <trkpt lat="44.483" lon="3.6856">
        <ele>1169</ele>
        <time>2017-03-03T06:23:32Z</time>
      </trkpt>
      <trkpt lat="44.48301" lon="3.68549">
        <ele>1169</ele>
        <time>2017-03-03T06:25:32Z</time>
      </trkpt>
      <trkpt lat="44.48302" lon="3.68533">
        <ele>1168</ele>
        <time>2017-03-03T06:27:32Z</time>
      </trkpt>
      <trkpt lat="44.48302" lon="3.68527">
        <ele>1168</ele>
        <time>2017-03-03T06:29:32Z</time>
      </trkpt>
      <trkpt lat="44.48302" lon="3.68521">
        <ele>1168</ele>
        <time>2017-03-03T06:31:32Z</time>
      </trkpt>
      <trkpt lat="44.48301" lon="3.68515">
        <ele>1169</ele>
        <time>2017-03-03T06:33:32Z</time>
      </trkpt>
      <trkpt lat="44.48299" lon="3.68509">
        <ele>1169</ele>
        <time>2017-03-03T06:35:32Z</time>
      </trkpt>
      <trkpt lat="44.48281" lon="3.68461">
        <ele>1176</ele>
        <time>2017-03-03T06:37:32Z</time>
      </trkpt>
      <trkpt lat="44.48274" lon="3.68441">
        <ele>1179</ele>
        <time>2017-03-03T06:39:32Z</time>
      </trkpt>
      <trkpt lat="44.48272" lon="3.68433">
        <ele>1180</ele>
        <time>2017-03-03T06:41:32Z</time>
      </trkpt>
      <trkpt lat="44.48272" lon="3.68422">
        <ele>1180</ele>
        <time>2017-03-03T06:43:32Z</time>
      </trkpt>
      <trkpt lat="44.48273" lon="3.68404">
        <ele>1180</ele>
        <time>2017-03-03T06:45:32Z</time>
      </trkpt>
      <trkpt lat="44.48281" lon="3.68356">
        <ele>1177</ele>
        <time>2017-03-03T06:47:32Z</time>
      </trkpt>
      <trkpt lat="44.48288" lon="3.68317">
        <ele>1174</ele>
        <time>2017-03-03T06:49:32Z</time>
      </trkpt>
      <trkpt lat="44.48289" lon="3.68304">
        <ele>1173</ele>
        <time>2017-03-03T06:51:32Z</time>
      </trkpt>
      <trkpt lat="44.48288" lon="3.68293">
        <ele>1173</ele>
        <time>2017-03-03T06:53:32Z</time>
      </trkpt>
      <trkpt lat="44.48285" lon="3.68278">
        <ele>1174</ele>
        <time>2017-03-03T06:55:32Z</time>
      </trkpt>
      <trkpt lat="44.4828" lon="3.68263">
        <ele>1175</ele>
        <time>2017-03-03T06:57:32Z</time>
      </trkpt>
      <trkpt lat="44.48271" lon="3.68247">
        <ele>1178</ele>
        <time>2017-03-03T06:59:32Z</time>
      </trkpt>
      <trkpt lat="44.48248" lon="3.68217">
        <ele>1183</ele>
        <time>2017-03-03T07:01:32Z</time>
      </trkpt>
      <trkpt lat="44.48239" lon="3.68204">
        <ele>1186</ele>
        <time>2017-03-03T07:03:32Z</time>
      </trkpt>
      <trkpt lat="44.48232" lon="3.68189">
        <ele>1188</ele>
        <time>2017-03-03T07:05:32Z</time>
      </trkpt>
      <trkpt lat="44.48228" lon="3.68173">
        <ele>1188</ele>
        <time>2017-03-03T07:07:32Z</time>
      </trkpt>
      <trkpt lat="44.48226" lon="3.68155">
        <ele>1188</ele>
        <time>2017-03-03T07:09:32Z</time>
      </trkpt>
      <trkpt lat="44.48226" lon="3.68142">
        <ele>1188</ele>
        <time>2017-03-03T07:11:32Z</time>
      </trkpt>
      <trkpt lat="44.48226" lon="3.68128">
        <ele>1188</ele>
        <time>2017-03-03T07:13:32Z</time>
      </trkpt>
      <trkpt lat="44.48222" lon="3.68103">
        <ele>1190</ele>
        <time>2017-03-03T07:15:32Z</time>
      </trkpt>
      <trkpt lat="44.48217" lon="3.68078">
        <ele>1193</ele>
        <time>2017-03-03T07:17:32Z</time>
      </trkpt>
      <trkpt lat="44.48216" lon="3.6806">
        <ele>1194</ele>
        <time>2017-03-03T07:19:32Z</time>
      </trkpt>
      <trkpt lat="44.48215" lon="3.68052">
        <ele>1195</ele>
        <time>2017-03-03T07:21:32Z</time>
      </trkpt>
      <trkpt lat="44.48216" lon="3.68044">
        <ele>1195</ele>
        <time>2017-03-03T07:23:32Z</time>
      </trkpt>
      <trkpt lat="44.48217" lon="3.68034">
        <ele>1195</ele>
        <time>2017-03-03T07:25:32Z</time>
      </trkpt>
      <trkpt lat="44.48224" lon="3.68012">
        <ele>1193</ele>
        <time>2017-03-03T07:27:32Z</time>
      </trkpt>
      <trkpt lat="44.48232" lon="3.67979">
        <ele>1192</ele>
        <time>2017-03-03T07:29:32Z</time>
      </trkpt>
      <trkpt lat="44.48235" lon="3.67969">
        <ele>1192</ele>
        <time>2017-03-03T07:31:32Z</time>
      </trkpt>
      <trkpt lat="44.48236" lon="3.67958">
        <ele>1192</ele>
        <time>2017-03-03T07:33:32Z</time>
      </trkpt>
      <trkpt lat="44.48236" lon="3.67948">
        <ele>1193</ele>
        <time>2017-03-03T07:35:32Z</time>
      </trkpt>
      <trkpt lat="44.48234" lon="3.67935">
        <ele>1195</ele>
        <time>2017-03-03T07:37:32Z</time>
      </trkpt>
      <trkpt lat="44.4823" lon="3.67917">
        <ele>1197</ele>
        <time>2017-03-03T07:39:32Z</time>
      </trkpt>
      <trkpt lat="44.48228" lon="3.67897">
        <ele>1197</ele>
        <time>2017-03-03T07:41:32Z</time>
      </trkpt>
      <trkpt lat="44.48228" lon="3.67875">
        <ele>1197</ele>
        <time>2017-03-03T07:43:32Z</time>
      </trkpt>
      <trkpt lat="44.48228" lon="3.67857">
        <ele>1196</ele>
        <time>2017-03-03T07:45:32Z</time>
      </trkpt>
      <trkpt lat="44.48227" lon="3.6785">
        <ele>1196</ele>
        <time>2017-03-03T07:47:32Z</time>
      </trkpt>
      <trkpt lat="44.48226" lon="3.67844">
        <ele>1196</ele>
        <time>2017-03-03T07:49:32Z</time>
      </trkpt>
      <trkpt lat="44.48224" lon="3.67838">
        <ele>1196</ele>
        <time>2017-03-03T07:51:32Z</time>
      </trkpt>
      <trkpt lat="44.48221" lon="3.67833">
        <ele>1196</ele>
        <time>2017-03-03T07:53:32Z</time>
      </trkpt>
      <trkpt lat="44.48215" lon="3.67826">
        <ele>1195</ele>
        <time>2017-03-03T07:55:32Z</time>
      </trkpt>
      <trkpt lat="44.48202" lon="3.67818">
        <ele>1195</ele>
        <time>2017-03-03T07:57:32Z</time>
      </trkpt>
      <trkpt lat="44.48185" lon="3.6781">
        <ele>1195</ele>
        <time>2017-03-03T07:59:32Z</time>
      </trkpt>
      <trkpt lat="44.48169" lon="3.67804">
        <ele>1195</ele>
        <time>2017-03-03T08:01:32Z</time>
      </trkpt>
      <trkpt lat="44.48148" lon="3.67797">
        <ele>1196</ele>
        <time>2017-03-03T08:03:32Z</time>
      </trkpt>
      <trkpt lat="44.48129" lon="3.67791">
        <ele>1198</ele>
        <time>2017-03-03T08:05:32Z</time>
      </trkpt>
      <trkpt lat="44.48111" lon="3.67782">
        <ele>1198</ele>
        <time>2017-03-03T08:07:32Z</time>
      </trkpt>
      <trkpt lat="44.481" lon="3.67776">
        <ele>1198</ele>
        <time>2017-03-03T08:09:32Z</time>
      </trkpt>
      <trkpt lat="44.48087" lon="3.67771">
        <ele>1198</ele>
        <time>2017-03-03T08:11:32Z</time>
      </trkpt>
      <trkpt lat="44.4808" lon="3.67768">
        <ele>1199</ele>
        <time>2017-03-03T08:13:32Z</time>
      </trkpt>
      <trkpt lat="44.48077" lon="3.67766">
        <ele>1199</ele>
        <time>2017-03-03T08:15:32Z</time>
      </trkpt>
      <trkpt lat="44.48074" lon="3.67763">
        <ele>1199</ele>
        <time>2017-03-03T08:17:32Z</time>
      </trkpt>
      <trkpt lat="44.48063" lon="3.6775">
        <ele>1198</ele>
        <time>2017-03-03T08:19:32Z</time>
      </trkpt>
      <trkpt lat="44.48048" lon="3.67729">
        <ele>1199</ele>
        <time>2017-03-03T08:21:32Z</time>
      </trkpt>
      <trkpt lat="44.48027" lon="3.67695">
        <ele>1200</ele>
        <time>2017-03-03T08:23:32Z</time>
      </trkpt>
      <trkpt lat="44.48011" lon="3.67667">
        <ele>1201</ele>
        <time>2017-03-03T08:25:32Z</time>
      </trkpt>
      <trkpt lat="44.47993" lon="3.67645">
        <ele>1202</ele>
        <time>2017-03-03T08:27:32Z</time>
      </trkpt>
      <trkpt lat="44.47981" lon="3.67634">
        <ele>1201</ele>
        <time>2017-03-03T08:29:32Z</time>
      </trkpt>
      <trkpt lat="44.47966" lon="3.67628">
        <ele>1201</ele>
        <time>2017-03-03T08:31:32Z</time>
      </trkpt>
      <trkpt lat="44.47958" lon="3.67627">
        <ele>1201</ele>
        <time>2017-03-03T08:33:32Z</time>
      </trkpt>
      <trkpt lat="44.47945" lon="3.67629">
        <ele>1201</ele>
        <time>2017-03-03T08:35:32Z</time>
      </trkpt>
      <trkpt lat="44.47936" lon="3.67632">
        <ele>1202</ele>
        <time>2017-03-03T08:37:32Z</time>
      </trkpt>
      <trkpt lat="44.47928" lon="3.67635">
        <ele>1203</ele>
        <time>2017-03-03T08:39:32Z</time>
      </trkpt>
      <trkpt lat="44.47918" lon="3.67642">
        <ele>1205</ele>
        <time>2017-03-03T08:41:32Z</time>
      </trkpt>
      <trkpt lat="44.47905" lon="3.67652">
        <ele>1205</ele>
        <time>2017-03-03T08:43:32Z</time>
      </trkpt>
      <trkpt lat="44.47895" lon="3.67664">
        <ele>1206</ele>
        <time>2017-03-03T08:45:32Z</time>
      </trkpt>
      <trkpt lat="44.47862" lon="3.67698">
        <ele>1206</ele>
        <time>2017-03-03T08:47:32Z</time>
      </trkpt>
      <trkpt lat="44.47838" lon="3.67728">
        <ele>1206</ele>
        <time>2017-03-03T08:49:32Z</time>
      </trkpt>
      <trkpt lat="44.47819" lon="3.67756">
        <ele>1207</ele>
        <time>2017-03-03T08:51:32Z</time>
      </trkpt>
      <trkpt lat="44.47813" lon="3.67763">
        <ele>1207</ele>
        <time>2017-03-03T08:53:32Z</time>
      </trkpt>
      <trkpt lat="44.47813" lon="3.67763">
        <ele>1207</ele>
        <time>2017-03-03T08:55:32Z</time>
      </trkpt>
      <trkpt lat="44.47806" lon="3.67773">
        <ele>1207</ele>
        <time>2017-03-03T08:57:32Z</time>
      </trkpt>
      <trkpt lat="44.47792" lon="3.67791">
        <ele>1208</ele>
        <time>2017-03-03T08:59:32Z</time>
      </trkpt>
      <trkpt lat="44.4778" lon="3.67802">
        <ele>1207</ele>
        <time>2017-03-03T09:01:32Z</time>
      </trkpt>
      <trkpt lat="44.47773" lon="3.67808">
        <ele>1207</ele>
        <time>2017-03-03T09:03:32Z</time>
      </trkpt>
      <trkpt lat="44.47767" lon="3.67814">
        <ele>1207</ele>
        <time>2017-03-03T09:05:32Z</time>
      </trkpt>
      <trkpt lat="44.47766" lon="3.67815">
        <ele>1207</ele>
        <time>2017-03-03T09:07:32Z</time>
      </trkpt>
      <trkpt lat="44.47762" lon="3.67824">
        <ele>1208</ele>
        <time>2017-03-03T09:09:32Z</time>
      </trkpt>
      <trkpt lat="44.47754" lon="3.67842">
        <ele>1210</ele>
        <time>2017-03-03T09:11:32Z</time>
      </trkpt>
      <trkpt lat="44.4775" lon="3.6785">
        <ele>1210</ele>
        <time>2017-03-03T09:13:32Z</time>
      </trkpt>
      <trkpt lat="44.47743" lon="3.67858">
        <ele>1210</ele>
        <time>2017-03-03T09:15:32Z</time>
      </trkpt>
      <trkpt lat="44.4773" lon="3.67868">
        <ele>1208</ele>
        <time>2017-03-03T09:17:32Z</time>
      </trkpt>
      <trkpt lat="44.47723" lon="3.67872">
        <ele>1207</ele>
        <time>2017-03-03T09:19:32Z</time>
      </trkpt>
      <trkpt lat="44.47712" lon="3.67879">
        <ele>1206</ele>
        <time>2017-03-03T09:21:32Z</time>
      </trkpt>
      <trkpt lat="44.47706" lon="3.67884">
        <ele>1206</ele>
        <time>2017-03-03T09:23:32Z</time>
      </trkpt>
      <trkpt lat="44.47699" lon="3.67894">
        <ele>1206</ele>
        <time>2017-03-03T09:25:32Z</time>
      </trkpt>
      <trkpt lat="44.47697" lon="3.67897">
        <ele>1206</ele>
        <time>2017-03-03T09:27:32Z</time>
      </trkpt>
      <trkpt lat="44.47697" lon="3.67901">
        <ele>1207</ele>
        <time>2017-03-03T09:29:32Z</time>
      </trkpt>
      <trkpt lat="44.47696" lon="3.67903">
        <ele>1207</ele>
        <time>2017-03-03T09:31:32Z</time>
      </trkpt>
      <trkpt lat="44.47696" lon="3.67904">
        <ele>1207</ele>
        <time>2017-03-03T09:33:32Z</time>
      </trkpt>
      <trkpt lat="44.47687" lon="3.6792">
        <ele>1208</ele>
        <time>2017-03-03T09:35:32Z</time>
      </trkpt>
      <trkpt lat="44.47678" lon="3.67942">
        <ele>1210</ele>
        <time>2017-03-03T09:37:32Z</time>
      </trkpt>
      <trkpt lat="44.47672" lon="3.67958">
        <ele>1211</ele>
        <time>2017-03-03T09:39:32Z</time>
      </trkpt>
      <trkpt lat="44.47668" lon="3.67971">
        <ele>1211</ele>
        <time>2017-03-03T09:41:32Z</time>
      </trkpt>
      <trkpt lat="44.47656" lon="3.67995">
        <ele>1211</ele>
        <time>2017-03-03T09:43:32Z</time>
      </trkpt>
      <trkpt lat="44.47643" lon="3.68019">
        <ele>1210</ele>
        <time>2017-03-03T09:45:32Z</time>
      </trkpt>
      <trkpt lat="44.47634" lon="3.68035">
        <ele>1209</ele>
        <time>2017-03-03T09:47:32Z</time>
      </trkpt>
      <trkpt lat="44.47618" lon="3.68067">
        <ele>1208</ele>
        <time>2017-03-03T09:49:32Z</time>
      </trkpt>
      <trkpt lat="44.47608" lon="3.68084">
        <ele>1208</ele>
        <time>2017-03-03T09:51:32Z</time>
      </trkpt>
      <trkpt lat="44.47598" lon="3.68104">
        <ele>1208</ele>
        <time>2017-03-03T09:53:32Z</time>
      </trkpt>
      <trkpt lat="44.4759" lon="3.6812">
        <ele>1208</ele>
        <time>2017-03-03T09:55:32Z</time>
      </trkpt>
      <trkpt lat="44.47576" lon="3.68144">
        <ele>1207</ele>
        <time>2017-03-03T09:57:32Z</time>
      </trkpt>
      <trkpt lat="44.47564" lon="3.68166">
        <ele>1206</ele>
        <time>2017-03-03T09:59:32Z</time>
      </trkpt>
      <trkpt lat="44.47556" lon="3.6818">
        <ele>1205</ele>
        <time>2017-03-03T10:01:32Z</time>
      </trkpt>
      <trkpt lat="44.4755" lon="3.68194">
        <ele>1205</ele>
        <time>2017-03-03T10:03:32Z</time>
      </trkpt>
      <trkpt lat="44.47545" lon="3.68213">
        <ele>1205</ele>
        <time>2017-03-03T10:05:32Z</time>
      </trkpt>
      <trkpt lat="44.4754" lon="3.68234">
        <ele>1206</ele>
        <time>2017-03-03T10:07:32Z</time>
      </trkpt>
      <trkpt lat="44.47536" lon="3.68246">
        <ele>1207</ele>
        <time>2017-03-03T10:09:32Z</time>
      </trkpt>
      <trkpt lat="44.47525" lon="3.68268">
        <ele>1205</ele>
        <time>2017-03-03T10:11:32Z</time>
      </trkpt>
      <trkpt lat="44.4751" lon="3.68297">
        <ele>1204</ele>
        <time>2017-03-03T10:13:32Z</time>
      </trkpt>
      <trkpt lat="44.47498" lon="3.68316">
        <ele>1202</ele>
        <time>2017-03-03T10:15:32Z</time>
      </trkpt>
      <trkpt lat="44.47488" lon="3.68335">
        <ele>1203</ele>
        <time>2017-03-03T10:17:32Z</time>
      </trkpt>
      <trkpt lat="44.47482" lon="3.68347">
        <ele>1204</ele>
        <time>2017-03-03T10:19:32Z</time>
      </trkpt>
      <trkpt lat="44.47478" lon="3.68355">
        <ele>1205</ele>
        <time>2017-03-03T10:21:32Z</time>
      </trkpt>
      <trkpt lat="44.47474" lon="3.68362">
        <ele>1205</ele>
        <time>2017-03-03T10:23:32Z</time>
      </trkpt>
      <trkpt lat="44.47467" lon="3.68368">
        <ele>1204</ele>
        <time>2017-03-03T10:25:32Z</time>
      </trkpt>
      <trkpt lat="44.47454" lon="3.68377">
        <ele>1203</ele>
        <time>2017-03-03T10:27:32Z</time>
      </trkpt>
      <trkpt lat="44.47436" lon="3.6839">
        <ele>1201</ele>
        <time>2017-03-03T10:29:32Z</time>
      </trkpt>
      <trkpt lat="44.47425" lon="3.68399">
        <ele>1199</ele>
        <time>2017-03-03T10:31:32Z</time>
      </trkpt>
      <trkpt lat="44.4742" lon="3.68404">
        <ele>1198</ele>
        <time>2017-03-03T10:33:32Z</time>
      </trkpt>
      <trkpt lat="44.47413" lon="3.68413">
        <ele>1199</ele>
        <time>2017-03-03T10:35:32Z</time>
      </trkpt>
      <trkpt lat="44.47409" lon="3.68421">
        <ele>1200</ele>
        <time>2017-03-03T10:37:32Z</time>
      </trkpt>
      <trkpt lat="44.47405" lon="3.68424">
        <ele>1202</ele>
        <time>2017-03-03T10:39:32Z</time>
      </trkpt>
      <trkpt lat="44.47404" lon="3.68424">
        <ele>1202</ele>
        <time>2017-03-03T10:41:32Z</time>
      </trkpt>
      <trkpt lat="44.47397" lon="3.68429">
        <ele>1204</ele>
        <time>2017-03-03T10:43:32Z</time>
      </trkpt>
      <trkpt lat="44.47396" lon="3.6843">
        <ele>1204</ele>
        <time>2017-03-03T10:45:32Z</time>
      </trkpt>
      <trkpt lat="44.47396" lon="3.6843">
        <ele>1204</ele>
        <time>2017-03-03T10:47:32Z</time>
      </trkpt>
      <trkpt lat="44.474" lon="3.68415">
        <ele>1202</ele>
        <time>2017-03-03T10:49:32Z</time>
      </trkpt>
      <trkpt lat="44.47402" lon="3.68404">
        <ele>1202</ele>
        <time>2017-03-03T10:51:32Z</time>
      </trkpt>
      <trkpt lat="44.47402" lon="3.68391">
        <ele>1202</ele>
        <time>2017-03-03T10:53:32Z</time>
      </trkpt>
      <trkpt lat="44.47403" lon="3.68382">
        <ele>1201</ele>
        <time>2017-03-03T10:55:32Z</time>
      </trkpt>
      <trkpt lat="44.47405" lon="3.68371">
        <ele>1201</ele>
        <time>2017-03-03T10:57:32Z</time>
      </trkpt>
      <trkpt lat="44.4741" lon="3.68358">
        <ele>1199</ele>
        <time>2017-03-03T10:59:32Z</time>
      </trkpt>
      <trkpt lat="44.4741" lon="3.68356">
        <ele>1199</ele>
        <time>2017-03-03T11:01:32Z</time>
      </trkpt>
      <trkpt lat="44.47415" lon="3.68349">
        <ele>1197</ele>
        <time>2017-03-03T11:03:32Z</time>
      </trkpt>
      <trkpt lat="44.47422" lon="3.68336">
        <ele>1197</ele>
        <time>2017-03-03T11:05:32Z</time>
      </trkpt>
      <trkpt lat="44.47422" lon="3.68335">
        <ele>1197</ele>
        <time>2017-03-03T11:07:32Z</time>
      </trkpt>
      <trkpt lat="44.4743" lon="3.68308">
        <ele>1197</ele>
        <time>2017-03-03T11:09:32Z</time>
      </trkpt>
      <trkpt lat="44.47438" lon="3.68288">
        <ele>1197</ele>
        <time>2017-03-03T11:11:32Z</time>
      </trkpt>
      <trkpt lat="44.47442" lon="3.68271">
        <ele>1197</ele>
        <time>2017-03-03T11:13:32Z</time>
      </trkpt>
      <trkpt lat="44.47444" lon="3.68258">
        <ele>1197</ele>
        <time>2017-03-03T11:15:32Z</time>
      </trkpt>
      <trkpt lat="44.47444" lon="3.68241">
        <ele>1196</ele>
        <time>2017-03-03T11:17:32Z</time>
      </trkpt>
      <trkpt lat="44.47444" lon="3.68209">
        <ele>1196</ele>
        <time>2017-03-03T11:19:32Z</time>
      </trkpt>
      <trkpt lat="44.47442" lon="3.68169">
        <ele>1196</ele>
        <time>2017-03-03T11:21:32Z</time>
      </trkpt>
      <trkpt lat="44.47436" lon="3.68133">
        <ele>1196</ele>
        <time>2017-03-03T11:23:32Z</time>
      </trkpt>
      <trkpt lat="44.47432" lon="3.68099">
        <ele>1196</ele>
        <time>2017-03-03T11:25:32Z</time>
      </trkpt>
      <trkpt lat="44.47431" lon="3.68077">
        <ele>1197</ele>
        <time>2017-03-03T11:27:32Z</time>
      </trkpt>
      <trkpt lat="44.47434" lon="3.68055">
        <ele>1196</ele>
        <time>2017-03-03T11:29:32Z</time>
      </trkpt>
      <trkpt lat="44.47438" lon="3.68026">
        <ele>1195</ele>
        <time>2017-03-03T11:31:32Z</time>
      </trkpt>
      <trkpt lat="44.47442" lon="3.68011">
        <ele>1193</ele>
        <time>2017-03-03T11:33:32Z</time>
      </trkpt>
      <trkpt lat="44.47452" lon="3.6799">
        <ele>1189</ele>
        <time>2017-03-03T11:35:32Z</time>
      </trkpt>
      <trkpt lat="44.4746" lon="3.67972">
        <ele>1186</ele>
        <time>2017-03-03T11:37:32Z</time>
      </trkpt>
      <trkpt lat="44.47466" lon="3.67958">
        <ele>1183</ele>
        <time>2017-03-03T11:39:32Z</time>
      </trkpt>
      <trkpt lat="44.4747" lon="3.67945">
        <ele>1181</ele>
        <time>2017-03-03T11:41:32Z</time>
      </trkpt>
      <trkpt lat="44.47471" lon="3.67933">
        <ele>1181</ele>
        <time>2017-03-03T11:43:32Z</time>
      </trkpt>
      <trkpt lat="44.47472" lon="3.6792">
        <ele>1180</ele>
        <time>2017-03-03T11:45:32Z</time>
      </trkpt>
      <trkpt lat="44.47477" lon="3.67889">
        <ele>1179</ele>
        <time>2017-03-03T11:47:32Z</time>
      </trkpt>
      <trkpt lat="44.47477" lon="3.67884">
        <ele>1179</ele>
        <time>2017-03-03T11:49:32Z</time>
      </trkpt>
      <trkpt lat="44.47468" lon="3.67845">
        <ele>1185</ele>
        <time>2017-03-03T11:51:32Z</time>
      </trkpt>
      <trkpt lat="44.47468" lon="3.67838">
        <ele>1185</ele>
        <time>2017-03-03T11:53:32Z</time>
      </trkpt>
      <trkpt lat="44.47472" lon="3.67787">
        <ele>1186</ele>
        <time>2017-03-03T11:55:32Z</time>
      </trkpt>
      <trkpt lat="44.47476" lon="3.6773">
        <ele>1187</ele>
        <time>2017-03-03T11:57:32Z</time>
      </trkpt>
      <trkpt lat="44.47476" lon="3.67723">
        <ele>1188</ele>
        <time>2017-03-03T11:59:32Z</time>
      </trkpt>
      <trkpt lat="44.47489" lon="3.67687">
        <ele>1185</ele>
        <time>2017-03-03T12:01:32Z</time>
      </trkpt>
      <trkpt lat="44.4749" lon="3.6768">
        <ele>1185</ele>
        <time>2017-03-03T12:03:32Z</time>
      </trkpt>
      <trkpt lat="44.47493" lon="3.67623">
        <ele>1187</ele>
        <time>2017-03-03T12:05:32Z</time>
      </trkpt>
      <trkpt lat="44.47502" lon="3.67539">
        <ele>1182</ele>
        <time>2017-03-03T12:07:32Z</time>
      </trkpt>
      <trkpt lat="44.47501" lon="3.67535">
        <ele>1183</ele>
        <time>2017-03-03T12:09:32Z</time>
      </trkpt>
      <trkpt lat="44.47492" lon="3.67494">
        <ele>1182</ele>
        <time>2017-03-03T12:11:32Z</time>
      </trkpt>
      <trkpt lat="44.47483" lon="3.67478">
        <ele>1184</ele>
        <time>2017-03-03T12:13:32Z</time>
      </trkpt>
      <trkpt lat="44.47469" lon="3.67458">
        <ele>1187</ele>
        <time>2017-03-03T12:15:32Z</time>
      </trkpt>
      <trkpt lat="44.47453" lon="3.67443">
        <ele>1193</ele>
        <time>2017-03-03T12:17:32Z</time>
      </trkpt>
      <trkpt lat="44.47443" lon="3.67433">
        <ele>1196</ele>
        <time>2017-03-03T12:19:32Z</time>
      </trkpt>
      <trkpt lat="44.47438" lon="3.67427">
        <ele>1198</ele>
        <time>2017-03-03T12:21:32Z</time>
      </trkpt>
      <trkpt lat="44.47436" lon="3.67423">
        <ele>1199</ele>
        <time>2017-03-03T12:23:32Z</time>
      </trkpt>
      <trkpt lat="44.47434" lon="3.67417">
        <ele>1199</ele>
        <time>2017-03-03T12:25:32Z</time>
      </trkpt>
      <trkpt lat="44.47434" lon="3.67413">
        <ele>1199</ele>
        <time>2017-03-03T12:27:32Z</time>
      </trkpt>
      <trkpt lat="44.47435" lon="3.6741">
        <ele>1199</ele>
        <time>2017-03-03T12:29:32Z</time>
      </trkpt>
      <trkpt lat="44.47437" lon="3.67401">
        <ele>1199</ele>
        <time>2017-03-03T12:31:32Z</time>
      </trkpt>
      <trkpt lat="44.47446" lon="3.6738">
        <ele>1197</ele>
        <time>2017-03-03T12:33:32Z</time>
      </trkpt>
      <trkpt lat="44.47453" lon="3.67366">
        <ele>1195</ele>
        <time>2017-03-03T12:35:32Z</time>
      </trkpt>
      <trkpt lat="44.47458" lon="3.67355">
        <ele>1194</ele>
        <time>2017-03-03T12:37:32Z</time>
      </trkpt>
      <trkpt lat="44.47462" lon="3.67341">
        <ele>1193</ele>
        <time>2017-03-03T12:39:32Z</time>
      </trkpt>
      <trkpt lat="44.47464" lon="3.67335">
        <ele>1192</ele>
        <time>2017-03-03T12:41:32Z</time>
      </trkpt>
      <trkpt lat="44.47465" lon="3.67331">
        <ele>1192</ele>
        <time>2017-03-03T12:43:32Z</time>
      </trkpt>
      <trkpt lat="44.47466" lon="3.67321">
        <ele>1193</ele>
        <time>2017-03-03T12:45:32Z</time>
      </trkpt>
      <trkpt lat="44.47467" lon="3.67313">
        <ele>1194</ele>
        <time>2017-03-03T12:47:32Z</time>
      </trkpt>
      <trkpt lat="44.47469" lon="3.67306">
        <ele>1194</ele>
        <time>2017-03-03T12:49:32Z</time>
      </trkpt>
      <trkpt lat="44.47471" lon="3.67299">
        <ele>1194</ele>
        <time>2017-03-03T12:51:32Z</time>
      </trkpt>
      <trkpt lat="44.47476" lon="3.67288">
        <ele>1194</ele>
        <time>2017-03-03T12:53:32Z</time>
      </trkpt>
      <trkpt lat="44.47482" lon="3.67274">
        <ele>1193</ele>
        <time>2017-03-03T12:55:32Z</time>
      </trkpt>
      <trkpt lat="44.47487" lon="3.67258">
        <ele>1193</ele>
        <time>2017-03-03T12:57:32Z</time>
      </trkpt>
      <trkpt lat="44.47494" lon="3.67239">
        <ele>1192</ele>
        <time>2017-03-03T12:59:32Z</time>
      </trkpt>
      <trkpt lat="44.47497" lon="3.67228">
        <ele>1191</ele>
        <time>2017-03-03T13:01:32Z</time>
      </trkpt>
      <trkpt lat="44.475" lon="3.67215">
        <ele>1191</ele>
        <time>2017-03-03T13:03:32Z</time>
      </trkpt>
      <trkpt lat="44.47503" lon="3.67192">
        <ele>1192</ele>
        <time>2017-03-03T13:05:32Z</time>
      </trkpt>
      <trkpt lat="44.47506" lon="3.67175">
        <ele>1192</ele>
        <time>2017-03-03T13:07:32Z</time>
      </trkpt>
      <trkpt lat="44.47509" lon="3.67162">
        <ele>1191</ele>
        <time>2017-03-03T13:09:32Z</time>
      </trkpt>
      <trkpt lat="44.4751" lon="3.67151">
        <ele>1189</ele>
        <time>2017-03-03T13:11:32Z</time>
      </trkpt>
      <trkpt lat="44.47512" lon="3.67142">
        <ele>1187</ele>
        <time>2017-03-03T13:13:32Z</time>
      </trkpt>
      <trkpt lat="44.47511" lon="3.67134">
        <ele>1187</ele>
        <time>2017-03-03T13:15:32Z</time>
      </trkpt>
      <trkpt lat="44.47509" lon="3.6712">
        <ele>1186</ele>
        <time>2017-03-03T13:17:32Z</time>
      </trkpt>
      <trkpt lat="44.47505" lon="3.6711">
        <ele>1186</ele>
        <time>2017-03-03T13:19:32Z</time>
      </trkpt>
      <trkpt lat="44.47503" lon="3.67106">
        <ele>1187</ele>
        <time>2017-03-03T13:21:32Z</time>
      </trkpt>
      <trkpt lat="44.47501" lon="3.67102">
        <ele>1187</ele>
        <time>2017-03-03T13:23:32Z</time>
      </trkpt>
      <trkpt lat="44.47499" lon="3.67099">
        <ele>1187</ele>
        <time>2017-03-03T13:25:32Z</time>
      </trkpt>
      <trkpt lat="44.47496" lon="3.67097">
        <ele>1188</ele>
        <time>2017-03-03T13:27:32Z</time>
      </trkpt>
      <trkpt lat="44.47491" lon="3.67094">
        <ele>1188</ele>
        <time>2017-03-03T13:29:32Z</time>
      </trkpt>
      <trkpt lat="44.47465" lon="3.67088">
        <ele>1192</ele>
        <time>2017-03-03T13:31:32Z</time>
      </trkpt>
      <trkpt lat="44.47433" lon="3.67081">
        <ele>1196</ele>
        <time>2017-03-03T13:33:32Z</time>
      </trkpt>
      <trkpt lat="44.47403" lon="3.67073">
        <ele>1199</ele>
        <time>2017-03-03T13:35:32Z</time>
      </trkpt>
      <trkpt lat="44.47386" lon="3.67067">
        <ele>1201</ele>
        <time>2017-03-03T13:37:32Z</time>
      </trkpt>
      <trkpt lat="44.47374" lon="3.67059">
        <ele>1202</ele>
        <time>2017-03-03T13:39:32Z</time>
      </trkpt>
      <trkpt lat="44.4736" lon="3.67044">
        <ele>1201</ele>
        <time>2017-03-03T13:41:32Z</time>
      </trkpt>
      <trkpt lat="44.47346" lon="3.67023">
        <ele>1198</ele>
        <time>2017-03-03T13:43:32Z</time>
      </trkpt>
      <trkpt lat="44.4732" lon="3.66999">
        <ele>1197</ele>
        <time>2017-03-03T13:45:32Z</time>
      </trkpt>
      <trkpt lat="44.47298" lon="3.66984">
        <ele>1196</ele>
        <time>2017-03-03T13:47:32Z</time>
      </trkpt>
      <trkpt lat="44.47277" lon="3.66974">
        <ele>1197</ele>
        <time>2017-03-03T13:49:32Z</time>
      </trkpt>
      <trkpt lat="44.47241" lon="3.66949">
        <ele>1198</ele>
        <time>2017-03-03T13:51:32Z</time>
      </trkpt>
      <trkpt lat="44.47221" lon="3.66922">
        <ele>1198</ele>
        <time>2017-03-03T13:53:32Z</time>
      </trkpt>
      <trkpt lat="44.47202" lon="3.66893">
        <ele>1199</ele>
        <time>2017-03-03T13:55:32Z</time>
      </trkpt>
      <trkpt lat="44.47189" lon="3.66862">
        <ele>1197</ele>
        <time>2017-03-03T13:57:32Z</time>
      </trkpt>
      <trkpt lat="44.47171" lon="3.66826">
        <ele>1197</ele>
        <time>2017-03-03T13:59:32Z</time>
      </trkpt>
      <trkpt lat="44.47163" lon="3.66808">
        <ele>1195</ele>
        <time>2017-03-03T14:01:32Z</time>
      </trkpt>
      <trkpt lat="44.47156" lon="3.66793">
        <ele>1193</ele>
        <time>2017-03-03T14:03:32Z</time>
      </trkpt>
      <trkpt lat="44.47151" lon="3.66785">
        <ele>1192</ele>
        <time>2017-03-03T14:05:32Z</time>
      </trkpt>
      <trkpt lat="44.47149" lon="3.66783">
        <ele>1192</ele>
        <time>2017-03-03T14:07:32Z</time>
      </trkpt>
      <trkpt lat="44.47122" lon="3.66767">
        <ele>1191</ele>
        <time>2017-03-03T14:09:32Z</time>
      </trkpt>
      <trkpt lat="44.47117" lon="3.66764">
        <ele>1190</ele>
        <time>2017-03-03T14:11:32Z</time>
      </trkpt>
      <trkpt lat="44.47114" lon="3.66762">
        <ele>1190</ele>
        <time>2017-03-03T14:13:32Z</time>
      </trkpt>
      <trkpt lat="44.4711" lon="3.66761">
        <ele>1190</ele>
        <time>2017-03-03T14:15:32Z</time>
      </trkpt>
      <trkpt lat="44.47106" lon="3.66761">
        <ele>1191</ele>
        <time>2017-03-03T14:17:32Z</time>
      </trkpt>
      <trkpt lat="44.47104" lon="3.66762">
        <ele>1191</ele>
        <time>2017-03-03T14:19:32Z</time>
      </trkpt>
      <trkpt lat="44.471" lon="3.66765">
        <ele>1192</ele>
        <time>2017-03-03T14:21:32Z</time>
      </trkpt>
      <trkpt lat="44.4709" lon="3.66772">
        <ele>1194</ele>
        <time>2017-03-03T14:23:32Z</time>
      </trkpt>
      <trkpt lat="44.47067" lon="3.66784">
        <ele>1197</ele>
        <time>2017-03-03T14:25:32Z</time>
      </trkpt>
      <trkpt lat="44.47037" lon="3.66795">
        <ele>1199</ele>
        <time>2017-03-03T14:27:32Z</time>
      </trkpt>
      <trkpt lat="44.47002" lon="3.66802">
        <ele>1200</ele>
        <time>2017-03-03T14:29:32Z</time>
      </trkpt>
      <trkpt lat="44.46972" lon="3.66815">
        <ele>1203</ele>
        <time>2017-03-03T14:31:32Z</time>
      </trkpt>
      <trkpt lat="44.46922" lon="3.66853">
        <ele>1208</ele>
        <time>2017-03-03T14:33:32Z</time>
      </trkpt>
      <trkpt lat="44.46891" lon="3.66876">
        <ele>1215</ele>
        <time>2017-03-03T14:35:32Z</time>
      </trkpt>
      <trkpt lat="44.46873" lon="3.66882">
        <ele>1218</ele>
        <time>2017-03-03T14:37:32Z</time>
      </trkpt>
      <trkpt lat="44.46857" lon="3.66881">
        <ele>1219</ele>
        <time>2017-03-03T14:39:32Z</time>
      </trkpt>
      <trkpt lat="44.46843" lon="3.66878">
        <ele>1220</ele>
        <time>2017-03-03T14:41:32Z</time>
      </trkpt>
      <trkpt lat="44.46825" lon="3.66869">
        <ele>1219</ele>
        <time>2017-03-03T14:43:32Z</time>
      </trkpt>
      <trkpt lat="44.46806" lon="3.66861">
        <ele>1220</ele>
        <time>2017-03-03T14:45:32Z</time>
      </trkpt>
      <trkpt lat="44.4679" lon="3.66858">
        <ele>1221</ele>
        <time>2017-03-03T14:47:32Z</time>
      </trkpt>
      <trkpt lat="44.46773" lon="3.6686">
        <ele>1223</ele>
        <time>2017-03-03T14:49:32Z</time>
      </trkpt>
      <trkpt lat="44.46761" lon="3.66865">
        <ele>1225</ele>
        <time>2017-03-03T14:51:32Z</time>
      </trkpt>
      <trkpt lat="44.46742" lon="3.66883">
        <ele>1229</ele>
        <time>2017-03-03T14:53:32Z</time>
      </trkpt>
      <trkpt lat="44.4673" lon="3.66893">
        <ele>1232</ele>
        <time>2017-03-03T14:55:32Z</time>
      </trkpt>
      <trkpt lat="44.46723" lon="3.66903">
        <ele>1233</ele>
        <time>2017-03-03T14:57:32Z</time>
      </trkpt>
      <trkpt lat="44.46717" lon="3.66913">
        <ele>1234</ele>
        <time>2017-03-03T14:59:32Z</time>
      </trkpt>
      <trkpt lat="44.46711" lon="3.66921">
        <ele>1235</ele>
        <time>2017-03-03T15:01:32Z</time>
      </trkpt>
      <trkpt lat="44.46709" lon="3.66922">
        <ele>1235</ele>
        <time>2017-03-03T15:03:32Z</time>
      </trkpt>
      <trkpt lat="44.46708" lon="3.66923">
        <ele>1235</ele>
        <time>2017-03-03T15:05:32Z</time>
      </trkpt>
      <trkpt lat="44.46706" lon="3.66924">
        <ele>1236</ele>
        <time>2017-03-03T15:07:32Z</time>
      </trkpt>
      <trkpt lat="44.46704" lon="3.66924">
        <ele>1236</ele>
        <time>2017-03-03T15:09:32Z</time>
      </trkpt>
      <trkpt lat="44.46702" lon="3.66923">
        <ele>1235</ele>
        <time>2017-03-03T15:11:32Z</time>
      </trkpt>
      <trkpt lat="44.467" lon="3.66922">
        <ele>1235</ele>
        <time>2017-03-03T15:13:32Z</time>
      </trkpt>
      <trkpt lat="44.46699" lon="3.66921">
        <ele>1235</ele>
        <time>2017-03-03T15:15:32Z</time>
      </trkpt>
      <trkpt lat="44.46698" lon="3.66919">
        <ele>1235</ele>
        <time>2017-03-03T15:17:32Z</time>
      </trkpt>
      <trkpt lat="44.46697" lon="3.66916">
        <ele>1235</ele>
        <time>2017-03-03T15:19:32Z</time>
      </trkpt>
      <trkpt lat="44.46695" lon="3.66908">
        <ele>1235</ele>
        <time>2017-03-03T15:21:32Z</time>
      </trkpt>
      <trkpt lat="44.46695" lon="3.66901">
        <ele>1235</ele>
        <time>2017-03-03T15:23:32Z</time>
      </trkpt>
      <trkpt lat="44.46696" lon="3.66893">
        <ele>1235</ele>
        <time>2017-03-03T15:25:32Z</time>
      </trkpt>
      <trkpt lat="44.46696" lon="3.6687">
        <ele>1235</ele>
        <time>2017-03-03T15:27:32Z</time>
      </trkpt>
      <trkpt lat="44.46699" lon="3.66857">
        <ele>1235</ele>
        <time>2017-03-03T15:29:32Z</time>
      </trkpt>
      <trkpt lat="44.46703" lon="3.66844">
        <ele>1234</ele>
        <time>2017-03-03T15:31:32Z</time>
      </trkpt>
      <trkpt lat="44.46709" lon="3.66831">
        <ele>1232</ele>
        <time>2017-03-03T15:33:32Z</time>
      </trkpt>
      <trkpt lat="44.46712" lon="3.66823">
        <ele>1232</ele>
        <time>2017-03-03T15:35:32Z</time>
      </trkpt>
      <trkpt lat="44.46713" lon="3.66819">
        <ele>1232</ele>
        <time>2017-03-03T15:37:32Z</time>
      </trkpt>
      <trkpt lat="44.46713" lon="3.66813">
        <ele>1233</ele>
        <time>2017-03-03T15:39:32Z</time>
      </trkpt>
      <trkpt lat="44.46713" lon="3.6681">
        <ele>1233</ele>
        <time>2017-03-03T15:41:32Z</time>
      </trkpt>
      <trkpt lat="44.46713" lon="3.66807">
        <ele>1234</ele>
        <time>2017-03-03T15:43:32Z</time>
      </trkpt>
      <trkpt lat="44.46713" lon="3.66804">
        <ele>1234</ele>
        <time>2017-03-03T15:45:32Z</time>
      </trkpt>
      <trkpt lat="44.46712" lon="3.66799">
        <ele>1235</ele>
        <time>2017-03-03T15:47:32Z</time>
      </trkpt>
      <trkpt lat="44.46713" lon="3.66795">
        <ele>1235</ele>
        <time>2017-03-03T15:49:32Z</time>
      </trkpt>
      <trkpt lat="44.46714" lon="3.6679">
        <ele>1235</ele>
        <time>2017-03-03T15:51:32Z</time>
      </trkpt>
      <trkpt lat="44.46715" lon="3.66786">
        <ele>1236</ele>
        <time>2017-03-03T15:53:32Z</time>
      </trkpt>
      <trkpt lat="44.46719" lon="3.66782">
        <ele>1235</ele>
        <time>2017-03-03T15:55:32Z</time>
      </trkpt>
      <trkpt lat="44.46725" lon="3.66777">
        <ele>1234</ele>
        <time>2017-03-03T15:57:32Z</time>
      </trkpt>
      <trkpt lat="44.46731" lon="3.66771">
        <ele>1233</ele>
        <time>2017-03-03T15:59:32Z</time>
      </trkpt>
      <trkpt lat="44.46738" lon="3.66765">
        <ele>1232</ele>
        <time>2017-03-03T16:01:32Z</time>
      </trkpt>
      <trkpt lat="44.46747" lon="3.6676">
        <ele>1230</ele>
        <time>2017-03-03T16:03:32Z</time>
      </trkpt>
      <trkpt lat="44.46755" lon="3.66756">
        <ele>1228</ele>
        <time>2017-03-03T16:05:32Z</time>
      </trkpt>
      <trkpt lat="44.46763" lon="3.6675">
        <ele>1228</ele>
        <time>2017-03-03T16:07:32Z</time>
      </trkpt>
      <trkpt lat="44.46774" lon="3.66744">
        <ele>1227</ele>
        <time>2017-03-03T16:09:32Z</time>
      </trkpt>
      <trkpt lat="44.46792" lon="3.66735">
        <ele>1226</ele>
        <time>2017-03-03T16:11:32Z</time>
      </trkpt>
      <trkpt lat="44.46804" lon="3.6673">
        <ele>1225</ele>
        <time>2017-03-03T16:13:32Z</time>
      </trkpt>
      <trkpt lat="44.46816" lon="3.66725">
        <ele>1224</ele>
        <time>2017-03-03T16:15:32Z</time>
      </trkpt>
      <trkpt lat="44.46825" lon="3.66722">
        <ele>1223</ele>
        <time>2017-03-03T16:17:32Z</time>
      </trkpt>
      <trkpt lat="44.46833" lon="3.66717">
        <ele>1222</ele>
        <time>2017-03-03T16:19:32Z</time>
      </trkpt>
      <trkpt lat="44.46839" lon="3.66712">
        <ele>1222</ele>
        <time>2017-03-03T16:21:32Z</time>
      </trkpt>
      <trkpt lat="44.46846" lon="3.66705">
        <ele>1223</ele>
        <time>2017-03-03T16:23:32Z</time>
      </trkpt>
      <trkpt lat="44.46858" lon="3.66694">
        <ele>1223</ele>
        <time>2017-03-03T16:25:32Z</time>
      </trkpt>
      <trkpt lat="44.46877" lon="3.66681">
        <ele>1222</ele>
        <time>2017-03-03T16:27:32Z</time>
      </trkpt>
      <trkpt lat="44.46886" lon="3.66674">
        <ele>1222</ele>
        <time>2017-03-03T16:29:32Z</time>
      </trkpt>
      <trkpt lat="44.46891" lon="3.66668">
        <ele>1222</ele>
        <time>2017-03-03T16:31:32Z</time>
      </trkpt>
      <trkpt lat="44.46897" lon="3.6666">
        <ele>1223</ele>
        <time>2017-03-03T16:33:32Z</time>
      </trkpt>
      <trkpt lat="44.46914" lon="3.66631">
        <ele>1224</ele>
        <time>2017-03-03T16:35:32Z</time>
      </trkpt>
      <trkpt lat="44.4693" lon="3.66607">
        <ele>1225</ele>
        <time>2017-03-03T16:37:32Z</time>
      </trkpt>
      <trkpt lat="44.46939" lon="3.66591">
        <ele>1226</ele>
        <time>2017-03-03T16:39:32Z</time>
      </trkpt>
      <trkpt lat="44.46944" lon="3.66584">
        <ele>1226</ele>
        <time>2017-03-03T16:41:32Z</time>
      </trkpt>
      <trkpt lat="44.46947" lon="3.66581">
        <ele>1226</ele>
        <time>2017-03-03T16:43:32Z</time>
      </trkpt>
      <trkpt lat="44.46949" lon="3.66578">
        <ele>1226</ele>
        <time>2017-03-03T16:45:32Z</time>
      </trkpt>
      <trkpt lat="44.46952" lon="3.66572">
        <ele>1227</ele>
        <time>2017-03-03T16:47:32Z</time>
      </trkpt>
      <trkpt lat="44.46958" lon="3.66564">
        <ele>1227</ele>
        <time>2017-03-03T16:49:32Z</time>
      </trkpt>
      <trkpt lat="44.46964" lon="3.66559">
        <ele>1227</ele>
        <time>2017-03-03T16:51:32Z</time>
      </trkpt>
      <trkpt lat="44.46967" lon="3.66554">
        <ele>1227</ele>
        <time>2017-03-03T16:53:32Z</time>
      </trkpt>
      <trkpt lat="44.46971" lon="3.66545">
        <ele>1228</ele>
        <time>2017-03-03T16:55:32Z</time>
      </trkpt>
      <trkpt lat="44.46976" lon="3.66539">
        <ele>1228</ele>
        <time>2017-03-03T16:57:32Z</time>
      </trkpt>
      <trkpt lat="44.46977" lon="3.66536">
        <ele>1229</ele>
        <time>2017-03-03T16:59:32Z</time>
      </trkpt>
      <trkpt lat="44.4698" lon="3.66534">
        <ele>1229</ele>
        <time>2017-03-03T17:01:32Z</time>
      </trkpt>
      <trkpt lat="44.46986" lon="3.6653">
        <ele>1228</ele>
        <time>2017-03-03T17:03:32Z</time>
      </trkpt>
      <trkpt lat="44.46995" lon="3.66527">
        <ele>1227</ele>
        <time>2017-03-03T17:05:32Z</time>
      </trkpt>
      <trkpt lat="44.47002" lon="3.66525">
        <ele>1226</ele>
        <time>2017-03-03T17:07:32Z</time>
      </trkpt>
      <trkpt lat="44.47007" lon="3.66523">
        <ele>1224</ele>
        <time>2017-03-03T17:09:32Z</time>
      </trkpt>
      <trkpt lat="44.47016" lon="3.66519">
        <ele>1222</ele>
        <time>2017-03-03T17:11:32Z</time>
      </trkpt>
      <trkpt lat="44.47025" lon="3.66513">
        <ele>1221</ele>
        <time>2017-03-03T17:13:32Z</time>
      </trkpt>
      <trkpt lat="44.4703" lon="3.66508">
        <ele>1220</ele>
        <time>2017-03-03T17:15:32Z</time>
      </trkpt>
      <trkpt lat="44.47037" lon="3.66498">
        <ele>1220</ele>
        <time>2017-03-03T17:17:32Z</time>
      </trkpt>
      <trkpt lat="44.47044" lon="3.66491">
        <ele>1219</ele>
        <time>2017-03-03T17:19:32Z</time>
      </trkpt>
      <trkpt lat="44.47051" lon="3.66486">
        <ele>1217</ele>
        <time>2017-03-03T17:21:32Z</time>
      </trkpt>
      <trkpt lat="44.4706" lon="3.66479">
        <ele>1215</ele>
        <time>2017-03-03T17:23:32Z</time>
      </trkpt>
      <trkpt lat="44.47063" lon="3.66474">
        <ele>1215</ele>
        <time>2017-03-03T17:25:32Z</time>
      </trkpt>
      <trkpt lat="44.47065" lon="3.66469">
        <ele>1215</ele>
        <time>2017-03-03T17:27:32Z</time>
      </trkpt>
      <trkpt lat="44.47067" lon="3.66465">
        <ele>1214</ele>
        <time>2017-03-03T17:29:32Z</time>
      </trkpt>
      <trkpt lat="44.47067" lon="3.66461">
        <ele>1215</ele>
        <time>2017-03-03T17:31:32Z</time>
      </trkpt>
      <trkpt lat="44.47067" lon="3.66457">
        <ele>1215</ele>
        <time>2017-03-03T17:33:32Z</time>
      </trkpt>
      <trkpt lat="44.47066" lon="3.66454">
        <ele>1216</ele>
        <time>2017-03-03T17:35:32Z</time>
      </trkpt>
      <trkpt lat="44.4706" lon="3.6644">
        <ele>1219</ele>
        <time>2017-03-03T17:37:32Z</time>
      </trkpt>
      <trkpt lat="44.47056" lon="3.66424">
        <ele>1222</ele>
        <time>2017-03-03T17:39:32Z</time>
      </trkpt>
      <trkpt lat="44.47052" lon="3.66408">
        <ele>1224</ele>
        <time>2017-03-03T17:41:32Z</time>
      </trkpt>
      <trkpt lat="44.47051" lon="3.66384">
        <ele>1225</ele>
        <time>2017-03-03T17:43:32Z</time>
      </trkpt>
      <trkpt lat="44.4705" lon="3.66361">
        <ele>1225</ele>
        <time>2017-03-03T17:45:32Z</time>
      </trkpt>
      <trkpt lat="44.47049" lon="3.66338">
        <ele>1226</ele>
        <time>2017-03-03T17:47:32Z</time>
      </trkpt>
      <trkpt lat="44.47049" lon="3.66322">
        <ele>1227</ele>
        <time>2017-03-03T17:49:32Z</time>
      </trkpt>
      <trkpt lat="44.47047" lon="3.66291">
        <ele>1230</ele>
        <time>2017-03-03T17:51:32Z</time>
      </trkpt>
      <trkpt lat="44.47045" lon="3.66267">
        <ele>1233</ele>
        <time>2017-03-03T17:53:32Z</time>
      </trkpt>
      <trkpt lat="44.47042" lon="3.66242">
        <ele>1236</ele>
        <time>2017-03-03T17:55:32Z</time>
      </trkpt>
      <trkpt lat="44.4704" lon="3.6621">
        <ele>1239</ele>
        <time>2017-03-03T17:57:32Z</time>
      </trkpt>
      <trkpt lat="44.4704" lon="3.6618">
        <ele>1240</ele>
        <time>2017-03-03T17:59:32Z</time>
      </trkpt>
      <trkpt lat="44.47043" lon="3.66154">
        <ele>1241</ele>
        <time>2017-03-03T18:01:32Z</time>
      </trkpt>
      <trkpt lat="44.47047" lon="3.66136">
        <ele>1241</ele>
        <time>2017-03-03T18:03:32Z</time>
      </trkpt>
      <trkpt lat="44.47052" lon="3.6612">
        <ele>1240</ele>
        <time>2017-03-03T18:05:32Z</time>
      </trkpt>
      <trkpt lat="44.4706" lon="3.66103">
        <ele>1239</ele>
        <time>2017-03-03T18:07:32Z</time>
      </trkpt>
      <trkpt lat="44.47068" lon="3.66091">
        <ele>1238</ele>
        <time>2017-03-03T18:09:32Z</time>
      </trkpt>
      <trkpt lat="44.47075" lon="3.66078">
        <ele>1237</ele>
        <time>2017-03-03T18:11:32Z</time>
      </trkpt>
      <trkpt lat="44.47079" lon="3.6607">
        <ele>1236</ele>
        <time>2017-03-03T18:13:32Z</time>
      </trkpt>
      <trkpt lat="44.4708" lon="3.66065">
        <ele>1235</ele>
        <time>2017-03-03T18:15:32Z</time>
      </trkpt>
      <trkpt lat="44.47082" lon="3.66055">
        <ele>1235</ele>
        <time>2017-03-03T18:17:32Z</time>
      </trkpt>
      <trkpt lat="44.47082" lon="3.66052">
        <ele>1235</ele>
        <time>2017-03-03T18:19:32Z</time>
      </trkpt>
      <trkpt lat="44.47084" lon="3.66027">
        <ele>1234</ele>
        <time>2017-03-03T18:21:32Z</time>
      </trkpt>
      <trkpt lat="44.47084" lon="3.66004">
        <ele>1235</ele>
        <time>2017-03-03T18:23:32Z</time>
      </trkpt>
      <trkpt lat="44.47081" lon="3.65977">
        <ele>1234</ele>
        <time>2017-03-03T18:25:32Z</time>
      </trkpt>
      <trkpt lat="44.47076" lon="3.65953">
        <ele>1234</ele>
        <time>2017-03-03T18:27:32Z</time>
      </trkpt>
      <trkpt lat="44.47066" lon="3.65925">
        <ele>1236</ele>
        <time>2017-03-03T18:29:32Z</time>
      </trkpt>
      <trkpt lat="44.47055" lon="3.65906">
        <ele>1239</ele>
        <time>2017-03-03T18:31:32Z</time>
      </trkpt>
      <trkpt lat="44.47044" lon="3.65893">
        <ele>1243</ele>
        <time>2017-03-03T18:33:32Z</time>
      </trkpt>
      <trkpt lat="44.47031" lon="3.65882">
        <ele>1246</ele>
        <time>2017-03-03T18:35:32Z</time>
      </trkpt>
      <trkpt lat="44.47024" lon="3.65877">
        <ele>1248</ele>
        <time>2017-03-03T18:37:32Z</time>
      </trkpt>
      <trkpt lat="44.47023" lon="3.65875">
        <ele>1248</ele>
        <time>2017-03-03T18:39:32Z</time>
      </trkpt>
      <trkpt lat="44.47015" lon="3.65858">
        <ele>1250</ele>
        <time>2017-03-03T18:41:32Z</time>
      </trkpt>
      <trkpt lat="44.47012" lon="3.65851">
        <ele>1250</ele>
        <time>2017-03-03T18:43:32Z</time>
      </trkpt>
      <trkpt lat="44.4701" lon="3.65845">
        <ele>1251</ele>
        <time>2017-03-03T18:45:32Z</time>
      </trkpt>
      <trkpt lat="44.4701" lon="3.65837">
        <ele>1250</ele>
        <time>2017-03-03T18:47:32Z</time>
      </trkpt>
      <trkpt lat="44.4701" lon="3.65827">
        <ele>1251</ele>
        <time>2017-03-03T18:49:32Z</time>
      </trkpt>
      <trkpt lat="44.47014" lon="3.6582">
        <ele>1251</ele>
        <time>2017-03-03T18:51:32Z</time>
      </trkpt>
      <trkpt lat="44.47019" lon="3.65816">
        <ele>1251</ele>
        <time>2017-03-03T18:53:32Z</time>
      </trkpt>
      <trkpt lat="44.47029" lon="3.65817">
        <ele>1249</ele>
        <time>2017-03-03T18:55:32Z</time>
      </trkpt>
      <trkpt lat="44.47045" lon="3.65822">
        <ele>1246</ele>
        <time>2017-03-03T18:57:32Z</time>
      </trkpt>
      <trkpt lat="44.47052" lon="3.65824">
        <ele>1245</ele>
        <time>2017-03-03T18:59:32Z</time>
      </trkpt>
      <trkpt lat="44.47061" lon="3.65823">
        <ele>1243</ele>
        <time>2017-03-03T19:01:32Z</time>
      </trkpt>
      <trkpt lat="44.47071" lon="3.65821">
        <ele>1242</ele>
        <time>2017-03-03T19:03:32Z</time>
      </trkpt>
      <trkpt lat="44.47085" lon="3.65811">
        <ele>1241</ele>
        <time>2017-03-03T19:05:32Z</time>
      </trkpt>
      <trkpt lat="44.47093" lon="3.65805">
        <ele>1241</ele>
        <time>2017-03-03T19:07:32Z</time>
      </trkpt>
      <trkpt lat="44.47103" lon="3.65798">
        <ele>1240</ele>
        <time>2017-03-03T19:09:32Z</time>
      </trkpt>
      <trkpt lat="44.47112" lon="3.65793">
        <ele>1238</ele>
        <time>2017-03-03T19:11:32Z</time>
      </trkpt>
      <trkpt lat="44.47178" lon="3.65739">
        <ele>1233</ele>
        <time>2017-03-03T19:13:32Z</time>
      </trkpt>
      <trkpt lat="44.47184" lon="3.65733">
        <ele>1234</ele>
        <time>2017-03-03T19:15:32Z</time>
      </trkpt>
      <trkpt lat="44.47191" lon="3.65725">
        <ele>1235</ele>
        <time>2017-03-03T19:17:32Z</time>
      </trkpt>
      <trkpt lat="44.47197" lon="3.65717">
        <ele>1236</ele>
        <time>2017-03-03T19:19:32Z</time>
      </trkpt>
      <trkpt lat="44.47206" lon="3.65714">
        <ele>1236</ele>
        <time>2017-03-03T19:21:32Z</time>
      </trkpt>
      <trkpt lat="44.47219" lon="3.65713">
        <ele>1235</ele>
        <time>2017-03-03T19:23:32Z</time>
      </trkpt>
      <trkpt lat="44.4722" lon="3.65713">
        <ele>1235</ele>
        <time>2017-03-03T19:25:32Z</time>
      </trkpt>
      <trkpt lat="44.47229" lon="3.65715">
        <ele>1234</ele>
        <time>2017-03-03T19:27:32Z</time>
      </trkpt>
      <trkpt lat="44.47236" lon="3.65721">
        <ele>1233</ele>
        <time>2017-03-03T19:29:32Z</time>
      </trkpt>
      <trkpt lat="44.47244" lon="3.65732">
        <ele>1232</ele>
        <time>2017-03-03T19:31:32Z</time>
      </trkpt>
      <trkpt lat="44.47248" lon="3.6574">
        <ele>1232</ele>
        <time>2017-03-03T19:33:32Z</time>
      </trkpt>
      <trkpt lat="44.47249" lon="3.6575">
        <ele>1232</ele>
        <time>2017-03-03T19:35:32Z</time>
      </trkpt>
      <trkpt lat="44.47248" lon="3.65772">
        <ele>1232</ele>
        <time>2017-03-03T19:37:32Z</time>
      </trkpt>
      <trkpt lat="44.47245" lon="3.65788">
        <ele>1233</ele>
        <time>2017-03-03T19:39:32Z</time>
      </trkpt>
      <trkpt lat="44.47242" lon="3.65804">
        <ele>1232</ele>
        <time>2017-03-03T19:41:32Z</time>
      </trkpt>
      <trkpt lat="44.47237" lon="3.65817">
        <ele>1232</ele>
        <time>2017-03-03T19:43:32Z</time>
      </trkpt>
      <trkpt lat="44.47236" lon="3.65825">
        <ele>1232</ele>
        <time>2017-03-03T19:45:32Z</time>
      </trkpt>
      <trkpt lat="44.47236" lon="3.65826">
        <ele>1232</ele>
        <time>2017-03-03T19:47:32Z</time>
      </trkpt>
      <trkpt lat="44.47237" lon="3.65832">
        <ele>1232</ele>
        <time>2017-03-03T19:49:32Z</time>
      </trkpt>
      <trkpt lat="44.47239" lon="3.65842">
        <ele>1232</ele>
        <time>2017-03-03T19:51:32Z</time>
      </trkpt>
      <trkpt lat="44.47245" lon="3.65857">
        <ele>1231</ele>
        <time>2017-03-03T19:53:32Z</time>
      </trkpt>
      <trkpt lat="44.47252" lon="3.65866">
        <ele>1231</ele>
        <time>2017-03-03T19:55:32Z</time>
      </trkpt>
      <trkpt lat="44.4726" lon="3.65872">
        <ele>1232</ele>
        <time>2017-03-03T19:57:32Z</time>
      </trkpt>
      <trkpt lat="44.47269" lon="3.65876">
        <ele>1232</ele>
        <time>2017-03-03T19:59:32Z</time>
      </trkpt>
      <trkpt lat="44.47285" lon="3.65883">
        <ele>1233</ele>
        <time>2017-03-03T20:01:32Z</time>
      </trkpt>
      <trkpt lat="44.47296" lon="3.65883">
        <ele>1234</ele>
        <time>2017-03-03T20:03:32Z</time>
      </trkpt>
      <trkpt lat="44.47307" lon="3.65883">
        <ele>1235</ele>
        <time>2017-03-03T20:05:32Z</time>
      </trkpt>
      <trkpt lat="44.47307" lon="3.65883">
        <ele>1235</ele>
        <time>2017-03-03T20:07:32Z</time>
      </trkpt>
      <trkpt lat="44.47317" lon="3.65887">
        <ele>1236</ele>
        <time>2017-03-03T20:09:32Z</time>
      </trkpt>
      <trkpt lat="44.47335" lon="3.65896">
        <ele>1237</ele>
        <time>2017-03-03T20:11:32Z</time>
      </trkpt>
      <trkpt lat="44.47345" lon="3.65904">
        <ele>1238</ele>
        <time>2017-03-03T20:13:32Z</time>
      </trkpt>
      <trkpt lat="44.47351" lon="3.65911">
        <ele>1239</ele>
        <time>2017-03-03T20:15:32Z</time>
      </trkpt>
      <trkpt lat="44.47357" lon="3.65921">
        <ele>1239</ele>
        <time>2017-03-03T20:17:32Z</time>
      </trkpt>
      <trkpt lat="44.47364" lon="3.65937">
        <ele>1240</ele>
        <time>2017-03-03T20:19:32Z</time>
      </trkpt>
      <trkpt lat="44.47369" lon="3.65954">
        <ele>1241</ele>
        <time>2017-03-03T20:21:32Z</time>
      </trkpt>
      <trkpt lat="44.47373" lon="3.65969">
        <ele>1242</ele>
        <time>2017-03-03T20:23:32Z</time>
      </trkpt>
      <trkpt lat="44.47379" lon="3.65985">
        <ele>1243</ele>
        <time>2017-03-03T20:25:32Z</time>
      </trkpt>
      <trkpt lat="44.47385" lon="3.66003">
        <ele>1244</ele>
        <time>2017-03-03T20:27:32Z</time>
      </trkpt>
      <trkpt lat="44.47388" lon="3.66014">
        <ele>1245</ele>
        <time>2017-03-03T20:29:32Z</time>
      </trkpt>
      <trkpt lat="44.47388" lon="3.66026">
        <ele>1245</ele>
        <time>2017-03-03T20:31:32Z</time>
      </trkpt>
      <trkpt lat="44.47388" lon="3.66037">
        <ele>1245</ele>
        <time>2017-03-03T20:33:32Z</time>
      </trkpt>
      <trkpt lat="44.47387" lon="3.66052">
        <ele>1245</ele>
        <time>2017-03-03T20:35:32Z</time>
      </trkpt>
      <trkpt lat="44.47387" lon="3.66062">
        <ele>1245</ele>
        <time>2017-03-03T20:37:32Z</time>
      </trkpt>
      <trkpt lat="44.47387" lon="3.66062">
        <ele>1245</ele>
        <time>2017-03-03T20:39:32Z</time>
      </trkpt>
      <trkpt lat="44.47396" lon="3.66059">
        <ele>1247</ele>
        <time>2017-03-03T20:41:32Z</time>
      </trkpt>
      <trkpt lat="44.47404" lon="3.66058">
        <ele>1248</ele>
        <time>2017-03-03T20:43:32Z</time>
      </trkpt>
      <trkpt lat="44.47414" lon="3.66051">
        <ele>1250</ele>
        <time>2017-03-03T20:45:32Z</time>
      </trkpt>
      <trkpt lat="44.47424" lon="3.66042">
        <ele>1251</ele>
        <time>2017-03-03T20:47:32Z</time>
      </trkpt>
      <trkpt lat="44.47432" lon="3.66029">
        <ele>1253</ele>
        <time>2017-03-03T20:49:32Z</time>
      </trkpt>
      <trkpt lat="44.4744" lon="3.66015">
        <ele>1254</ele>
        <time>2017-03-03T20:51:32Z</time>
      </trkpt>
      <trkpt lat="44.47459" lon="3.65988">
        <ele>1257</ele>
        <time>2017-03-03T20:53:32Z</time>
      </trkpt>
      <trkpt lat="44.47478" lon="3.65964">
        <ele>1260</ele>
        <time>2017-03-03T20:55:32Z</time>
      </trkpt>
      <trkpt lat="44.47496" lon="3.65947">
        <ele>1264</ele>
        <time>2017-03-03T20:57:32Z</time>
      </trkpt>
      <trkpt lat="44.47516" lon="3.65932">
        <ele>1268</ele>
        <time>2017-03-03T20:59:32Z</time>
      </trkpt>
      <trkpt lat="44.47534" lon="3.65919">
        <ele>1271</ele>
        <time>2017-03-03T21:01:32Z</time>
      </trkpt>
      <trkpt lat="44.47542" lon="3.65909">
        <ele>1273</ele>
        <time>2017-03-03T21:03:32Z</time>
      </trkpt>
      <trkpt lat="44.4755" lon="3.65892">
        <ele>1275</ele>
        <time>2017-03-03T21:05:32Z</time>
      </trkpt>
      <trkpt lat="44.47564" lon="3.6586">
        <ele>1279</ele>
        <time>2017-03-03T21:07:32Z</time>
      </trkpt>
      <trkpt lat="44.47573" lon="3.65837">
        <ele>1281</ele>
        <time>2017-03-03T21:09:32Z</time>
      </trkpt>
      <trkpt lat="44.47582" lon="3.65819">
        <ele>1283</ele>
        <time>2017-03-03T21:11:32Z</time>
      </trkpt>
      <trkpt lat="44.47596" lon="3.65793">
        <ele>1286</ele>
        <time>2017-03-03T21:13:32Z</time>
      </trkpt>
      <trkpt lat="44.47609" lon="3.65761">
        <ele>1289</ele>
        <time>2017-03-03T21:15:32Z</time>
      </trkpt>
      <trkpt lat="44.47625" lon="3.6572">
        <ele>1292</ele>
        <time>2017-03-03T21:17:32Z</time>
      </trkpt>
      <trkpt lat="44.47638" lon="3.65698">
        <ele>1294</ele>
        <time>2017-03-03T21:19:32Z</time>
      </trkpt>
      <trkpt lat="44.47648" lon="3.65685">
        <ele>1296</ele>
        <time>2017-03-03T21:21:32Z</time>
      </trkpt>
      <trkpt lat="44.47664" lon="3.6567">
        <ele>1299</ele>
        <time>2017-03-03T21:23:32Z</time>
      </trkpt>
      <trkpt lat="44.47675" lon="3.65657">
        <ele>1301</ele>
        <time>2017-03-03T21:25:32Z</time>
      </trkpt>
      <trkpt lat="44.47686" lon="3.65635">
        <ele>1303</ele>
        <time>2017-03-03T21:27:32Z</time>
      </trkpt>
      <trkpt lat="44.47703" lon="3.65599">
        <ele>1306</ele>
        <time>2017-03-03T21:29:32Z</time>
      </trkpt>
      <trkpt lat="44.47722" lon="3.65556">
        <ele>1309</ele>
        <time>2017-03-03T21:31:32Z</time>
      </trkpt>
      <trkpt lat="44.47727" lon="3.65546">
        <ele>1310</ele>
        <time>2017-03-03T21:33:32Z</time>
      </trkpt>
      <trkpt lat="44.47745" lon="3.65507">
        <ele>1313</ele>
        <time>2017-03-03T21:35:32Z</time>
      </trkpt>
      <trkpt lat="44.47766" lon="3.65465">
        <ele>1316</ele>
        <time>2017-03-03T21:37:32Z</time>
      </trkpt>
      <trkpt lat="44.47792" lon="3.65418">
        <ele>1320</ele>
        <time>2017-03-03T21:39:32Z</time>
      </trkpt>
      <trkpt lat="44.47798" lon="3.65407">
        <ele>1321</ele>
        <time>2017-03-03T21:41:32Z</time>
      </trkpt>
      <trkpt lat="44.47804" lon="3.65394">
        <ele>1323</ele>
        <time>2017-03-03T21:43:32Z</time>
      </trkpt>
      <trkpt lat="44.4781" lon="3.65378">
        <ele>1324</ele>
        <time>2017-03-03T21:45:32Z</time>
      </trkpt>
      <trkpt lat="44.47814" lon="3.65362">
        <ele>1325</ele>
        <time>2017-03-03T21:47:32Z</time>
      </trkpt>
      <trkpt lat="44.47814" lon="3.65335">
        <ele>1326</ele>
        <time>2017-03-03T21:49:32Z</time>
      </trkpt>
      <trkpt lat="44.47816" lon="3.65314">
        <ele>1327</ele>
        <time>2017-03-03T21:51:32Z</time>
      </trkpt>
      <trkpt lat="44.47821" lon="3.65282">
        <ele>1329</ele>
        <time>2017-03-03T21:53:32Z</time>
      </trkpt>
      <trkpt lat="44.47821" lon="3.65257">
        <ele>1329</ele>
        <time>2017-03-03T21:55:32Z</time>
      </trkpt>
      <trkpt lat="44.4782" lon="3.65227">
        <ele>1331</ele>
        <time>2017-03-03T21:57:32Z</time>
      </trkpt>
      <trkpt lat="44.47816" lon="3.65199">
        <ele>1332</ele>
        <time>2017-03-03T21:59:32Z</time>
      </trkpt>
      <trkpt lat="44.4781" lon="3.65164">
        <ele>1334</ele>
        <time>2017-03-03T22:01:32Z</time>
      </trkpt>
      <trkpt lat="44.47801" lon="3.65133">
        <ele>1335</ele>
        <time>2017-03-03T22:03:32Z</time>
      </trkpt>
      <trkpt lat="44.47795" lon="3.65105">
        <ele>1336</ele>
        <time>2017-03-03T22:05:32Z</time>
      </trkpt>
      <trkpt lat="44.47791" lon="3.65075">
        <ele>1338</ele>
        <time>2017-03-03T22:07:32Z</time>
      </trkpt>
      <trkpt lat="44.4779" lon="3.65049">
        <ele>1338</ele>
        <time>2017-03-03T22:09:32Z</time>
      </trkpt>
      <trkpt lat="44.47788" lon="3.65031">
        <ele>1338</ele>
        <time>2017-03-03T22:11:32Z</time>
      </trkpt>
      <trkpt lat="44.47788" lon="3.65028">
        <ele>1339</ele>
        <time>2017-03-03T22:13:32Z</time>
      </trkpt>
      <trkpt lat="44.47786" lon="3.65013">
        <ele>1339</ele>
        <time>2017-03-03T22:15:32Z</time>
      </trkpt>
      <trkpt lat="44.47783" lon="3.65004">
        <ele>1339</ele>
        <time>2017-03-03T22:17:32Z</time>
      </trkpt>
      <trkpt lat="44.47778" lon="3.64994">
        <ele>1339</ele>
        <time>2017-03-03T22:19:32Z</time>
      </trkpt>
      <trkpt lat="44.47772" lon="3.64983">
        <ele>1338</ele>
        <time>2017-03-03T22:21:32Z</time>
      </trkpt>
      <trkpt lat="44.47771" lon="3.64975">
        <ele>1337</ele>
        <time>2017-03-03T22:23:32Z</time>
      </trkpt>
      <trkpt lat="44.47771" lon="3.64975">
        <ele>1337</ele>
        <time>2017-03-03T22:25:32Z</time>
      </trkpt>
      <trkpt lat="44.47766" lon="3.64971">
        <ele>1337</ele>
        <time>2017-03-03T22:27:32Z</time>
      </trkpt>
      <trkpt lat="44.47761" lon="3.64966">
        <ele>1336</ele>
        <time>2017-03-03T22:29:32Z</time>
      </trkpt>
      <trkpt lat="44.47756" lon="3.64962">
        <ele>1336</ele>
        <time>2017-03-03T22:31:32Z</time>
      </trkpt>
      <trkpt lat="44.47737" lon="3.64949">
        <ele>1335</ele>
        <time>2017-03-03T22:33:32Z</time>
      </trkpt>
      <trkpt lat="44.477" lon="3.64926">
        <ele>1335</ele>
        <time>2017-03-03T22:35:32Z</time>
      </trkpt>
      <trkpt lat="44.47676" lon="3.6491">
        <ele>1335</ele>
        <time>2017-03-03T22:37:32Z</time>
      </trkpt>
      <trkpt lat="44.47669" lon="3.64907">
        <ele>1335</ele>
        <time>2017-03-03T22:39:32Z</time>
      </trkpt>
      <trkpt lat="44.4766" lon="3.64907">
        <ele>1335</ele>
        <time>2017-03-03T22:41:32Z</time>
      </trkpt>
      <trkpt lat="44.47643" lon="3.64905">
        <ele>1335</ele>
        <time>2017-03-03T22:43:32Z</time>
      </trkpt>
      <trkpt lat="44.47626" lon="3.64902">
        <ele>1336</ele>
        <time>2017-03-03T22:45:32Z</time>
      </trkpt>
      <trkpt lat="44.47601" lon="3.64891">
        <ele>1335</ele>
        <time>2017-03-03T22:47:32Z</time>
      </trkpt>
      <trkpt lat="44.47583" lon="3.64881">
        <ele>1335</ele>
        <time>2017-03-03T22:49:32Z</time>
      </trkpt>
      <trkpt lat="44.47563" lon="3.6486">
        <ele>1333</ele>
        <time>2017-03-03T22:51:32Z</time>
      </trkpt>
      <trkpt lat="44.47555" lon="3.64852">
        <ele>1333</ele>
        <time>2017-03-03T22:53:32Z</time>
      </trkpt>
      <trkpt lat="44.47544" lon="3.64847">
        <ele>1333</ele>
        <time>2017-03-03T22:55:32Z</time>
      </trkpt>
      <trkpt lat="44.47524" lon="3.6484">
        <ele>1333</ele>
        <time>2017-03-03T22:57:32Z</time>
      </trkpt>
      <trkpt lat="44.47513" lon="3.64837">
        <ele>1333</ele>
        <time>2017-03-03T22:59:32Z</time>
      </trkpt>
      <trkpt lat="44.475" lon="3.64838">
        <ele>1333</ele>
        <time>2017-03-03T23:01:32Z</time>
      </trkpt>
      <trkpt lat="44.4749" lon="3.64835">
        <ele>1334</ele>
        <time>2017-03-03T23:03:32Z</time>
      </trkpt>
      <trkpt lat="44.47468" lon="3.64824">
        <ele>1335</ele>
        <time>2017-03-03T23:05:32Z</time>
      </trkpt>
      <trkpt lat="44.47454" lon="3.64819">
        <ele>1336</ele>
        <time>2017-03-03T23:07:32Z</time>
      </trkpt>
      <trkpt lat="44.47443" lon="3.64815">
        <ele>1336</ele>
        <time>2017-03-03T23:09:32Z</time>
      </trkpt>
      <trkpt lat="44.47436" lon="3.64809">
        <ele>1337</ele>
        <time>2017-03-03T23:11:32Z</time>
      </trkpt>
      <trkpt lat="44.47416" lon="3.64785">
        <ele>1339</ele>
        <time>2017-03-03T23:13:32Z</time>
      </trkpt>
      <trkpt lat="44.4741" lon="3.64778">
        <ele>1339</ele>
        <time>2017-03-03T23:15:32Z</time>
      </trkpt>
      <trkpt lat="44.47402" lon="3.64772">
        <ele>1339</ele>
        <time>2017-03-03T23:17:32Z</time>
      </trkpt>
      <trkpt lat="44.47385" lon="3.64765">
        <ele>1340</ele>
        <time>2017-03-03T23:19:32Z</time>
      </trkpt>
      <trkpt lat="44.47365" lon="3.64752">
        <ele>1341</ele>
        <time>2017-03-03T23:21:32Z</time>
      </trkpt>
      <trkpt lat="44.47353" lon="3.64743">
        <ele>1341</ele>
        <time>2017-03-03T23:23:32Z</time>
      </trkpt>
      <trkpt lat="44.47343" lon="3.6473">
        <ele>1342</ele>
        <time>2017-03-03T23:25:32Z</time>
      </trkpt>
      <trkpt lat="44.4733" lon="3.64707">
        <ele>1343</ele>
        <time>2017-03-03T23:27:32Z</time>
      </trkpt>
      <trkpt lat="44.4732" lon="3.64683">
        <ele>1343</ele>
        <time>2017-03-03T23:29:32Z</time>
      </trkpt>
      <trkpt lat="44.4731" lon="3.64663">
        <ele>1343</ele>
        <time>2017-03-03T23:31:32Z</time>
      </trkpt>
      <trkpt lat="44.47296" lon="3.64643">
        <ele>1343</ele>
        <time>2017-03-03T23:33:32Z</time>
      </trkpt>
      <trkpt lat="44.47278" lon="3.64625">
        <ele>1343</ele>
        <time>2017-03-03T23:35:32Z</time>
      </trkpt>
      <trkpt lat="44.47261" lon="3.64611">
        <ele>1343</ele>
        <time>2017-03-03T23:37:32Z</time>
      </trkpt>
      <trkpt lat="44.4725" lon="3.64604">
        <ele>1343</ele>
        <time>2017-03-03T23:39:32Z</time>
      </trkpt>
      <trkpt lat="44.47238" lon="3.64601">
        <ele>1344</ele>
        <time>2017-03-03T23:41:32Z</time>
      </trkpt>
      <trkpt lat="44.47227" lon="3.64596">
        <ele>1344</ele>
        <time>2017-03-03T23:43:32Z</time>
      </trkpt>
      <trkpt lat="44.47219" lon="3.64588">
        <ele>1345</ele>
        <time>2017-03-03T23:45:32Z</time>
      </trkpt>
      <trkpt lat="44.47211" lon="3.64576">
        <ele>1346</ele>
        <time>2017-03-03T23:47:32Z</time>
      </trkpt>
      <trkpt lat="44.47204" lon="3.64554">
        <ele>1347</ele>
        <time>2017-03-03T23:49:32Z</time>
      </trkpt>
      <trkpt lat="44.47199" lon="3.64542">
        <ele>1347</ele>
        <time>2017-03-03T23:51:32Z</time>
      </trkpt>
      <trkpt lat="44.4719" lon="3.64524">
        <ele>1349</ele>
        <time>2017-03-03T23:53:32Z</time>
      </trkpt>
      <trkpt lat="44.47177" lon="3.64492">
        <ele>1351</ele>
        <time>2017-03-03T23:55:32Z</time>
      </trkpt>
      <trkpt lat="44.47171" lon="3.64476">
        <ele>1353</ele>
        <time>2017-03-03T23:57:32Z</time>
      </trkpt>
      <trkpt lat="44.47166" lon="3.64446">
        <ele>1355</ele>
        <time>2017-03-03T23:59:32Z</time>
      </trkpt>
      <trkpt lat="44.47156" lon="3.64414">
        <ele>1357</ele>
        <time>2017-03-04T00:01:32Z</time>
      </trkpt>
      <trkpt lat="44.47147" lon="3.64376">
        <ele>1360</ele>
        <time>2017-03-04T00:03:32Z</time>
      </trkpt>
      <trkpt lat="44.47138" lon="3.64347">
        <ele>1362</ele>
        <time>2017-03-04T00:05:32Z</time>
      </trkpt>
      <trkpt lat="44.47125" lon="3.64311">
        <ele>1366</ele>
        <time>2017-03-04T00:07:32Z</time>
      </trkpt>
      <trkpt lat="44.47119" lon="3.64298">
        <ele>1367</ele>
        <time>2017-03-04T00:09:32Z</time>
      </trkpt>
      <trkpt lat="44.47113" lon="3.64293">
        <ele>1368</ele>
        <time>2017-03-04T00:11:32Z</time>
      </trkpt>
      <trkpt lat="44.47107" lon="3.64289">
        <ele>1369</ele>
        <time>2017-03-04T00:13:32Z</time>
      </trkpt>
      <trkpt lat="44.4709" lon="3.64284">
        <ele>1371</ele>
        <time>2017-03-04T00:15:32Z</time>
      </trkpt>
      <trkpt lat="44.47066" lon="3.64276">
        <ele>1373</ele>
        <time>2017-03-04T00:17:32Z</time>
      </trkpt>
      <trkpt lat="44.47049" lon="3.64267">
        <ele>1374</ele>
        <time>2017-03-04T00:19:32Z</time>
      </trkpt>
      <trkpt lat="44.47023" lon="3.64252">
        <ele>1376</ele>
        <time>2017-03-04T00:21:32Z</time>
      </trkpt>
      <trkpt lat="44.4701" lon="3.64244">
        <ele>1377</ele>
        <time>2017-03-04T00:23:32Z</time>
      </trkpt>
      <trkpt lat="44.46995" lon="3.64238">
        <ele>1378</ele>
        <time>2017-03-04T00:25:32Z</time>
      </trkpt>
      <trkpt lat="44.46985" lon="3.64238">
        <ele>1378</ele>
        <time>2017-03-04T00:27:32Z</time>
      </trkpt>
      <trkpt lat="44.46978" lon="3.6424">
        <ele>1378</ele>
        <time>2017-03-04T00:29:32Z</time>
      </trkpt>
      <trkpt lat="44.46951" lon="3.64256">
        <ele>1377</ele>
        <time>2017-03-04T00:31:32Z</time>
      </trkpt>
      <trkpt lat="44.46931" lon="3.64266">
        <ele>1378</ele>
        <time>2017-03-04T00:33:32Z</time>
      </trkpt>
      <trkpt lat="44.46905" lon="3.64277">
        <ele>1378</ele>
        <time>2017-03-04T00:35:32Z</time>
      </trkpt>
      <trkpt lat="44.46872" lon="3.6429">
        <ele>1379</ele>
        <time>2017-03-04T00:37:32Z</time>
      </trkpt>
      <trkpt lat="44.46854" lon="3.64296">
        <ele>1380</ele>
        <time>2017-03-04T00:39:32Z</time>
      </trkpt>
      <trkpt lat="44.4684" lon="3.64304">
        <ele>1380</ele>
        <time>2017-03-04T00:41:32Z</time>
      </trkpt>
      <trkpt lat="44.46811" lon="3.64321">
        <ele>1382</ele>
        <time>2017-03-04T00:43:32Z</time>
      </trkpt>
      <trkpt lat="44.46789" lon="3.64334">
        <ele>1383</ele>
        <time>2017-03-04T00:45:32Z</time>
      </trkpt>
      <trkpt lat="44.4677" lon="3.64342">
        <ele>1383</ele>
        <time>2017-03-04T00:47:32Z</time>
      </trkpt>
      <trkpt lat="44.46749" lon="3.64352">
        <ele>1384</ele>
        <time>2017-03-04T00:49:32Z</time>
      </trkpt>
      <trkpt lat="44.46729" lon="3.64362">
        <ele>1382</ele>
        <time>2017-03-04T00:51:32Z</time>
      </trkpt>
      <trkpt lat="44.46713" lon="3.64371">
        <ele>1381</ele>
        <time>2017-03-04T00:53:32Z</time>
      </trkpt>
      <trkpt lat="44.46697" lon="3.64378">
        <ele>1380</ele>
        <time>2017-03-04T00:55:32Z</time>
      </trkpt>
      <trkpt lat="44.46682" lon="3.64383">
        <ele>1378</ele>
        <time>2017-03-04T00:57:32Z</time>
      </trkpt>
      <trkpt lat="44.46671" lon="3.64381">
        <ele>1377</ele>
        <time>2017-03-04T00:59:32Z</time>
      </trkpt>
      <trkpt lat="44.46654" lon="3.64376">
        <ele>1376</ele>
        <time>2017-03-04T01:01:32Z</time>
      </trkpt>
      <trkpt lat="44.46648" lon="3.64376">
        <ele>1375</ele>
        <time>2017-03-04T01:03:32Z</time>
      </trkpt>
      <trkpt lat="44.46636" lon="3.64378">
        <ele>1374</ele>
        <time>2017-03-04T01:05:32Z</time>
      </trkpt>
      <trkpt lat="44.46621" lon="3.64384">
        <ele>1372</ele>
        <time>2017-03-04T01:07:32Z</time>
      </trkpt>
      <trkpt lat="44.46613" lon="3.64385">
        <ele>1372</ele>
        <time>2017-03-04T01:09:32Z</time>
      </trkpt>
      <trkpt lat="44.46596" lon="3.64387">
        <ele>1370</ele>
        <time>2017-03-04T01:11:32Z</time>
      </trkpt>
      <trkpt lat="44.46559" lon="3.64396">
        <ele>1369</ele>
        <time>2017-03-04T01:13:32Z</time>
      </trkpt>
      <trkpt lat="44.46556" lon="3.64398">
        <ele>1370</ele>
        <time>2017-03-04T01:15:32Z</time>
      </trkpt>
      <trkpt lat="44.46539" lon="3.64406">
        <ele>1370</ele>
        <time>2017-03-04T01:17:32Z</time>
      </trkpt>
      <trkpt lat="44.46515" lon="3.6441">
        <ele>1371</ele>
        <time>2017-03-04T01:19:32Z</time>
      </trkpt>
      <trkpt lat="44.46502" lon="3.64407">
        <ele>1372</ele>
        <time>2017-03-04T01:21:32Z</time>
      </trkpt>
      <trkpt lat="44.46461" lon="3.64395">
        <ele>1376</ele>
        <time>2017-03-04T01:23:32Z</time>
      </trkpt>
      <trkpt lat="44.46443" lon="3.64388">
        <ele>1377</ele>
        <time>2017-03-04T01:25:32Z</time>
      </trkpt>
      <trkpt lat="44.46435" lon="3.64383">
        <ele>1377</ele>
        <time>2017-03-04T01:27:32Z</time>
      </trkpt>
      <trkpt lat="44.46426" lon="3.64377">
        <ele>1377</ele>
        <time>2017-03-04T01:29:32Z</time>
      </trkpt>
      <trkpt lat="44.46418" lon="3.64376">
        <ele>1378</ele>
        <time>2017-03-04T01:31:32Z</time>
      </trkpt>
      <trkpt lat="44.4641" lon="3.64373">
        <ele>1378</ele>
        <time>2017-03-04T01:33:32Z</time>
      </trkpt>
      <trkpt lat="44.46384" lon="3.64362">
        <ele>1380</ele>
        <time>2017-03-04T01:35:32Z</time>
      </trkpt>
      <trkpt lat="44.46355" lon="3.64346">
        <ele>1382</ele>
        <time>2017-03-04T01:37:32Z</time>
      </trkpt>
      <trkpt lat="44.46332" lon="3.64334">
        <ele>1384</ele>
        <time>2017-03-04T01:39:32Z</time>
      </trkpt>
      <trkpt lat="44.46322" lon="3.64326">
        <ele>1384</ele>
        <time>2017-03-04T01:41:32Z</time>
      </trkpt>
      <trkpt lat="44.46309" lon="3.64313">
        <ele>1383</ele>
        <time>2017-03-04T01:43:32Z</time>
      </trkpt>
      <trkpt lat="44.46301" lon="3.6431">
        <ele>1383</ele>
        <time>2017-03-04T01:45:32Z</time>
      </trkpt>
      <trkpt lat="44.46287" lon="3.64309">
        <ele>1384</ele>
        <time>2017-03-04T01:47:32Z</time>
      </trkpt>
      <trkpt lat="44.46276" lon="3.64306">
        <ele>1384</ele>
        <time>2017-03-04T01:49:32Z</time>
      </trkpt>
      <trkpt lat="44.46242" lon="3.6429">
        <ele>1384</ele>
        <time>2017-03-04T01:51:32Z</time>
      </trkpt>
      <trkpt lat="44.46216" lon="3.64281">
        <ele>1384</ele>
        <time>2017-03-04T01:53:32Z</time>
      </trkpt>
      <trkpt lat="44.46192" lon="3.64276">
        <ele>1385</ele>
        <time>2017-03-04T01:55:32Z</time>
      </trkpt>
      <trkpt lat="44.46166" lon="3.64269">
        <ele>1386</ele>
        <time>2017-03-04T01:57:32Z</time>
      </trkpt>
      <trkpt lat="44.46128" lon="3.64261">
        <ele>1388</ele>
        <time>2017-03-04T01:59:32Z</time>
      </trkpt>
      <trkpt lat="44.461" lon="3.64254">
        <ele>1390</ele>
        <time>2017-03-04T02:01:32Z</time>
      </trkpt>
      <trkpt lat="44.46065" lon="3.64249">
        <ele>1393</ele>
        <time>2017-03-04T02:03:32Z</time>
      </trkpt>
      <trkpt lat="44.46058" lon="3.64246">
        <ele>1394</ele>
        <time>2017-03-04T02:05:32Z</time>
      </trkpt>
      <trkpt lat="44.46045" lon="3.64235">
        <ele>1397</ele>
        <time>2017-03-04T02:07:32Z</time>
      </trkpt>
      <trkpt lat="44.46016" lon="3.64204">
        <ele>1401</ele>
        <time>2017-03-04T02:09:32Z</time>
      </trkpt>
      <trkpt lat="44.45994" lon="3.64183">
        <ele>1405</ele>
        <time>2017-03-04T02:11:32Z</time>
      </trkpt>
      <trkpt lat="44.45971" lon="3.64164">
        <ele>1408</ele>
        <time>2017-03-04T02:13:32Z</time>
      </trkpt>
      <trkpt lat="44.45956" lon="3.64146">
        <ele>1410</ele>
        <time>2017-03-04T02:15:32Z</time>
      </trkpt>
      <trkpt lat="44.45944" lon="3.64137">
        <ele>1411</ele>
        <time>2017-03-04T02:17:32Z</time>
      </trkpt>
      <trkpt lat="44.45935" lon="3.64126">
        <ele>1412</ele>
        <time>2017-03-04T02:19:32Z</time>
      </trkpt>
      <trkpt lat="44.45927" lon="3.64118">
        <ele>1412</ele>
        <time>2017-03-04T02:21:32Z</time>
      </trkpt>
      <trkpt lat="44.45887" lon="3.64077">
        <ele>1414</ele>
        <time>2017-03-04T02:23:32Z</time>
      </trkpt>
      <trkpt lat="44.4586" lon="3.6405">
        <ele>1413</ele>
        <time>2017-03-04T02:25:32Z</time>
      </trkpt>
      <trkpt lat="44.45849" lon="3.64041">
        <ele>1413</ele>
        <time>2017-03-04T02:27:32Z</time>
      </trkpt>
      <trkpt lat="44.45815" lon="3.64006">
        <ele>1414</ele>
        <time>2017-03-04T02:29:32Z</time>
      </trkpt>
      <trkpt lat="44.45781" lon="3.63971">
        <ele>1417</ele>
        <time>2017-03-04T02:31:32Z</time>
      </trkpt>
      <trkpt lat="44.45769" lon="3.63953">
        <ele>1418</ele>
        <time>2017-03-04T02:33:32Z</time>
      </trkpt>
      <trkpt lat="44.45746" lon="3.63909">
        <ele>1420</ele>
        <time>2017-03-04T02:35:32Z</time>
      </trkpt>
      <trkpt lat="44.45732" lon="3.63892">
        <ele>1422</ele>
        <time>2017-03-04T02:37:32Z</time>
      </trkpt>
      <trkpt lat="44.45728" lon="3.63886">
        <ele>1422</ele>
        <time>2017-03-04T02:39:32Z</time>
      </trkpt>
      <trkpt lat="44.45697" lon="3.63834">
        <ele>1424</ele>
        <time>2017-03-04T02:41:32Z</time>
      </trkpt>
      <trkpt lat="44.45691" lon="3.63824">
        <ele>1425</ele>
        <time>2017-03-04T02:43:32Z</time>
      </trkpt>
      <trkpt lat="44.45661" lon="3.63778">
        <ele>1426</ele>
        <time>2017-03-04T02:45:32Z</time>
      </trkpt>
      <trkpt lat="44.45608" lon="3.63698">
        <ele>1430</ele>
        <time>2017-03-04T02:47:32Z</time>
      </trkpt>
      <trkpt lat="44.45551" lon="3.63608">
        <ele>1433</ele>
        <time>2017-03-04T02:49:32Z</time>
      </trkpt>
      <trkpt lat="44.45512" lon="3.63544">
        <ele>1436</ele>
        <time>2017-03-04T02:51:32Z</time>
      </trkpt>
      <trkpt lat="44.45479" lon="3.63482">
        <ele>1437</ele>
        <time>2017-03-04T02:53:32Z</time>
      </trkpt>
      <trkpt lat="44.45443" lon="3.63407">
        <ele>1439</ele>
        <time>2017-03-04T02:55:32Z</time>
      </trkpt>
      <trkpt lat="44.45435" lon="3.63392">
        <ele>1439</ele>
        <time>2017-03-04T02:57:32Z</time>
      </trkpt>
      <trkpt lat="44.45416" lon="3.63348">
        <ele>1440</ele>
        <time>2017-03-04T02:59:32Z</time>
      </trkpt>
      <trkpt lat="44.45413" lon="3.63341">
        <ele>1440</ele>
        <time>2017-03-04T03:01:32Z</time>
      </trkpt>
      <trkpt lat="44.45413" lon="3.63341">
        <ele>1440</ele>
        <time>2017-03-04T03:03:32Z</time>
      </trkpt>
      <trkpt lat="44.45409" lon="3.63347">
        <ele>1440</ele>
        <time>2017-03-04T03:05:32Z</time>
      </trkpt>
      <trkpt lat="44.45402" lon="3.63357">
        <ele>1440</ele>
        <time>2017-03-04T03:07:32Z</time>
      </trkpt>
      <trkpt lat="44.45402" lon="3.63357">
        <ele>1440</ele>
        <time>2017-03-04T03:09:32Z</time>
      </trkpt>
      <trkpt lat="44.4537" lon="3.63321">
        <ele>1439</ele>
        <time>2017-03-04T03:11:32Z</time>
      </trkpt>
      <trkpt lat="44.45339" lon="3.63281">
        <ele>1439</ele>
        <time>2017-03-04T03:13:32Z</time>
      </trkpt>
      <trkpt lat="44.45298" lon="3.63235">
        <ele>1436</ele>
        <time>2017-03-04T03:15:32Z</time>
      </trkpt>
      <trkpt lat="44.45262" lon="3.63202">
        <ele>1433</ele>
        <time>2017-03-04T03:17:32Z</time>
      </trkpt>
      <trkpt lat="44.45208" lon="3.63151">
        <ele>1425</ele>
        <time>2017-03-04T03:19:32Z</time>
      </trkpt>
      <trkpt lat="44.45155" lon="3.63092">
        <ele>1420</ele>
        <time>2017-03-04T03:21:32Z</time>
      </trkpt>
      <trkpt lat="44.45109" lon="3.63041">
        <ele>1415</ele>
        <time>2017-03-04T03:23:32Z</time>
      </trkpt>
      <trkpt lat="44.45108" lon="3.63039">
        <ele>1415</ele>
        <time>2017-03-04T03:25:32Z</time>
      </trkpt>
      <trkpt lat="44.45058" lon="3.62983">
        <ele>1414</ele>
        <time>2017-03-04T03:27:32Z</time>
      </trkpt>
      <trkpt lat="44.45037" lon="3.62969">
        <ele>1415</ele>
        <time>2017-03-04T03:29:32Z</time>
      </trkpt>
      <trkpt lat="44.45029" lon="3.62963">
        <ele>1415</ele>
        <time>2017-03-04T03:31:32Z</time>
      </trkpt>
      <trkpt lat="44.44982" lon="3.62941">
        <ele>1417</ele>
        <time>2017-03-04T03:33:32Z</time>
      </trkpt>
      <trkpt lat="44.4494" lon="3.62924">
        <ele>1420</ele>
        <time>2017-03-04T03:35:32Z</time>
      </trkpt>
      <trkpt lat="44.44902" lon="3.62914">
        <ele>1421</ele>
        <time>2017-03-04T03:37:32Z</time>
      </trkpt>
      <trkpt lat="44.44871" lon="3.62907">
        <ele>1421</ele>
        <time>2017-03-04T03:39:32Z</time>
      </trkpt>
      <trkpt lat="44.44859" lon="3.62907">
        <ele>1421</ele>
        <time>2017-03-04T03:41:32Z</time>
      </trkpt>
      <trkpt lat="44.44854" lon="3.62908">
        <ele>1420</ele>
        <time>2017-03-04T03:43:32Z</time>
      </trkpt>
      <trkpt lat="44.44826" lon="3.62893">
        <ele>1422</ele>
        <time>2017-03-04T03:45:32Z</time>
      </trkpt>
      <trkpt lat="44.44813" lon="3.62886">
        <ele>1422</ele>
        <time>2017-03-04T03:47:32Z</time>
      </trkpt>
      <trkpt lat="44.44759" lon="3.62848">
        <ele>1424</ele>
        <time>2017-03-04T03:49:32Z</time>
      </trkpt>
      <trkpt lat="44.44757" lon="3.62842">
        <ele>1424</ele>
        <time>2017-03-04T03:51:32Z</time>
      </trkpt>
      <trkpt lat="44.44757" lon="3.62833">
        <ele>1424</ele>
        <time>2017-03-04T03:53:32Z</time>
      </trkpt>
      <trkpt lat="44.4476" lon="3.62825">
        <ele>1424</ele>
        <time>2017-03-04T03:55:32Z</time>
      </trkpt>
      <trkpt lat="44.44761" lon="3.62816">
        <ele>1424</ele>
        <time>2017-03-04T03:57:32Z</time>
      </trkpt>
      <trkpt lat="44.44761" lon="3.62806">
        <ele>1424</ele>
        <time>2017-03-04T03:59:32Z</time>
      </trkpt>
      <trkpt lat="44.44762" lon="3.62779">
        <ele>1423</ele>
        <time>2017-03-04T04:01:32Z</time>
      </trkpt>
      <trkpt lat="44.44762" lon="3.6277">
        <ele>1423</ele>
        <time>2017-03-04T04:03:32Z</time>
      </trkpt>
      <trkpt lat="44.44762" lon="3.62766">
        <ele>1422</ele>
        <time>2017-03-04T04:05:32Z</time>
      </trkpt>
      <trkpt lat="44.44762" lon="3.62766">
        <ele>1422</ele>
        <time>2017-03-04T04:07:32Z</time>
      </trkpt>
      <trkpt lat="44.44756" lon="3.62759">
        <ele>1422</ele>
        <time>2017-03-04T04:09:32Z</time>
      </trkpt>
      <trkpt lat="44.44732" lon="3.6274">
        <ele>1420</ele>
        <time>2017-03-04T04:11:32Z</time>
      </trkpt>
      <trkpt lat="44.4471" lon="3.62715">
        <ele>1417</ele>
        <time>2017-03-04T04:13:32Z</time>
      </trkpt>
      <trkpt lat="44.44692" lon="3.62696">
        <ele>1415</ele>
        <time>2017-03-04T04:15:32Z</time>
      </trkpt>
      <trkpt lat="44.44683" lon="3.62685">
        <ele>1414</ele>
        <time>2017-03-04T04:17:32Z</time>
      </trkpt>
      <trkpt lat="44.4465" lon="3.62636">
        <ele>1409</ele>
        <time>2017-03-04T04:19:32Z</time>
      </trkpt>
      <trkpt lat="44.44623" lon="3.62601">
        <ele>1407</ele>
        <time>2017-03-04T04:21:32Z</time>
      </trkpt>
      <trkpt lat="44.44599" lon="3.62569">
        <ele>1407</ele>
        <time>2017-03-04T04:23:32Z</time>
      </trkpt>
      <trkpt lat="44.44589" lon="3.62552">
        <ele>1408</ele>
        <time>2017-03-04T04:25:32Z</time>
      </trkpt>
      <trkpt lat="44.44569" lon="3.62514">
        <ele>1410</ele>
        <time>2017-03-04T04:27:32Z</time>
      </trkpt>
      <trkpt lat="44.44559" lon="3.62488">
        <ele>1411</ele>
        <time>2017-03-04T04:29:32Z</time>
      </trkpt>
      <trkpt lat="44.44537" lon="3.62422">
        <ele>1415</ele>
        <time>2017-03-04T04:31:32Z</time>
      </trkpt>
      <trkpt lat="44.4453" lon="3.62407">
        <ele>1416</ele>
        <time>2017-03-04T04:33:32Z</time>
      </trkpt>
      <trkpt lat="44.44526" lon="3.62396">
        <ele>1416</ele>
        <time>2017-03-04T04:35:32Z</time>
      </trkpt>
      <trkpt lat="44.44522" lon="3.62377">
        <ele>1416</ele>
        <time>2017-03-04T04:37:32Z</time>
      </trkpt>
      <trkpt lat="44.44518" lon="3.62353">
        <ele>1415</ele>
        <time>2017-03-04T04:39:32Z</time>
      </trkpt>
      <trkpt lat="44.44516" lon="3.6234">
        <ele>1415</ele>
        <time>2017-03-04T04:41:32Z</time>
      </trkpt>
      <trkpt lat="44.44512" lon="3.62331">
        <ele>1415</ele>
        <time>2017-03-04T04:43:32Z</time>
      </trkpt>
      <trkpt lat="44.44497" lon="3.62308">
        <ele>1415</ele>
        <time>2017-03-04T04:45:32Z</time>
      </trkpt>
      <trkpt lat="44.44482" lon="3.62286">
        <ele>1416</ele>
        <time>2017-03-04T04:47:32Z</time>
      </trkpt>
      <trkpt lat="44.44457" lon="3.62241">
        <ele>1417</ele>
        <time>2017-03-04T04:49:32Z</time>
      </trkpt>
      <trkpt lat="44.44437" lon="3.62213">
        <ele>1417</ele>
        <time>2017-03-04T04:51:32Z</time>
      </trkpt>
      <trkpt lat="44.44416" lon="3.62182">
        <ele>1417</ele>
        <time>2017-03-04T04:53:32Z</time>
      </trkpt>
      <trkpt lat="44.44398" lon="3.62154">
        <ele>1416</ele>
        <time>2017-03-04T04:55:32Z</time>
      </trkpt>
      <trkpt lat="44.44366" lon="3.62122">
        <ele>1416</ele>
        <time>2017-03-04T04:57:32Z</time>
      </trkpt>
      <trkpt lat="44.44327" lon="3.6208">
        <ele>1415</ele>
        <time>2017-03-04T04:59:32Z</time>
      </trkpt>
      <trkpt lat="44.44293" lon="3.62045">
        <ele>1414</ele>
        <time>2017-03-04T05:01:32Z</time>
      </trkpt>
      <trkpt lat="44.44288" lon="3.62036">
        <ele>1414</ele>
        <time>2017-03-04T05:03:32Z</time>
      </trkpt>
      <trkpt lat="44.44285" lon="3.62031">
        <ele>1413</ele>
        <time>2017-03-04T05:05:32Z</time>
      </trkpt>
      <trkpt lat="44.44276" lon="3.62016">
        <ele>1413</ele>
        <time>2017-03-04T05:07:32Z</time>
      </trkpt>
      <trkpt lat="44.44269" lon="3.62006">
        <ele>1412</ele>
        <time>2017-03-04T05:09:32Z</time>
      </trkpt>
      <trkpt lat="44.44268" lon="3.62">
        <ele>1412</ele>
        <time>2017-03-04T05:11:32Z</time>
      </trkpt>
      <trkpt lat="44.44269" lon="3.61989">
        <ele>1411</ele>
        <time>2017-03-04T05:13:32Z</time>
      </trkpt>
      <trkpt lat="44.4427" lon="3.61972">
        <ele>1411</ele>
        <time>2017-03-04T05:15:32Z</time>
      </trkpt>
      <trkpt lat="44.4427" lon="3.61965">
        <ele>1411</ele>
        <time>2017-03-04T05:17:32Z</time>
      </trkpt>
      <trkpt lat="44.44268" lon="3.61958">
        <ele>1411</ele>
        <time>2017-03-04T05:19:32Z</time>
      </trkpt>
      <trkpt lat="44.44261" lon="3.61939">
        <ele>1410</ele>
        <time>2017-03-04T05:21:32Z</time>
      </trkpt>
      <trkpt lat="44.44232" lon="3.61898">
        <ele>1407</ele>
        <time>2017-03-04T05:23:32Z</time>
      </trkpt>
      <trkpt lat="44.44226" lon="3.61886">
        <ele>1406</ele>
        <time>2017-03-04T05:25:32Z</time>
      </trkpt>
      <trkpt lat="44.44218" lon="3.61877">
        <ele>1405</ele>
        <time>2017-03-04T05:27:32Z</time>
      </trkpt>
      <trkpt lat="44.44211" lon="3.61866">
        <ele>1403</ele>
        <time>2017-03-04T05:29:32Z</time>
      </trkpt>
      <trkpt lat="44.44198" lon="3.61833">
        <ele>1401</ele>
        <time>2017-03-04T05:31:32Z</time>
      </trkpt>
      <trkpt lat="44.4419" lon="3.61812">
        <ele>1399</ele>
        <time>2017-03-04T05:33:32Z</time>
      </trkpt>
      <trkpt lat="44.44177" lon="3.61792">
        <ele>1397</ele>
        <time>2017-03-04T05:35:32Z</time>
      </trkpt>
      <trkpt lat="44.44172" lon="3.6178">
        <ele>1396</ele>
        <time>2017-03-04T05:37:32Z</time>
      </trkpt>
      <trkpt lat="44.44169" lon="3.61761">
        <ele>1395</ele>
        <time>2017-03-04T05:39:32Z</time>
      </trkpt>
      <trkpt lat="44.44164" lon="3.61749">
        <ele>1394</ele>
        <time>2017-03-04T05:41:32Z</time>
      </trkpt>
      <trkpt lat="44.44156" lon="3.61734">
        <ele>1393</ele>
        <time>2017-03-04T05:43:32Z</time>
      </trkpt>
      <trkpt lat="44.44149" lon="3.61726">
        <ele>1392</ele>
        <time>2017-03-04T05:45:32Z</time>
      </trkpt>
      <trkpt lat="44.44142" lon="3.61712">
        <ele>1392</ele>
        <time>2017-03-04T05:47:32Z</time>
      </trkpt>
      <trkpt lat="44.44137" lon="3.617">
        <ele>1391</ele>
        <time>2017-03-04T05:49:32Z</time>
      </trkpt>
      <trkpt lat="44.44135" lon="3.61691">
        <ele>1391</ele>
        <time>2017-03-04T05:51:32Z</time>
      </trkpt>
      <trkpt lat="44.4413" lon="3.61674">
        <ele>1390</ele>
        <time>2017-03-04T05:53:32Z</time>
      </trkpt>
      <trkpt lat="44.44121" lon="3.61651">
        <ele>1389</ele>
        <time>2017-03-04T05:55:32Z</time>
      </trkpt>
      <trkpt lat="44.44094" lon="3.61599">
        <ele>1388</ele>
        <time>2017-03-04T05:57:32Z</time>
      </trkpt>
      <trkpt lat="44.44092" lon="3.61597">
        <ele>1388</ele>
        <time>2017-03-04T05:59:32Z</time>
      </trkpt>
      <trkpt lat="44.44091" lon="3.61595">
        <ele>1388</ele>
        <time>2017-03-04T06:01:32Z</time>
      </trkpt>
      <trkpt lat="44.44088" lon="3.61589">
        <ele>1388</ele>
        <time>2017-03-04T06:03:32Z</time>
      </trkpt>
      <trkpt lat="44.44084" lon="3.61585">
        <ele>1388</ele>
        <time>2017-03-04T06:05:32Z</time>
      </trkpt>
      <trkpt lat="44.44079" lon="3.61577">
        <ele>1388</ele>
        <time>2017-03-04T06:07:32Z</time>
      </trkpt>
      <trkpt lat="44.44068" lon="3.6156">
        <ele>1388</ele>
        <time>2017-03-04T06:09:32Z</time>
      </trkpt>
      <trkpt lat="44.44065" lon="3.6155">
        <ele>1387</ele>
        <time>2017-03-04T06:11:32Z</time>
      </trkpt>
      <trkpt lat="44.44059" lon="3.61526">
        <ele>1387</ele>
        <time>2017-03-04T06:13:32Z</time>
      </trkpt>
      <trkpt lat="44.44055" lon="3.6152">
        <ele>1387</ele>
        <time>2017-03-04T06:15:32Z</time>
      </trkpt>
      <trkpt lat="44.44042" lon="3.61503">
        <ele>1387</ele>
        <time>2017-03-04T06:17:32Z</time>
      </trkpt>
      <trkpt lat="44.44033" lon="3.61488">
        <ele>1386</ele>
        <time>2017-03-04T06:19:32Z</time>
      </trkpt>
      <trkpt lat="44.44031" lon="3.61482">
        <ele>1386</ele>
        <time>2017-03-04T06:21:32Z</time>
      </trkpt>
      <trkpt lat="44.44024" lon="3.61468">
        <ele>1385</ele>
        <time>2017-03-04T06:23:32Z</time>
      </trkpt>
      <trkpt lat="44.44017" lon="3.61453">
        <ele>1385</ele>
        <time>2017-03-04T06:25:32Z</time>
      </trkpt>
      <trkpt lat="44.44013" lon="3.61444">
        <ele>1385</ele>
        <time>2017-03-04T06:27:32Z</time>
      </trkpt>
      <trkpt lat="44.44002" lon="3.61424">
        <ele>1384</ele>
        <time>2017-03-04T06:29:32Z</time>
      </trkpt>
      <trkpt lat="44.43997" lon="3.61412">
        <ele>1384</ele>
        <time>2017-03-04T06:31:32Z</time>
      </trkpt>
      <trkpt lat="44.43994" lon="3.61401">
        <ele>1383</ele>
        <time>2017-03-04T06:33:32Z</time>
      </trkpt>
      <trkpt lat="44.43989" lon="3.61393">
        <ele>1382</ele>
        <time>2017-03-04T06:35:32Z</time>
      </trkpt>
      <trkpt lat="44.43983" lon="3.61387">
        <ele>1382</ele>
        <time>2017-03-04T06:37:32Z</time>
      </trkpt>
      <trkpt lat="44.43976" lon="3.61381">
        <ele>1381</ele>
        <time>2017-03-04T06:39:32Z</time>
      </trkpt>
      <trkpt lat="44.4397" lon="3.61376">
        <ele>1380</ele>
        <time>2017-03-04T06:41:32Z</time>
      </trkpt>
      <trkpt lat="44.43963" lon="3.61367">
        <ele>1379</ele>
        <time>2017-03-04T06:43:32Z</time>
      </trkpt>
      <trkpt lat="44.43956" lon="3.61363">
        <ele>1379</ele>
        <time>2017-03-04T06:45:32Z</time>
      </trkpt>
      <trkpt lat="44.43951" lon="3.61359">
        <ele>1378</ele>
        <time>2017-03-04T06:47:32Z</time>
      </trkpt>
      <trkpt lat="44.43944" lon="3.6135">
        <ele>1377</ele>
        <time>2017-03-04T06:49:32Z</time>
      </trkpt>
      <trkpt lat="44.43938" lon="3.61344">
        <ele>1377</ele>
        <time>2017-03-04T06:51:32Z</time>
      </trkpt>
      <trkpt lat="44.43929" lon="3.61335">
        <ele>1376</ele>
        <time>2017-03-04T06:53:32Z</time>
      </trkpt>
      <trkpt lat="44.43921" lon="3.61326">
        <ele>1375</ele>
        <time>2017-03-04T06:55:32Z</time>
      </trkpt>
      <trkpt lat="44.43916" lon="3.61315">
        <ele>1374</ele>
        <time>2017-03-04T06:57:32Z</time>
      </trkpt>
      <trkpt lat="44.43907" lon="3.61302">
        <ele>1373</ele>
        <time>2017-03-04T06:59:32Z</time>
      </trkpt>
      <trkpt lat="44.43903" lon="3.61298">
        <ele>1372</ele>
        <time>2017-03-04T07:01:32Z</time>
      </trkpt>
      <trkpt lat="44.43894" lon="3.61295">
        <ele>1372</ele>
        <time>2017-03-04T07:03:32Z</time>
      </trkpt>
      <trkpt lat="44.43883" lon="3.61293">
        <ele>1371</ele>
        <time>2017-03-04T07:05:32Z</time>
      </trkpt>
      <trkpt lat="44.43879" lon="3.61292">
        <ele>1370</ele>
        <time>2017-03-04T07:07:32Z</time>
      </trkpt>
      <trkpt lat="44.43874" lon="3.61286">
        <ele>1370</ele>
        <time>2017-03-04T07:09:32Z</time>
      </trkpt>
      <trkpt lat="44.43874" lon="3.61279">
        <ele>1369</ele>
        <time>2017-03-04T07:11:32Z</time>
      </trkpt>
      <trkpt lat="44.43872" lon="3.61275">
        <ele>1369</ele>
        <time>2017-03-04T07:13:32Z</time>
      </trkpt>
      <trkpt lat="44.43866" lon="3.6127">
        <ele>1368</ele>
        <time>2017-03-04T07:15:32Z</time>
      </trkpt>
      <trkpt lat="44.43855" lon="3.61265">
        <ele>1367</ele>
        <time>2017-03-04T07:17:32Z</time>
      </trkpt>
      <trkpt lat="44.43846" lon="3.61257">
        <ele>1366</ele>
        <time>2017-03-04T07:19:32Z</time>
      </trkpt>
      <trkpt lat="44.43832" lon="3.61248">
        <ele>1365</ele>
        <time>2017-03-04T07:21:32Z</time>
      </trkpt>
      <trkpt lat="44.43824" lon="3.61245">
        <ele>1364</ele>
        <time>2017-03-04T07:23:32Z</time>
      </trkpt>
      <trkpt lat="44.43817" lon="3.61245">
        <ele>1363</ele>
        <time>2017-03-04T07:25:32Z</time>
      </trkpt>
      <trkpt lat="44.43803" lon="3.61238">
        <ele>1361</ele>
        <time>2017-03-04T07:27:32Z</time>
      </trkpt>
      <trkpt lat="44.43789" lon="3.61226">
        <ele>1359</ele>
        <time>2017-03-04T07:29:32Z</time>
      </trkpt>
      <trkpt lat="44.43778" lon="3.61214">
        <ele>1357</ele>
        <time>2017-03-04T07:31:32Z</time>
      </trkpt>
      <trkpt lat="44.43774" lon="3.6121">
        <ele>1357</ele>
        <time>2017-03-04T07:33:32Z</time>
      </trkpt>
      <trkpt lat="44.43768" lon="3.61205">
        <ele>1356</ele>
        <time>2017-03-04T07:35:32Z</time>
      </trkpt>
      <trkpt lat="44.43761" lon="3.61201">
        <ele>1355</ele>
        <time>2017-03-04T07:37:32Z</time>
      </trkpt>
      <trkpt lat="44.43756" lon="3.61193">
        <ele>1354</ele>
        <time>2017-03-04T07:39:32Z</time>
      </trkpt>
      <trkpt lat="44.4375" lon="3.61184">
        <ele>1353</ele>
        <time>2017-03-04T07:41:32Z</time>
      </trkpt>
      <trkpt lat="44.43744" lon="3.61178">
        <ele>1352</ele>
        <time>2017-03-04T07:43:32Z</time>
      </trkpt>
      <trkpt lat="44.43739" lon="3.61165">
        <ele>1351</ele>
        <time>2017-03-04T07:45:32Z</time>
      </trkpt>
      <trkpt lat="44.43732" lon="3.61157">
        <ele>1350</ele>
        <time>2017-03-04T07:47:32Z</time>
      </trkpt>
      <trkpt lat="44.43719" lon="3.61145">
        <ele>1348</ele>
        <time>2017-03-04T07:49:32Z</time>
      </trkpt>
      <trkpt lat="44.43709" lon="3.61133">
        <ele>1346</ele>
        <time>2017-03-04T07:51:32Z</time>
      </trkpt>
      <trkpt lat="44.437" lon="3.61114">
        <ele>1344</ele>
        <time>2017-03-04T07:53:32Z</time>
      </trkpt>
      <trkpt lat="44.43692" lon="3.61101">
        <ele>1342</ele>
        <time>2017-03-04T07:55:32Z</time>
      </trkpt>
      <trkpt lat="44.43677" lon="3.61086">
        <ele>1340</ele>
        <time>2017-03-04T07:57:32Z</time>
      </trkpt>
      <trkpt lat="44.43667" lon="3.61074">
        <ele>1339</ele>
        <time>2017-03-04T07:59:32Z</time>
      </trkpt>
      <trkpt lat="44.4366" lon="3.61065">
        <ele>1337</ele>
        <time>2017-03-04T08:01:32Z</time>
      </trkpt>
      <trkpt lat="44.43654" lon="3.61063">
        <ele>1337</ele>
        <time>2017-03-04T08:03:32Z</time>
      </trkpt>
      <trkpt lat="44.43649" lon="3.6106">
        <ele>1336</ele>
        <time>2017-03-04T08:05:32Z</time>
      </trkpt>
      <trkpt lat="44.43638" lon="3.61055">
        <ele>1335</ele>
        <time>2017-03-04T08:07:32Z</time>
      </trkpt>
      <trkpt lat="44.43636" lon="3.61052">
        <ele>1334</ele>
        <time>2017-03-04T08:09:32Z</time>
      </trkpt>
      <trkpt lat="44.43629" lon="3.61041">
        <ele>1333</ele>
        <time>2017-03-04T08:11:32Z</time>
      </trkpt>
      <trkpt lat="44.43623" lon="3.61033">
        <ele>1333</ele>
        <time>2017-03-04T08:13:32Z</time>
      </trkpt>
      <trkpt lat="44.43611" lon="3.6102">
        <ele>1331</ele>
        <time>2017-03-04T08:15:32Z</time>
      </trkpt>
      <trkpt lat="44.43596" lon="3.61004">
        <ele>1329</ele>
        <time>2017-03-04T08:17:32Z</time>
      </trkpt>
      <trkpt lat="44.43582" lon="3.60988">
        <ele>1327</ele>
        <time>2017-03-04T08:19:32Z</time>
      </trkpt>
      <trkpt lat="44.43573" lon="3.60982">
        <ele>1326</ele>
        <time>2017-03-04T08:21:32Z</time>
      </trkpt>
      <trkpt lat="44.43562" lon="3.60972">
        <ele>1324</ele>
        <time>2017-03-04T08:23:32Z</time>
      </trkpt>
      <trkpt lat="44.43558" lon="3.60966">
        <ele>1323</ele>
        <time>2017-03-04T08:25:32Z</time>
      </trkpt>
      <trkpt lat="44.43554" lon="3.60961">
        <ele>1322</ele>
        <time>2017-03-04T08:27:32Z</time>
      </trkpt>
      <trkpt lat="44.43545" lon="3.60959">
        <ele>1321</ele>
        <time>2017-03-04T08:29:32Z</time>
      </trkpt>
      <trkpt lat="44.43536" lon="3.60952">
        <ele>1320</ele>
        <time>2017-03-04T08:31:32Z</time>
      </trkpt>
      <trkpt lat="44.43526" lon="3.60946">
        <ele>1318</ele>
        <time>2017-03-04T08:33:32Z</time>
      </trkpt>
      <trkpt lat="44.43522" lon="3.60943">
        <ele>1318</ele>
        <time>2017-03-04T08:35:32Z</time>
      </trkpt>
      <trkpt lat="44.43515" lon="3.60932">
        <ele>1316</ele>
        <time>2017-03-04T08:37:32Z</time>
      </trkpt>
      <trkpt lat="44.43506" lon="3.60928">
        <ele>1315</ele>
        <time>2017-03-04T08:39:32Z</time>
      </trkpt>
      <trkpt lat="44.435" lon="3.60922">
        <ele>1314</ele>
        <time>2017-03-04T08:41:32Z</time>
      </trkpt>
      <trkpt lat="44.43495" lon="3.6092">
        <ele>1314</ele>
        <time>2017-03-04T08:43:32Z</time>
      </trkpt>
      <trkpt lat="44.43482" lon="3.60917">
        <ele>1312</ele>
        <time>2017-03-04T08:45:32Z</time>
      </trkpt>
      <trkpt lat="44.43472" lon="3.6091">
        <ele>1311</ele>
        <time>2017-03-04T08:47:32Z</time>
      </trkpt>
      <trkpt lat="44.43459" lon="3.60908">
        <ele>1309</ele>
        <time>2017-03-04T08:49:32Z</time>
      </trkpt>
      <trkpt lat="44.43451" lon="3.6091">
        <ele>1309</ele>
        <time>2017-03-04T08:51:32Z</time>
      </trkpt>
      <trkpt lat="44.43446" lon="3.60909">
        <ele>1308</ele>
        <time>2017-03-04T08:53:32Z</time>
      </trkpt>
      <trkpt lat="44.43441" lon="3.60909">
        <ele>1307</ele>
        <time>2017-03-04T08:55:32Z</time>
      </trkpt>
      <trkpt lat="44.43433" lon="3.60905">
        <ele>1306</ele>
        <time>2017-03-04T08:57:32Z</time>
      </trkpt>
      <trkpt lat="44.43426" lon="3.60906">
        <ele>1306</ele>
        <time>2017-03-04T08:59:32Z</time>
      </trkpt>
      <trkpt lat="44.4342" lon="3.60906">
        <ele>1305</ele>
        <time>2017-03-04T09:01:32Z</time>
      </trkpt>
      <trkpt lat="44.43413" lon="3.60904">
        <ele>1304</ele>
        <time>2017-03-04T09:03:32Z</time>
      </trkpt>
      <trkpt lat="44.4341" lon="3.60904">
        <ele>1304</ele>
        <time>2017-03-04T09:05:32Z</time>
      </trkpt>
      <trkpt lat="44.43405" lon="3.60905">
        <ele>1303</ele>
        <time>2017-03-04T09:07:32Z</time>
      </trkpt>
      <trkpt lat="44.43399" lon="3.60906">
        <ele>1303</ele>
        <time>2017-03-04T09:09:32Z</time>
      </trkpt>
      <trkpt lat="44.43395" lon="3.60907">
        <ele>1302</ele>
        <time>2017-03-04T09:11:32Z</time>
      </trkpt>
      <trkpt lat="44.4339" lon="3.60909">
        <ele>1302</ele>
        <time>2017-03-04T09:13:32Z</time>
      </trkpt>
      <trkpt lat="44.43386" lon="3.60912">
        <ele>1301</ele>
        <time>2017-03-04T09:15:32Z</time>
      </trkpt>
      <trkpt lat="44.43383" lon="3.60912">
        <ele>1301</ele>
        <time>2017-03-04T09:17:32Z</time>
      </trkpt>
      <trkpt lat="44.4338" lon="3.60911">
        <ele>1300</ele>
        <time>2017-03-04T09:19:32Z</time>
      </trkpt>
      <trkpt lat="44.43377" lon="3.60911">
        <ele>1300</ele>
        <time>2017-03-04T09:21:32Z</time>
      </trkpt>
      <trkpt lat="44.43374" lon="3.60911">
        <ele>1300</ele>
        <time>2017-03-04T09:23:32Z</time>
      </trkpt>
      <trkpt lat="44.4337" lon="3.60912">
        <ele>1299</ele>
        <time>2017-03-04T09:25:32Z</time>
      </trkpt>
      <trkpt lat="44.43367" lon="3.60913">
        <ele>1299</ele>
        <time>2017-03-04T09:27:32Z</time>
      </trkpt>
      <trkpt lat="44.43357" lon="3.60908">
        <ele>1298</ele>
        <time>2017-03-04T09:29:32Z</time>
      </trkpt>
      <trkpt lat="44.43352" lon="3.60908">
        <ele>1297</ele>
        <time>2017-03-04T09:31:32Z</time>
      </trkpt>
      <trkpt lat="44.43345" lon="3.60906">
        <ele>1296</ele>
        <time>2017-03-04T09:33:32Z</time>
      </trkpt>
      <trkpt lat="44.43339" lon="3.60906">
        <ele>1295</ele>
        <time>2017-03-04T09:35:32Z</time>
      </trkpt>
      <trkpt lat="44.43326" lon="3.60906">
        <ele>1294</ele>
        <time>2017-03-04T09:37:32Z</time>
      </trkpt>
      <trkpt lat="44.4332" lon="3.60906">
        <ele>1293</ele>
        <time>2017-03-04T09:39:32Z</time>
      </trkpt>
      <trkpt lat="44.43311" lon="3.60907">
        <ele>1292</ele>
        <time>2017-03-04T09:41:32Z</time>
      </trkpt>
      <trkpt lat="44.43297" lon="3.60899">
        <ele>1290</ele>
        <time>2017-03-04T09:43:32Z</time>
      </trkpt>
      <trkpt lat="44.4329" lon="3.609">
        <ele>1290</ele>
        <time>2017-03-04T09:45:32Z</time>
      </trkpt>
      <trkpt lat="44.43283" lon="3.609">
        <ele>1289</ele>
        <time>2017-03-04T09:47:32Z</time>
      </trkpt>
      <trkpt lat="44.43269" lon="3.60894">
        <ele>1287</ele>
        <time>2017-03-04T09:49:32Z</time>
      </trkpt>
      <trkpt lat="44.43261" lon="3.60888">
        <ele>1286</ele>
        <time>2017-03-04T09:51:32Z</time>
      </trkpt>
      <trkpt lat="44.43246" lon="3.60881">
        <ele>1284</ele>
        <time>2017-03-04T09:53:32Z</time>
      </trkpt>
      <trkpt lat="44.43234" lon="3.6087">
        <ele>1282</ele>
        <time>2017-03-04T09:55:32Z</time>
      </trkpt>
      <trkpt lat="44.43219" lon="3.60857">
        <ele>1280</ele>
        <time>2017-03-04T09:57:32Z</time>
      </trkpt>
      <trkpt lat="44.43208" lon="3.60847">
        <ele>1279</ele>
        <time>2017-03-04T09:59:32Z</time>
      </trkpt>
      <trkpt lat="44.43206" lon="3.60846">
        <ele>1279</ele>
        <time>2017-03-04T10:01:32Z</time>
      </trkpt>
      <trkpt lat="44.432" lon="3.60839">
        <ele>1278</ele>
        <time>2017-03-04T10:03:32Z</time>
      </trkpt>
      <trkpt lat="44.43195" lon="3.60835">
        <ele>1277</ele>
        <time>2017-03-04T10:05:32Z</time>
      </trkpt>
      <trkpt lat="44.43187" lon="3.60826">
        <ele>1277</ele>
        <time>2017-03-04T10:07:32Z</time>
      </trkpt>
      <trkpt lat="44.43175" lon="3.60818">
        <ele>1275</ele>
        <time>2017-03-04T10:09:32Z</time>
      </trkpt>
      <trkpt lat="44.43167" lon="3.60809">
        <ele>1275</ele>
        <time>2017-03-04T10:11:32Z</time>
      </trkpt>
      <trkpt lat="44.43146" lon="3.60796">
        <ele>1273</ele>
        <time>2017-03-04T10:13:32Z</time>
      </trkpt>
      <trkpt lat="44.43133" lon="3.60784">
        <ele>1272</ele>
        <time>2017-03-04T10:15:32Z</time>
      </trkpt>
      <trkpt lat="44.43122" lon="3.60775">
        <ele>1270</ele>
        <time>2017-03-04T10:17:32Z</time>
      </trkpt>
      <trkpt lat="44.43108" lon="3.6076">
        <ele>1269</ele>
        <time>2017-03-04T10:19:32Z</time>
      </trkpt>
      <trkpt lat="44.43091" lon="3.60757">
        <ele>1267</ele>
        <time>2017-03-04T10:21:32Z</time>
      </trkpt>
      <trkpt lat="44.43084" lon="3.60753">
        <ele>1266</ele>
        <time>2017-03-04T10:23:32Z</time>
      </trkpt>
      <trkpt lat="44.43077" lon="3.60743">
        <ele>1265</ele>
        <time>2017-03-04T10:25:32Z</time>
      </trkpt>
      <trkpt lat="44.43064" lon="3.60723">
        <ele>1263</ele>
        <time>2017-03-04T10:27:32Z</time>
      </trkpt>
      <trkpt lat="44.43044" lon="3.60705">
        <ele>1261</ele>
        <time>2017-03-04T10:29:32Z</time>
      </trkpt>
      <trkpt lat="44.43028" lon="3.60682">
        <ele>1259</ele>
        <time>2017-03-04T10:31:32Z</time>
      </trkpt>
      <trkpt lat="44.43009" lon="3.60656">
        <ele>1257</ele>
        <time>2017-03-04T10:33:32Z</time>
      </trkpt>
      <trkpt lat="44.43009" lon="3.60656">
        <ele>1257</ele>
        <time>2017-03-04T10:35:32Z</time>
      </trkpt>
      <trkpt lat="44.43011" lon="3.60654">
        <ele>1257</ele>
        <time>2017-03-04T10:37:32Z</time>
      </trkpt>
      <trkpt lat="44.43014" lon="3.60641">
        <ele>1257</ele>
        <time>2017-03-04T10:39:32Z</time>
      </trkpt>
      <trkpt lat="44.43023" lon="3.60609">
        <ele>1257</ele>
        <time>2017-03-04T10:41:32Z</time>
      </trkpt>
      <trkpt lat="44.43033" lon="3.60565">
        <ele>1256</ele>
        <time>2017-03-04T10:43:32Z</time>
      </trkpt>
      <trkpt lat="44.43047" lon="3.605">
        <ele>1254</ele>
        <time>2017-03-04T10:45:32Z</time>
      </trkpt>
      <trkpt lat="44.43063" lon="3.60441">
        <ele>1252</ele>
        <time>2017-03-04T10:47:32Z</time>
      </trkpt>
      <trkpt lat="44.4308" lon="3.60385">
        <ele>1249</ele>
        <time>2017-03-04T10:49:32Z</time>
      </trkpt>
      <trkpt lat="44.43087" lon="3.60354">
        <ele>1248</ele>
        <time>2017-03-04T10:51:32Z</time>
      </trkpt>
      <trkpt lat="44.43096" lon="3.60328">
        <ele>1247</ele>
        <time>2017-03-04T10:53:32Z</time>
      </trkpt>
      <trkpt lat="44.43099" lon="3.6032">
        <ele>1247</ele>
        <time>2017-03-04T10:55:32Z</time>
      </trkpt>
      <trkpt lat="44.43099" lon="3.60312">
        <ele>1247</ele>
        <time>2017-03-04T10:57:32Z</time>
      </trkpt>
      <trkpt lat="44.43099" lon="3.60297">
        <ele>1245</ele>
        <time>2017-03-04T10:59:32Z</time>
      </trkpt>
      <trkpt lat="44.43099" lon="3.60281">
        <ele>1244</ele>
        <time>2017-03-04T11:01:32Z</time>
      </trkpt>
      <trkpt lat="44.43103" lon="3.60264">
        <ele>1244</ele>
        <time>2017-03-04T11:03:32Z</time>
      </trkpt>
      <trkpt lat="44.43114" lon="3.60223">
        <ele>1242</ele>
        <time>2017-03-04T11:05:32Z</time>
      </trkpt>
      <trkpt lat="44.43132" lon="3.60163">
        <ele>1240</ele>
        <time>2017-03-04T11:07:32Z</time>
      </trkpt>
      <trkpt lat="44.43141" lon="3.60138">
        <ele>1239</ele>
        <time>2017-03-04T11:09:32Z</time>
      </trkpt>
      <trkpt lat="44.43157" lon="3.6011">
        <ele>1239</ele>
        <time>2017-03-04T11:11:32Z</time>
      </trkpt>
      <trkpt lat="44.43166" lon="3.60095">
        <ele>1239</ele>
        <time>2017-03-04T11:13:32Z</time>
      </trkpt>
      <trkpt lat="44.43176" lon="3.60087">
        <ele>1239</ele>
        <time>2017-03-04T11:15:32Z</time>
      </trkpt>
      <trkpt lat="44.43215" lon="3.60018">
        <ele>1234</ele>
        <time>2017-03-04T11:17:32Z</time>
      </trkpt>
      <trkpt lat="44.43231" lon="3.59994">
        <ele>1233</ele>
        <time>2017-03-04T11:19:32Z</time>
      </trkpt>
      <trkpt lat="44.43238" lon="3.59986">
        <ele>1232</ele>
        <time>2017-03-04T11:21:32Z</time>
      </trkpt>
      <trkpt lat="44.43248" lon="3.59974">
        <ele>1231</ele>
        <time>2017-03-04T11:23:32Z</time>
      </trkpt>
      <trkpt lat="44.43263" lon="3.5995">
        <ele>1228</ele>
        <time>2017-03-04T11:25:32Z</time>
      </trkpt>
      <trkpt lat="44.43271" lon="3.59942">
        <ele>1227</ele>
        <time>2017-03-04T11:27:32Z</time>
      </trkpt>
      <trkpt lat="44.43295" lon="3.59924">
        <ele>1225</ele>
        <time>2017-03-04T11:29:32Z</time>
      </trkpt>
      <trkpt lat="44.43302" lon="3.5992">
        <ele>1224</ele>
        <time>2017-03-04T11:31:32Z</time>
      </trkpt>
      <trkpt lat="44.43312" lon="3.59919">
        <ele>1224</ele>
        <time>2017-03-04T11:33:32Z</time>
      </trkpt>
      <trkpt lat="44.43338" lon="3.59916">
        <ele>1223</ele>
        <time>2017-03-04T11:35:32Z</time>
      </trkpt>
      <trkpt lat="44.43359" lon="3.59917">
        <ele>1221</ele>
        <time>2017-03-04T11:37:32Z</time>
      </trkpt>
      <trkpt lat="44.43376" lon="3.59922">
        <ele>1221</ele>
        <time>2017-03-04T11:39:32Z</time>
      </trkpt>
      <trkpt lat="44.43392" lon="3.59927">
        <ele>1221</ele>
        <time>2017-03-04T11:41:32Z</time>
      </trkpt>
      <trkpt lat="44.43395" lon="3.59926">
        <ele>1220</ele>
        <time>2017-03-04T11:43:32Z</time>
      </trkpt>
      <trkpt lat="44.43396" lon="3.59923">
        <ele>1220</ele>
        <time>2017-03-04T11:45:32Z</time>
      </trkpt>
      <trkpt lat="44.43396" lon="3.59923">
        <ele>1220</ele>
        <time>2017-03-04T11:47:32Z</time>
      </trkpt>
      <trkpt lat="44.43394" lon="3.59918">
        <ele>1219</ele>
        <time>2017-03-04T11:49:32Z</time>
      </trkpt>
      <trkpt lat="44.43392" lon="3.59914">
        <ele>1218</ele>
        <time>2017-03-04T11:51:32Z</time>
      </trkpt>
      <trkpt lat="44.43387" lon="3.59908">
        <ele>1218</ele>
        <time>2017-03-04T11:53:32Z</time>
      </trkpt>
      <trkpt lat="44.4338" lon="3.59899">
        <ele>1217</ele>
        <time>2017-03-04T11:55:32Z</time>
      </trkpt>
      <trkpt lat="44.43373" lon="3.59887">
        <ele>1216</ele>
        <time>2017-03-04T11:57:32Z</time>
      </trkpt>
      <trkpt lat="44.43357" lon="3.59852">
        <ele>1211</ele>
        <time>2017-03-04T11:59:32Z</time>
      </trkpt>
      <trkpt lat="44.4335" lon="3.59836">
        <ele>1209</ele>
        <time>2017-03-04T12:01:32Z</time>
      </trkpt>
      <trkpt lat="44.43343" lon="3.59827">
        <ele>1208</ele>
        <time>2017-03-04T12:03:32Z</time>
      </trkpt>
      <trkpt lat="44.43333" lon="3.59814">
        <ele>1206</ele>
        <time>2017-03-04T12:05:32Z</time>
      </trkpt>
      <trkpt lat="44.43331" lon="3.5981">
        <ele>1206</ele>
        <time>2017-03-04T12:07:32Z</time>
      </trkpt>
      <trkpt lat="44.43331" lon="3.59807">
        <ele>1205</ele>
        <time>2017-03-04T12:09:32Z</time>
      </trkpt>
      <trkpt lat="44.43334" lon="3.59802">
        <ele>1205</ele>
        <time>2017-03-04T12:11:32Z</time>
      </trkpt>
      <trkpt lat="44.43344" lon="3.59798">
        <ele>1204</ele>
        <time>2017-03-04T12:13:32Z</time>
      </trkpt>
      <trkpt lat="44.43349" lon="3.59795">
        <ele>1204</ele>
        <time>2017-03-04T12:15:32Z</time>
      </trkpt>
      <trkpt lat="44.43353" lon="3.5979">
        <ele>1204</ele>
        <time>2017-03-04T12:17:32Z</time>
      </trkpt>
      <trkpt lat="44.43356" lon="3.59783">
        <ele>1203</ele>
        <time>2017-03-04T12:19:32Z</time>
      </trkpt>
      <trkpt lat="44.43356" lon="3.59783">
        <ele>1203</ele>
        <time>2017-03-04T12:21:32Z</time>
      </trkpt>
      <trkpt lat="44.43377" lon="3.59791">
        <ele>1205</ele>
        <time>2017-03-04T12:23:32Z</time>
      </trkpt>
      <trkpt lat="44.4339" lon="3.59794">
        <ele>1205</ele>
        <time>2017-03-04T12:25:32Z</time>
      </trkpt>
      <trkpt lat="44.43395" lon="3.59794">
        <ele>1205</ele>
        <time>2017-03-04T12:27:32Z</time>
      </trkpt>
      <trkpt lat="44.434" lon="3.59792">
        <ele>1205</ele>
        <time>2017-03-04T12:29:32Z</time>
      </trkpt>
      <trkpt lat="44.43407" lon="3.59784">
        <ele>1205</ele>
        <time>2017-03-04T12:31:32Z</time>
      </trkpt>
      <trkpt lat="44.4341" lon="3.59777">
        <ele>1205</ele>
        <time>2017-03-04T12:33:32Z</time>
      </trkpt>
      <trkpt lat="44.43412" lon="3.59772">
        <ele>1205</ele>
        <time>2017-03-04T12:35:32Z</time>
      </trkpt>
      <trkpt lat="44.43414" lon="3.59768">
        <ele>1205</ele>
        <time>2017-03-04T12:37:32Z</time>
      </trkpt>
      <trkpt lat="44.43416" lon="3.59763">
        <ele>1205</ele>
        <time>2017-03-04T12:39:32Z</time>
      </trkpt>
      <trkpt lat="44.43416" lon="3.59757">
        <ele>1205</ele>
        <time>2017-03-04T12:41:32Z</time>
      </trkpt>
      <trkpt lat="44.43414" lon="3.59749">
        <ele>1205</ele>
        <time>2017-03-04T12:43:32Z</time>
      </trkpt>
      <trkpt lat="44.4341" lon="3.59741">
        <ele>1205</ele>
        <time>2017-03-04T12:45:32Z</time>
      </trkpt>
      <trkpt lat="44.43391" lon="3.59716">
        <ele>1206</ele>
        <time>2017-03-04T12:47:32Z</time>
      </trkpt>
      <trkpt lat="44.43382" lon="3.59704">
        <ele>1206</ele>
        <time>2017-03-04T12:49:32Z</time>
      </trkpt>
      <trkpt lat="44.43373" lon="3.59684">
        <ele>1206</ele>
        <time>2017-03-04T12:51:32Z</time>
      </trkpt>
      <trkpt lat="44.4337" lon="3.59674">
        <ele>1207</ele>
        <time>2017-03-04T12:53:32Z</time>
      </trkpt>
      <trkpt lat="44.4337" lon="3.59674">
        <ele>1207</ele>
        <time>2017-03-04T12:55:32Z</time>
      </trkpt>
      <trkpt lat="44.43363" lon="3.59648">
        <ele>1208</ele>
        <time>2017-03-04T12:57:32Z</time>
      </trkpt>
      <trkpt lat="44.43357" lon="3.59629">
        <ele>1208</ele>
        <time>2017-03-04T12:59:32Z</time>
      </trkpt>
      <trkpt lat="44.43348" lon="3.596">
        <ele>1209</ele>
        <time>2017-03-04T13:01:32Z</time>
      </trkpt>
      <trkpt lat="44.43339" lon="3.59575">
        <ele>1209</ele>
        <time>2017-03-04T13:03:32Z</time>
      </trkpt>
      <trkpt lat="44.43335" lon="3.59558">
        <ele>1210</ele>
        <time>2017-03-04T13:05:32Z</time>
      </trkpt>
      <trkpt lat="44.43334" lon="3.59551">
        <ele>1210</ele>
        <time>2017-03-04T13:07:32Z</time>
      </trkpt>
      <trkpt lat="44.43334" lon="3.59537">
        <ele>1211</ele>
        <time>2017-03-04T13:09:32Z</time>
      </trkpt>
      <trkpt lat="44.43334" lon="3.59533">
        <ele>1211</ele>
        <time>2017-03-04T13:11:32Z</time>
      </trkpt>
      <trkpt lat="44.43334" lon="3.59533">
        <ele>1211</ele>
        <time>2017-03-04T13:13:32Z</time>
      </trkpt>
      <trkpt lat="44.43323" lon="3.59534">
        <ele>1210</ele>
        <time>2017-03-04T13:15:32Z</time>
      </trkpt>
      <trkpt lat="44.43318" lon="3.59532">
        <ele>1209</ele>
        <time>2017-03-04T13:17:32Z</time>
      </trkpt>
      <trkpt lat="44.43314" lon="3.59532">
        <ele>1208</ele>
        <time>2017-03-04T13:19:32Z</time>
      </trkpt>
      <trkpt lat="44.43309" lon="3.59533">
        <ele>1208</ele>
        <time>2017-03-04T13:21:32Z</time>
      </trkpt>
      <trkpt lat="44.433" lon="3.59536">
        <ele>1206</ele>
        <time>2017-03-04T13:23:32Z</time>
      </trkpt>
      <trkpt lat="44.43293" lon="3.59538">
        <ele>1205</ele>
        <time>2017-03-04T13:25:32Z</time>
      </trkpt>
      <trkpt lat="44.43284" lon="3.59536">
        <ele>1204</ele>
        <time>2017-03-04T13:27:32Z</time>
      </trkpt>
      <trkpt lat="44.4328" lon="3.59535">
        <ele>1203</ele>
        <time>2017-03-04T13:29:32Z</time>
      </trkpt>
      <trkpt lat="44.4327" lon="3.5953">
        <ele>1203</ele>
        <time>2017-03-04T13:31:32Z</time>
      </trkpt>
      <trkpt lat="44.43261" lon="3.59526">
        <ele>1202</ele>
        <time>2017-03-04T13:33:32Z</time>
      </trkpt>
      <trkpt lat="44.43258" lon="3.59524">
        <ele>1201</ele>
        <time>2017-03-04T13:35:32Z</time>
      </trkpt>
      <trkpt lat="44.43252" lon="3.59519">
        <ele>1201</ele>
        <time>2017-03-04T13:37:32Z</time>
      </trkpt>
      <trkpt lat="44.4325" lon="3.59514">
        <ele>1201</ele>
        <time>2017-03-04T13:39:32Z</time>
      </trkpt>
      <trkpt lat="44.43248" lon="3.59507">
        <ele>1202</ele>
        <time>2017-03-04T13:41:32Z</time>
      </trkpt>
      <trkpt lat="44.43245" lon="3.59506">
        <ele>1202</ele>
        <time>2017-03-04T13:43:32Z</time>
      </trkpt>
      <trkpt lat="44.43241" lon="3.59505">
        <ele>1201</ele>
        <time>2017-03-04T13:45:32Z</time>
      </trkpt>
      <trkpt lat="44.43236" lon="3.59502">
        <ele>1201</ele>
        <time>2017-03-04T13:47:32Z</time>
      </trkpt>
      <trkpt lat="44.43231" lon="3.59496">
        <ele>1200</ele>
        <time>2017-03-04T13:49:32Z</time>
      </trkpt>
      <trkpt lat="44.4322" lon="3.5948">
        <ele>1199</ele>
        <time>2017-03-04T13:51:32Z</time>
      </trkpt>
      <trkpt lat="44.43216" lon="3.59473">
        <ele>1198</ele>
        <time>2017-03-04T13:53:32Z</time>
      </trkpt>
      <trkpt lat="44.43214" lon="3.59465">
        <ele>1198</ele>
        <time>2017-03-04T13:55:32Z</time>
      </trkpt>
      <trkpt lat="44.4321" lon="3.59452">
        <ele>1198</ele>
        <time>2017-03-04T13:57:32Z</time>
      </trkpt>
      <trkpt lat="44.4321" lon="3.59452">
        <ele>1198</ele>
        <time>2017-03-04T13:59:32Z</time>
      </trkpt>
      <trkpt lat="44.43209" lon="3.59448">
        <ele>1198</ele>
        <time>2017-03-04T14:01:32Z</time>
      </trkpt>
      <trkpt lat="44.43207" lon="3.59442">
        <ele>1198</ele>
        <time>2017-03-04T14:03:32Z</time>
      </trkpt>
      <trkpt lat="44.43204" lon="3.5944">
        <ele>1198</ele>
        <time>2017-03-04T14:05:32Z</time>
      </trkpt>
      <trkpt lat="44.43198" lon="3.59434">
        <ele>1197</ele>
        <time>2017-03-04T14:07:32Z</time>
      </trkpt>
      <trkpt lat="44.43189" lon="3.5943">
        <ele>1197</ele>
        <time>2017-03-04T14:09:32Z</time>
      </trkpt>
      <trkpt lat="44.43187" lon="3.59425">
        <ele>1197</ele>
        <time>2017-03-04T14:11:32Z</time>
      </trkpt>
      <trkpt lat="44.43185" lon="3.59406">
        <ele>1196</ele>
        <time>2017-03-04T14:13:32Z</time>
      </trkpt>
      <trkpt lat="44.43183" lon="3.59392">
        <ele>1195</ele>
        <time>2017-03-04T14:15:32Z</time>
      </trkpt>
      <trkpt lat="44.43181" lon="3.59376">
        <ele>1194</ele>
        <time>2017-03-04T14:17:32Z</time>
      </trkpt>
      <trkpt lat="44.4318" lon="3.59367">
        <ele>1193</ele>
        <time>2017-03-04T14:19:32Z</time>
      </trkpt>
      <trkpt lat="44.43176" lon="3.59353">
        <ele>1192</ele>
        <time>2017-03-04T14:21:32Z</time>
      </trkpt>
      <trkpt lat="44.43175" lon="3.59341">
        <ele>1191</ele>
        <time>2017-03-04T14:23:32Z</time>
      </trkpt>
      <trkpt lat="44.43176" lon="3.59339">
        <ele>1191</ele>
        <time>2017-03-04T14:25:32Z</time>
      </trkpt>
      <trkpt lat="44.43176" lon="3.59339">
        <ele>1191</ele>
        <time>2017-03-04T14:27:32Z</time>
      </trkpt>
      <trkpt lat="44.43172" lon="3.59338">
        <ele>1191</ele>
        <time>2017-03-04T14:29:32Z</time>
      </trkpt>
      <trkpt lat="44.43169" lon="3.59336">
        <ele>1190</ele>
        <time>2017-03-04T14:31:32Z</time>
      </trkpt>
      <trkpt lat="44.43165" lon="3.59333">
        <ele>1190</ele>
        <time>2017-03-04T14:33:32Z</time>
      </trkpt>
      <trkpt lat="44.43159" lon="3.59328">
        <ele>1188</ele>
        <time>2017-03-04T14:35:32Z</time>
      </trkpt>
      <trkpt lat="44.43148" lon="3.59319">
        <ele>1184</ele>
        <time>2017-03-04T14:37:32Z</time>
      </trkpt>
      <trkpt lat="44.43144" lon="3.59313">
        <ele>1182</ele>
        <time>2017-03-04T14:39:32Z</time>
      </trkpt>
      <trkpt lat="44.4314" lon="3.59305">
        <ele>1180</ele>
        <time>2017-03-04T14:41:32Z</time>
      </trkpt>
      <trkpt lat="44.43135" lon="3.59295">
        <ele>1178</ele>
        <time>2017-03-04T14:43:32Z</time>
      </trkpt>
      <trkpt lat="44.43134" lon="3.59291">
        <ele>1177</ele>
        <time>2017-03-04T14:45:32Z</time>
      </trkpt>
      <trkpt lat="44.43134" lon="3.59283">
        <ele>1176</ele>
        <time>2017-03-04T14:47:32Z</time>
      </trkpt>
      <trkpt lat="44.43135" lon="3.59268">
        <ele>1174</ele>
        <time>2017-03-04T14:49:32Z</time>
      </trkpt>
      <trkpt lat="44.43138" lon="3.59255">
        <ele>1173</ele>
        <time>2017-03-04T14:51:32Z</time>
      </trkpt>
      <trkpt lat="44.43143" lon="3.59241">
        <ele>1173</ele>
        <time>2017-03-04T14:53:32Z</time>
      </trkpt>
      <trkpt lat="44.43149" lon="3.59228">
        <ele>1173</ele>
        <time>2017-03-04T14:55:32Z</time>
      </trkpt>
      <trkpt lat="44.43151" lon="3.59221">
        <ele>1172</ele>
        <time>2017-03-04T14:57:32Z</time>
      </trkpt>
      <trkpt lat="44.43153" lon="3.59212">
        <ele>1172</ele>
        <time>2017-03-04T14:59:32Z</time>
      </trkpt>
      <trkpt lat="44.43154" lon="3.592">
        <ele>1170</ele>
        <time>2017-03-04T15:01:32Z</time>
      </trkpt>
      <trkpt lat="44.43156" lon="3.59194">
        <ele>1170</ele>
        <time>2017-03-04T15:03:32Z</time>
      </trkpt>
      <trkpt lat="44.43157" lon="3.59189">
        <ele>1170</ele>
        <time>2017-03-04T15:05:32Z</time>
      </trkpt>
      <trkpt lat="44.43159" lon="3.59184">
        <ele>1170</ele>
        <time>2017-03-04T15:07:32Z</time>
      </trkpt>
      <trkpt lat="44.4316" lon="3.59179">
        <ele>1169</ele>
        <time>2017-03-04T15:09:32Z</time>
      </trkpt>
      <trkpt lat="44.4316" lon="3.59176">
        <ele>1169</ele>
        <time>2017-03-04T15:11:32Z</time>
      </trkpt>
      <trkpt lat="44.4316" lon="3.59171">
        <ele>1168</ele>
        <time>2017-03-04T15:13:32Z</time>
      </trkpt>
      <trkpt lat="44.43159" lon="3.59167">
        <ele>1168</ele>
        <time>2017-03-04T15:15:32Z</time>
      </trkpt>
      <trkpt lat="44.43155" lon="3.59156">
        <ele>1165</ele>
        <time>2017-03-04T15:17:32Z</time>
      </trkpt>
      <trkpt lat="44.43145" lon="3.59134">
        <ele>1160</ele>
        <time>2017-03-04T15:19:32Z</time>
      </trkpt>
      <trkpt lat="44.43136" lon="3.59114">
        <ele>1155</ele>
        <time>2017-03-04T15:21:32Z</time>
      </trkpt>
      <trkpt lat="44.43134" lon="3.59105">
        <ele>1154</ele>
        <time>2017-03-04T15:23:32Z</time>
      </trkpt>
      <trkpt lat="44.43133" lon="3.59094">
        <ele>1152</ele>
        <time>2017-03-04T15:25:32Z</time>
      </trkpt>
      <trkpt lat="44.4313" lon="3.59076">
        <ele>1150</ele>
        <time>2017-03-04T15:27:32Z</time>
      </trkpt>
      <trkpt lat="44.43126" lon="3.59045">
        <ele>1148</ele>
        <time>2017-03-04T15:29:32Z</time>
      </trkpt>
      <trkpt lat="44.43126" lon="3.59029">
        <ele>1148</ele>
        <time>2017-03-04T15:31:32Z</time>
      </trkpt>
      <trkpt lat="44.43125" lon="3.59022">
        <ele>1148</ele>
        <time>2017-03-04T15:33:32Z</time>
      </trkpt>
      <trkpt lat="44.43123" lon="3.59011">
        <ele>1147</ele>
        <time>2017-03-04T15:35:32Z</time>
      </trkpt>
      <trkpt lat="44.43117" lon="3.58986">
        <ele>1144</ele>
        <time>2017-03-04T15:37:32Z</time>
      </trkpt>
      <trkpt lat="44.43113" lon="3.58965">
        <ele>1142</ele>
        <time>2017-03-04T15:39:32Z</time>
      </trkpt>
      <trkpt lat="44.43112" lon="3.58958">
        <ele>1142</ele>
        <time>2017-03-04T15:41:32Z</time>
      </trkpt>
      <trkpt lat="44.43112" lon="3.58951">
        <ele>1142</ele>
        <time>2017-03-04T15:43:32Z</time>
      </trkpt>
      <trkpt lat="44.43113" lon="3.58938">
        <ele>1142</ele>
        <time>2017-03-04T15:45:32Z</time>
      </trkpt>
      <trkpt lat="44.43116" lon="3.58917">
        <ele>1142</ele>
        <time>2017-03-04T15:47:32Z</time>
      </trkpt>
      <trkpt lat="44.43116" lon="3.58902">
        <ele>1141</ele>
        <time>2017-03-04T15:49:32Z</time>
      </trkpt>
      <trkpt lat="44.43114" lon="3.58889">
        <ele>1139</ele>
        <time>2017-03-04T15:51:32Z</time>
      </trkpt>
      <trkpt lat="44.43108" lon="3.58875">
        <ele>1136</ele>
        <time>2017-03-04T15:53:32Z</time>
      </trkpt>
      <trkpt lat="44.43098" lon="3.58858">
        <ele>1132</ele>
        <time>2017-03-04T15:55:32Z</time>
      </trkpt>
      <trkpt lat="44.43091" lon="3.58845">
        <ele>1129</ele>
        <time>2017-03-04T15:57:32Z</time>
      </trkpt>
      <trkpt lat="44.43089" lon="3.58833">
        <ele>1128</ele>
        <time>2017-03-04T15:59:32Z</time>
      </trkpt>
      <trkpt lat="44.43089" lon="3.58828">
        <ele>1127</ele>
        <time>2017-03-04T16:01:32Z</time>
      </trkpt>
      <trkpt lat="44.43088" lon="3.5882">
        <ele>1125</ele>
        <time>2017-03-04T16:03:32Z</time>
      </trkpt>
      <trkpt lat="44.43083" lon="3.58811">
        <ele>1123</ele>
        <time>2017-03-04T16:05:32Z</time>
      </trkpt>
      <trkpt lat="44.43076" lon="3.58804">
        <ele>1121</ele>
        <time>2017-03-04T16:07:32Z</time>
      </trkpt>
      <trkpt lat="44.43068" lon="3.58791">
        <ele>1119</ele>
        <time>2017-03-04T16:09:32Z</time>
      </trkpt>
      <trkpt lat="44.43061" lon="3.58775">
        <ele>1117</ele>
        <time>2017-03-04T16:11:32Z</time>
      </trkpt>
      <trkpt lat="44.43056" lon="3.5876">
        <ele>1115</ele>
        <time>2017-03-04T16:13:32Z</time>
      </trkpt>
      <trkpt lat="44.43052" lon="3.58751">
        <ele>1114</ele>
        <time>2017-03-04T16:15:32Z</time>
      </trkpt>
      <trkpt lat="44.43049" lon="3.58732">
        <ele>1113</ele>
        <time>2017-03-04T16:17:32Z</time>
      </trkpt>
      <trkpt lat="44.43044" lon="3.58712">
        <ele>1112</ele>
        <time>2017-03-04T16:19:32Z</time>
      </trkpt>
      <trkpt lat="44.43043" lon="3.5871">
        <ele>1112</ele>
        <time>2017-03-04T16:21:32Z</time>
      </trkpt>
      <trkpt lat="44.43042" lon="3.58707">
        <ele>1111</ele>
        <time>2017-03-04T16:23:32Z</time>
      </trkpt>
      <trkpt lat="44.4304" lon="3.58706">
        <ele>1111</ele>
        <time>2017-03-04T16:25:32Z</time>
      </trkpt>
      <trkpt lat="44.43038" lon="3.58705">
        <ele>1112</ele>
        <time>2017-03-04T16:27:32Z</time>
      </trkpt>
      <trkpt lat="44.43035" lon="3.58705">
        <ele>1112</ele>
        <time>2017-03-04T16:29:32Z</time>
      </trkpt>
      <trkpt lat="44.4303" lon="3.58704">
        <ele>1112</ele>
        <time>2017-03-04T16:31:32Z</time>
      </trkpt>
      <trkpt lat="44.43023" lon="3.58702">
        <ele>1113</ele>
        <time>2017-03-04T16:33:32Z</time>
      </trkpt>
      <trkpt lat="44.43017" lon="3.587">
        <ele>1113</ele>
        <time>2017-03-04T16:35:32Z</time>
      </trkpt>
      <trkpt lat="44.43008" lon="3.58696">
        <ele>1114</ele>
        <time>2017-03-04T16:37:32Z</time>
      </trkpt>
      <trkpt lat="44.43001" lon="3.58693">
        <ele>1115</ele>
        <time>2017-03-04T16:39:32Z</time>
      </trkpt>
      <trkpt lat="44.42999" lon="3.58692">
        <ele>1115</ele>
        <time>2017-03-04T16:41:32Z</time>
      </trkpt>
      <trkpt lat="44.42999" lon="3.58692">
        <ele>1115</ele>
        <time>2017-03-04T16:43:32Z</time>
      </trkpt>
      <trkpt lat="44.42996" lon="3.58703">
        <ele>1116</ele>
        <time>2017-03-04T16:45:32Z</time>
      </trkpt>
      <trkpt lat="44.42991" lon="3.58729">
        <ele>1117</ele>
        <time>2017-03-04T16:47:32Z</time>
      </trkpt>
      <trkpt lat="44.42988" lon="3.58754">
        <ele>1119</ele>
        <time>2017-03-04T16:49:32Z</time>
      </trkpt>
      <trkpt lat="44.42988" lon="3.58771">
        <ele>1119</ele>
        <time>2017-03-04T16:51:32Z</time>
      </trkpt>
      <trkpt lat="44.42987" lon="3.58773">
        <ele>1119</ele>
        <time>2017-03-04T16:53:32Z</time>
      </trkpt>
      <trkpt lat="44.42987" lon="3.58773">
        <ele>1119</ele>
        <time>2017-03-04T16:55:32Z</time>
      </trkpt>
      <trkpt lat="44.42985" lon="3.58774">
        <ele>1120</ele>
        <time>2017-03-04T16:57:32Z</time>
      </trkpt>
      <trkpt lat="44.42984" lon="3.58773">
        <ele>1120</ele>
        <time>2017-03-04T16:59:32Z</time>
      </trkpt>
      <trkpt lat="44.42983" lon="3.5877">
        <ele>1121</ele>
        <time>2017-03-04T17:01:32Z</time>
      </trkpt>
      <trkpt lat="44.42983" lon="3.58764">
        <ele>1120</ele>
        <time>2017-03-04T17:03:32Z</time>
      </trkpt>
      <trkpt lat="44.42983" lon="3.58746">
        <ele>1120</ele>
        <time>2017-03-04T17:05:32Z</time>
      </trkpt>
      <trkpt lat="44.42983" lon="3.58718">
        <ele>1120</ele>
        <time>2017-03-04T17:07:32Z</time>
      </trkpt>
      <trkpt lat="44.42982" lon="3.58703">
        <ele>1120</ele>
        <time>2017-03-04T17:09:32Z</time>
      </trkpt>
      <trkpt lat="44.42979" lon="3.5869">
        <ele>1120</ele>
        <time>2017-03-04T17:11:32Z</time>
      </trkpt>
      <trkpt lat="44.42973" lon="3.58676">
        <ele>1122</ele>
        <time>2017-03-04T17:13:32Z</time>
      </trkpt>
      <trkpt lat="44.42968" lon="3.5867">
        <ele>1123</ele>
        <time>2017-03-04T17:15:32Z</time>
      </trkpt>
      <trkpt lat="44.42964" lon="3.58666">
        <ele>1124</ele>
        <time>2017-03-04T17:17:32Z</time>
      </trkpt>
      <trkpt lat="44.4295" lon="3.58652">
        <ele>1127</ele>
        <time>2017-03-04T17:19:32Z</time>
      </trkpt>
      <trkpt lat="44.42936" lon="3.58642">
        <ele>1130</ele>
        <time>2017-03-04T17:21:32Z</time>
      </trkpt>
      <trkpt lat="44.4292" lon="3.58634">
        <ele>1132</ele>
        <time>2017-03-04T17:23:32Z</time>
      </trkpt>
      <trkpt lat="44.42913" lon="3.58632">
        <ele>1133</ele>
        <time>2017-03-04T17:25:32Z</time>
      </trkpt>
      <trkpt lat="44.42898" lon="3.58629">
        <ele>1134</ele>
        <time>2017-03-04T17:27:32Z</time>
      </trkpt>
      <trkpt lat="44.42884" lon="3.58627">
        <ele>1135</ele>
        <time>2017-03-04T17:29:32Z</time>
      </trkpt>
      <trkpt lat="44.4287" lon="3.58622">
        <ele>1135</ele>
        <time>2017-03-04T17:31:32Z</time>
      </trkpt>
      <trkpt lat="44.4285" lon="3.58611">
        <ele>1136</ele>
        <time>2017-03-04T17:33:32Z</time>
      </trkpt>
      <trkpt lat="44.42829" lon="3.58601">
        <ele>1136</ele>
        <time>2017-03-04T17:35:32Z</time>
      </trkpt>
      <trkpt lat="44.42808" lon="3.58591">
        <ele>1136</ele>
        <time>2017-03-04T17:37:32Z</time>
      </trkpt>
      <trkpt lat="44.42797" lon="3.58583">
        <ele>1137</ele>
        <time>2017-03-04T17:39:32Z</time>
      </trkpt>
      <trkpt lat="44.42793" lon="3.5858">
        <ele>1137</ele>
        <time>2017-03-04T17:41:32Z</time>
      </trkpt>
      <trkpt lat="44.4279" lon="3.58576">
        <ele>1137</ele>
        <time>2017-03-04T17:43:32Z</time>
      </trkpt>
      <trkpt lat="44.4279" lon="3.58576">
        <ele>1137</ele>
        <time>2017-03-04T17:45:32Z</time>
      </trkpt>
      <trkpt lat="44.42788" lon="3.58579">
        <ele>1137</ele>
        <time>2017-03-04T17:47:32Z</time>
      </trkpt>
      <trkpt lat="44.42786" lon="3.58581">
        <ele>1137</ele>
        <time>2017-03-04T17:49:32Z</time>
      </trkpt>
      <trkpt lat="44.42777" lon="3.58587">
        <ele>1138</ele>
        <time>2017-03-04T17:51:32Z</time>
      </trkpt>
      <trkpt lat="44.42768" lon="3.58593">
        <ele>1139</ele>
        <time>2017-03-04T17:53:32Z</time>
      </trkpt>
      <trkpt lat="44.4276" lon="3.586">
        <ele>1140</ele>
        <time>2017-03-04T17:55:32Z</time>
      </trkpt>
      <trkpt lat="44.42744" lon="3.58615">
        <ele>1141</ele>
        <time>2017-03-04T17:57:32Z</time>
      </trkpt>
      <trkpt lat="44.42728" lon="3.58631">
        <ele>1142</ele>
        <time>2017-03-04T17:59:32Z</time>
      </trkpt>
      <trkpt lat="44.42709" lon="3.58649">
        <ele>1143</ele>
        <time>2017-03-04T18:01:32Z</time>
      </trkpt>
      <trkpt lat="44.42691" lon="3.58663">
        <ele>1144</ele>
        <time>2017-03-04T18:03:32Z</time>
      </trkpt>
      <trkpt lat="44.42682" lon="3.58668">
        <ele>1145</ele>
        <time>2017-03-04T18:05:32Z</time>
      </trkpt>
      <trkpt lat="44.42675" lon="3.58671">
        <ele>1145</ele>
        <time>2017-03-04T18:07:32Z</time>
      </trkpt>
      <trkpt lat="44.42671" lon="3.58672">
        <ele>1145</ele>
        <time>2017-03-04T18:09:32Z</time>
      </trkpt>
      <trkpt lat="44.42669" lon="3.58676">
        <ele>1145</ele>
        <time>2017-03-04T18:11:32Z</time>
      </trkpt>
      <trkpt lat="44.42665" lon="3.5868">
        <ele>1146</ele>
        <time>2017-03-04T18:13:32Z</time>
      </trkpt>
      <trkpt lat="44.42656" lon="3.58684">
        <ele>1146</ele>
        <time>2017-03-04T18:15:32Z</time>
      </trkpt>
      <trkpt lat="44.42615" lon="3.58699">
        <ele>1147</ele>
        <time>2017-03-04T18:17:32Z</time>
      </trkpt>
      <trkpt lat="44.42567" lon="3.58719">
        <ele>1149</ele>
        <time>2017-03-04T18:19:32Z</time>
      </trkpt>
      <trkpt lat="44.42528" lon="3.58739">
        <ele>1151</ele>
        <time>2017-03-04T18:21:32Z</time>
      </trkpt>
      <trkpt lat="44.42502" lon="3.58756">
        <ele>1153</ele>
        <time>2017-03-04T18:23:32Z</time>
      </trkpt>
      <trkpt lat="44.42479" lon="3.58776">
        <ele>1155</ele>
        <time>2017-03-04T18:25:32Z</time>
      </trkpt>
      <trkpt lat="44.42454" lon="3.588">
        <ele>1156</ele>
        <time>2017-03-04T18:27:32Z</time>
      </trkpt>
      <trkpt lat="44.42437" lon="3.58813">
        <ele>1157</ele>
        <time>2017-03-04T18:29:32Z</time>
      </trkpt>
      <trkpt lat="44.4242" lon="3.58824">
        <ele>1158</ele>
        <time>2017-03-04T18:31:32Z</time>
      </trkpt>
      <trkpt lat="44.42413" lon="3.58829">
        <ele>1158</ele>
        <time>2017-03-04T18:33:32Z</time>
      </trkpt>
      <trkpt lat="44.42404" lon="3.58838">
        <ele>1158</ele>
        <time>2017-03-04T18:35:32Z</time>
      </trkpt>
      <trkpt lat="44.42395" lon="3.58844">
        <ele>1157</ele>
        <time>2017-03-04T18:37:32Z</time>
      </trkpt>
      <trkpt lat="44.42378" lon="3.58854">
        <ele>1155</ele>
        <time>2017-03-04T18:39:32Z</time>
      </trkpt>
      <trkpt lat="44.42369" lon="3.58862">
        <ele>1155</ele>
        <time>2017-03-04T18:41:32Z</time>
      </trkpt>
      <trkpt lat="44.42358" lon="3.58876">
        <ele>1154</ele>
        <time>2017-03-04T18:43:32Z</time>
      </trkpt>
      <trkpt lat="44.42336" lon="3.58914">
        <ele>1154</ele>
        <time>2017-03-04T18:45:32Z</time>
      </trkpt>
      <trkpt lat="44.42318" lon="3.58946">
        <ele>1154</ele>
        <time>2017-03-04T18:47:32Z</time>
      </trkpt>
      <trkpt lat="44.42299" lon="3.58981">
        <ele>1155</ele>
        <time>2017-03-04T18:49:32Z</time>
      </trkpt>
      <trkpt lat="44.42286" lon="3.59002">
        <ele>1156</ele>
        <time>2017-03-04T18:51:32Z</time>
      </trkpt>
      <trkpt lat="44.42276" lon="3.59023">
        <ele>1157</ele>
        <time>2017-03-04T18:53:32Z</time>
      </trkpt>
      <trkpt lat="44.4227" lon="3.59043">
        <ele>1158</ele>
        <time>2017-03-04T18:55:32Z</time>
      </trkpt>
      <trkpt lat="44.42264" lon="3.59065">
        <ele>1159</ele>
        <time>2017-03-04T18:57:32Z</time>
      </trkpt>
      <trkpt lat="44.42261" lon="3.59073">
        <ele>1160</ele>
        <time>2017-03-04T18:59:32Z</time>
      </trkpt>
      <trkpt lat="44.42256" lon="3.59082">
        <ele>1160</ele>
        <time>2017-03-04T19:01:32Z</time>
      </trkpt>
      <trkpt lat="44.42248" lon="3.59093">
        <ele>1160</ele>
        <time>2017-03-04T19:03:32Z</time>
      </trkpt>
      <trkpt lat="44.42243" lon="3.59097">
        <ele>1161</ele>
        <time>2017-03-04T19:05:32Z</time>
      </trkpt>
      <trkpt lat="44.42231" lon="3.59103">
        <ele>1161</ele>
        <time>2017-03-04T19:07:32Z</time>
      </trkpt>
      <trkpt lat="44.42212" lon="3.59111">
        <ele>1161</ele>
        <time>2017-03-04T19:09:32Z</time>
      </trkpt>
      <trkpt lat="44.42185" lon="3.59118">
        <ele>1162</ele>
        <time>2017-03-04T19:11:32Z</time>
      </trkpt>
      <trkpt lat="44.42173" lon="3.59119">
        <ele>1162</ele>
        <time>2017-03-04T19:13:32Z</time>
      </trkpt>
      <trkpt lat="44.42161" lon="3.59119">
        <ele>1162</ele>
        <time>2017-03-04T19:15:32Z</time>
      </trkpt>
      <trkpt lat="44.42141" lon="3.59121">
        <ele>1162</ele>
        <time>2017-03-04T19:17:32Z</time>
      </trkpt>
      <trkpt lat="44.42122" lon="3.59126">
        <ele>1162</ele>
        <time>2017-03-04T19:19:32Z</time>
      </trkpt>
      <trkpt lat="44.42101" lon="3.59132">
        <ele>1163</ele>
        <time>2017-03-04T19:21:32Z</time>
      </trkpt>
      <trkpt lat="44.42092" lon="3.59137">
        <ele>1163</ele>
        <time>2017-03-04T19:23:32Z</time>
      </trkpt>
      <trkpt lat="44.42086" lon="3.59143">
        <ele>1163</ele>
        <time>2017-03-04T19:25:32Z</time>
      </trkpt>
      <trkpt lat="44.42077" lon="3.59155">
        <ele>1164</ele>
        <time>2017-03-04T19:27:32Z</time>
      </trkpt>
      <trkpt lat="44.42066" lon="3.59166">
        <ele>1164</ele>
        <time>2017-03-04T19:29:32Z</time>
      </trkpt>
      <trkpt lat="44.42058" lon="3.59172">
        <ele>1165</ele>
        <time>2017-03-04T19:31:32Z</time>
      </trkpt>
      <trkpt lat="44.42054" lon="3.59173">
        <ele>1165</ele>
        <time>2017-03-04T19:33:32Z</time>
      </trkpt>
      <trkpt lat="44.42046" lon="3.59173">
        <ele>1165</ele>
        <time>2017-03-04T19:35:32Z</time>
      </trkpt>
      <trkpt lat="44.4202" lon="3.5917">
        <ele>1166</ele>
        <time>2017-03-04T19:37:32Z</time>
      </trkpt>
      <trkpt lat="44.41982" lon="3.59163">
        <ele>1166</ele>
        <time>2017-03-04T19:39:32Z</time>
      </trkpt>
      <trkpt lat="44.41964" lon="3.59161">
        <ele>1166</ele>
        <time>2017-03-04T19:41:32Z</time>
      </trkpt>
      <trkpt lat="44.41956" lon="3.59158">
        <ele>1166</ele>
        <time>2017-03-04T19:43:32Z</time>
      </trkpt>
      <trkpt lat="44.41949" lon="3.59155">
        <ele>1166</ele>
        <time>2017-03-04T19:45:32Z</time>
      </trkpt>
      <trkpt lat="44.41937" lon="3.59152">
        <ele>1166</ele>
        <time>2017-03-04T19:47:32Z</time>
      </trkpt>
      <trkpt lat="44.41932" lon="3.59151">
        <ele>1166</ele>
        <time>2017-03-04T19:49:32Z</time>
      </trkpt>
      <trkpt lat="44.41928" lon="3.59151">
        <ele>1166</ele>
        <time>2017-03-04T19:51:32Z</time>
      </trkpt>
      <trkpt lat="44.41928" lon="3.59151">
        <ele>1166</ele>
        <time>2017-03-04T19:53:32Z</time>
      </trkpt>
      <trkpt lat="44.41928" lon="3.59147">
        <ele>1165</ele>
        <time>2017-03-04T19:55:32Z</time>
      </trkpt>
      <trkpt lat="44.41931" lon="3.59115">
        <ele>1165</ele>
        <time>2017-03-04T19:57:32Z</time>
      </trkpt>
      <trkpt lat="44.41936" lon="3.59061">
        <ele>1163</ele>
        <time>2017-03-04T19:59:32Z</time>
      </trkpt>
      <trkpt lat="44.4194" lon="3.59015">
        <ele>1161</ele>
        <time>2017-03-04T20:01:32Z</time>
      </trkpt>
      <trkpt lat="44.41944" lon="3.58966">
        <ele>1158</ele>
        <time>2017-03-04T20:03:32Z</time>
      </trkpt>
      <trkpt lat="44.41949" lon="3.58913">
        <ele>1156</ele>
        <time>2017-03-04T20:05:32Z</time>
      </trkpt>
      <trkpt lat="44.41954" lon="3.58851">
        <ele>1151</ele>
        <time>2017-03-04T20:07:32Z</time>
      </trkpt>
      <trkpt lat="44.4196" lon="3.58786">
        <ele>1147</ele>
        <time>2017-03-04T20:09:32Z</time>
      </trkpt>
      <trkpt lat="44.41966" lon="3.58719">
        <ele>1143</ele>
        <time>2017-03-04T20:11:32Z</time>
      </trkpt>
      <trkpt lat="44.4197" lon="3.58666">
        <ele>1140</ele>
        <time>2017-03-04T20:13:32Z</time>
      </trkpt>
      <trkpt lat="44.41973" lon="3.58628">
        <ele>1138</ele>
        <time>2017-03-04T20:15:32Z</time>
      </trkpt>
      <trkpt lat="44.41973" lon="3.58628">
        <ele>1138</ele>
        <time>2017-03-04T20:17:32Z</time>
      </trkpt>
      <trkpt lat="44.4197" lon="3.58627">
        <ele>1138</ele>
        <time>2017-03-04T20:19:32Z</time>
      </trkpt>
      <trkpt lat="44.41959" lon="3.58624">
        <ele>1138</ele>
        <time>2017-03-04T20:21:32Z</time>
      </trkpt>
      <trkpt lat="44.41936" lon="3.58616">
        <ele>1138</ele>
        <time>2017-03-04T20:23:32Z</time>
      </trkpt>
      <trkpt lat="44.41922" lon="3.5861">
        <ele>1138</ele>
        <time>2017-03-04T20:25:32Z</time>
      </trkpt>
      <trkpt lat="44.41911" lon="3.58603">
        <ele>1138</ele>
        <time>2017-03-04T20:27:32Z</time>
      </trkpt>
      <trkpt lat="44.419" lon="3.58597">
        <ele>1137</ele>
        <time>2017-03-04T20:29:32Z</time>
      </trkpt>
      <trkpt lat="44.41884" lon="3.58588">
        <ele>1136</ele>
        <time>2017-03-04T20:31:32Z</time>
      </trkpt>
      <trkpt lat="44.41871" lon="3.58578">
        <ele>1136</ele>
        <time>2017-03-04T20:33:32Z</time>
      </trkpt>
      <trkpt lat="44.41855" lon="3.5857">
        <ele>1135</ele>
        <time>2017-03-04T20:35:32Z</time>
      </trkpt>
      <trkpt lat="44.41841" lon="3.58564">
        <ele>1134</ele>
        <time>2017-03-04T20:37:32Z</time>
      </trkpt>
      <trkpt lat="44.41824" lon="3.58559">
        <ele>1133</ele>
        <time>2017-03-04T20:39:32Z</time>
      </trkpt>
      <trkpt lat="44.41816" lon="3.58556">
        <ele>1133</ele>
        <time>2017-03-04T20:41:32Z</time>
      </trkpt>
      <trkpt lat="44.41812" lon="3.58553">
        <ele>1133</ele>
        <time>2017-03-04T20:43:32Z</time>
      </trkpt>
      <trkpt lat="44.41809" lon="3.58549">
        <ele>1133</ele>
        <time>2017-03-04T20:45:32Z</time>
      </trkpt>
      <trkpt lat="44.41801" lon="3.58542">
        <ele>1132</ele>
        <time>2017-03-04T20:47:32Z</time>
      </trkpt>
      <trkpt lat="44.41792" lon="3.58533">
        <ele>1132</ele>
        <time>2017-03-04T20:49:32Z</time>
      </trkpt>
      <trkpt lat="44.41787" lon="3.58529">
        <ele>1131</ele>
        <time>2017-03-04T20:51:32Z</time>
      </trkpt>
      <trkpt lat="44.41778" lon="3.58523">
        <ele>1131</ele>
        <time>2017-03-04T20:53:32Z</time>
      </trkpt>
      <trkpt lat="44.41767" lon="3.58518">
        <ele>1131</ele>
        <time>2017-03-04T20:55:32Z</time>
      </trkpt>
      <trkpt lat="44.41761" lon="3.58515">
        <ele>1131</ele>
        <time>2017-03-04T20:57:32Z</time>
      </trkpt>
      <trkpt lat="44.41757" lon="3.58512">
        <ele>1130</ele>
        <time>2017-03-04T20:59:32Z</time>
      </trkpt>
      <trkpt lat="44.41745" lon="3.58502">
        <ele>1130</ele>
        <time>2017-03-04T21:01:32Z</time>
      </trkpt>
      <trkpt lat="44.41722" lon="3.58486">
        <ele>1128</ele>
        <time>2017-03-04T21:03:32Z</time>
      </trkpt>
      <trkpt lat="44.41703" lon="3.58471">
        <ele>1127</ele>
        <time>2017-03-04T21:05:32Z</time>
      </trkpt>
      <trkpt lat="44.41694" lon="3.58465">
        <ele>1127</ele>
        <time>2017-03-04T21:07:32Z</time>
      </trkpt>
      <trkpt lat="44.41689" lon="3.58461">
        <ele>1126</ele>
        <time>2017-03-04T21:09:32Z</time>
      </trkpt>
      <trkpt lat="44.41687" lon="3.58458">
        <ele>1126</ele>
        <time>2017-03-04T21:11:32Z</time>
      </trkpt>
      <trkpt lat="44.41685" lon="3.58454">
        <ele>1126</ele>
        <time>2017-03-04T21:13:32Z</time>
      </trkpt>
      <trkpt lat="44.41682" lon="3.58448">
        <ele>1126</ele>
        <time>2017-03-04T21:15:32Z</time>
      </trkpt>
      <trkpt lat="44.4168" lon="3.58441">
        <ele>1126</ele>
        <time>2017-03-04T21:17:32Z</time>
      </trkpt>
      <trkpt lat="44.41676" lon="3.58423">
        <ele>1125</ele>
        <time>2017-03-04T21:19:32Z</time>
      </trkpt>
      <trkpt lat="44.41672" lon="3.58407">
        <ele>1125</ele>
        <time>2017-03-04T21:21:32Z</time>
      </trkpt>
      <trkpt lat="44.41667" lon="3.58393">
        <ele>1124</ele>
        <time>2017-03-04T21:23:32Z</time>
      </trkpt>
      <trkpt lat="44.41658" lon="3.58378">
        <ele>1123</ele>
        <time>2017-03-04T21:25:32Z</time>
      </trkpt>
      <trkpt lat="44.41652" lon="3.58364">
        <ele>1123</ele>
        <time>2017-03-04T21:27:32Z</time>
      </trkpt>
      <trkpt lat="44.41648" lon="3.58353">
        <ele>1123</ele>
        <time>2017-03-04T21:29:32Z</time>
      </trkpt>
      <trkpt lat="44.41643" lon="3.58346">
        <ele>1123</ele>
        <time>2017-03-04T21:31:32Z</time>
      </trkpt>
      <trkpt lat="44.41638" lon="3.58339">
        <ele>1123</ele>
        <time>2017-03-04T21:33:32Z</time>
      </trkpt>
      <trkpt lat="44.41622" lon="3.58325">
        <ele>1124</ele>
        <time>2017-03-04T21:35:32Z</time>
      </trkpt>
      <trkpt lat="44.41607" lon="3.58315">
        <ele>1124</ele>
        <time>2017-03-04T21:37:32Z</time>
      </trkpt>
      <trkpt lat="44.41597" lon="3.58309">
        <ele>1124</ele>
        <time>2017-03-04T21:39:32Z</time>
      </trkpt>
      <trkpt lat="44.41585" lon="3.58297">
        <ele>1123</ele>
        <time>2017-03-04T21:41:32Z</time>
      </trkpt>
      <trkpt lat="44.4157" lon="3.58284">
        <ele>1122</ele>
        <time>2017-03-04T21:43:32Z</time>
      </trkpt>
      <trkpt lat="44.41537" lon="3.58263">
        <ele>1121</ele>
        <time>2017-03-04T21:45:32Z</time>
      </trkpt>
      <trkpt lat="44.4151" lon="3.58245">
        <ele>1121</ele>
        <time>2017-03-04T21:47:32Z</time>
      </trkpt>
      <trkpt lat="44.41499" lon="3.58238">
        <ele>1120</ele>
        <time>2017-03-04T21:49:32Z</time>
      </trkpt>
      <trkpt lat="44.41489" lon="3.58228">
        <ele>1118</ele>
        <time>2017-03-04T21:51:32Z</time>
      </trkpt>
      <trkpt lat="44.41479" lon="3.58216">
        <ele>1116</ele>
        <time>2017-03-04T21:53:32Z</time>
      </trkpt>
      <trkpt lat="44.41472" lon="3.5821">
        <ele>1115</ele>
        <time>2017-03-04T21:55:32Z</time>
      </trkpt>
      <trkpt lat="44.41444" lon="3.58193">
        <ele>1112</ele>
        <time>2017-03-04T21:57:32Z</time>
      </trkpt>
      <trkpt lat="44.41422" lon="3.58179">
        <ele>1110</ele>
        <time>2017-03-04T21:59:32Z</time>
      </trkpt>
      <trkpt lat="44.41399" lon="3.58163">
        <ele>1108</ele>
        <time>2017-03-04T22:01:32Z</time>
      </trkpt>
      <trkpt lat="44.41375" lon="3.5814">
        <ele>1105</ele>
        <time>2017-03-04T22:03:32Z</time>
      </trkpt>
      <trkpt lat="44.41352" lon="3.58115">
        <ele>1102</ele>
        <time>2017-03-04T22:05:32Z</time>
      </trkpt>
      <trkpt lat="44.41327" lon="3.58088">
        <ele>1100</ele>
        <time>2017-03-04T22:07:32Z</time>
      </trkpt>
      <trkpt lat="44.41316" lon="3.58074">
        <ele>1098</ele>
        <time>2017-03-04T22:09:32Z</time>
      </trkpt>
      <trkpt lat="44.41305" lon="3.58058">
        <ele>1096</ele>
        <time>2017-03-04T22:11:32Z</time>
      </trkpt>
      <trkpt lat="44.41297" lon="3.58046">
        <ele>1094</ele>
        <time>2017-03-04T22:13:32Z</time>
      </trkpt>
      <trkpt lat="44.41271" lon="3.58019">
        <ele>1092</ele>
        <time>2017-03-04T22:15:32Z</time>
      </trkpt>
      <trkpt lat="44.4124" lon="3.57985">
        <ele>1088</ele>
        <time>2017-03-04T22:17:32Z</time>
      </trkpt>
      <trkpt lat="44.41219" lon="3.57968">
        <ele>1085</ele>
        <time>2017-03-04T22:19:32Z</time>
      </trkpt>
      <trkpt lat="44.41195" lon="3.57951">
        <ele>1082</ele>
        <time>2017-03-04T22:21:32Z</time>
      </trkpt>
      <trkpt lat="44.41178" lon="3.57942">
        <ele>1081</ele>
        <time>2017-03-04T22:23:32Z</time>
      </trkpt>
      <trkpt lat="44.41166" lon="3.57939">
        <ele>1080</ele>
        <time>2017-03-04T22:25:32Z</time>
      </trkpt>
      <trkpt lat="44.41151" lon="3.5794">
        <ele>1079</ele>
        <time>2017-03-04T22:27:32Z</time>
      </trkpt>
      <trkpt lat="44.41134" lon="3.57947">
        <ele>1077</ele>
        <time>2017-03-04T22:29:32Z</time>
      </trkpt>
      <trkpt lat="44.41121" lon="3.57955">
        <ele>1076</ele>
        <time>2017-03-04T22:31:32Z</time>
      </trkpt>
      <trkpt lat="44.41108" lon="3.57969">
        <ele>1076</ele>
        <time>2017-03-04T22:33:32Z</time>
      </trkpt>
      <trkpt lat="44.411" lon="3.57985">
        <ele>1076</ele>
        <time>2017-03-04T22:35:32Z</time>
      </trkpt>
      <trkpt lat="44.41096" lon="3.57995">
        <ele>1076</ele>
        <time>2017-03-04T22:37:32Z</time>
      </trkpt>
      <trkpt lat="44.41094" lon="3.57998">
        <ele>1075</ele>
        <time>2017-03-04T22:39:32Z</time>
      </trkpt>
      <trkpt lat="44.41091" lon="3.57998">
        <ele>1075</ele>
        <time>2017-03-04T22:41:32Z</time>
      </trkpt>
      <trkpt lat="44.41088" lon="3.57992">
        <ele>1074</ele>
        <time>2017-03-04T22:43:32Z</time>
      </trkpt>
      <trkpt lat="44.41086" lon="3.57977">
        <ele>1073</ele>
        <time>2017-03-04T22:45:32Z</time>
      </trkpt>
      <trkpt lat="44.41083" lon="3.57951">
        <ele>1072</ele>
        <time>2017-03-04T22:47:32Z</time>
      </trkpt>
      <trkpt lat="44.41078" lon="3.57912">
        <ele>1069</ele>
        <time>2017-03-04T22:49:32Z</time>
      </trkpt>
      <trkpt lat="44.41073" lon="3.57878">
        <ele>1065</ele>
        <time>2017-03-04T22:51:32Z</time>
      </trkpt>
      <trkpt lat="44.4107" lon="3.57846">
        <ele>1063</ele>
        <time>2017-03-04T22:53:32Z</time>
      </trkpt>
      <trkpt lat="44.41068" lon="3.57809">
        <ele>1059</ele>
        <time>2017-03-04T22:55:32Z</time>
      </trkpt>
      <trkpt lat="44.41066" lon="3.57785">
        <ele>1057</ele>
        <time>2017-03-04T22:57:32Z</time>
      </trkpt>
      <trkpt lat="44.41063" lon="3.57771">
        <ele>1055</ele>
        <time>2017-03-04T22:59:32Z</time>
      </trkpt>
      <trkpt lat="44.41054" lon="3.57747">
        <ele>1052</ele>
        <time>2017-03-04T23:01:32Z</time>
      </trkpt>
      <trkpt lat="44.41045" lon="3.57723">
        <ele>1050</ele>
        <time>2017-03-04T23:03:32Z</time>
      </trkpt>
      <trkpt lat="44.41037" lon="3.57707">
        <ele>1049</ele>
        <time>2017-03-04T23:05:32Z</time>
      </trkpt>
      <trkpt lat="44.41026" lon="3.57689">
        <ele>1048</ele>
        <time>2017-03-04T23:07:32Z</time>
      </trkpt>
      <trkpt lat="44.41017" lon="3.57675">
        <ele>1048</ele>
        <time>2017-03-04T23:09:32Z</time>
      </trkpt>
      <trkpt lat="44.41008" lon="3.57661">
        <ele>1049</ele>
        <time>2017-03-04T23:11:32Z</time>
      </trkpt>
      <trkpt lat="44.40997" lon="3.57644">
        <ele>1050</ele>
        <time>2017-03-04T23:13:32Z</time>
      </trkpt>
      <trkpt lat="44.40989" lon="3.57625">
        <ele>1051</ele>
        <time>2017-03-04T23:15:32Z</time>
      </trkpt>
      <trkpt lat="44.40987" lon="3.5762">
        <ele>1051</ele>
        <time>2017-03-04T23:17:32Z</time>
      </trkpt>
      <trkpt lat="44.40986" lon="3.57614">
        <ele>1051</ele>
        <time>2017-03-04T23:19:32Z</time>
      </trkpt>
      <trkpt lat="44.40985" lon="3.57609">
        <ele>1052</ele>
        <time>2017-03-04T23:21:32Z</time>
      </trkpt>
      <trkpt lat="44.40986" lon="3.57604">
        <ele>1052</ele>
        <time>2017-03-04T23:23:32Z</time>
      </trkpt>
      <trkpt lat="44.40987" lon="3.57587">
        <ele>1053</ele>
        <time>2017-03-04T23:25:32Z</time>
      </trkpt>
      <trkpt lat="44.40988" lon="3.5758">
        <ele>1053</ele>
        <time>2017-03-04T23:27:32Z</time>
      </trkpt>
      <trkpt lat="44.40988" lon="3.57573">
        <ele>1053</ele>
        <time>2017-03-04T23:29:32Z</time>
      </trkpt>
      <trkpt lat="44.40987" lon="3.57566">
        <ele>1053</ele>
        <time>2017-03-04T23:31:32Z</time>
      </trkpt>
      <trkpt lat="44.40985" lon="3.57551">
        <ele>1054</ele>
        <time>2017-03-04T23:33:32Z</time>
      </trkpt>
      <trkpt lat="44.40984" lon="3.57546">
        <ele>1054</ele>
        <time>2017-03-04T23:35:32Z</time>
      </trkpt>
      <trkpt lat="44.40985" lon="3.5754">
        <ele>1054</ele>
        <time>2017-03-04T23:37:32Z</time>
      </trkpt>
      <trkpt lat="44.40986" lon="3.57531">
        <ele>1054</ele>
        <time>2017-03-04T23:39:32Z</time>
      </trkpt>
      <trkpt lat="44.40987" lon="3.57525">
        <ele>1054</ele>
        <time>2017-03-04T23:41:32Z</time>
      </trkpt>
      <trkpt lat="44.40987" lon="3.5752">
        <ele>1054</ele>
        <time>2017-03-04T23:43:32Z</time>
      </trkpt>
      <trkpt lat="44.40984" lon="3.57495">
        <ele>1055</ele>
        <time>2017-03-04T23:45:32Z</time>
      </trkpt>
      <trkpt lat="44.4098" lon="3.57467">
        <ele>1055</ele>
        <time>2017-03-04T23:47:32Z</time>
      </trkpt>
      <trkpt lat="44.40975" lon="3.57443">
        <ele>1054</ele>
        <time>2017-03-04T23:49:32Z</time>
      </trkpt>
      <trkpt lat="44.40973" lon="3.57433">
        <ele>1054</ele>
        <time>2017-03-04T23:51:32Z</time>
      </trkpt>
      <trkpt lat="44.40972" lon="3.57428">
        <ele>1054</ele>
        <time>2017-03-04T23:53:32Z</time>
      </trkpt>
      <trkpt lat="44.40972" lon="3.57425">
        <ele>1054</ele>
        <time>2017-03-04T23:55:32Z</time>
      </trkpt>
      <trkpt lat="44.40973" lon="3.57422">
        <ele>1054</ele>
        <time>2017-03-04T23:57:32Z</time>
      </trkpt>
      <trkpt lat="44.40973" lon="3.5742">
        <ele>1054</ele>
        <time>2017-03-04T23:59:32Z</time>
      </trkpt>
      <trkpt lat="44.40974" lon="3.57418">
        <ele>1054</ele>
        <time>2017-03-05T00:01:32Z</time>
      </trkpt>
      <trkpt lat="44.40975" lon="3.57416">
        <ele>1054</ele>
        <time>2017-03-05T00:03:32Z</time>
      </trkpt>
      <trkpt lat="44.40976" lon="3.57413">
        <ele>1053</ele>
        <time>2017-03-05T00:05:32Z</time>
      </trkpt>
      <trkpt lat="44.40977" lon="3.57411">
        <ele>1053</ele>
        <time>2017-03-05T00:07:32Z</time>
      </trkpt>
      <trkpt lat="44.4098" lon="3.57408">
        <ele>1053</ele>
        <time>2017-03-05T00:09:32Z</time>
      </trkpt>
      <trkpt lat="44.40982" lon="3.57406">
        <ele>1052</ele>
        <time>2017-03-05T00:11:32Z</time>
      </trkpt>
      <trkpt lat="44.40983" lon="3.57405">
        <ele>1052</ele>
        <time>2017-03-05T00:13:32Z</time>
      </trkpt>
      <trkpt lat="44.40985" lon="3.57403">
        <ele>1052</ele>
        <time>2017-03-05T00:15:32Z</time>
      </trkpt>
      <trkpt lat="44.40987" lon="3.57402">
        <ele>1051</ele>
        <time>2017-03-05T00:17:32Z</time>
      </trkpt>
      <trkpt lat="44.40989" lon="3.57401">
        <ele>1051</ele>
        <time>2017-03-05T00:19:32Z</time>
      </trkpt>
      <trkpt lat="44.41" lon="3.57398">
        <ele>1050</ele>
        <time>2017-03-05T00:21:32Z</time>
      </trkpt>
      <trkpt lat="44.41012" lon="3.57394">
        <ele>1048</ele>
        <time>2017-03-05T00:23:32Z</time>
      </trkpt>
      <trkpt lat="44.41021" lon="3.5739">
        <ele>1046</ele>
        <time>2017-03-05T00:25:32Z</time>
      </trkpt>
      <trkpt lat="44.41024" lon="3.57388">
        <ele>1045</ele>
        <time>2017-03-05T00:27:32Z</time>
      </trkpt>
      <trkpt lat="44.41026" lon="3.57387">
        <ele>1045</ele>
        <time>2017-03-05T00:29:32Z</time>
      </trkpt>
      <trkpt lat="44.41027" lon="3.57386">
        <ele>1044</ele>
        <time>2017-03-05T00:31:32Z</time>
      </trkpt>
      <trkpt lat="44.41028" lon="3.57384">
        <ele>1044</ele>
        <time>2017-03-05T00:33:32Z</time>
      </trkpt>
      <trkpt lat="44.41029" lon="3.57382">
        <ele>1044</ele>
        <time>2017-03-05T00:35:32Z</time>
      </trkpt>
      <trkpt lat="44.41033" lon="3.57341">
        <ele>1039</ele>
        <time>2017-03-05T00:37:32Z</time>
      </trkpt>
      <trkpt lat="44.41033" lon="3.57332">
        <ele>1039</ele>
        <time>2017-03-05T00:39:32Z</time>
      </trkpt>
      <trkpt lat="44.41033" lon="3.57321">
        <ele>1037</ele>
        <time>2017-03-05T00:41:32Z</time>
      </trkpt>
      <trkpt lat="44.41035" lon="3.57311">
        <ele>1036</ele>
        <time>2017-03-05T00:43:32Z</time>
      </trkpt>
      <trkpt lat="44.41036" lon="3.57296">
        <ele>1034</ele>
        <time>2017-03-05T00:45:32Z</time>
      </trkpt>
      <trkpt lat="44.41036" lon="3.57291">
        <ele>1034</ele>
        <time>2017-03-05T00:47:32Z</time>
      </trkpt>
      <trkpt lat="44.41035" lon="3.57286">
        <ele>1033</ele>
        <time>2017-03-05T00:49:32Z</time>
      </trkpt>
      <trkpt lat="44.41032" lon="3.57278">
        <ele>1033</ele>
        <time>2017-03-05T00:51:32Z</time>
      </trkpt>
      <trkpt lat="44.41025" lon="3.57257">
        <ele>1031</ele>
        <time>2017-03-05T00:53:32Z</time>
      </trkpt>
      <trkpt lat="44.41019" lon="3.57236">
        <ele>1029</ele>
        <time>2017-03-05T00:55:32Z</time>
      </trkpt>
      <trkpt lat="44.41016" lon="3.57225">
        <ele>1027</ele>
        <time>2017-03-05T00:57:32Z</time>
      </trkpt>
      <trkpt lat="44.41014" lon="3.57221">
        <ele>1027</ele>
        <time>2017-03-05T00:59:32Z</time>
      </trkpt>
      <trkpt lat="44.41013" lon="3.57218">
        <ele>1026</ele>
        <time>2017-03-05T01:01:32Z</time>
      </trkpt>
      <trkpt lat="44.41005" lon="3.57206">
        <ele>1025</ele>
        <time>2017-03-05T01:03:32Z</time>
      </trkpt>
      <trkpt lat="44.41004" lon="3.57204">
        <ele>1025</ele>
        <time>2017-03-05T01:05:32Z</time>
      </trkpt>
      <trkpt lat="44.41004" lon="3.57204">
        <ele>1025</ele>
        <time>2017-03-05T01:07:32Z</time>
      </trkpt>
      <trkpt lat="44.40993" lon="3.57192">
        <ele>1023</ele>
        <time>2017-03-05T01:09:32Z</time>
      </trkpt>
      <trkpt lat="44.4098" lon="3.57174">
        <ele>1020</ele>
        <time>2017-03-05T01:11:32Z</time>
      </trkpt>
      <trkpt lat="44.40979" lon="3.57172">
        <ele>1020</ele>
        <time>2017-03-05T01:13:32Z</time>
      </trkpt>
      <trkpt lat="44.40979" lon="3.57173">
        <ele>1020</ele>
        <time>2017-03-05T01:15:32Z</time>
      </trkpt>
      <trkpt lat="44.40992" lon="3.57165">
        <ele>1019</ele>
        <time>2017-03-05T01:17:32Z</time>
      </trkpt>
      <trkpt lat="44.40982" lon="3.5714">
        <ele>1016</ele>
        <time>2017-03-05T01:19:32Z</time>
      </trkpt>
      <trkpt lat="44.41021" lon="3.57113">
        <ele>1011</ele>
        <time>2017-03-05T01:21:32Z</time>
      </trkpt>
      <trkpt lat="44.41019" lon="3.57086">
        <ele>1008</ele>
        <time>2017-03-05T01:23:32Z</time>
      </trkpt>
      <trkpt lat="44.41007" lon="3.5707">
        <ele>1007</ele>
        <time>2017-03-05T01:25:32Z</time>
      </trkpt>
      <trkpt lat="44.41001" lon="3.56994">
        <ele>999</ele>
        <time>2017-03-05T01:27:32Z</time>
      </trkpt>
      <trkpt lat="44.41025" lon="3.56995">
        <ele>998</ele>
        <time>2017-03-05T01:29:32Z</time>
      </trkpt>
      <trkpt lat="44.4103" lon="3.56938">
        <ele>996</ele>
        <time>2017-03-05T01:31:32Z</time>
      </trkpt>
      <trkpt lat="44.41017" lon="3.56879">
        <ele>991</ele>
        <time>2017-03-05T01:33:32Z</time>
      </trkpt>
      <trkpt lat="44.40989" lon="3.56844">
        <ele>985</ele>
        <time>2017-03-05T01:35:32Z</time>
      </trkpt>
      <trkpt lat="44.40969" lon="3.56848">
        <ele>985</ele>
        <time>2017-03-05T01:37:32Z</time>
      </trkpt>
      <trkpt lat="44.40923" lon="3.56818">
        <ele>979</ele>
        <time>2017-03-05T01:39:32Z</time>
      </trkpt>
      <trkpt lat="44.40882" lon="3.56826">
        <ele>977</ele>
        <time>2017-03-05T01:41:32Z</time>
      </trkpt>
      <trkpt lat="44.40833" lon="3.5681">
        <ele>969</ele>
        <time>2017-03-05T01:43:32Z</time>
      </trkpt>
      <trkpt lat="44.408" lon="3.56842">
        <ele>968</ele>
        <time>2017-03-05T01:45:32Z</time>
      </trkpt>
      <trkpt lat="44.40767" lon="3.56959">
        <ele>967</ele>
        <time>2017-03-05T01:47:32Z</time>
      </trkpt>
      <trkpt lat="44.40739" lon="3.56876">
        <ele>954</ele>
        <time>2017-03-05T01:49:32Z</time>
      </trkpt>
      <trkpt lat="44.40699" lon="3.56933">
        <ele>949</ele>
        <time>2017-03-05T01:51:32Z</time>
      </trkpt>
      <trkpt lat="44.4063" lon="3.56911">
        <ele>936</ele>
        <time>2017-03-05T01:53:32Z</time>
      </trkpt>
      <trkpt lat="44.40667" lon="3.56863">
        <ele>932</ele>
        <time>2017-03-05T01:55:32Z</time>
      </trkpt>
      <trkpt lat="44.40634" lon="3.56761">
        <ele>912</ele>
        <time>2017-03-05T01:57:32Z</time>
      </trkpt>
      <trkpt lat="44.40618" lon="3.56816">
        <ele>913</ele>
        <time>2017-03-05T01:59:32Z</time>
      </trkpt>
      <trkpt lat="44.40498" lon="3.56764">
        <ele>880</ele>
        <time>2017-03-05T02:01:32Z</time>
      </trkpt>
      <trkpt lat="44.40556" lon="3.56747">
        <ele>882</ele>
        <time>2017-03-05T02:03:32Z</time>
      </trkpt>
      <trkpt lat="44.40497" lon="3.56726">
        <ele>866</ele>
        <time>2017-03-05T02:05:32Z</time>
      </trkpt>
      <trkpt lat="44.40526" lon="3.56723">
        <ele>871</ele>
        <time>2017-03-05T02:07:32Z</time>
      </trkpt>
      <trkpt lat="44.40446" lon="3.56671">
        <ele>846</ele>
        <time>2017-03-05T02:09:32Z</time>
      </trkpt>
      <trkpt lat="44.40502" lon="3.56648">
        <ele>843</ele>
        <time>2017-03-05T02:11:32Z</time>
      </trkpt>
      <trkpt lat="44.40451" lon="3.56602">
        <ele>825</ele>
        <time>2017-03-05T02:13:32Z</time>
      </trkpt>
      <trkpt lat="44.4043" lon="3.56598">
        <ele>821</ele>
        <time>2017-03-05T02:15:32Z</time>
      </trkpt>
      <trkpt lat="44.40439" lon="3.56573">
        <ele>816</ele>
        <time>2017-03-05T02:17:32Z</time>
      </trkpt>
      <trkpt lat="44.40385" lon="3.56531">
        <ele>800</ele>
        <time>2017-03-05T02:19:32Z</time>
      </trkpt>
      <trkpt lat="44.4041" lon="3.56525">
        <ele>803</ele>
        <time>2017-03-05T02:21:32Z</time>
      </trkpt>
      <trkpt lat="44.40392" lon="3.56497">
        <ele>795</ele>
        <time>2017-03-05T02:23:32Z</time>
      </trkpt>
      <trkpt lat="44.40392" lon="3.56496">
        <ele>795</ele>
        <time>2017-03-05T02:25:32Z</time>
      </trkpt>
      <trkpt lat="44.40385" lon="3.56499">
        <ele>793</ele>
        <time>2017-03-05T02:27:32Z</time>
      </trkpt>
      <trkpt lat="44.40358" lon="3.56508">
        <ele>790</ele>
        <time>2017-03-05T02:29:32Z</time>
      </trkpt>
      <trkpt lat="44.40334" lon="3.56512">
        <ele>787</ele>
        <time>2017-03-05T02:31:32Z</time>
      </trkpt>
      <trkpt lat="44.40305" lon="3.5652">
        <ele>786</ele>
        <time>2017-03-05T02:33:32Z</time>
      </trkpt>
      <trkpt lat="44.40275" lon="3.56525">
        <ele>784</ele>
        <time>2017-03-05T02:35:32Z</time>
      </trkpt>
      <trkpt lat="44.40246" lon="3.56531">
        <ele>782</ele>
        <time>2017-03-05T02:37:32Z</time>
      </trkpt>
      <trkpt lat="44.40233" lon="3.56532">
        <ele>781</ele>
        <time>2017-03-05T02:39:32Z</time>
      </trkpt>
      <trkpt lat="44.4022" lon="3.56531">
        <ele>778</ele>
        <time>2017-03-05T02:41:32Z</time>
      </trkpt>
      <trkpt lat="44.40207" lon="3.56528">
        <ele>775</ele>
        <time>2017-03-05T02:43:32Z</time>
      </trkpt>
      <trkpt lat="44.40196" lon="3.56526">
        <ele>773</ele>
        <time>2017-03-05T02:45:32Z</time>
      </trkpt>
      <trkpt lat="44.40194" lon="3.56526">
        <ele>773</ele>
        <time>2017-03-05T02:47:32Z</time>
      </trkpt>
      <trkpt lat="44.40192" lon="3.56526">
        <ele>772</ele>
        <time>2017-03-05T02:49:32Z</time>
      </trkpt>
      <trkpt lat="44.4019" lon="3.56528">
        <ele>772</ele>
        <time>2017-03-05T02:51:32Z</time>
      </trkpt>
      <trkpt lat="44.40188" lon="3.5653">
        <ele>773</ele>
        <time>2017-03-05T02:53:32Z</time>
      </trkpt>
      <trkpt lat="44.40185" lon="3.56533">
        <ele>773</ele>
        <time>2017-03-05T02:55:32Z</time>
      </trkpt>
      <trkpt lat="44.40184" lon="3.56536">
        <ele>774</ele>
        <time>2017-03-05T02:57:32Z</time>
      </trkpt>
      <trkpt lat="44.40182" lon="3.56539">
        <ele>774</ele>
        <time>2017-03-05T02:59:32Z</time>
      </trkpt>
      <trkpt lat="44.40179" lon="3.56544">
        <ele>775</ele>
        <time>2017-03-05T03:01:32Z</time>
      </trkpt>
      <trkpt lat="44.40177" lon="3.5655">
        <ele>777</ele>
        <time>2017-03-05T03:03:32Z</time>
      </trkpt>
      <trkpt lat="44.40175" lon="3.56556">
        <ele>778</ele>
        <time>2017-03-05T03:05:32Z</time>
      </trkpt>
      <trkpt lat="44.40172" lon="3.56562">
        <ele>779</ele>
        <time>2017-03-05T03:07:32Z</time>
      </trkpt>
      <trkpt lat="44.40169" lon="3.56568">
        <ele>780</ele>
        <time>2017-03-05T03:09:32Z</time>
      </trkpt>
      <trkpt lat="44.40164" lon="3.56577">
        <ele>781</ele>
        <time>2017-03-05T03:11:32Z</time>
      </trkpt>
      <trkpt lat="44.40156" lon="3.56587">
        <ele>781</ele>
        <time>2017-03-05T03:13:32Z</time>
      </trkpt>
      <trkpt lat="44.4015" lon="3.56594">
        <ele>780</ele>
        <time>2017-03-05T03:15:32Z</time>
      </trkpt>
      <trkpt lat="44.40144" lon="3.56603">
        <ele>780</ele>
        <time>2017-03-05T03:17:32Z</time>
      </trkpt>
      <trkpt lat="44.40139" lon="3.56609">
        <ele>779</ele>
        <time>2017-03-05T03:19:32Z</time>
      </trkpt>
      <trkpt lat="44.40135" lon="3.56616">
        <ele>779</ele>
        <time>2017-03-05T03:21:32Z</time>
      </trkpt>
      <trkpt lat="44.40131" lon="3.56624">
        <ele>779</ele>
        <time>2017-03-05T03:23:32Z</time>
      </trkpt>
      <trkpt lat="44.40128" lon="3.56634">
        <ele>780</ele>
        <time>2017-03-05T03:25:32Z</time>
      </trkpt>
      <trkpt lat="44.40123" lon="3.56651">
        <ele>781</ele>
        <time>2017-03-05T03:27:32Z</time>
      </trkpt>
      <trkpt lat="44.40117" lon="3.56686">
        <ele>785</ele>
        <time>2017-03-05T03:29:32Z</time>
      </trkpt>
      <trkpt lat="44.40108" lon="3.56734">
        <ele>788</ele>
        <time>2017-03-05T03:31:32Z</time>
      </trkpt>
      <trkpt lat="44.40101" lon="3.56771">
        <ele>790</ele>
        <time>2017-03-05T03:33:32Z</time>
      </trkpt>
      <trkpt lat="44.40095" lon="3.568">
        <ele>790</ele>
        <time>2017-03-05T03:35:32Z</time>
      </trkpt>
      <trkpt lat="44.40089" lon="3.56829">
        <ele>791</ele>
        <time>2017-03-05T03:37:32Z</time>
      </trkpt>
      <trkpt lat="44.40086" lon="3.56841">
        <ele>791</ele>
        <time>2017-03-05T03:39:32Z</time>
      </trkpt>
      <trkpt lat="44.40085" lon="3.56854">
        <ele>792</ele>
        <time>2017-03-05T03:41:32Z</time>
      </trkpt>
      <trkpt lat="44.40083" lon="3.5686">
        <ele>792</ele>
        <time>2017-03-05T03:43:32Z</time>
      </trkpt>
      <trkpt lat="44.40081" lon="3.56865">
        <ele>792</ele>
        <time>2017-03-05T03:45:32Z</time>
      </trkpt>
      <trkpt lat="44.40078" lon="3.56869">
        <ele>793</ele>
        <time>2017-03-05T03:47:32Z</time>
      </trkpt>
      <trkpt lat="44.40076" lon="3.56873">
        <ele>793</ele>
        <time>2017-03-05T03:49:32Z</time>
      </trkpt>
      <trkpt lat="44.40073" lon="3.56876">
        <ele>793</ele>
        <time>2017-03-05T03:51:32Z</time>
      </trkpt>
      <trkpt lat="44.4007" lon="3.56877">
        <ele>792</ele>
        <time>2017-03-05T03:53:32Z</time>
      </trkpt>
      <trkpt lat="44.40064" lon="3.56879">
        <ele>792</ele>
        <time>2017-03-05T03:55:32Z</time>
      </trkpt>
      <trkpt lat="44.40058" lon="3.5688">
        <ele>791</ele>
        <time>2017-03-05T03:57:32Z</time>
      </trkpt>
      <trkpt lat="44.40051" lon="3.56881">
        <ele>790</ele>
        <time>2017-03-05T03:59:32Z</time>
      </trkpt>
      <trkpt lat="44.40049" lon="3.56881">
        <ele>790</ele>
        <time>2017-03-05T04:01:32Z</time>
      </trkpt>
      <trkpt lat="44.40047" lon="3.56881">
        <ele>790</ele>
        <time>2017-03-05T04:03:32Z</time>
      </trkpt>
      <trkpt lat="44.40045" lon="3.56881">
        <ele>790</ele>
        <time>2017-03-05T04:05:32Z</time>
      </trkpt>
      <trkpt lat="44.40038" lon="3.56878">
        <ele>788</ele>
        <time>2017-03-05T04:07:32Z</time>
      </trkpt>
      <trkpt lat="44.40032" lon="3.56875">
        <ele>787</ele>
        <time>2017-03-05T04:09:32Z</time>
      </trkpt>
      <trkpt lat="44.40028" lon="3.56874">
        <ele>787</ele>
        <time>2017-03-05T04:11:32Z</time>
      </trkpt>
      <trkpt lat="44.40025" lon="3.56874">
        <ele>786</ele>
        <time>2017-03-05T04:13:32Z</time>
      </trkpt>
      <trkpt lat="44.40023" lon="3.56874">
        <ele>786</ele>
        <time>2017-03-05T04:15:32Z</time>
      </trkpt>
      <trkpt lat="44.40021" lon="3.56874">
        <ele>786</ele>
        <time>2017-03-05T04:17:32Z</time>
      </trkpt>
      <trkpt lat="44.4002" lon="3.56875">
        <ele>786</ele>
        <time>2017-03-05T04:19:32Z</time>
      </trkpt>
      <trkpt lat="44.40017" lon="3.56877">
        <ele>785</ele>
        <time>2017-03-05T04:21:32Z</time>
      </trkpt>
      <trkpt lat="44.40015" lon="3.5688">
        <ele>785</ele>
        <time>2017-03-05T04:23:32Z</time>
      </trkpt>
      <trkpt lat="44.40005" lon="3.569">
        <ele>786</ele>
        <time>2017-03-05T04:25:32Z</time>
      </trkpt>
      <trkpt lat="44.40005" lon="3.569">
        <ele>786</ele>
        <time>2017-03-05T04:27:32Z</time>
      </trkpt>
      <trkpt lat="44.39993" lon="3.56886">
        <ele>786</ele>
        <time>2017-03-05T04:29:32Z</time>
      </trkpt>
      <trkpt lat="44.39986" lon="3.56879">
        <ele>788</ele>
        <time>2017-03-05T04:31:32Z</time>
      </trkpt>
      <trkpt lat="44.39984" lon="3.56877">
        <ele>789</ele>
        <time>2017-03-05T04:33:32Z</time>
      </trkpt>
      <trkpt lat="44.39982" lon="3.56876">
        <ele>789</ele>
        <time>2017-03-05T04:35:32Z</time>
      </trkpt>
      <trkpt lat="44.39981" lon="3.56876">
        <ele>789</ele>
        <time>2017-03-05T04:37:32Z</time>
      </trkpt>
      <trkpt lat="44.3998" lon="3.56877">
        <ele>790</ele>
        <time>2017-03-05T04:39:32Z</time>
      </trkpt>
      <trkpt lat="44.39979" lon="3.56877">
        <ele>790</ele>
        <time>2017-03-05T04:41:32Z</time>
      </trkpt>
      <trkpt lat="44.39978" lon="3.56878">
        <ele>791</ele>
        <time>2017-03-05T04:43:32Z</time>
      </trkpt>
      <trkpt lat="44.39978" lon="3.56878">
        <ele>791</ele>
        <time>2017-03-05T04:45:32Z</time>
      </trkpt>
      <trkpt lat="44.39973" lon="3.56868">
        <ele>792</ele>
        <time>2017-03-05T04:47:32Z</time>
      </trkpt>
      <trkpt lat="44.39967" lon="3.56857">
        <ele>793</ele>
        <time>2017-03-05T04:49:32Z</time>
      </trkpt>
      <trkpt lat="44.39963" lon="3.56848">
        <ele>794</ele>
        <time>2017-03-05T04:51:32Z</time>
      </trkpt>
      <trkpt lat="44.39959" lon="3.5684">
        <ele>795</ele>
        <time>2017-03-05T04:53:32Z</time>
      </trkpt>
      <trkpt lat="44.39954" lon="3.56828">
        <ele>796</ele>
        <time>2017-03-05T04:55:32Z</time>
      </trkpt>
      <trkpt lat="44.3995" lon="3.56818">
        <ele>796</ele>
        <time>2017-03-05T04:57:32Z</time>
      </trkpt>
      <trkpt lat="44.39948" lon="3.5681">
        <ele>796</ele>
        <time>2017-03-05T04:59:32Z</time>
      </trkpt>
      <trkpt lat="44.39946" lon="3.56802">
        <ele>796</ele>
        <time>2017-03-05T05:01:32Z</time>
      </trkpt>
      <trkpt lat="44.39944" lon="3.56794">
        <ele>796</ele>
        <time>2017-03-05T05:03:32Z</time>
      </trkpt>
      <trkpt lat="44.39942" lon="3.56783">
        <ele>796</ele>
        <time>2017-03-05T05:05:32Z</time>
      </trkpt>
      <trkpt lat="44.3994" lon="3.56772">
        <ele>796</ele>
        <time>2017-03-05T05:07:32Z</time>
      </trkpt>
      <trkpt lat="44.39938" lon="3.56762">
        <ele>796</ele>
        <time>2017-03-05T05:09:32Z</time>
      </trkpt>
      <trkpt lat="44.39937" lon="3.56749">
        <ele>795</ele>
        <time>2017-03-05T05:11:32Z</time>
      </trkpt>
      <trkpt lat="44.39936" lon="3.56727">
        <ele>793</ele>
        <time>2017-03-05T05:13:32Z</time>
      </trkpt>
      <trkpt lat="44.39936" lon="3.56715">
        <ele>791</ele>
        <time>2017-03-05T05:15:32Z</time>
      </trkpt>
      <trkpt lat="44.39934" lon="3.56704">
        <ele>790</ele>
        <time>2017-03-05T05:17:32Z</time>
      </trkpt>
      <trkpt lat="44.39932" lon="3.56691">
        <ele>789</ele>
        <time>2017-03-05T05:19:32Z</time>
      </trkpt>
      <trkpt lat="44.39931" lon="3.56682">
        <ele>788</ele>
        <time>2017-03-05T05:21:32Z</time>
      </trkpt>
      <trkpt lat="44.39929" lon="3.56669">
        <ele>787</ele>
        <time>2017-03-05T05:23:32Z</time>
      </trkpt>
      <trkpt lat="44.39928" lon="3.5666">
        <ele>786</ele>
        <time>2017-03-05T05:25:32Z</time>
      </trkpt>
      <trkpt lat="44.39928" lon="3.56648">
        <ele>784</ele>
        <time>2017-03-05T05:27:32Z</time>
      </trkpt>
      <trkpt lat="44.39927" lon="3.56636">
        <ele>783</ele>
        <time>2017-03-05T05:29:32Z</time>
      </trkpt>
      <trkpt lat="44.39927" lon="3.56633">
        <ele>782</ele>
        <time>2017-03-05T05:31:32Z</time>
      </trkpt>
      <trkpt lat="44.39926" lon="3.5663">
        <ele>782</ele>
        <time>2017-03-05T05:33:32Z</time>
      </trkpt>
      <trkpt lat="44.39926" lon="3.56628">
        <ele>782</ele>
        <time>2017-03-05T05:35:32Z</time>
      </trkpt>
      <trkpt lat="44.39925" lon="3.56626">
        <ele>782</ele>
        <time>2017-03-05T05:37:32Z</time>
      </trkpt>
      <trkpt lat="44.39924" lon="3.56623">
        <ele>782</ele>
        <time>2017-03-05T05:39:32Z</time>
      </trkpt>
      <trkpt lat="44.39921" lon="3.56618">
        <ele>782</ele>
        <time>2017-03-05T05:41:32Z</time>
      </trkpt>
      <trkpt lat="44.39918" lon="3.56614">
        <ele>782</ele>
        <time>2017-03-05T05:43:32Z</time>
      </trkpt>
      <trkpt lat="44.39915" lon="3.56609">
        <ele>782</ele>
        <time>2017-03-05T05:45:32Z</time>
      </trkpt>
      <trkpt lat="44.39913" lon="3.56607">
        <ele>782</ele>
        <time>2017-03-05T05:47:32Z</time>
      </trkpt>
      <trkpt lat="44.39912" lon="3.56606">
        <ele>782</ele>
        <time>2017-03-05T05:49:32Z</time>
      </trkpt>
      <trkpt lat="44.3991" lon="3.56604">
        <ele>782</ele>
        <time>2017-03-05T05:51:32Z</time>
      </trkpt>
      <trkpt lat="44.39908" lon="3.56602">
        <ele>782</ele>
        <time>2017-03-05T05:53:32Z</time>
      </trkpt>
      <trkpt lat="44.39906" lon="3.56601">
        <ele>783</ele>
        <time>2017-03-05T05:55:32Z</time>
      </trkpt>
      <trkpt lat="44.39903" lon="3.566">
        <ele>783</ele>
        <time>2017-03-05T05:57:32Z</time>
      </trkpt>
      <trkpt lat="44.39901" lon="3.566">
        <ele>784</ele>
        <time>2017-03-05T05:59:32Z</time>
      </trkpt>
      <trkpt lat="44.39896" lon="3.56598">
        <ele>784</ele>
        <time>2017-03-05T06:01:32Z</time>
      </trkpt>
      <trkpt lat="44.39893" lon="3.56597">
        <ele>785</ele>
        <time>2017-03-05T06:03:32Z</time>
      </trkpt>
      <trkpt lat="44.39891" lon="3.56594">
        <ele>785</ele>
        <time>2017-03-05T06:05:32Z</time>
      </trkpt>
      <trkpt lat="44.39887" lon="3.56586">
        <ele>784</ele>
        <time>2017-03-05T06:07:32Z</time>
      </trkpt>
      <trkpt lat="44.39884" lon="3.56581">
        <ele>783</ele>
        <time>2017-03-05T06:09:32Z</time>
      </trkpt>
      <trkpt lat="44.39878" lon="3.56576">
        <ele>782</ele>
        <time>2017-03-05T06:11:32Z</time>
      </trkpt>
      <trkpt lat="44.39872" lon="3.5657">
        <ele>782</ele>
        <time>2017-03-05T06:13:32Z</time>
      </trkpt>
      <trkpt lat="44.39863" lon="3.56559">
        <ele>780</ele>
        <time>2017-03-05T06:15:32Z</time>
      </trkpt>
      <trkpt lat="44.39855" lon="3.56547">
        <ele>778</ele>
        <time>2017-03-05T06:17:32Z</time>
      </trkpt>
      <trkpt lat="44.3985" lon="3.56538">
        <ele>776</ele>
        <time>2017-03-05T06:19:32Z</time>
      </trkpt>
      <trkpt lat="44.39844" lon="3.5653">
        <ele>775</ele>
        <time>2017-03-05T06:21:32Z</time>
      </trkpt>
      <trkpt lat="44.3984" lon="3.56526">
        <ele>775</ele>
        <time>2017-03-05T06:23:32Z</time>
      </trkpt>
      <trkpt lat="44.39836" lon="3.56522">
        <ele>774</ele>
        <time>2017-03-05T06:25:32Z</time>
      </trkpt>
      <trkpt lat="44.39813" lon="3.56515">
        <ele>776</ele>
        <time>2017-03-05T06:27:32Z</time>
      </trkpt>
      <trkpt lat="44.39798" lon="3.56511">
        <ele>777</ele>
        <time>2017-03-05T06:29:32Z</time>
      </trkpt>
      <trkpt lat="44.39781" lon="3.56509">
        <ele>779</ele>
        <time>2017-03-05T06:31:32Z</time>
      </trkpt>
      <trkpt lat="44.39771" lon="3.56507">
        <ele>780</ele>
        <time>2017-03-05T06:33:32Z</time>
      </trkpt>
      <trkpt lat="44.39761" lon="3.56504">
        <ele>780</ele>
        <time>2017-03-05T06:35:32Z</time>
      </trkpt>
      <trkpt lat="44.39752" lon="3.56503">
        <ele>781</ele>
        <time>2017-03-05T06:37:32Z</time>
      </trkpt>
      <trkpt lat="44.39746" lon="3.56502">
        <ele>783</ele>
        <time>2017-03-05T06:39:32Z</time>
      </trkpt>
      <trkpt lat="44.39744" lon="3.56501">
        <ele>784</ele>
        <time>2017-03-05T06:41:32Z</time>
      </trkpt>
      <trkpt lat="44.39743" lon="3.56499">
        <ele>784</ele>
        <time>2017-03-05T06:43:32Z</time>
      </trkpt>
      <trkpt lat="44.39742" lon="3.56496">
        <ele>784</ele>
        <time>2017-03-05T06:45:32Z</time>
      </trkpt>
      <trkpt lat="44.39742" lon="3.56492">
        <ele>784</ele>
        <time>2017-03-05T06:47:32Z</time>
      </trkpt>
      <trkpt lat="44.39743" lon="3.56484">
        <ele>782</ele>
        <time>2017-03-05T06:49:32Z</time>
      </trkpt>
      <trkpt lat="44.39745" lon="3.56476">
        <ele>781</ele>
        <time>2017-03-05T06:51:32Z</time>
      </trkpt>
      <trkpt lat="44.3975" lon="3.56466">
        <ele>778</ele>
        <time>2017-03-05T06:53:32Z</time>
      </trkpt>
      <trkpt lat="44.39755" lon="3.56458">
        <ele>776</ele>
        <time>2017-03-05T06:55:32Z</time>
      </trkpt>
      <trkpt lat="44.39759" lon="3.56448">
        <ele>774</ele>
        <time>2017-03-05T06:57:32Z</time>
      </trkpt>
      <trkpt lat="44.3976" lon="3.56444">
        <ele>773</ele>
        <time>2017-03-05T06:59:32Z</time>
      </trkpt>
      <trkpt lat="44.39761" lon="3.5644">
        <ele>772</ele>
        <time>2017-03-05T07:01:32Z</time>
      </trkpt>
      <trkpt lat="44.39762" lon="3.56436">
        <ele>771</ele>
        <time>2017-03-05T07:03:32Z</time>
      </trkpt>
      <trkpt lat="44.39762" lon="3.56432">
        <ele>771</ele>
        <time>2017-03-05T07:05:32Z</time>
      </trkpt>
      <trkpt lat="44.39762" lon="3.56427">
        <ele>770</ele>
        <time>2017-03-05T07:07:32Z</time>
      </trkpt>
      <trkpt lat="44.3976" lon="3.56412">
        <ele>769</ele>
        <time>2017-03-05T07:09:32Z</time>
      </trkpt>
      <trkpt lat="44.39758" lon="3.56399">
        <ele>769</ele>
        <time>2017-03-05T07:11:32Z</time>
      </trkpt>
      <trkpt lat="44.39755" lon="3.56382">
        <ele>768</ele>
        <time>2017-03-05T07:13:32Z</time>
      </trkpt>
      <trkpt lat="44.39752" lon="3.56368">
        <ele>768</ele>
        <time>2017-03-05T07:15:32Z</time>
      </trkpt>
      <trkpt lat="44.39752" lon="3.56361">
        <ele>768</ele>
        <time>2017-03-05T07:17:32Z</time>
      </trkpt>
      <trkpt lat="44.39749" lon="3.56343">
        <ele>767</ele>
        <time>2017-03-05T07:19:32Z</time>
      </trkpt>
      <trkpt lat="44.39748" lon="3.56323">
        <ele>765</ele>
        <time>2017-03-05T07:21:32Z</time>
      </trkpt>
      <trkpt lat="44.39748" lon="3.56308">
        <ele>763</ele>
        <time>2017-03-05T07:23:32Z</time>
      </trkpt>
      <trkpt lat="44.39748" lon="3.56296">
        <ele>761</ele>
        <time>2017-03-05T07:25:32Z</time>
      </trkpt>
      <trkpt lat="44.39749" lon="3.56286">
        <ele>759</ele>
        <time>2017-03-05T07:27:32Z</time>
      </trkpt>
      <trkpt lat="44.39751" lon="3.56278">
        <ele>757</ele>
        <time>2017-03-05T07:29:32Z</time>
      </trkpt>
      <trkpt lat="44.39752" lon="3.56271">
        <ele>755</ele>
        <time>2017-03-05T07:31:32Z</time>
      </trkpt>
      <trkpt lat="44.39752" lon="3.56267">
        <ele>755</ele>
        <time>2017-03-05T07:33:32Z</time>
      </trkpt>
      <trkpt lat="44.39751" lon="3.56261">
        <ele>754</ele>
        <time>2017-03-05T07:35:32Z</time>
      </trkpt>
      <trkpt lat="44.3975" lon="3.5625">
        <ele>753</ele>
        <time>2017-03-05T07:37:32Z</time>
      </trkpt>
      <trkpt lat="44.39748" lon="3.56241">
        <ele>750</ele>
        <time>2017-03-05T07:39:32Z</time>
      </trkpt>
      <trkpt lat="44.39747" lon="3.56234">
        <ele>748</ele>
        <time>2017-03-05T07:41:32Z</time>
      </trkpt>
      <trkpt lat="44.39746" lon="3.56229">
        <ele>746</ele>
        <time>2017-03-05T07:43:32Z</time>
      </trkpt>
      <trkpt lat="44.39746" lon="3.56224">
        <ele>744</ele>
        <time>2017-03-05T07:45:32Z</time>
      </trkpt>
      <trkpt lat="44.39745" lon="3.5622">
        <ele>743</ele>
        <time>2017-03-05T07:47:32Z</time>
      </trkpt>
      <trkpt lat="44.39744" lon="3.56216">
        <ele>742</ele>
        <time>2017-03-05T07:49:32Z</time>
      </trkpt>
      <trkpt lat="44.39743" lon="3.56212">
        <ele>741</ele>
        <time>2017-03-05T07:51:32Z</time>
      </trkpt>
      <trkpt lat="44.39739" lon="3.56207">
        <ele>740</ele>
        <time>2017-03-05T07:53:32Z</time>
      </trkpt>
      <trkpt lat="44.39737" lon="3.56203">
        <ele>739</ele>
        <time>2017-03-05T07:55:32Z</time>
      </trkpt>
      <trkpt lat="44.39734" lon="3.562">
        <ele>738</ele>
        <time>2017-03-05T07:57:32Z</time>
      </trkpt>
      <trkpt lat="44.39732" lon="3.56197">
        <ele>738</ele>
        <time>2017-03-05T07:59:32Z</time>
      </trkpt>
      <trkpt lat="44.39729" lon="3.56195">
        <ele>738</ele>
        <time>2017-03-05T08:01:32Z</time>
      </trkpt>
      <trkpt lat="44.39726" lon="3.56193">
        <ele>738</ele>
        <time>2017-03-05T08:03:32Z</time>
      </trkpt>
      <trkpt lat="44.39723" lon="3.56193">
        <ele>738</ele>
        <time>2017-03-05T08:05:32Z</time>
      </trkpt>
      <trkpt lat="44.39715" lon="3.56193">
        <ele>740</ele>
        <time>2017-03-05T08:07:32Z</time>
      </trkpt>
      <trkpt lat="44.397" lon="3.56194">
        <ele>744</ele>
        <time>2017-03-05T08:09:32Z</time>
      </trkpt>
      <trkpt lat="44.39678" lon="3.56193">
        <ele>749</ele>
        <time>2017-03-05T08:11:32Z</time>
      </trkpt>
      <trkpt lat="44.39658" lon="3.56193">
        <ele>752</ele>
        <time>2017-03-05T08:13:32Z</time>
      </trkpt>
      <trkpt lat="44.39643" lon="3.56193">
        <ele>751</ele>
        <time>2017-03-05T08:15:32Z</time>
      </trkpt>
      <trkpt lat="44.39621" lon="3.56193">
        <ele>750</ele>
        <time>2017-03-05T08:17:32Z</time>
      </trkpt>
      <trkpt lat="44.39618" lon="3.56194">
        <ele>750</ele>
        <time>2017-03-05T08:19:32Z</time>
      </trkpt>
      <trkpt lat="44.39614" lon="3.56195">
        <ele>750</ele>
        <time>2017-03-05T08:21:32Z</time>
      </trkpt>
      <trkpt lat="44.39603" lon="3.56199">
        <ele>751</ele>
        <time>2017-03-05T08:23:32Z</time>
      </trkpt>
      <trkpt lat="44.39598" lon="3.562">
        <ele>751</ele>
        <time>2017-03-05T08:25:32Z</time>
      </trkpt>
      <trkpt lat="44.39594" lon="3.56201">
        <ele>751</ele>
        <time>2017-03-05T08:27:32Z</time>
      </trkpt>
      <trkpt lat="44.3959" lon="3.56201">
        <ele>751</ele>
        <time>2017-03-05T08:29:32Z</time>
      </trkpt>
      <trkpt lat="44.39585" lon="3.562">
        <ele>750</ele>
        <time>2017-03-05T08:31:32Z</time>
      </trkpt>
      <trkpt lat="44.39581" lon="3.56198">
        <ele>749</ele>
        <time>2017-03-05T08:33:32Z</time>
      </trkpt>
      <trkpt lat="44.39573" lon="3.56192">
        <ele>746</ele>
        <time>2017-03-05T08:35:32Z</time>
      </trkpt>
      <trkpt lat="44.39557" lon="3.56183">
        <ele>742</ele>
        <time>2017-03-05T08:37:32Z</time>
      </trkpt>
      <trkpt lat="44.39541" lon="3.56175">
        <ele>738</ele>
        <time>2017-03-05T08:39:32Z</time>
      </trkpt>
      <trkpt lat="44.39522" lon="3.5617">
        <ele>734</ele>
        <time>2017-03-05T08:41:32Z</time>
      </trkpt>
      <trkpt lat="44.39505" lon="3.56165">
        <ele>731</ele>
        <time>2017-03-05T08:43:32Z</time>
      </trkpt>
      <trkpt lat="44.39492" lon="3.56166">
        <ele>730</ele>
        <time>2017-03-05T08:45:32Z</time>
      </trkpt>
      <trkpt lat="44.39479" lon="3.5617">
        <ele>731</ele>
        <time>2017-03-05T08:47:32Z</time>
      </trkpt>
      <trkpt lat="44.39466" lon="3.56178">
        <ele>732</ele>
        <time>2017-03-05T08:49:32Z</time>
      </trkpt>
      <trkpt lat="44.39453" lon="3.56187">
        <ele>734</ele>
        <time>2017-03-05T08:51:32Z</time>
      </trkpt>
      <trkpt lat="44.39443" lon="3.56194">
        <ele>735</ele>
        <time>2017-03-05T08:53:32Z</time>
      </trkpt>
      <trkpt lat="44.39439" lon="3.56196">
        <ele>736</ele>
        <time>2017-03-05T08:55:32Z</time>
      </trkpt>
      <trkpt lat="44.39432" lon="3.56194">
        <ele>734</ele>
        <time>2017-03-05T08:57:32Z</time>
      </trkpt>
      <trkpt lat="44.39429" lon="3.56191">
        <ele>733</ele>
        <time>2017-03-05T08:59:32Z</time>
      </trkpt>
      <trkpt lat="44.39426" lon="3.56186">
        <ele>732</ele>
        <time>2017-03-05T09:01:32Z</time>
      </trkpt>
      <trkpt lat="44.39424" lon="3.56183">
        <ele>730</ele>
        <time>2017-03-05T09:03:32Z</time>
      </trkpt>
      <trkpt lat="44.39416" lon="3.56163">
        <ele>724</ele>
        <time>2017-03-05T09:05:32Z</time>
      </trkpt>
      <trkpt lat="44.39414" lon="3.56156">
        <ele>722</ele>
        <time>2017-03-05T09:07:32Z</time>
      </trkpt>
      <trkpt lat="44.39411" lon="3.56152">
        <ele>721</ele>
        <time>2017-03-05T09:09:32Z</time>
      </trkpt>
      <trkpt lat="44.39404" lon="3.56148">
        <ele>721</ele>
        <time>2017-03-05T09:11:32Z</time>
      </trkpt>
      <trkpt lat="44.39389" lon="3.56142">
        <ele>721</ele>
        <time>2017-03-05T09:13:32Z</time>
      </trkpt>
      <trkpt lat="44.3937" lon="3.56134">
        <ele>721</ele>
        <time>2017-03-05T09:15:32Z</time>
      </trkpt>
      <trkpt lat="44.39353" lon="3.56128">
        <ele>721</ele>
        <time>2017-03-05T09:17:32Z</time>
      </trkpt>
      <trkpt lat="44.39336" lon="3.5612">
        <ele>720</ele>
        <time>2017-03-05T09:19:32Z</time>
      </trkpt>
      <trkpt lat="44.39325" lon="3.56114">
        <ele>719</ele>
        <time>2017-03-05T09:21:32Z</time>
      </trkpt>
      <trkpt lat="44.39301" lon="3.56096">
        <ele>714</ele>
        <time>2017-03-05T09:23:32Z</time>
      </trkpt>
      <trkpt lat="44.39285" lon="3.56087">
        <ele>712</ele>
        <time>2017-03-05T09:25:32Z</time>
      </trkpt>
      <trkpt lat="44.39273" lon="3.56081">
        <ele>712</ele>
        <time>2017-03-05T09:27:32Z</time>
      </trkpt>
      <trkpt lat="44.39266" lon="3.56081">
        <ele>713</ele>
        <time>2017-03-05T09:29:32Z</time>
      </trkpt>
      <trkpt lat="44.39257" lon="3.56083">
        <ele>715</ele>
        <time>2017-03-05T09:31:32Z</time>
      </trkpt>
      <trkpt lat="44.39252" lon="3.56084">
        <ele>716</ele>
        <time>2017-03-05T09:33:32Z</time>
      </trkpt>
      <trkpt lat="44.39238" lon="3.56089">
        <ele>716</ele>
        <time>2017-03-05T09:35:32Z</time>
      </trkpt>
      <trkpt lat="44.3921" lon="3.561">
        <ele>716</ele>
        <time>2017-03-05T09:37:32Z</time>
      </trkpt>
      <trkpt lat="44.39195" lon="3.56109">
        <ele>716</ele>
        <time>2017-03-05T09:39:32Z</time>
      </trkpt>
      <trkpt lat="44.39186" lon="3.56119">
        <ele>718</ele>
        <time>2017-03-05T09:41:32Z</time>
      </trkpt>
      <trkpt lat="44.39179" lon="3.56129">
        <ele>719</ele>
        <time>2017-03-05T09:43:32Z</time>
      </trkpt>
      <trkpt lat="44.39173" lon="3.56139">
        <ele>721</ele>
        <time>2017-03-05T09:45:32Z</time>
      </trkpt>
      <trkpt lat="44.39166" lon="3.56147">
        <ele>721</ele>
        <time>2017-03-05T09:47:32Z</time>
      </trkpt>
      <trkpt lat="44.39159" lon="3.56151">
        <ele>721</ele>
        <time>2017-03-05T09:49:32Z</time>
      </trkpt>
      <trkpt lat="44.39148" lon="3.56153">
        <ele>719</ele>
        <time>2017-03-05T09:51:32Z</time>
      </trkpt>
      <trkpt lat="44.39142" lon="3.56153">
        <ele>717</ele>
        <time>2017-03-05T09:53:32Z</time>
      </trkpt>
      <trkpt lat="44.39138" lon="3.56155">
        <ele>717</ele>
        <time>2017-03-05T09:55:32Z</time>
      </trkpt>
      <trkpt lat="44.39133" lon="3.56156">
        <ele>716</ele>
        <time>2017-03-05T09:57:32Z</time>
      </trkpt>
      <trkpt lat="44.39129" lon="3.56156">
        <ele>715</ele>
        <time>2017-03-05T09:59:32Z</time>
      </trkpt>
      <trkpt lat="44.39123" lon="3.56152">
        <ele>713</ele>
        <time>2017-03-05T10:01:32Z</time>
      </trkpt>
      <trkpt lat="44.39119" lon="3.56148">
        <ele>711</ele>
        <time>2017-03-05T10:03:32Z</time>
      </trkpt>
      <trkpt lat="44.39115" lon="3.56142">
        <ele>709</ele>
        <time>2017-03-05T10:05:32Z</time>
      </trkpt>
      <trkpt lat="44.39111" lon="3.56137">
        <ele>707</ele>
        <time>2017-03-05T10:07:32Z</time>
      </trkpt>
      <trkpt lat="44.39108" lon="3.56134">
        <ele>706</ele>
        <time>2017-03-05T10:09:32Z</time>
      </trkpt>
      <trkpt lat="44.39102" lon="3.5613">
        <ele>704</ele>
        <time>2017-03-05T10:11:32Z</time>
      </trkpt>
      <trkpt lat="44.39076" lon="3.56119">
        <ele>698</ele>
        <time>2017-03-05T10:13:32Z</time>
      </trkpt>
      <trkpt lat="44.39065" lon="3.56114">
        <ele>695</ele>
        <time>2017-03-05T10:15:32Z</time>
      </trkpt>
      <trkpt lat="44.39059" lon="3.5611">
        <ele>694</ele>
        <time>2017-03-05T10:17:32Z</time>
      </trkpt>
      <trkpt lat="44.39053" lon="3.56107">
        <ele>692</ele>
        <time>2017-03-05T10:19:32Z</time>
      </trkpt>
      <trkpt lat="44.39048" lon="3.56106">
        <ele>691</ele>
        <time>2017-03-05T10:21:32Z</time>
      </trkpt>
      <trkpt lat="44.39043" lon="3.56103">
        <ele>690</ele>
        <time>2017-03-05T10:23:32Z</time>
      </trkpt>
      <trkpt lat="44.39039" lon="3.56097">
        <ele>690</ele>
        <time>2017-03-05T10:25:32Z</time>
      </trkpt>
      <trkpt lat="44.39035" lon="3.5609">
        <ele>689</ele>
        <time>2017-03-05T10:27:32Z</time>
      </trkpt>
      <trkpt lat="44.39026" lon="3.56079">
        <ele>687</ele>
        <time>2017-03-05T10:29:32Z</time>
      </trkpt>
      <trkpt lat="44.3902" lon="3.56068">
        <ele>684</ele>
        <time>2017-03-05T10:31:32Z</time>
      </trkpt>
      <trkpt lat="44.39017" lon="3.5606">
        <ele>683</ele>
        <time>2017-03-05T10:33:32Z</time>
      </trkpt>
      <trkpt lat="44.39017" lon="3.56055">
        <ele>682</ele>
        <time>2017-03-05T10:35:32Z</time>
      </trkpt>
      <trkpt lat="44.39017" lon="3.56044">
        <ele>680</ele>
        <time>2017-03-05T10:37:32Z</time>
      </trkpt>
      <trkpt lat="44.39018" lon="3.56021">
        <ele>675</ele>
        <time>2017-03-05T10:39:32Z</time>
      </trkpt>
      <trkpt lat="44.39019" lon="3.56006">
        <ele>673</ele>
        <time>2017-03-05T10:41:32Z</time>
      </trkpt>
      <trkpt lat="44.39019" lon="3.56">
        <ele>672</ele>
        <time>2017-03-05T10:43:32Z</time>
      </trkpt>
      <trkpt lat="44.39017" lon="3.55995">
        <ele>670</ele>
        <time>2017-03-05T10:45:32Z</time>
      </trkpt>
      <trkpt lat="44.39013" lon="3.55987">
        <ele>668</ele>
        <time>2017-03-05T10:47:32Z</time>
      </trkpt>
      <trkpt lat="44.39006" lon="3.5598">
        <ele>666</ele>
        <time>2017-03-05T10:49:32Z</time>
      </trkpt>
      <trkpt lat="44.38997" lon="3.5597">
        <ele>663</ele>
        <time>2017-03-05T10:51:32Z</time>
      </trkpt>
      <trkpt lat="44.38988" lon="3.55954">
        <ele>658</ele>
        <time>2017-03-05T10:53:32Z</time>
      </trkpt>
      <trkpt lat="44.38976" lon="3.55935">
        <ele>653</ele>
        <time>2017-03-05T10:55:32Z</time>
      </trkpt>
      <trkpt lat="44.38964" lon="3.55901">
        <ele>644</ele>
        <time>2017-03-05T10:57:32Z</time>
      </trkpt>
      <trkpt lat="44.38953" lon="3.55867">
        <ele>633</ele>
        <time>2017-03-05T10:59:32Z</time>
      </trkpt>
      <trkpt lat="44.38948" lon="3.5584">
        <ele>624</ele>
        <time>2017-03-05T11:01:32Z</time>
      </trkpt>
      <trkpt lat="44.38945" lon="3.5583">
        <ele>621</ele>
        <time>2017-03-05T11:03:32Z</time>
      </trkpt>
      <trkpt lat="44.38942" lon="3.55824">
        <ele>619</ele>
        <time>2017-03-05T11:05:32Z</time>
      </trkpt>
      <trkpt lat="44.38936" lon="3.55819">
        <ele>618</ele>
        <time>2017-03-05T11:07:32Z</time>
      </trkpt>
      <trkpt lat="44.38924" lon="3.55815">
        <ele>618</ele>
        <time>2017-03-05T11:09:32Z</time>
      </trkpt>
      <trkpt lat="44.38901" lon="3.55806">
        <ele>612</ele>
        <time>2017-03-05T11:11:32Z</time>
      </trkpt>
      <trkpt lat="44.38864" lon="3.55796">
        <ele>603</ele>
        <time>2017-03-05T11:13:32Z</time>
      </trkpt>
      <trkpt lat="44.38839" lon="3.55789">
        <ele>597</ele>
        <time>2017-03-05T11:15:32Z</time>
      </trkpt>
      <trkpt lat="44.38812" lon="3.55784">
        <ele>592</ele>
        <time>2017-03-05T11:17:32Z</time>
      </trkpt>
      <trkpt lat="44.38803" lon="3.55781">
        <ele>591</ele>
        <time>2017-03-05T11:19:32Z</time>
      </trkpt>
      <trkpt lat="44.38796" lon="3.55778">
        <ele>589</ele>
        <time>2017-03-05T11:21:32Z</time>
      </trkpt>
      <trkpt lat="44.38791" lon="3.55772">
        <ele>587</ele>
        <time>2017-03-05T11:23:32Z</time>
      </trkpt>
      <trkpt lat="44.38788" lon="3.55766">
        <ele>586</ele>
        <time>2017-03-05T11:25:32Z</time>
      </trkpt>
      <trkpt lat="44.38786" lon="3.55761">
        <ele>584</ele>
        <time>2017-03-05T11:27:32Z</time>
      </trkpt>
      <trkpt lat="44.38785" lon="3.55758">
        <ele>584</ele>
        <time>2017-03-05T11:29:32Z</time>
      </trkpt>
      <trkpt lat="44.38783" lon="3.55753">
        <ele>582</ele>
        <time>2017-03-05T11:31:32Z</time>
      </trkpt>
      <trkpt lat="44.38783" lon="3.55753">
        <ele>582</ele>
        <time>2017-03-05T11:33:32Z</time>
      </trkpt>
      <trkpt lat="44.38781" lon="3.55753">
        <ele>582</ele>
        <time>2017-03-05T11:35:32Z</time>
      </trkpt>
      <trkpt lat="44.38777" lon="3.55752">
        <ele>581</ele>
        <time>2017-03-05T11:37:32Z</time>
      </trkpt>
      <trkpt lat="44.3877" lon="3.55751">
        <ele>580</ele>
        <time>2017-03-05T11:39:32Z</time>
      </trkpt>
      <trkpt lat="44.38767" lon="3.5575">
        <ele>580</ele>
        <time>2017-03-05T11:41:32Z</time>
      </trkpt>
      <trkpt lat="44.38764" lon="3.55749">
        <ele>580</ele>
        <time>2017-03-05T11:43:32Z</time>
      </trkpt>
      <trkpt lat="44.38761" lon="3.55746">
        <ele>579</ele>
        <time>2017-03-05T11:45:32Z</time>
      </trkpt>
      <trkpt lat="44.38756" lon="3.5574">
        <ele>579</ele>
        <time>2017-03-05T11:47:32Z</time>
      </trkpt>
      <trkpt lat="44.38736" lon="3.55713">
        <ele>581</ele>
        <time>2017-03-05T11:49:32Z</time>
      </trkpt>
      <trkpt lat="44.38718" lon="3.55689">
        <ele>580</ele>
        <time>2017-03-05T11:51:32Z</time>
      </trkpt>
      <trkpt lat="44.38715" lon="3.55685">
        <ele>580</ele>
        <time>2017-03-05T11:53:32Z</time>
      </trkpt>
      <trkpt lat="44.38708" lon="3.55677">
        <ele>579</ele>
        <time>2017-03-05T11:55:32Z</time>
      </trkpt>
      <trkpt lat="44.38689" lon="3.55655">
        <ele>578</ele>
        <time>2017-03-05T11:57:32Z</time>
      </trkpt>
      <trkpt lat="44.38678" lon="3.55639">
        <ele>578</ele>
        <time>2017-03-05T11:59:32Z</time>
      </trkpt>
      <trkpt lat="44.38673" lon="3.5563">
        <ele>578</ele>
        <time>2017-03-05T12:01:32Z</time>
      </trkpt>
      <trkpt lat="44.3867" lon="3.55624">
        <ele>579</ele>
        <time>2017-03-05T12:03:32Z</time>
      </trkpt>
      <trkpt lat="44.38667" lon="3.5562">
        <ele>579</ele>
        <time>2017-03-05T12:05:32Z</time>
      </trkpt>
      <trkpt lat="44.38665" lon="3.55617">
        <ele>579</ele>
        <time>2017-03-05T12:07:32Z</time>
      </trkpt>
      <trkpt lat="44.38662" lon="3.55614">
        <ele>579</ele>
        <time>2017-03-05T12:09:32Z</time>
      </trkpt>
      <trkpt lat="44.38653" lon="3.55605">
        <ele>578</ele>
        <time>2017-03-05T12:11:32Z</time>
      </trkpt>
      <trkpt lat="44.38644" lon="3.55596">
        <ele>578</ele>
        <time>2017-03-05T12:13:32Z</time>
      </trkpt>
      <trkpt lat="44.38631" lon="3.5558">
        <ele>576</ele>
        <time>2017-03-05T12:15:32Z</time>
      </trkpt>
      <trkpt lat="44.38627" lon="3.55573">
        <ele>577</ele>
        <time>2017-03-05T12:17:32Z</time>
      </trkpt>
      <trkpt lat="44.38622" lon="3.55568">
        <ele>577</ele>
        <time>2017-03-05T12:19:32Z</time>
      </trkpt>
      <trkpt lat="44.38611" lon="3.55555">
        <ele>577</ele>
        <time>2017-03-05T12:21:32Z</time>
      </trkpt>
      <trkpt lat="44.386" lon="3.55544">
        <ele>577</ele>
        <time>2017-03-05T12:23:32Z</time>
      </trkpt>
      <trkpt lat="44.38595" lon="3.55539">
        <ele>577</ele>
        <time>2017-03-05T12:25:32Z</time>
      </trkpt>
      <trkpt lat="44.38591" lon="3.55536">
        <ele>576</ele>
        <time>2017-03-05T12:27:32Z</time>
      </trkpt>
      <trkpt lat="44.38577" lon="3.55528">
        <ele>575</ele>
        <time>2017-03-05T12:29:32Z</time>
      </trkpt>
      <trkpt lat="44.38566" lon="3.55523">
        <ele>574</ele>
        <time>2017-03-05T12:31:32Z</time>
      </trkpt>
      <trkpt lat="44.38558" lon="3.55521">
        <ele>573</ele>
        <time>2017-03-05T12:33:32Z</time>
      </trkpt>
      <trkpt lat="44.38537" lon="3.55518">
        <ele>570</ele>
        <time>2017-03-05T12:35:32Z</time>
      </trkpt>
      <trkpt lat="44.38526" lon="3.55516">
        <ele>568</ele>
        <time>2017-03-05T12:37:32Z</time>
      </trkpt>
      <trkpt lat="44.38514" lon="3.55514">
        <ele>566</ele>
        <time>2017-03-05T12:39:32Z</time>
      </trkpt>
      <trkpt lat="44.38505" lon="3.55514">
        <ele>564</ele>
        <time>2017-03-05T12:41:32Z</time>
      </trkpt>
      <trkpt lat="44.38497" lon="3.55512">
        <ele>563</ele>
        <time>2017-03-05T12:43:32Z</time>
      </trkpt>
      <trkpt lat="44.38486" lon="3.55511">
        <ele>564</ele>
        <time>2017-03-05T12:45:32Z</time>
      </trkpt>
      <trkpt lat="44.38474" lon="3.55509">
        <ele>564</ele>
        <time>2017-03-05T12:47:32Z</time>
      </trkpt>
      <trkpt lat="44.38467" lon="3.55506">
        <ele>563</ele>
        <time>2017-03-05T12:49:32Z</time>
      </trkpt>
      <trkpt lat="44.38459" lon="3.555">
        <ele>562</ele>
        <time>2017-03-05T12:51:32Z</time>
      </trkpt>
      <trkpt lat="44.3845" lon="3.55491">
        <ele>563</ele>
        <time>2017-03-05T12:53:32Z</time>
      </trkpt>
      <trkpt lat="44.38441" lon="3.5548">
        <ele>564</ele>
        <time>2017-03-05T12:55:32Z</time>
      </trkpt>
      <trkpt lat="44.38429" lon="3.55463">
        <ele>565</ele>
        <time>2017-03-05T12:57:32Z</time>
      </trkpt>
      <trkpt lat="44.38419" lon="3.55449">
        <ele>564</ele>
        <time>2017-03-05T12:59:32Z</time>
      </trkpt>
      <trkpt lat="44.38412" lon="3.5543">
        <ele>565</ele>
        <time>2017-03-05T13:01:32Z</time>
      </trkpt>
      <trkpt lat="44.38409" lon="3.55426">
        <ele>565</ele>
        <time>2017-03-05T13:03:32Z</time>
      </trkpt>
      <trkpt lat="44.38407" lon="3.55423">
        <ele>564</ele>
        <time>2017-03-05T13:05:32Z</time>
      </trkpt>
      <trkpt lat="44.38402" lon="3.5542">
        <ele>564</ele>
        <time>2017-03-05T13:07:32Z</time>
      </trkpt>
      <trkpt lat="44.38383" lon="3.55414">
        <ele>564</ele>
        <time>2017-03-05T13:09:32Z</time>
      </trkpt>
      <trkpt lat="44.38365" lon="3.55411">
        <ele>564</ele>
        <time>2017-03-05T13:11:32Z</time>
      </trkpt>
      <trkpt lat="44.38344" lon="3.55411">
        <ele>563</ele>
        <time>2017-03-05T13:13:32Z</time>
      </trkpt>
      <trkpt lat="44.38339" lon="3.5541">
        <ele>563</ele>
        <time>2017-03-05T13:15:32Z</time>
      </trkpt>
      <trkpt lat="44.38336" lon="3.55408">
        <ele>563</ele>
        <time>2017-03-05T13:17:32Z</time>
      </trkpt>
      <trkpt lat="44.38333" lon="3.55405">
        <ele>564</ele>
        <time>2017-03-05T13:19:32Z</time>
      </trkpt>
      <trkpt lat="44.38331" lon="3.55403">
        <ele>564</ele>
        <time>2017-03-05T13:21:32Z</time>
      </trkpt>
      <trkpt lat="44.38322" lon="3.55402">
        <ele>564</ele>
        <time>2017-03-05T13:23:32Z</time>
      </trkpt>
      <trkpt lat="44.38311" lon="3.55403">
        <ele>562</ele>
        <time>2017-03-05T13:25:32Z</time>
      </trkpt>
      <trkpt lat="44.38303" lon="3.55404">
        <ele>560</ele>
        <time>2017-03-05T13:27:32Z</time>
      </trkpt>
      <trkpt lat="44.38294" lon="3.55402">
        <ele>560</ele>
        <time>2017-03-05T13:29:32Z</time>
      </trkpt>
      <trkpt lat="44.38287" lon="3.55398">
        <ele>560</ele>
        <time>2017-03-05T13:31:32Z</time>
      </trkpt>
      <trkpt lat="44.38277" lon="3.55391">
        <ele>560</ele>
        <time>2017-03-05T13:33:32Z</time>
      </trkpt>
      <trkpt lat="44.38269" lon="3.55384">
        <ele>561</ele>
        <time>2017-03-05T13:35:32Z</time>
      </trkpt>
      <trkpt lat="44.38263" lon="3.55378">
        <ele>561</ele>
        <time>2017-03-05T13:37:32Z</time>
      </trkpt>
      <trkpt lat="44.38256" lon="3.55372">
        <ele>561</ele>
        <time>2017-03-05T13:39:32Z</time>
      </trkpt>
      <trkpt lat="44.38238" lon="3.55358">
        <ele>562</ele>
        <time>2017-03-05T13:41:32Z</time>
      </trkpt>
      <trkpt lat="44.3823" lon="3.55352">
        <ele>562</ele>
        <time>2017-03-05T13:43:32Z</time>
      </trkpt>
      <trkpt lat="44.38226" lon="3.55346">
        <ele>562</ele>
        <time>2017-03-05T13:45:32Z</time>
      </trkpt>
      <trkpt lat="44.38222" lon="3.55341">
        <ele>561</ele>
        <time>2017-03-05T13:47:32Z</time>
      </trkpt>
      <trkpt lat="44.38215" lon="3.55331">
        <ele>561</ele>
        <time>2017-03-05T13:49:32Z</time>
      </trkpt>
      <trkpt lat="44.38204" lon="3.55316">
        <ele>562</ele>
        <time>2017-03-05T13:51:32Z</time>
      </trkpt>
      <trkpt lat="44.38192" lon="3.553">
        <ele>563</ele>
        <time>2017-03-05T13:53:32Z</time>
      </trkpt>
      <trkpt lat="44.38179" lon="3.55286">
        <ele>561</ele>
        <time>2017-03-05T13:55:32Z</time>
      </trkpt>
      <trkpt lat="44.3817" lon="3.55279">
        <ele>559</ele>
        <time>2017-03-05T13:57:32Z</time>
      </trkpt>
      <trkpt lat="44.3816" lon="3.55271">
        <ele>559</ele>
        <time>2017-03-05T13:59:32Z</time>
      </trkpt>
      <trkpt lat="44.38151" lon="3.55261">
        <ele>558</ele>
        <time>2017-03-05T14:01:32Z</time>
      </trkpt>
      <trkpt lat="44.38144" lon="3.55254">
        <ele>558</ele>
        <time>2017-03-05T14:03:32Z</time>
      </trkpt>
      <trkpt lat="44.38136" lon="3.55247">
        <ele>557</ele>
        <time>2017-03-05T14:05:32Z</time>
      </trkpt>
      <trkpt lat="44.38127" lon="3.55242">
        <ele>556</ele>
        <time>2017-03-05T14:07:32Z</time>
      </trkpt>
      <trkpt lat="44.38116" lon="3.55231">
        <ele>556</ele>
        <time>2017-03-05T14:09:32Z</time>
      </trkpt>
      <trkpt lat="44.38105" lon="3.55222">
        <ele>556</ele>
        <time>2017-03-05T14:11:32Z</time>
      </trkpt>
      <trkpt lat="44.38094" lon="3.55218">
        <ele>553</ele>
        <time>2017-03-05T14:13:32Z</time>
      </trkpt>
      <trkpt lat="44.38066" lon="3.55212">
        <ele>551</ele>
        <time>2017-03-05T14:15:32Z</time>
      </trkpt>
      <trkpt lat="44.38044" lon="3.55211">
        <ele>551</ele>
        <time>2017-03-05T14:17:32Z</time>
      </trkpt>
      <trkpt lat="44.38032" lon="3.55208">
        <ele>551</ele>
        <time>2017-03-05T14:19:32Z</time>
      </trkpt>
      <trkpt lat="44.38023" lon="3.55204">
        <ele>550</ele>
        <time>2017-03-05T14:21:32Z</time>
      </trkpt>
      <trkpt lat="44.38015" lon="3.55199">
        <ele>549</ele>
        <time>2017-03-05T14:23:32Z</time>
      </trkpt>
      <trkpt lat="44.38008" lon="3.5519">
        <ele>547</ele>
        <time>2017-03-05T14:25:32Z</time>
      </trkpt>
      <trkpt lat="44.37997" lon="3.55172">
        <ele>542</ele>
        <time>2017-03-05T14:27:32Z</time>
      </trkpt>
      <trkpt lat="44.37985" lon="3.5515">
        <ele>543</ele>
        <time>2017-03-05T14:29:32Z</time>
      </trkpt>
      <trkpt lat="44.37976" lon="3.55134">
        <ele>544</ele>
        <time>2017-03-05T14:31:32Z</time>
      </trkpt>
      <trkpt lat="44.3797" lon="3.55122">
        <ele>544</ele>
        <time>2017-03-05T14:33:32Z</time>
      </trkpt>
      <trkpt lat="44.37965" lon="3.55111">
        <ele>543</ele>
        <time>2017-03-05T14:35:32Z</time>
      </trkpt>
      <trkpt lat="44.3796" lon="3.55099">
        <ele>542</ele>
        <time>2017-03-05T14:37:32Z</time>
      </trkpt>
      <trkpt lat="44.37951" lon="3.55086">
        <ele>540</ele>
        <time>2017-03-05T14:39:32Z</time>
      </trkpt>
      <trkpt lat="44.37938" lon="3.55071">
        <ele>540</ele>
        <time>2017-03-05T14:41:32Z</time>
      </trkpt>
      <trkpt lat="44.37925" lon="3.55063">
        <ele>540</ele>
        <time>2017-03-05T14:43:32Z</time>
      </trkpt>
      <trkpt lat="44.37909" lon="3.55058">
        <ele>539</ele>
        <time>2017-03-05T14:45:32Z</time>
      </trkpt>
      <trkpt lat="44.37895" lon="3.55055">
        <ele>538</ele>
        <time>2017-03-05T14:47:32Z</time>
      </trkpt>
      <trkpt lat="44.37883" lon="3.55054">
        <ele>537</ele>
        <time>2017-03-05T14:49:32Z</time>
      </trkpt>
      <trkpt lat="44.37869" lon="3.55056">
        <ele>536</ele>
        <time>2017-03-05T14:51:32Z</time>
      </trkpt>
      <trkpt lat="44.37852" lon="3.5506">
        <ele>534</ele>
        <time>2017-03-05T14:53:32Z</time>
      </trkpt>
      <trkpt lat="44.3784" lon="3.55062">
        <ele>532</ele>
        <time>2017-03-05T14:55:32Z</time>
      </trkpt>
      <trkpt lat="44.37837" lon="3.55062">
        <ele>532</ele>
        <time>2017-03-05T14:57:32Z</time>
      </trkpt>
      <trkpt lat="44.3783" lon="3.55059">
        <ele>532</ele>
        <time>2017-03-05T14:59:32Z</time>
      </trkpt>
      <trkpt lat="44.37826" lon="3.55055">
        <ele>532</ele>
        <time>2017-03-05T15:01:32Z</time>
      </trkpt>
      <trkpt lat="44.37815" lon="3.55042">
        <ele>532</ele>
        <time>2017-03-05T15:03:32Z</time>
      </trkpt>
      <trkpt lat="44.37807" lon="3.55035">
        <ele>531</ele>
        <time>2017-03-05T15:05:32Z</time>
      </trkpt>
      <trkpt lat="44.37801" lon="3.55031">
        <ele>530</ele>
        <time>2017-03-05T15:07:32Z</time>
      </trkpt>
      <trkpt lat="44.37797" lon="3.55029">
        <ele>530</ele>
        <time>2017-03-05T15:09:32Z</time>
      </trkpt>
      <trkpt lat="44.37789" lon="3.55027">
        <ele>529</ele>
        <time>2017-03-05T15:11:32Z</time>
      </trkpt>
      <trkpt lat="44.37785" lon="3.55026">
        <ele>528</ele>
        <time>2017-03-05T15:13:32Z</time>
      </trkpt>
      <trkpt lat="44.37779" lon="3.55024">
        <ele>527</ele>
        <time>2017-03-05T15:15:32Z</time>
      </trkpt>
      <trkpt lat="44.37767" lon="3.55018">
        <ele>525</ele>
        <time>2017-03-05T15:17:32Z</time>
      </trkpt>
      <trkpt lat="44.37762" lon="3.55013">
        <ele>523</ele>
        <time>2017-03-05T15:19:32Z</time>
      </trkpt>
      <trkpt lat="44.37757" lon="3.55005">
        <ele>521</ele>
        <time>2017-03-05T15:21:32Z</time>
      </trkpt>
      <trkpt lat="44.37752" lon="3.54994">
        <ele>520</ele>
        <time>2017-03-05T15:23:32Z</time>
      </trkpt>
      <trkpt lat="44.37746" lon="3.54983">
        <ele>520</ele>
        <time>2017-03-05T15:25:32Z</time>
      </trkpt>
      <trkpt lat="44.37741" lon="3.54975">
        <ele>520</ele>
        <time>2017-03-05T15:27:32Z</time>
      </trkpt>
      <trkpt lat="44.37734" lon="3.54963">
        <ele>519</ele>
        <time>2017-03-05T15:29:32Z</time>
      </trkpt>
      <trkpt lat="44.37729" lon="3.54955">
        <ele>519</ele>
        <time>2017-03-05T15:31:32Z</time>
      </trkpt>
      <trkpt lat="44.37729" lon="3.54955">
        <ele>519</ele>
        <time>2017-03-05T15:33:32Z</time>
      </trkpt>
      <trkpt lat="44.3773" lon="3.54952">
        <ele>519</ele>
        <time>2017-03-05T15:35:32Z</time>
      </trkpt>
      <trkpt lat="44.37731" lon="3.54945">
        <ele>520</ele>
        <time>2017-03-05T15:37:32Z</time>
      </trkpt>
      <trkpt lat="44.37731" lon="3.54944">
        <ele>520</ele>
        <time>2017-03-05T15:39:32Z</time>
      </trkpt>
      <trkpt lat="44.37731" lon="3.54944">
        <ele>520</ele>
        <time>2017-03-05T15:41:32Z</time>
      </trkpt>
      <trkpt lat="44.37718" lon="3.54934">
        <ele>518</ele>
        <time>2017-03-05T15:43:32Z</time>
      </trkpt>
      <trkpt lat="44.37715" lon="3.5493">
        <ele>518</ele>
        <time>2017-03-05T15:45:32Z</time>
      </trkpt>
      <trkpt lat="44.37714" lon="3.54928">
        <ele>518</ele>
        <time>2017-03-05T15:47:32Z</time>
      </trkpt>
      <trkpt lat="44.37714" lon="3.54925">
        <ele>518</ele>
        <time>2017-03-05T15:49:32Z</time>
      </trkpt>
      <trkpt lat="44.37714" lon="3.5492">
        <ele>518</ele>
        <time>2017-03-05T15:51:32Z</time>
      </trkpt>
      <trkpt lat="44.37712" lon="3.54909">
        <ele>518</ele>
        <time>2017-03-05T15:53:32Z</time>
      </trkpt>
      <trkpt lat="44.37701" lon="3.54864">
        <ele>517</ele>
        <time>2017-03-05T15:55:32Z</time>
      </trkpt>
      <trkpt lat="44.37693" lon="3.54828">
        <ele>516</ele>
        <time>2017-03-05T15:57:32Z</time>
      </trkpt>
      <trkpt lat="44.37688" lon="3.54811">
        <ele>516</ele>
        <time>2017-03-05T15:59:32Z</time>
      </trkpt>
      <trkpt lat="44.37683" lon="3.5479">
        <ele>515</ele>
        <time>2017-03-05T16:01:32Z</time>
      </trkpt>
      <trkpt lat="44.37675" lon="3.54755">
        <ele>515</ele>
        <time>2017-03-05T16:03:32Z</time>
      </trkpt>
      <trkpt lat="44.37668" lon="3.54722">
        <ele>515</ele>
        <time>2017-03-05T16:05:32Z</time>
      </trkpt>
      <trkpt lat="44.37665" lon="3.54713">
        <ele>515</ele>
        <time>2017-03-05T16:07:32Z</time>
      </trkpt>
      <trkpt lat="44.3766" lon="3.54699">
        <ele>515</ele>
        <time>2017-03-05T16:09:32Z</time>
      </trkpt>
      <trkpt lat="44.37648" lon="3.54668">
        <ele>515</ele>
        <time>2017-03-05T16:11:32Z</time>
      </trkpt>
      <trkpt lat="44.37635" lon="3.54637">
        <ele>514</ele>
        <time>2017-03-05T16:13:32Z</time>
      </trkpt>
      <trkpt lat="44.37621" lon="3.54605">
        <ele>513</ele>
        <time>2017-03-05T16:15:32Z</time>
      </trkpt>
      <trkpt lat="44.37613" lon="3.54589">
        <ele>513</ele>
        <time>2017-03-05T16:17:32Z</time>
      </trkpt>
      <trkpt lat="44.37608" lon="3.54578">
        <ele>513</ele>
        <time>2017-03-05T16:19:32Z</time>
      </trkpt>
      <trkpt lat="44.37598" lon="3.54554">
        <ele>513</ele>
        <time>2017-03-05T16:21:32Z</time>
      </trkpt>
      <trkpt lat="44.37585" lon="3.54526">
        <ele>513</ele>
        <time>2017-03-05T16:23:32Z</time>
      </trkpt>
      <trkpt lat="44.37571" lon="3.5449">
        <ele>514</ele>
        <time>2017-03-05T16:25:32Z</time>
      </trkpt>
      <trkpt lat="44.37557" lon="3.54458">
        <ele>514</ele>
        <time>2017-03-05T16:27:32Z</time>
      </trkpt>
      <trkpt lat="44.3754" lon="3.54416">
        <ele>513</ele>
        <time>2017-03-05T16:29:32Z</time>
      </trkpt>
      <trkpt lat="44.37527" lon="3.54387">
        <ele>513</ele>
        <time>2017-03-05T16:31:32Z</time>
      </trkpt>
      <trkpt lat="44.37514" lon="3.54357">
        <ele>512</ele>
        <time>2017-03-05T16:33:32Z</time>
      </trkpt>
      <trkpt lat="44.37503" lon="3.54332">
        <ele>511</ele>
        <time>2017-03-05T16:35:32Z</time>
      </trkpt>
      <trkpt lat="44.37495" lon="3.54311">
        <ele>514</ele>
        <time>2017-03-05T16:37:32Z</time>
      </trkpt>
      <trkpt lat="44.37485" lon="3.54287">
        <ele>517</ele>
        <time>2017-03-05T16:39:32Z</time>
      </trkpt>
      <trkpt lat="44.37466" lon="3.54251">
        <ele>518</ele>
        <time>2017-03-05T16:41:32Z</time>
      </trkpt>
      <trkpt lat="44.37446" lon="3.54218">
        <ele>522</ele>
        <time>2017-03-05T16:43:32Z</time>
      </trkpt>
      <trkpt lat="44.37429" lon="3.54192">
        <ele>521</ele>
        <time>2017-03-05T16:45:32Z</time>
      </trkpt>
      <trkpt lat="44.37415" lon="3.54173">
        <ele>519</ele>
        <time>2017-03-05T16:47:32Z</time>
      </trkpt>
      <trkpt lat="44.37403" lon="3.54159">
        <ele>521</ele>
        <time>2017-03-05T16:49:32Z</time>
      </trkpt>
      <trkpt lat="44.37394" lon="3.54148">
        <ele>524</ele>
        <time>2017-03-05T16:51:32Z</time>
      </trkpt>
      <trkpt lat="44.37384" lon="3.54136">
        <ele>526</ele>
        <time>2017-03-05T16:53:32Z</time>
      </trkpt>
      <trkpt lat="44.37376" lon="3.54125">
        <ele>527</ele>
        <time>2017-03-05T16:55:32Z</time>
      </trkpt>
      <trkpt lat="44.37367" lon="3.54113">
        <ele>528</ele>
        <time>2017-03-05T16:57:32Z</time>
      </trkpt>
      <trkpt lat="44.3736" lon="3.54104">
        <ele>528</ele>
        <time>2017-03-05T16:59:32Z</time>
      </trkpt>
      <trkpt lat="44.37353" lon="3.54097">
        <ele>528</ele>
        <time>2017-03-05T17:01:32Z</time>
      </trkpt>
      <trkpt lat="44.37348" lon="3.54093">
        <ele>527</ele>
        <time>2017-03-05T17:03:32Z</time>
      </trkpt>
      <trkpt lat="44.37346" lon="3.54091">
        <ele>527</ele>
        <time>2017-03-05T17:05:32Z</time>
      </trkpt>
      <trkpt lat="44.37345" lon="3.54088">
        <ele>527</ele>
        <time>2017-03-05T17:07:32Z</time>
      </trkpt>
      <trkpt lat="44.37344" lon="3.54085">
        <ele>527</ele>
        <time>2017-03-05T17:09:32Z</time>
      </trkpt>
      <trkpt lat="44.37343" lon="3.54079">
        <ele>529</ele>
        <time>2017-03-05T17:11:32Z</time>
      </trkpt>
      <trkpt lat="44.37343" lon="3.54079">
        <ele>529</ele>
        <time>2017-03-05T17:13:32Z</time>
      </trkpt>
      <trkpt lat="44.37324" lon="3.54065">
        <ele>530</ele>
        <time>2017-03-05T17:15:32Z</time>
      </trkpt>
      <trkpt lat="44.37284" lon="3.54034">
        <ele>532</ele>
        <time>2017-03-05T17:17:32Z</time>
      </trkpt>
      <trkpt lat="44.37249" lon="3.54007">
        <ele>528</ele>
        <time>2017-03-05T17:19:32Z</time>
      </trkpt>
      <trkpt lat="44.3722" lon="3.53985">
        <ele>529</ele>
        <time>2017-03-05T17:21:32Z</time>
      </trkpt>
      <trkpt lat="44.37199" lon="3.53971">
        <ele>529</ele>
        <time>2017-03-05T17:23:32Z</time>
      </trkpt>
      <trkpt lat="44.37173" lon="3.53958">
        <ele>527</ele>
        <time>2017-03-05T17:25:32Z</time>
      </trkpt>
      <trkpt lat="44.37163" lon="3.53953">
        <ele>526</ele>
        <time>2017-03-05T17:27:32Z</time>
      </trkpt>
      <trkpt lat="44.37136" lon="3.5394">
        <ele>526</ele>
        <time>2017-03-05T17:29:32Z</time>
      </trkpt>
      <trkpt lat="44.37108" lon="3.53925">
        <ele>525</ele>
        <time>2017-03-05T17:31:32Z</time>
      </trkpt>
      <trkpt lat="44.37098" lon="3.53918">
        <ele>525</ele>
        <time>2017-03-05T17:33:32Z</time>
      </trkpt>
      <trkpt lat="44.37091" lon="3.5391">
        <ele>525</ele>
        <time>2017-03-05T17:35:32Z</time>
      </trkpt>
      <trkpt lat="44.37086" lon="3.53901">
        <ele>525</ele>
        <time>2017-03-05T17:37:32Z</time>
      </trkpt>
      <trkpt lat="44.37082" lon="3.5389">
        <ele>525</ele>
        <time>2017-03-05T17:39:32Z</time>
      </trkpt>
      <trkpt lat="44.37079" lon="3.53882">
        <ele>526</ele>
        <time>2017-03-05T17:41:32Z</time>
      </trkpt>
      <trkpt lat="44.37074" lon="3.53863">
        <ele>527</ele>
        <time>2017-03-05T17:43:32Z</time>
      </trkpt>
      <trkpt lat="44.37073" lon="3.53859">
        <ele>527</ele>
        <time>2017-03-05T17:45:32Z</time>
      </trkpt>
      <trkpt lat="44.37066" lon="3.5384">
        <ele>528</ele>
        <time>2017-03-05T17:47:32Z</time>
      </trkpt>
      <trkpt lat="44.37064" lon="3.53834">
        <ele>529</ele>
        <time>2017-03-05T17:49:32Z</time>
      </trkpt>
      <trkpt lat="44.3706" lon="3.53824">
        <ele>528</ele>
        <time>2017-03-05T17:51:32Z</time>
      </trkpt>
      <trkpt lat="44.37053" lon="3.53811">
        <ele>528</ele>
        <time>2017-03-05T17:53:32Z</time>
      </trkpt>
      <trkpt lat="44.37046" lon="3.53801">
        <ele>527</ele>
        <time>2017-03-05T17:55:32Z</time>
      </trkpt>
      <trkpt lat="44.37036" lon="3.5379">
        <ele>527</ele>
        <time>2017-03-05T17:57:32Z</time>
      </trkpt>
      <trkpt lat="44.3703" lon="3.53779">
        <ele>527</ele>
        <time>2017-03-05T17:59:32Z</time>
      </trkpt>
      <trkpt lat="44.37028" lon="3.53775">
        <ele>527</ele>
        <time>2017-03-05T18:01:32Z</time>
      </trkpt>
      <trkpt lat="44.37027" lon="3.53772">
        <ele>527</ele>
        <time>2017-03-05T18:03:32Z</time>
      </trkpt>
      <trkpt lat="44.37026" lon="3.53764">
        <ele>527</ele>
        <time>2017-03-05T18:05:32Z</time>
      </trkpt>
      <trkpt lat="44.37026" lon="3.5376">
        <ele>527</ele>
        <time>2017-03-05T18:07:32Z</time>
      </trkpt>
      <trkpt lat="44.37026" lon="3.53756">
        <ele>527</ele>
        <time>2017-03-05T18:09:32Z</time>
      </trkpt>
      <trkpt lat="44.37028" lon="3.5375">
        <ele>527</ele>
        <time>2017-03-05T18:11:32Z</time>
      </trkpt>
      <trkpt lat="44.37032" lon="3.53737">
        <ele>527</ele>
        <time>2017-03-05T18:13:32Z</time>
      </trkpt>
      <trkpt lat="44.37036" lon="3.53723">
        <ele>527</ele>
        <time>2017-03-05T18:15:32Z</time>
      </trkpt>
    </trkseg>
  </trk>
</gpx>